GFSMW_sfc_wetblb_000.txt.gz
Wetbulb
59.84 60.52 61.36 61.92 62.31 62.96 62.60 63.27 62.28 62.31 61.49 60.80 58.30 56.90 55.88 57.08 57.57 57.59 57.87 57.41 57.68 57.03 56.26 55.62 55.83 55.07 54.38 54.36 54.50 53.76 52.62 53.12 54.15 53.90 53.60 53.60 54.54 55.16 55.12 54.61 53.88 53.12 53.17
56.96 58.32 59.69 61.38 62.14 61.72 61.32 60.77 60.14 59.18 58.09 57.45 57.31 57.03 56.70 56.36 56.45 57.18 56.55 57.16 56.08 55.63 54.40 54.37 53.77 53.51 52.55 52.07 52.70 53.06 51.33 50.83 51.66 50.50 50.21 46.77 49.01 51.37 53.01 54.36 54.66 54.16 54.15
55.16 56.60 57.93 58.79 59.44 59.03 58.78 57.60 56.88 56.31 56.43 57.41 56.12 55.47 55.37 54.45 53.84 53.88 54.09 54.70 54.98 54.71 54.02 53.45 53.52 52.73 51.41 49.84 50.04 50.45 49.42 48.07 48.76 49.26 47.33 43.98 42.98 46.79 49.70 50.64 52.68 52.63 53.98
54.78 55.66 56.76 56.84 57.03 57.10 57.77 56.90 56.80 55.98 55.80 55.80 54.97 53.64 52.39 52.15 54.13 54.62 53.90 53.92 53.50 53.12 52.38 51.93 51.76 51.20 50.67 49.23 49.61 50.00 49.06 47.82 45.69 47.10 49.19 46.09 44.18 41.77 41.93 46.65 48.62 50.23 51.25
54.79 54.73 55.39 56.05 56.66 57.31 57.46 57.47 56.48 55.96 55.64 54.58 53.92 53.12 53.66 53.00 52.99 52.24 51.94 51.49 51.80 51.26 51.03 50.18 48.92 49.45 48.77 48.78 49.00 47.83 47.33 47.24 45.22 44.16 42.99 42.03 41.94 41.94 38.87 38.54 39.91 43.13 45.29
54.39 54.80 55.84 56.42 56.04 57.05 56.90 56.37 55.32 54.91 55.20 54.67 54.46 52.79 51.24 50.75 49.99 50.01 49.10 47.87 47.97 48.07 48.92 49.25 48.44 48.61 48.08 47.28 47.35 47.23 45.77 43.52 43.29 43.58 42.64 40.57 40.24 39.11 38.00 36.90 37.19 37.35 40.70
54.65 54.67 54.55 54.57 55.22 55.75 56.10 55.87 55.46 54.56 55.00 53.73 52.67 52.28 51.59 51.20 49.75 48.31 46.80 45.94 45.60 46.02 46.10 47.42 47.07 46.67 46.65 47.01 47.16 46.16 45.43 42.82 41.26 40.94 41.11 40.88 39.39 39.41 39.07 37.31 36.29 35.75 38.24
54.41 54.09 54.57 54.95 55.03 55.83 55.92 55.95 54.68 53.73 54.06 53.96 52.76 52.66 51.42 49.21 48.47 47.37 45.92 45.34 45.31 45.47 46.32 46.63 46.50 45.94 44.92 44.23 44.18 42.72 43.05 42.16 42.35 42.11 41.70 39.94 39.15 39.92 39.29 38.19 36.08 33.27 34.70
53.22 53.59 54.91 54.75 55.11 55.13 55.25 55.12 54.49 54.10 54.05 54.01 52.40 50.33 49.21 48.87 47.71 46.23 46.34 45.87 46.14 46.14 45.52 44.91 44.18 44.58 43.89 43.21 42.06 40.73 40.18 40.17 40.25 40.56 39.92 38.75 38.93 39.87 39.85 39.06 39.04 36.08 32.29
53.16 53.81 53.56 54.41 54.63 54.61 54.78 55.43 54.18 52.71 51.94 50.08 48.58 47.93 47.78 48.62 47.74 47.20 46.01 45.96 45.37 44.80 44.30 44.13 43.59 43.13 42.88 42.60 41.26 39.86 40.42 39.86 39.30 39.86 39.71 38.98 39.53 39.45 39.30 38.80 38.73 38.20 35.80
52.25 52.92 52.94 53.29 53.60 53.66 53.68 53.28 51.76 50.84 49.94 49.25 47.92 47.94 47.49 47.11 46.82 46.04 44.75 44.23 43.70 43.28 42.40 42.35 41.96 41.34 40.92 40.48 40.45 39.11 38.96 38.10 36.95 37.89 38.62 38.42 38.62 38.11 38.08 38.05 37.12 35.65 35.04
51.45 51.82 51.79 51.35 51.20 51.11 51.03 50.75 50.33 49.80 49.05 48.09 47.94 46.62 46.75 46.06 44.92 44.55 43.24 42.75 41.91 42.30 41.42 40.97 40.23 40.04 39.62 39.53 38.85 38.20 38.45 37.44 36.69 36.97 36.82 36.74 38.31 36.50 36.19 36.29 35.63 35.05 35.18
50.59 50.78 50.64 50.31 49.88 49.44 49.28 48.63 49.15 49.52 49.02 48.61 47.02 46.21 45.15 43.74 43.06 42.37 42.20 41.82 41.09 40.77 39.69 38.56 37.27 36.69 36.46 36.16 35.68 35.34 35.51 34.59 33.47 33.60 33.56 34.40 34.40 32.91 33.12 33.67 33.19 34.15 35.37
49.49 49.37 49.17 48.66 47.99 47.47 47.26 47.81 47.45 48.62 48.29 47.75 46.27 44.88 44.01 42.26 41.21 41.36 40.58 39.99 39.94 38.34 37.47 37.13 37.11 36.85 36.30 36.13 34.93 34.48 32.91 32.09 32.17 32.15 31.82 32.46 33.18 33.06 32.62 32.50 31.24 32.13 29.74
48.02 47.64 47.21 47.12 46.50 46.00 46.26 46.16 46.26 47.51 47.55 46.39 45.30 44.66 43.78 42.39 41.92 40.71 39.78 39.41 38.54 37.53 37.13 36.32 36.11 35.78 35.44 32.91 31.09 30.91 30.15 29.40 29.39 29.79 30.84 31.82 33.68 36.09 33.53 32.77 29.80 28.60 27.19
45.89 46.07 46.32 45.32 45.16 44.89 44.18 44.20 44.52 45.28 47.43 45.43 44.56 45.15 44.18 42.40 40.94 40.15 39.42 38.17 37.19 36.39 35.95 35.26 35.09 34.00 35.14 30.45 29.96 28.86 26.95 28.43 27.69 26.87 28.19 29.93 32.73 33.04 34.41 34.54 33.63 30.88 26.34
44.71 44.37 44.52 44.56 43.77 42.73 42.90 42.38 43.06 44.36 44.99 44.27 44.40 44.07 41.44 40.41 40.37 39.89 38.89 36.88 35.23 35.05 34.59 34.42 34.22 33.22 32.08 30.34 29.91 28.61 26.95 26.21 25.99 26.24 27.11 28.56 31.43 31.56 31.39 31.40 31.37 31.10 32.29
43.70 44.01 43.59 43.37 43.22 43.24 42.60 42.35 42.23 42.00 42.07 42.40 43.27 42.61 41.69 40.29 40.29 39.03 37.98 36.51 34.87 34.06 33.45 33.62 33.47 31.99 32.39 32.73 31.68 28.66 25.74 25.50 25.50 26.07 26.04 26.52 27.09 28.70 29.34 27.84 26.55 27.05 27.81
44.01 43.22 43.46 43.08 42.61 41.72 41.74 41.15 40.80 40.89 41.03 40.73 41.34 41.02 40.70 39.59 38.73 37.43 36.74 35.21 34.00 33.43 33.46 33.59 32.08 30.49 30.24 32.63 31.40 28.91 25.20 25.43 24.70 26.11 26.57 27.47 26.74 28.79 30.21 27.24 26.02 25.89 26.90
43.22 42.85 42.64 42.20 41.05 40.96 40.76 39.88 39.39 39.22 39.00 39.80 40.17 39.48 39.48 38.99 37.76 37.27 35.87 34.57 34.09 33.71 33.11 31.33 31.09 31.88 29.16 31.96 30.80 28.52 24.54 23.03 24.14 25.74 26.58 27.86 28.02 27.99 28.25 27.19 26.95 25.16 26.82
42.63 42.72 41.73 40.26 40.25 40.55 40.19 38.62 38.36 37.64 40.44 40.38 39.75 39.23 38.84 37.95 37.87 36.67 34.92 33.53 32.76 31.17 30.71 30.02 29.88 29.99 29.90 28.84 29.80 28.53 25.28 24.01 23.98 23.41 23.77 25.92 28.98 27.68 26.97 26.62 24.94 24.49 25.95
41.33 41.24 39.96 39.50 40.07 40.33 39.52 38.14 37.36 39.49 40.06 39.83 38.78 38.47 38.21 37.92 37.21 34.68 33.20 32.86 31.50 30.41 28.32 26.17 27.40 28.04 27.80 29.77 28.60 27.11 26.13 25.55 23.66 23.03 25.44 25.42 27.32 26.75 26.44 25.97 26.40 26.55 25.32
40.40 40.86 39.61 39.08 39.84 40.26 39.67 37.78 38.33 38.91 38.27 37.99 37.19 37.08 37.06 36.86 35.79 32.67 31.32 30.70 30.27 27.87 26.75 26.02 24.47 24.72 25.94 25.42 26.51 25.07 24.82 24.58 23.47 24.27 24.95 26.17 26.28 25.90 25.90 27.11 26.54 25.34 24.44
39.82 39.99 39.12 38.52 38.42 39.49 39.52 38.87 38.81 38.44 36.99 35.51 35.36 35.44 34.71 33.82 34.18 34.04 32.35 30.11 28.42 26.68 26.39 24.40 22.41 22.37 22.72 22.14 22.05 22.55 22.70 23.32 23.24 22.75 23.09 25.03 24.30 24.05 24.87 25.63 25.63 25.90 26.26
39.78 39.35 38.69 37.94 37.92 38.62 38.67 38.60 37.60 37.00 35.11 34.62 34.42 32.87 32.43 32.90 32.58 32.98 29.75 29.25 27.87 26.46 24.20 23.07 22.16 17.95 17.21 20.17 23.02 22.62 22.08 22.14 22.52 21.86 22.79 21.51 20.42 20.77 22.81 22.56 23.38 24.34 23.95
38.57 38.17 38.23 37.97 37.94 38.34 37.63 37.49 36.76 35.74 33.20 31.72 31.87 32.10 31.68 31.67 31.38 30.81 29.81 29.30 27.91 27.05 25.96 24.21 21.31 19.78 23.00 23.67 23.67 23.60 23.82 23.91 23.36 21.75 19.63 18.40 18.97 19.26 20.70 20.76 20.82 21.60 22.56

GFSMW_sfc_wetblb_003.txt.gz
Wetbulb
55.07 56.94 57.06 56.35 56.72 58.20 57.36 56.47 55.90 53.77 54.49 52.79 52.30 51.60 50.28 50.86 50.91 51.59 53.05 52.85 52.44 52.95 51.56 50.94 51.62 50.77 49.91 49.20 49.54 49.95 49.52 49.52 50.01 48.00 49.39 49.39 50.98 50.62 51.43 52.86 52.07 51.36 52.01
54.01 54.93 54.52 53.90 53.89 53.94 53.29 53.09 52.98 52.56 52.60 52.20 51.55 51.30 50.69 50.88 50.65 51.06 51.57 52.73 52.23 51.51 51.48 50.06 50.09 49.40 48.77 47.71 47.28 47.23 47.18 46.64 47.64 45.63 45.55 43.12 46.17 47.50 49.54 49.72 51.30 49.98 52.41
51.58 53.12 53.23 51.71 52.00 51.23 51.02 51.40 51.06 51.09 51.41 51.63 50.48 49.85 49.09 49.11 49.65 50.84 50.96 51.49 51.84 50.56 49.57 48.90 48.29 47.69 47.93 46.43 45.97 46.69 45.57 44.50 45.55 45.80 44.54 41.00 39.34 42.16 45.65 46.82 46.12 45.24 47.16
52.19 52.84 51.98 50.50 50.78 50.26 50.40 50.74 51.11 50.89 51.33 50.23 48.95 47.82 47.71 48.16 49.63 49.04 48.83 49.72 48.98 48.46 48.97 47.80 46.68 46.87 46.38 45.67 45.93 47.78 45.05 44.87 43.24 44.51 45.76 43.20 41.15 38.02 36.83 41.34 43.29 43.01 43.29
49.69 50.07 50.54 51.20 50.84 50.59 49.68 49.53 50.26 50.63 50.70 49.12 48.55 48.47 47.21 47.28 47.67 47.61 45.72 45.05 45.69 46.42 46.93 46.65 45.27 45.58 45.53 44.40 44.33 44.30 43.42 43.40 42.36 42.05 41.33 40.19 39.51 41.97 39.18 35.15 36.81 40.04 40.99
49.14 50.15 51.14 51.57 50.34 49.70 49.40 49.31 49.10 49.62 49.74 49.10 48.57 48.28 46.11 45.67 45.27 43.57 42.65 42.99 43.38 44.56 44.91 45.74 44.57 44.93 43.94 43.41 42.99 43.57 42.21 41.35 42.84 43.40 42.60 41.69 39.33 36.75 35.43 34.33 35.54 35.64 37.56
48.75 48.96 49.57 49.15 49.35 48.40 48.97 49.07 49.84 49.75 49.18 48.42 47.48 46.53 45.73 44.31 42.78 41.78 41.13 41.62 42.56 42.66 43.26 43.35 42.79 42.33 42.24 42.38 41.83 41.04 40.64 40.34 38.92 38.47 38.46 38.58 37.97 38.48 37.85 36.51 36.06 34.44 35.58
48.82 48.30 49.14 48.62 49.20 49.76 49.72 49.69 50.17 50.26 50.43 48.23 46.45 45.37 45.13 43.99 43.29 43.92 43.41 43.22 42.09 41.88 43.14 42.21 42.13 42.02 41.83 40.82 39.96 39.22 39.24 40.16 38.98 38.84 39.15 38.65 39.36 37.54 36.96 36.14 34.55 33.80 34.99
47.68 48.48 50.65 51.53 51.18 51.08 49.96 49.29 49.53 49.11 46.53 45.95 44.66 44.74 46.27 46.14 44.71 44.50 42.87 41.75 42.41 44.01 42.06 41.89 41.23 40.98 40.63 40.52 39.91 38.01 37.76 38.54 37.67 37.42 37.80 38.24 38.41 36.98 37.26 38.11 38.99 36.22 31.09
48.28 48.72 49.42 48.87 48.16 48.10 48.58 48.21 47.65 46.62 45.63 43.99 45.73 47.12 46.77 46.32 45.86 42.54 41.62 41.37 41.07 41.41 40.77 39.97 39.55 39.22 38.96 39.20 38.28 37.14 36.65 36.30 35.69 37.03 36.83 36.71 37.82 39.84 39.14 38.05 37.08 36.35 34.47
46.03 46.78 46.73 47.16 47.37 46.98 46.85 46.56 46.77 46.54 44.67 45.94 46.74 45.70 45.35 43.44 42.70 41.43 40.14 39.95 39.78 39.48 39.78 39.05 38.34 37.84 37.47 37.37 37.30 36.22 36.34 35.89 35.50 35.89 36.08 35.96 37.13 36.58 37.94 37.83 36.83 35.74 34.79
45.66 45.96 46.37 46.17 45.11 44.41 44.61 44.25 44.75 44.87 44.67 45.10 44.47 43.24 43.10 42.54 40.87 39.90 39.00 38.80 38.62 38.74 38.40 37.46 35.93 35.32 34.76 33.95 34.56 35.21 35.77 34.17 32.58 31.64 31.33 31.47 33.89 32.02 33.95 35.48 35.53 34.56 34.80
45.74 45.35 45.21 44.92 43.88 43.49 43.73 43.35 43.41 44.40 45.00 44.78 43.64 42.60 43.66 40.78 38.58 37.93 37.86 37.60 37.19 36.31 35.56 35.06 34.20 33.99 33.86 32.87 32.29 32.00 31.24 30.51 30.06 29.82 29.29 29.19 29.35 28.72 30.27 31.05 30.45 30.85 32.24
44.68 44.14 43.80 43.23 42.96 42.31 41.85 41.14 41.30 41.71 43.18 44.63 43.70 43.47 43.11 41.83 38.13 38.93 38.11 37.29 36.96 34.87 33.75 33.89 34.07 33.97 33.33 32.36 31.27 30.56 28.52 27.78 28.41 28.86 28.66 28.67 28.48 28.49 29.11 30.63 30.08 30.82 26.60
43.43 43.04 42.46 41.21 40.59 39.63 38.76 38.81 39.19 40.14 40.63 42.41 42.97 42.38 42.14 40.22 39.75 38.64 38.49 38.14 36.63 34.43 33.49 33.25 33.05 32.73 32.12 31.16 27.84 27.67 26.22 25.89 25.88 26.63 27.55 27.96 29.66 32.69 33.12 31.30 29.40 27.11 25.36
42.18 42.13 42.36 41.27 39.65 38.64 38.34 38.69 38.25 38.45 39.52 38.79 39.32 41.70 40.91 40.33 39.97 39.92 38.66 37.35 34.90 32.61 32.04 32.12 32.07 30.81 31.82 29.76 29.49 26.84 24.48 25.48 25.04 23.73 25.02 26.14 29.23 30.03 32.06 31.84 31.44 30.83 26.06
40.98 41.26 41.21 39.33 38.78 37.76 38.03 36.17 36.81 37.93 38.17 38.32 39.50 40.50 40.04 39.46 39.84 40.09 38.40 34.84 33.09 30.90 30.70 30.73 30.93 29.64 26.86 29.72 28.96 29.01 25.35 24.13 23.50 23.16 24.10 25.04 27.61 27.91 28.53 29.55 30.10 29.03 30.01
41.13 41.02 38.71 37.81 37.40 36.48 36.13 36.31 36.58 37.03 36.95 37.01 38.38 39.06 38.51 38.57 39.89 39.82 35.98 33.72 32.32 30.23 29.02 29.00 29.27 28.71 29.77 31.41 31.51 28.36 24.66 24.30 24.94 25.58 25.51 25.23 25.91 27.41 27.37 26.16 25.52 25.77 26.22
40.07 38.06 37.60 37.16 35.28 35.22 35.62 35.68 35.43 35.41 35.79 37.10 36.96 37.00 37.24 37.67 37.02 36.23 34.80 33.80 30.24 28.50 28.96 29.56 28.71 27.73 27.97 32.03 30.84 29.12 24.86 25.49 24.98 26.11 25.98 25.68 25.21 27.33 29.12 26.56 25.63 25.65 26.16
38.80 37.50 36.89 36.01 34.85 34.96 35.46 34.90 34.25 34.31 35.40 37.17 36.86 37.28 36.62 36.79 36.46 36.24 34.10 30.55 29.73 29.67 29.47 28.82 28.41 30.19 27.06 31.14 30.20 28.79 23.22 20.91 23.06 24.15 24.91 26.08 26.20 28.98 28.17 25.29 22.99 21.65 22.44
37.79 38.48 36.13 34.83 34.72 35.56 35.57 34.24 34.01 33.60 36.27 37.55 37.37 37.27 36.90 36.09 35.28 34.70 31.64 29.42 27.89 28.29 26.30 26.79 26.48 27.24 27.48 26.40 28.46 27.25 22.76 22.73 23.10 22.22 22.76 24.68 26.24 27.30 27.39 27.07 24.81 23.26 24.75
37.09 37.16 35.27 34.70 35.65 35.79 35.17 33.91 32.90 35.20 36.10 35.69 35.89 35.22 35.16 35.53 34.94 30.72 29.74 29.02 26.81 26.21 23.84 19.63 19.70 22.38 23.67 27.21 25.73 25.62 24.94 24.46 21.40 21.80 23.08 23.88 27.28 26.01 26.04 25.98 27.36 26.08 25.44
35.29 35.98 34.36 34.98 35.19 35.29 35.20 33.45 34.13 35.07 34.51 33.62 32.85 32.73 33.59 33.57 32.88 30.78 28.13 26.47 25.36 22.41 22.22 22.82 16.33 19.50 22.09 19.73 24.48 24.29 24.64 24.35 22.01 22.85 23.98 25.66 24.72 24.76 24.83 26.04 26.05 24.80 25.22
33.70 34.70 34.64 33.70 33.71 35.16 35.62 34.67 34.53 34.43 33.29 31.69 31.67 31.35 30.26 31.06 31.00 30.17 27.83 25.85 20.93 19.93 23.56 21.14 18.20 16.35 17.94 16.54 18.30 20.13 20.25 23.43 23.12 22.32 22.60 23.25 23.35 22.72 24.04 23.30 23.95 24.18 23.17
33.91 34.13 33.43 33.95 34.57 34.94 34.53 34.76 34.22 33.40 32.18 31.66 31.23 29.47 28.37 28.62 28.84 28.33 26.20 25.72 24.47 23.92 19.98 18.31 18.54 7.75 6.35 15.30 23.72 23.38 21.98 22.20 23.22 21.75 19.57 20.11 19.77 19.58 20.95 21.00 21.44 21.92 22.54
33.90 34.27 34.57 34.52 34.95 34.42 33.85 34.54 34.72 32.36 30.08 29.34 27.83 26.64 26.70 25.66 27.91 27.58 26.08 29.64 28.65 28.17 27.35 25.86 18.54 13.01 21.22 24.36 25.37 24.90 24.69 24.58 23.43 20.04 18.42 17.07 16.84 16.91 18.10 17.77 18.53 19.68 20.80

GFSMW_sfc_wetblb_006.txt.gz
Wetbulb
51.85 53.08 53.64 53.78 53.66 53.21 53.29 52.76 53.08 54.80 52.59 51.43 51.49 51.22 49.03 49.23 49.33 49.87 51.25 51.47 51.76 51.41 49.75 48.89 49.05 48.56 47.51 46.57 46.44 46.08 46.02 45.97 46.10 44.48 45.73 44.95 45.99 46.67 46.81 48.24 47.51 48.32 47.92
50.53 51.32 51.46 51.41 50.50 50.53 51.99 52.19 51.16 50.97 51.57 52.34 51.33 50.29 48.65 48.48 49.51 52.61 51.88 50.89 49.91 49.35 48.96 46.91 46.17 46.85 46.08 45.12 44.82 45.29 44.33 44.79 45.12 43.00 42.73 39.83 43.51 42.75 45.24 45.41 45.06 44.41 45.64
49.45 50.33 50.51 48.69 48.26 48.27 49.12 49.37 49.16 49.45 50.38 50.09 49.11 48.63 48.68 49.25 49.59 48.54 47.85 48.04 47.47 47.33 46.45 45.61 45.43 45.38 45.15 43.91 43.60 43.89 43.37 42.39 43.40 43.75 42.34 38.67 36.78 39.30 42.49 42.29 40.92 40.74 41.48
50.49 50.35 49.03 48.12 48.20 47.34 47.44 48.19 49.07 48.83 49.03 49.13 47.90 48.39 47.44 46.29 47.27 46.50 44.92 44.09 45.15 45.53 45.76 45.14 44.65 44.64 44.55 42.99 43.22 45.01 42.70 42.34 40.76 42.41 44.00 41.40 40.04 38.07 36.61 38.50 40.76 40.07 40.59
48.93 48.55 48.67 48.91 48.43 47.92 47.57 47.80 48.72 48.82 48.39 48.00 47.56 47.14 45.87 45.01 45.30 43.85 42.22 42.28 43.46 44.46 44.24 44.66 45.15 44.42 43.37 42.75 41.86 42.35 41.26 41.41 40.48 40.18 40.18 39.54 39.14 40.98 36.12 33.24 35.07 37.92 38.54
47.58 48.59 49.19 49.47 48.50 47.80 47.47 46.77 47.53 48.43 48.43 47.49 46.89 47.21 44.59 43.77 42.20 40.93 40.41 41.05 42.10 42.68 43.18 43.75 41.68 40.92 41.16 40.46 40.30 39.40 39.64 38.77 38.65 38.30 38.36 38.01 36.62 35.52 34.97 34.76 34.72 34.35 35.89
47.14 47.80 48.06 48.01 48.06 47.99 47.86 47.76 48.13 48.57 48.28 47.11 45.07 44.21 42.83 41.73 40.63 40.91 42.46 42.33 43.39 42.43 42.13 41.42 40.78 40.14 40.16 39.85 39.29 38.44 38.92 39.27 38.67 38.22 37.83 38.38 37.25 37.28 36.42 35.79 35.50 33.65 35.33
47.21 47.15 47.16 46.93 46.95 47.73 47.62 47.52 46.37 44.62 45.42 44.54 43.71 43.78 43.54 44.29 44.38 44.17 40.89 42.78 42.27 41.41 41.13 40.66 40.26 39.93 39.76 38.98 38.26 37.16 36.80 37.16 36.41 35.11 35.58 36.07 36.09 36.09 35.56 36.62 35.03 32.43 33.76
45.06 46.12 46.44 46.61 47.00 46.93 46.06 47.23 46.40 44.88 44.25 44.42 44.11 44.18 45.56 45.47 45.12 45.45 43.21 42.79 40.69 41.88 39.85 39.67 38.94 38.44 38.21 37.97 37.69 35.90 35.41 34.60 34.34 34.32 34.50 34.78 35.73 35.87 36.95 38.60 36.13 32.51 28.77
45.12 45.57 45.76 45.50 45.48 46.05 47.15 47.75 46.82 44.80 43.62 43.79 45.29 46.91 45.96 45.00 43.89 41.59 40.08 39.25 39.20 39.72 39.04 37.77 37.04 37.09 36.85 36.69 36.59 35.22 34.87 34.31 34.10 34.96 34.00 34.03 35.08 35.69 36.45 36.86 37.06 34.90 32.86
43.90 44.46 44.49 44.50 44.10 44.27 43.68 44.00 43.72 44.59 43.68 43.49 43.66 42.80 42.40 42.00 41.29 39.69 40.19 39.04 39.01 39.91 39.61 37.87 36.63 35.53 34.51 34.33 33.37 33.77 34.41 34.22 32.91 31.86 30.67 30.36 30.65 30.12 30.55 31.67 33.12 34.25 34.78
44.53 44.01 43.43 42.91 42.17 41.71 41.58 40.75 41.79 42.64 42.86 42.90 43.03 42.58 42.19 41.39 40.03 38.91 38.15 38.53 38.47 38.10 37.54 37.78 35.67 33.70 33.04 32.09 31.41 31.90 31.79 29.91 28.99 28.59 28.14 28.04 30.01 27.47 27.91 28.24 28.48 29.82 31.10
42.66 42.38 42.07 41.27 40.85 39.92 39.33 37.99 37.92 37.76 38.71 39.94 41.08 41.75 42.08 41.35 38.53 38.00 37.58 36.95 36.14 37.12 36.85 35.53 33.85 32.61 32.54 31.94 31.01 30.18 29.37 27.80 27.39 27.19 26.85 26.73 26.80 25.53 26.23 26.87 27.78 28.70 30.89
41.41 40.95 40.66 39.74 38.43 37.48 36.85 36.58 36.99 37.04 37.16 37.29 37.51 37.31 38.36 40.55 37.28 36.28 36.80 39.00 39.25 39.32 35.78 33.63 33.61 33.47 32.48 31.67 30.08 28.82 26.72 26.44 26.78 27.48 26.83 26.00 25.30 24.84 25.48 27.02 27.38 28.37 26.80
40.89 41.16 40.08 38.24 36.01 36.25 35.88 36.17 36.04 36.62 37.10 36.41 35.86 37.28 39.29 38.24 38.00 38.91 38.90 39.24 39.21 39.09 34.95 33.13 32.69 31.42 31.48 30.12 27.33 27.21 26.42 25.67 25.98 26.24 25.84 25.76 26.99 29.28 29.30 28.67 29.55 27.64 25.53
40.35 39.98 39.76 36.88 36.99 36.09 34.77 35.56 35.63 36.05 36.52 35.52 36.83 39.25 39.48 39.28 38.32 37.97 37.95 37.62 37.69 33.72 33.05 31.96 31.02 29.73 31.12 30.78 30.39 28.16 25.13 25.53 24.73 23.21 24.19 24.69 26.65 26.90 28.61 29.28 29.93 29.32 26.74
39.44 39.27 38.15 36.90 35.62 34.48 35.13 34.11 34.80 35.82 35.62 35.29 37.31 37.57 38.79 37.94 37.85 38.24 37.96 37.21 33.55 34.49 30.87 29.71 29.26 27.72 27.43 30.85 31.18 30.26 25.97 24.30 23.32 23.30 23.57 24.47 26.18 26.90 26.84 28.05 28.78 28.09 29.18
39.50 38.49 36.13 35.46 34.68 34.21 34.15 34.66 34.73 34.45 34.42 35.73 36.09 36.65 36.33 36.02 36.41 36.54 35.82 35.33 34.03 31.49 28.79 27.74 28.27 27.79 28.83 31.39 31.70 29.53 26.24 24.43 24.83 25.09 24.41 23.78 24.14 25.06 25.34 25.34 26.67 26.58 26.53
37.87 36.71 35.90 35.37 33.78 33.72 34.08 33.98 33.65 33.64 33.71 35.41 35.25 35.67 35.80 35.22 34.74 35.19 34.72 35.15 31.82 27.40 28.41 28.61 27.80 26.90 27.25 31.05 30.43 28.87 24.41 24.12 23.23 24.64 24.88 24.52 24.03 26.35 28.59 26.62 24.06 23.64 24.78
37.21 36.24 35.05 34.15 33.02 33.98 33.90 33.41 32.84 32.82 32.82 35.14 35.39 35.86 35.78 35.35 34.79 34.10 33.07 31.75 28.29 29.09 28.82 27.33 26.85 28.51 25.07 28.92 28.14 26.27 21.00 17.81 21.40 23.04 23.78 24.92 24.80 26.29 27.64 26.40 24.66 21.79 22.69
36.54 36.14 34.29 33.14 33.68 33.79 33.80 32.88 32.52 32.22 33.84 35.20 35.04 35.11 34.74 33.87 33.64 32.52 30.00 28.59 28.06 28.05 25.57 25.10 25.18 25.33 25.26 24.74 26.68 26.13 21.29 20.42 21.43 20.82 21.70 22.94 25.75 26.46 26.17 26.47 24.39 24.38 25.75
34.09 34.39 33.49 33.01 33.47 33.93 33.71 32.35 31.39 33.43 34.07 33.63 33.04 32.56 32.15 32.25 32.39 29.94 28.82 28.24 27.19 24.92 22.07 16.17 18.36 20.57 21.40 25.04 24.43 24.96 24.66 24.57 17.19 20.55 22.23 23.30 25.19 25.48 25.82 25.42 26.03 25.87 24.33
32.00 33.46 31.74 32.44 33.30 33.85 33.45 31.57 32.41 33.66 33.21 32.05 31.14 30.82 30.87 30.94 30.38 27.66 25.51 25.03 23.84 20.74 20.80 22.38 15.32 18.67 20.91 18.10 23.99 24.08 24.56 24.23 20.79 22.27 23.76 23.74 23.67 24.01 24.31 24.38 24.80 24.26 22.57
31.27 31.90 32.08 31.51 31.63 33.13 33.45 32.76 33.60 33.51 32.03 30.71 30.35 29.91 29.18 29.41 28.67 27.12 26.78 24.59 19.60 18.55 23.03 20.61 18.10 15.47 17.09 15.18 17.88 19.11 16.12 21.13 22.83 21.96 21.67 21.58 22.63 21.57 22.16 22.36 22.82 22.56 22.40
31.84 32.02 31.47 31.55 31.93 32.88 33.10 33.34 33.34 33.12 30.71 30.75 30.31 28.98 26.90 27.32 27.41 25.96 25.48 25.32 25.04 23.84 20.05 18.58 18.27 6.25 6.18 14.67 23.08 23.69 19.81 19.12 19.83 16.19 16.66 18.38 17.89 17.55 17.67 17.78 19.41 20.56 21.63
31.37 31.07 31.69 31.64 32.05 32.57 31.71 32.36 32.51 32.13 31.28 29.63 28.90 27.27 25.28 23.74 26.74 26.59 26.37 29.36 29.54 28.15 29.13 26.70 18.33 12.02 20.47 24.78 26.09 25.14 24.08 23.08 22.52 14.22 12.66 11.20 12.00 15.27 16.09 14.24 15.23 17.42 19.04

GFSMW_sfc_wetblb_012.txt.gz
Wetbulb
48.28 50.67 52.10 53.33 53.30 53.90 55.73 54.86 54.82 54.39 53.12 50.97 51.56 49.75 48.98 49.72 49.37 48.09 47.83 48.64 48.62 47.07 44.82 44.38 44.34 44.05 42.94 42.29 43.02 42.67 42.32 42.18 43.21 41.82 41.16 42.20 41.85 43.26 44.65 43.93 42.70 42.89 43.76
47.20 48.44 49.31 50.22 51.12 51.57 53.71 53.82 52.41 51.27 51.51 51.07 50.23 50.64 48.56 48.29 47.66 45.93 44.68 45.03 44.70 44.31 44.42 43.64 43.23 42.72 42.18 41.89 41.80 41.52 40.99 41.29 42.22 40.61 39.72 36.77 38.89 41.17 42.13 42.10 41.79 40.20 41.69
46.65 47.41 47.32 46.47 49.01 49.50 48.24 48.47 48.62 48.65 49.41 50.23 47.72 46.57 46.89 47.26 45.44 44.19 41.71 42.65 43.49 43.63 43.30 43.50 42.79 42.12 41.58 41.38 40.69 40.49 39.77 38.81 39.86 40.17 39.02 35.52 32.98 36.45 39.26 39.82 39.62 38.66 38.76
45.89 46.19 45.17 45.19 45.36 44.24 45.10 46.02 46.81 46.56 47.13 46.62 46.19 45.48 44.32 43.87 43.47 41.27 40.13 41.04 42.49 42.94 43.20 42.91 42.39 41.33 41.18 42.11 40.57 40.26 38.94 39.38 36.34 38.43 39.92 38.22 37.55 34.62 32.81 36.51 37.91 37.72 38.71
45.26 46.88 45.24 45.37 44.68 45.05 44.65 44.80 46.10 46.35 45.96 45.26 45.57 44.70 42.49 42.64 40.64 39.75 40.36 40.22 41.30 42.33 42.33 41.78 41.35 41.41 40.13 38.90 38.26 37.33 36.45 36.76 35.40 35.35 35.49 35.68 36.32 36.49 35.98 31.72 33.76 37.46 37.96
44.57 45.61 46.14 47.10 46.81 45.41 44.32 44.36 44.51 43.70 44.10 43.70 43.53 42.74 41.88 39.53 39.57 40.33 40.62 40.20 40.35 40.79 41.04 41.79 39.81 39.30 38.65 37.93 37.12 36.62 35.59 35.06 34.72 35.14 34.83 34.64 33.65 32.37 32.80 31.44 31.62 31.96 34.74
44.19 44.78 45.27 45.90 44.37 43.21 43.41 43.81 42.64 42.14 42.74 42.49 41.86 41.47 40.79 40.12 40.91 41.17 41.02 41.06 40.86 40.76 40.33 39.26 38.75 38.06 38.44 39.85 38.48 35.49 34.73 33.97 32.48 32.44 32.62 34.16 33.38 34.07 33.99 32.77 30.65 30.22 30.34
45.83 45.06 43.46 42.05 41.74 41.66 41.24 41.71 41.87 41.92 42.51 42.42 41.82 41.70 41.21 40.92 41.59 41.72 41.60 41.12 40.22 39.70 38.98 38.62 37.85 37.82 39.04 39.09 39.05 37.40 34.23 34.42 33.33 32.09 31.58 31.91 32.79 33.38 33.10 32.00 29.74 26.45 27.41
42.10 42.61 42.95 42.62 42.56 42.81 42.47 41.56 41.94 42.22 42.25 41.80 41.40 41.51 41.99 41.61 41.37 41.22 40.95 40.01 39.41 40.02 38.50 37.73 39.13 38.22 39.86 38.42 36.48 34.33 33.53 34.01 33.51 32.67 32.45 31.69 32.50 31.62 30.60 31.85 30.26 28.08 22.97
42.03 42.32 41.72 41.46 41.35 41.64 41.77 42.83 42.20 39.50 38.76 38.14 39.38 39.59 38.81 39.03 38.92 38.78 38.46 38.69 37.98 38.54 39.93 39.67 39.21 39.24 37.77 36.72 36.20 35.10 33.02 32.64 32.26 32.75 31.51 29.33 29.65 28.80 29.06 27.96 28.31 28.26 25.41
41.06 40.68 40.39 40.30 40.12 41.11 40.47 40.42 38.27 37.78 36.60 36.79 37.41 36.86 36.95 37.36 37.66 37.53 37.88 36.99 36.94 38.15 38.38 38.78 36.70 35.12 35.39 34.19 32.19 31.30 30.68 30.76 31.39 29.42 28.45 28.03 27.91 27.16 27.07 27.11 26.40 25.55 25.70
40.49 40.06 39.89 40.13 38.65 37.71 38.30 36.57 36.50 36.71 36.58 36.22 35.84 35.49 36.26 36.73 36.58 36.70 36.57 36.07 36.25 36.56 36.08 35.98 37.51 37.04 34.05 31.74 29.92 29.69 29.91 29.97 28.27 27.70 27.20 27.03 28.54 25.66 25.31 24.76 24.13 24.38 25.23
39.64 39.28 39.07 39.40 37.63 36.49 35.99 36.73 36.98 36.23 34.78 34.24 33.55 34.81 35.60 35.90 35.64 35.04 35.12 35.04 34.24 34.45 36.50 38.36 37.40 34.77 32.32 30.73 30.97 29.25 29.34 27.60 27.10 27.03 26.53 26.29 25.90 24.23 23.74 23.62 23.73 24.58 26.32
39.24 38.48 37.91 37.58 35.34 36.37 37.19 36.40 35.16 34.36 34.19 33.83 33.53 34.43 34.86 35.81 35.38 35.05 34.32 34.16 34.87 36.51 38.09 36.55 35.42 32.43 31.35 31.15 29.80 28.42 27.06 26.61 27.05 27.27 26.67 25.94 25.32 24.37 23.71 24.55 24.12 25.22 24.34
38.25 38.26 37.75 35.45 36.47 36.74 35.43 34.07 33.73 34.08 34.29 33.52 33.28 34.25 35.18 35.48 35.84 35.82 35.86 35.88 35.75 37.92 38.00 34.10 31.37 30.58 30.85 30.18 27.97 27.62 26.73 26.07 25.78 26.04 26.46 26.44 27.50 29.67 28.08 25.73 24.52 24.19 24.40
38.92 39.93 39.11 38.08 36.74 34.97 33.79 33.20 33.23 33.46 33.72 33.16 32.94 34.70 35.08 35.14 34.94 35.23 34.92 35.26 35.34 34.82 34.23 31.51 30.28 28.83 29.68 32.06 31.93 30.49 27.55 26.48 26.00 25.74 25.48 25.66 26.38 26.17 27.15 26.96 27.29 26.79 24.40
39.49 39.35 39.67 38.32 36.10 34.33 33.14 32.10 32.62 32.95 32.84 32.65 33.31 34.34 34.38 34.16 34.00 33.91 33.67 33.95 33.19 32.32 33.00 29.86 27.63 26.92 27.49 32.03 32.06 30.97 27.73 25.63 24.51 23.49 22.78 22.99 24.54 24.81 24.47 25.61 26.69 27.06 28.25
39.08 38.69 37.94 36.56 34.24 32.55 32.12 32.14 31.80 31.86 31.75 32.07 32.37 33.55 33.55 33.05 33.07 32.86 32.70 31.97 32.21 31.68 30.10 27.05 27.00 27.23 29.98 30.89 30.32 29.10 24.64 23.29 23.22 23.16 22.48 22.16 22.39 24.14 24.66 25.31 26.21 25.41 26.52
37.99 38.03 36.62 34.11 32.29 31.69 31.68 30.97 30.90 30.96 31.12 31.39 31.24 32.18 32.86 32.27 32.19 31.58 30.63 29.97 29.92 29.13 27.67 27.92 27.32 27.38 25.85 29.08 28.14 26.30 23.05 22.77 22.26 23.01 23.22 22.99 22.84 25.03 27.59 25.19 23.98 23.80 24.66
37.40 35.84 33.65 31.89 30.93 30.72 30.83 30.83 30.71 30.58 30.27 31.20 31.36 32.49 32.16 31.54 30.29 29.17 28.93 29.34 26.58 27.58 27.83 27.21 26.13 26.58 24.20 26.83 26.59 25.45 20.45 16.86 20.43 22.46 22.91 23.52 23.91 25.90 26.26 25.03 22.83 21.42 23.16
33.22 32.86 32.14 31.09 30.76 31.48 31.46 29.94 29.50 29.49 30.79 31.19 31.61 31.65 31.33 30.20 29.20 28.37 27.48 26.55 25.96 26.47 24.34 25.20 24.48 24.65 24.57 22.88 25.60 25.95 19.25 19.54 21.53 21.09 21.04 22.50 24.68 25.24 25.27 25.25 23.22 23.75 24.19
31.70 31.74 31.07 30.84 31.09 30.82 30.37 29.38 28.79 30.57 31.05 31.34 30.84 30.78 30.21 30.18 30.40 27.55 25.99 26.39 25.27 23.69 21.51 16.38 18.98 21.19 21.23 24.00 24.02 25.70 25.01 24.27 14.88 19.48 20.93 21.13 24.19 23.66 23.07 22.60 23.98 23.98 22.51
30.80 31.20 30.65 30.65 30.96 30.62 29.97 29.02 30.19 30.65 30.32 30.06 29.95 29.91 29.66 29.87 29.04 26.88 24.76 24.04 23.00 19.30 20.10 22.52 16.60 18.56 21.40 19.31 23.29 24.44 24.83 23.71 15.77 18.46 20.50 22.37 21.99 21.47 21.12 21.01 21.62 21.46 20.61
31.12 30.60 29.88 28.91 29.37 30.05 30.34 30.36 30.17 30.03 29.81 29.65 29.49 29.37 28.91 29.49 28.83 27.08 26.56 24.00 19.13 18.74 22.23 20.75 19.77 16.07 17.02 15.70 16.78 18.35 15.51 18.22 19.27 15.87 14.82 15.64 19.59 16.22 17.73 18.33 17.81 17.73 18.92
30.37 30.02 29.42 28.79 29.06 29.63 30.06 29.93 29.24 29.21 29.03 29.92 30.17 29.72 28.48 29.71 28.41 26.41 25.44 25.14 25.11 24.20 21.31 20.39 18.93 10.78 6.37 14.53 19.55 21.66 15.55 10.54 15.42 8.52 6.23 9.58 12.31 14.31 15.75 16.01 15.69 15.23 15.06
29.61 29.29 29.44 28.98 29.10 29.09 28.41 28.58 28.96 28.74 28.48 30.74 30.91 30.68 30.24 31.06 27.91 26.42 26.03 28.87 29.56 29.71 30.25 29.52 21.21 13.77 21.18 24.49 26.18 26.85 24.99 23.39 21.41 10.16 3.91 -1.12 -1.85 6.30 13.37 13.89 13.67 13.05 11.32

GFSMW_sfc_wetblb_015.txt.gz
Wetbulb
53.59 56.24 57.75 59.47 59.67 60.15 60.25 60.14 59.31 57.52 56.85 55.49 56.17 55.86 56.34 55.07 53.12 52.60 52.43 52.21 51.57 51.42 51.78 51.36 51.15 51.08 50.22 50.51 50.36 50.03 47.78 47.31 48.11 46.10 45.30 46.20 49.49 49.84 49.96 48.78 48.63 47.62 47.31
53.05 54.42 56.31 58.22 59.60 59.56 59.02 58.96 58.01 56.67 57.33 57.86 57.29 57.54 55.83 54.35 51.68 50.77 50.71 50.40 50.61 50.45 50.37 50.82 50.60 50.75 50.28 49.90 49.16 47.96 46.48 46.85 47.57 43.21 42.80 40.27 42.96 46.54 47.52 46.79 46.74 46.26 46.22
53.11 53.42 54.60 56.93 57.66 58.16 56.87 55.59 55.59 56.01 55.83 55.55 54.57 54.06 54.13 53.23 51.80 50.04 49.23 48.98 49.86 50.01 50.69 50.68 51.35 50.55 49.42 48.63 47.39 46.81 45.78 43.79 45.33 46.01 41.93 38.00 37.02 40.14 44.28 44.12 44.74 45.45 44.88
52.59 52.35 51.53 51.50 52.28 51.85 53.25 53.58 53.23 52.69 52.21 52.59 52.94 52.62 52.30 51.62 49.75 48.56 49.08 50.26 49.72 50.33 50.03 49.73 49.44 48.72 48.31 47.01 46.32 45.53 44.39 42.96 39.95 41.78 43.91 42.26 40.74 35.61 34.38 40.68 42.14 42.84 41.61
50.68 49.62 49.58 49.66 50.09 50.90 51.70 51.60 51.34 51.07 50.98 51.90 52.31 51.46 50.02 49.16 48.79 49.49 49.04 48.77 49.28 48.69 48.00 47.82 48.06 47.63 46.69 45.75 44.96 43.91 42.13 42.02 39.99 39.21 38.73 38.58 38.58 38.66 35.91 31.50 35.27 38.62 40.09
49.74 49.58 50.40 50.83 49.88 50.41 50.57 50.43 49.89 49.52 50.67 51.04 51.22 50.89 49.52 48.15 48.77 49.08 48.84 49.12 49.10 49.28 48.57 47.08 47.01 46.41 45.49 44.44 43.76 42.77 41.36 41.10 40.82 40.20 38.74 36.56 34.76 34.10 34.24 32.90 33.46 33.49 36.08
49.60 49.31 49.76 49.73 49.51 49.48 49.26 49.07 48.97 47.74 48.62 48.58 48.23 48.20 47.75 47.75 47.67 48.12 48.19 48.07 48.10 48.55 48.51 46.64 45.66 44.60 43.57 43.39 42.55 41.41 40.23 40.57 39.53 38.82 37.87 38.73 37.53 37.74 36.40 34.52 32.87 32.39 34.73
49.52 49.59 48.89 47.90 47.51 47.81 48.05 48.27 48.21 47.64 48.31 48.33 48.08 48.82 48.86 48.08 47.11 46.30 45.70 45.56 45.83 46.42 47.23 46.13 44.60 43.77 43.37 42.36 42.04 42.01 41.53 40.96 40.28 39.36 39.20 38.21 38.53 38.89 38.29 35.82 33.37 30.60 31.54
49.02 48.43 47.24 47.30 47.07 47.26 47.49 48.00 47.20 45.80 44.99 45.89 45.86 45.15 44.96 44.38 44.02 44.53 44.87 44.58 45.39 45.05 45.68 44.88 43.67 44.42 43.50 42.51 42.70 41.49 41.05 40.52 40.34 40.02 39.52 38.84 38.76 38.97 37.89 36.14 34.91 31.29 26.90
47.63 47.19 46.96 46.55 47.40 47.94 47.80 46.76 44.97 43.42 43.54 44.02 43.94 43.04 43.24 43.51 43.71 43.57 42.63 43.17 44.29 44.68 44.87 43.93 44.06 43.61 43.18 42.60 41.78 40.69 40.72 39.51 39.41 38.69 38.59 38.49 37.30 36.28 36.06 35.15 34.21 32.79 29.61
46.93 46.14 45.23 45.83 46.10 46.74 45.38 43.26 41.05 43.02 42.43 42.55 42.52 42.69 42.75 43.11 43.25 42.74 42.70 42.70 43.59 43.93 43.67 43.82 43.12 42.50 41.14 40.60 40.14 40.02 38.87 37.17 37.64 38.37 36.86 35.63 35.49 34.47 34.36 33.91 32.68 31.11 30.27
45.83 44.87 44.73 43.94 43.59 42.88 42.09 39.99 42.84 42.54 42.16 41.56 41.59 41.80 42.32 42.57 42.14 41.88 42.10 42.80 42.04 42.40 41.74 41.77 40.75 41.25 41.40 40.39 38.66 37.78 37.07 36.36 36.18 35.81 34.84 33.77 33.78 33.27 33.30 32.39 30.74 30.10 30.33
44.06 43.85 43.30 41.97 40.54 39.72 40.77 42.08 41.23 40.87 40.51 40.23 40.73 41.23 41.24 41.45 41.51 41.51 41.91 42.03 41.42 41.22 41.25 40.75 40.22 39.48 40.63 38.79 37.27 36.24 35.83 35.55 34.85 33.90 33.16 32.90 32.28 31.51 31.77 30.84 29.71 29.16 28.86
43.13 43.66 43.12 42.10 40.34 40.59 41.44 40.03 41.28 40.86 40.29 40.04 40.16 40.10 40.93 41.24 41.26 41.35 41.46 41.22 41.44 41.21 41.69 40.76 39.06 38.79 37.06 36.45 35.89 35.27 34.83 33.68 33.13 32.98 32.54 31.99 31.20 30.23 29.83 28.63 28.45 27.69 26.68
42.35 42.46 42.26 41.38 40.44 39.72 39.94 41.56 40.70 40.17 40.34 39.67 39.53 39.87 40.70 40.98 40.95 40.79 40.63 40.56 40.77 40.95 41.68 40.47 37.35 37.01 35.83 34.55 34.91 34.04 33.40 32.79 32.43 32.15 30.95 30.35 29.53 28.57 28.34 27.60 27.01 26.41 25.24
42.57 42.60 42.55 41.56 39.12 40.75 41.68 40.27 39.42 39.39 39.62 39.19 38.95 39.44 39.55 40.03 40.31 40.08 39.52 39.44 39.83 39.78 39.82 37.89 37.12 35.94 33.69 32.77 32.93 33.16 32.78 31.63 30.08 28.07 28.48 28.29 27.21 27.35 26.80 26.51 26.86 26.96 25.75
42.91 42.55 42.36 42.86 41.98 41.85 40.27 39.58 39.11 38.77 38.20 37.97 38.22 38.37 38.47 38.75 39.21 38.75 38.32 38.06 38.11 38.20 38.55 37.90 35.22 33.44 33.91 32.41 31.70 30.05 30.75 29.08 28.18 27.34 26.55 26.30 26.76 26.55 26.89 26.69 27.15 27.99 27.90
43.08 42.52 42.58 42.89 42.92 40.67 39.24 38.48 37.66 37.11 36.80 36.90 37.18 37.72 37.67 37.62 38.19 37.74 37.00 36.95 37.03 37.10 37.54 35.08 33.27 33.31 32.00 30.60 28.99 27.90 29.35 28.19 27.50 26.65 26.49 26.11 25.97 26.79 25.85 27.33 26.68 26.56 26.83
43.93 42.76 43.21 41.83 39.02 38.39 37.32 36.77 36.63 36.11 36.03 36.16 36.57 36.78 36.91 36.98 36.99 36.40 36.04 36.00 35.80 35.32 34.44 33.93 32.77 31.84 30.92 28.59 27.50 27.83 27.94 26.71 26.05 26.40 26.75 26.25 25.63 25.64 27.15 26.03 25.22 24.58 25.39
42.70 41.07 38.41 37.16 36.90 35.91 36.69 36.49 35.35 35.00 35.29 35.82 35.87 36.21 37.06 36.23 35.98 36.00 35.24 35.41 35.21 33.25 33.69 32.08 31.66 28.20 29.20 26.82 26.63 27.30 27.76 25.82 25.69 26.26 25.97 24.79 24.94 25.29 25.75 24.86 24.05 22.06 24.09
36.85 35.61 36.52 36.15 35.77 36.02 35.94 34.73 34.75 34.53 35.33 35.46 35.59 36.21 36.49 35.86 36.04 35.32 35.17 34.42 33.62 32.44 31.76 30.01 29.89 28.95 28.30 27.80 25.59 26.19 27.50 26.21 25.17 24.21 24.18 25.37 24.30 24.79 24.36 23.70 23.83 23.52 24.56
35.60 35.96 35.52 35.15 35.36 35.44 35.04 34.28 34.02 35.14 34.97 34.91 34.99 35.16 35.17 34.79 34.37 34.38 34.48 32.98 32.42 31.30 29.84 29.26 29.06 29.22 28.14 25.21 25.46 25.84 25.94 25.57 24.94 23.65 23.99 24.51 23.60 23.02 22.54 22.51 22.40 22.17 23.03
34.41 35.75 35.32 34.08 34.44 34.70 34.84 33.69 34.62 34.40 33.92 33.90 34.23 34.44 34.79 34.26 34.65 34.05 33.31 32.01 31.18 30.42 29.56 28.78 29.58 29.41 28.92 28.60 24.88 25.05 25.57 25.29 24.65 25.11 23.37 22.23 22.05 21.28 21.47 20.94 20.62 20.38 22.03
34.46 34.39 33.61 32.89 32.87 33.89 33.46 34.08 34.00 33.53 33.02 32.82 33.53 34.38 33.53 32.72 34.42 34.04 32.50 31.40 30.61 30.09 29.79 30.17 29.26 29.61 28.71 28.46 28.00 27.01 28.07 24.89 24.68 23.33 23.08 20.52 20.40 19.63 19.84 21.00 21.15 20.67 19.83
32.82 33.59 33.08 32.72 32.71 33.18 33.10 33.77 33.25 32.82 32.35 32.98 32.83 32.28 32.27 31.32 31.79 33.52 32.39 30.96 31.83 31.64 31.11 30.48 29.94 29.71 29.15 28.99 27.50 26.48 27.89 27.00 24.36 21.45 22.44 21.25 20.24 19.93 20.00 20.28 19.71 19.28 18.50
33.00 32.63 32.58 32.52 32.38 32.56 32.39 32.46 32.50 32.52 32.20 31.78 33.09 32.72 32.81 32.05 32.55 32.39 31.94 30.53 30.53 29.97 30.35 30.49 29.65 31.30 27.95 25.91 26.26 27.09 27.17 25.12 22.53 22.46 20.98 19.70 18.85 18.49 18.49 18.57 18.40 18.75 16.64

GFSMW_sfc_wetblb_018.txt.gz
Wetbulb
59.82 61.60 62.76 63.81 64.49 65.29 65.15 64.94 63.55 63.54 63.23 62.13 60.71 59.61 59.50 59.55 58.41 57.82 56.76 56.26 55.97 55.47 55.34 55.33 55.38 55.00 54.06 53.72 53.61 53.05 52.21 51.07 51.72 48.92 48.52 48.88 49.92 50.88 51.19 50.95 50.56 50.80 50.07
59.45 60.60 62.33 63.30 63.85 64.20 64.43 64.14 63.56 63.01 62.70 62.42 62.11 62.35 60.86 58.92 57.18 56.70 55.48 55.06 54.45 54.31 54.20 54.61 54.16 54.18 53.09 53.11 52.72 51.53 49.52 49.65 50.36 46.82 46.16 43.28 45.69 48.06 49.44 48.87 48.50 48.80 48.93
58.92 60.00 61.33 63.05 63.64 62.72 63.58 63.28 62.54 61.63 61.63 61.05 60.27 59.27 58.88 57.33 56.95 56.14 55.94 54.17 54.42 54.10 53.81 53.76 53.42 52.94 52.28 50.78 51.25 50.28 48.43 46.73 48.04 47.15 44.49 41.22 39.86 42.08 45.35 46.50 46.05 46.97 46.64
60.00 60.47 60.05 60.21 61.76 61.43 60.74 60.54 60.15 59.47 57.93 57.33 57.82 57.39 56.75 56.07 54.70 54.59 54.62 55.21 54.26 53.91 53.34 52.80 52.48 51.88 51.50 50.70 50.57 49.53 47.49 45.65 43.93 44.89 45.18 44.68 43.26 38.42 37.69 43.26 44.39 43.72 43.38
58.03 56.94 57.36 58.55 58.55 58.60 58.25 57.85 57.05 56.33 56.90 57.20 57.46 56.37 54.70 54.02 54.20 54.72 53.02 53.61 53.78 53.63 52.63 52.21 51.61 51.51 51.13 50.35 49.29 47.29 46.20 45.86 44.30 43.84 42.71 41.64 41.32 41.09 37.65 34.98 38.18 40.96 42.03
55.70 55.34 55.79 55.57 55.59 56.40 56.49 56.53 55.97 55.40 55.83 55.62 55.18 54.31 53.07 51.92 51.53 51.05 50.23 49.46 49.49 49.70 50.36 50.96 51.51 51.31 50.52 49.26 47.80 46.50 46.23 45.16 43.74 42.54 41.39 39.80 38.07 37.35 37.02 35.60 36.39 36.71 39.10
54.17 53.80 53.38 53.83 54.03 54.80 55.20 55.12 54.37 53.39 53.68 53.07 52.13 51.66 51.31 50.73 48.60 47.64 46.81 46.23 46.07 46.49 47.18 48.39 49.18 49.66 49.65 48.07 46.55 45.28 45.63 43.46 42.16 41.61 40.48 40.71 39.76 39.65 38.71 37.15 35.95 35.34 37.69
54.26 54.14 54.39 54.42 54.35 54.06 54.04 54.05 53.33 52.07 51.57 51.04 50.68 49.74 47.70 46.45 47.06 46.53 46.31 45.96 45.60 45.81 47.35 47.97 48.93 49.46 48.15 45.52 44.82 46.08 44.89 43.71 42.50 41.63 41.14 40.66 40.59 40.18 39.31 37.22 35.59 32.89 34.58
54.06 54.25 54.04 54.01 53.83 53.51 53.71 53.09 51.46 49.80 49.06 47.59 46.70 46.74 46.31 46.91 46.31 46.47 46.62 45.77 45.85 45.18 46.42 48.15 48.25 47.86 47.11 46.25 45.12 45.11 43.81 43.54 42.75 41.83 41.42 40.55 40.46 40.59 39.94 38.98 37.72 34.16 29.92
54.20 54.06 53.18 52.70 53.31 53.45 52.53 51.35 49.73 47.67 46.01 45.70 46.36 47.19 46.69 46.54 46.43 46.36 45.28 45.00 45.26 45.32 45.56 46.32 46.87 46.24 46.79 46.34 44.57 44.23 43.50 42.33 41.97 41.25 40.47 40.22 40.15 39.55 39.45 38.34 37.63 35.76 33.07
53.97 53.39 52.65 52.73 52.72 52.43 50.40 48.66 47.91 45.31 43.82 46.67 46.91 46.41 46.37 46.59 46.04 45.45 44.88 44.50 44.82 44.60 44.18 44.59 45.34 45.19 44.52 43.64 43.97 43.43 42.92 41.42 40.29 40.30 38.74 39.43 39.51 38.24 38.16 37.95 36.85 35.25 34.39
54.39 53.38 51.85 51.48 51.36 50.35 48.52 47.51 46.82 44.58 47.16 46.24 45.56 45.14 46.31 46.11 44.91 44.71 44.30 44.58 43.90 44.35 44.01 43.84 43.54 43.44 43.23 43.48 42.44 42.38 41.52 39.61 38.99 38.98 38.91 38.16 37.57 37.46 37.40 36.46 35.12 34.47 33.66
53.19 51.80 50.71 49.63 49.32 48.15 47.09 46.14 45.29 45.93 45.87 45.22 44.78 45.25 45.18 44.57 44.26 44.39 44.01 43.82 43.40 43.46 43.69 43.58 43.06 42.62 42.45 42.46 42.10 40.50 39.55 39.43 38.96 38.60 37.60 37.10 36.76 35.65 35.58 34.96 33.81 32.59 31.49
51.16 50.44 49.68 48.72 47.95 46.40 45.32 44.15 44.86 47.66 46.44 44.98 44.36 44.07 44.41 44.29 44.33 44.05 43.57 43.33 43.26 42.70 42.85 43.27 43.04 42.92 41.34 40.35 40.12 39.37 38.89 38.46 37.86 37.66 37.17 36.34 34.74 33.59 32.81 31.84 31.58 30.69 29.63
49.44 49.27 49.15 48.37 46.90 45.33 44.20 44.83 48.16 47.87 45.79 44.39 44.11 44.32 44.51 44.37 44.03 43.68 43.07 42.98 42.68 42.49 42.62 42.23 42.31 41.77 40.59 39.26 38.66 38.85 38.00 37.61 36.78 36.62 35.49 34.19 31.97 29.08 28.87 29.25 28.98 28.24 27.59
48.81 49.21 49.19 48.84 46.83 45.85 43.54 47.52 47.22 45.60 44.99 43.98 43.61 43.99 43.56 43.38 43.11 42.87 42.32 42.06 41.58 41.60 41.54 41.32 41.50 40.92 39.67 32.57 33.07 32.80 36.55 36.06 34.88 33.36 33.15 33.03 31.02 30.52 27.91 28.04 27.63 28.01 27.11
49.09 49.00 49.14 48.75 47.50 45.49 47.24 46.41 46.06 44.80 43.46 43.14 42.68 42.49 42.63 41.96 41.72 41.79 41.52 41.04 40.57 40.94 40.46 40.79 40.75 39.63 38.84 32.54 30.97 29.46 35.17 34.39 33.38 32.30 31.59 30.94 30.93 30.09 29.64 28.38 28.03 28.89 28.98
49.34 49.81 50.06 48.15 47.89 47.08 46.73 46.41 44.42 43.00 42.30 41.57 41.27 41.45 41.08 40.45 40.93 41.22 40.78 40.80 40.55 39.83 39.79 39.48 38.90 38.17 36.17 30.64 28.67 28.32 34.42 33.48 32.29 31.61 31.14 30.73 30.44 29.85 27.73 27.20 27.50 28.99 30.02
51.14 51.00 50.31 48.44 45.26 45.01 44.37 42.94 41.92 41.52 40.84 39.96 39.38 39.82 40.01 39.69 40.00 39.75 39.94 40.39 39.66 39.39 39.04 38.48 37.78 37.38 36.21 29.21 27.60 28.62 32.88 31.63 30.86 30.87 30.88 29.45 28.79 27.06 26.42 26.34 25.98 27.21 28.27
51.38 49.20 47.48 45.35 43.89 42.49 41.35 41.25 41.01 39.93 38.40 38.59 38.78 39.25 39.49 39.42 39.09 39.18 39.31 39.90 39.63 38.11 37.91 37.23 37.45 32.05 34.88 28.22 27.15 28.36 32.39 30.18 29.98 30.62 29.86 27.17 26.53 24.98 25.45 25.34 25.03 23.80 25.58
49.35 47.21 44.19 43.16 41.63 41.12 41.35 39.57 38.85 37.55 38.75 38.57 38.74 38.97 39.24 38.68 38.84 39.22 39.65 39.19 38.77 37.32 37.00 35.11 35.78 35.10 33.64 32.54 27.00 26.48 30.51 30.24 28.68 28.69 28.75 28.64 25.20 24.63 24.39 23.76 25.08 23.87 24.61
44.71 43.76 41.86 39.83 38.73 38.96 39.10 37.98 37.28 38.70 38.36 38.35 38.29 38.27 38.50 38.16 38.28 38.64 38.92 38.75 37.74 36.14 35.37 34.32 34.36 35.23 34.05 28.89 27.73 26.40 26.66 27.16 28.17 27.57 28.91 27.62 24.18 23.85 23.07 23.54 22.01 22.11 23.21
42.03 40.17 37.62 36.90 37.84 38.80 38.10 36.64 37.67 37.89 37.61 37.53 37.44 37.77 38.24 37.81 37.75 37.75 37.71 37.25 37.06 35.26 34.56 33.63 33.63 33.30 34.15 33.55 27.32 26.60 26.08 26.38 27.80 28.58 26.63 23.80 23.17 23.48 24.21 22.58 21.96 22.35 24.87
37.76 38.32 34.81 37.03 36.94 37.18 36.63 37.55 38.00 37.60 36.86 36.13 36.57 37.10 35.92 34.82 34.85 35.41 35.98 36.51 35.93 35.05 33.63 32.77 33.02 33.46 32.53 32.62 32.49 31.96 31.29 27.83 27.36 28.35 28.33 25.50 22.69 23.57 23.95 25.27 25.31 25.04 23.73
36.77 36.59 35.81 36.00 35.85 36.56 37.19 37.97 36.86 36.26 35.26 36.19 35.93 35.90 35.76 34.66 33.98 33.45 33.52 35.35 36.54 35.12 33.80 33.86 33.14 32.97 31.48 31.92 31.75 30.95 30.93 30.54 28.59 25.60 27.66 27.43 26.22 25.04 25.45 25.50 24.75 24.87 23.57
35.13 33.59 34.92 35.60 35.90 35.14 35.89 35.89 35.76 34.82 34.77 34.33 35.31 36.09 35.53 35.00 34.20 33.42 33.82 32.28 31.42 30.85 30.81 30.65 31.71 34.73 31.97 29.10 28.37 27.66 27.28 27.76 25.91 26.11 26.34 26.38 26.04 24.78 24.24 23.93 24.07 24.39 22.47

GFSMW_sfc_wetblb_021.txt.gz
Wetbulb
62.47 63.44 64.17 64.74 65.14 66.65 67.02 65.01 64.13 64.31 62.99 63.84 63.24 62.68 60.25 60.63 60.50 59.55 58.87 58.41 57.77 57.05 57.04 56.98 56.80 56.71 55.57 55.14 54.93 53.98 52.75 50.32 51.46 49.33 48.95 49.07 51.27 51.94 50.97 51.00 51.23 50.76 50.32
61.07 62.45 63.74 64.52 65.04 65.53 66.06 64.61 64.44 64.18 64.68 64.50 63.39 62.23 62.08 60.52 59.13 58.66 57.74 57.22 56.77 56.45 56.09 55.93 55.49 55.30 53.89 53.42 52.55 51.96 49.82 49.35 50.35 46.97 46.22 42.05 44.36 48.12 49.01 48.74 48.26 50.12 48.71
60.20 61.43 62.82 64.07 65.04 64.15 63.95 63.84 64.08 64.52 63.96 63.53 62.32 61.41 60.31 58.70 57.55 57.48 57.03 56.14 56.26 56.08 55.63 55.11 54.46 53.57 52.25 50.40 50.98 50.69 49.62 46.65 47.66 48.73 44.74 40.03 38.65 42.16 45.52 46.05 46.69 48.62 46.69
61.20 62.12 62.73 63.48 64.00 64.35 65.31 64.65 63.71 62.74 62.16 61.22 59.58 58.84 58.72 57.21 56.71 56.59 56.22 56.42 56.08 55.14 54.65 53.60 53.05 52.34 51.52 50.81 50.32 49.95 48.77 47.25 44.44 46.34 46.28 46.36 44.43 38.72 37.05 42.15 43.25 44.33 43.88
61.06 61.63 62.23 62.53 62.94 62.41 62.11 62.11 61.14 59.01 59.04 59.48 59.45 58.19 56.90 56.31 56.13 55.65 53.46 53.48 52.86 51.77 51.10 50.85 51.22 51.82 51.23 50.95 50.32 49.37 48.21 47.01 45.73 44.33 43.67 42.93 42.22 41.84 38.28 35.17 37.97 40.89 42.13
60.52 59.64 60.30 60.22 59.63 60.19 59.60 58.82 57.89 57.53 58.22 57.89 57.49 56.45 54.43 53.06 52.08 50.67 49.16 48.66 48.39 48.58 48.90 48.61 48.95 49.45 50.14 49.95 49.65 49.11 47.53 46.67 45.72 44.05 43.17 41.17 38.96 37.82 37.45 35.70 36.65 37.49 39.60
57.79 57.02 56.94 56.88 57.18 57.30 57.64 57.69 57.15 55.99 56.42 55.19 53.87 53.41 52.15 50.07 48.72 47.85 47.08 46.62 46.65 46.69 47.20 47.97 48.11 48.16 48.98 49.50 48.86 47.56 46.45 46.35 44.06 43.06 42.11 41.78 40.67 40.78 39.16 37.17 35.88 35.63 38.53
56.34 55.91 55.88 56.27 56.47 56.79 56.73 56.48 55.90 54.69 53.86 53.03 51.49 49.96 48.58 47.29 47.54 47.72 47.33 46.62 46.01 46.18 47.10 47.07 47.87 48.47 48.71 48.26 47.30 46.20 46.24 45.57 44.19 43.08 42.42 41.56 41.35 41.06 39.89 37.78 36.16 33.77 34.96
55.44 55.44 56.21 56.55 56.56 56.42 56.08 56.31 55.40 53.37 51.74 50.70 50.42 48.09 47.20 47.90 48.39 47.66 47.89 46.44 46.49 45.78 46.15 46.63 46.52 47.47 47.58 47.57 46.91 46.24 45.75 44.70 43.90 43.36 42.63 41.45 41.23 41.14 40.48 39.48 38.29 35.42 31.06
55.54 55.91 56.18 56.36 56.57 56.34 56.43 55.99 54.00 51.17 50.59 49.61 48.40 46.59 48.14 48.40 48.74 48.54 46.65 45.84 46.00 45.88 45.52 45.30 45.37 45.67 46.24 46.71 46.84 45.52 45.09 43.82 43.71 42.76 41.42 40.90 40.64 40.24 40.03 38.97 38.89 37.70 34.97
55.94 55.97 56.00 56.01 55.94 56.14 54.98 53.30 51.25 50.75 49.93 47.99 46.91 48.28 47.63 47.67 47.91 47.28 46.67 45.70 45.55 45.32 44.60 44.57 44.42 44.31 44.36 44.58 44.18 43.80 43.70 42.80 42.44 42.22 40.72 40.15 40.23 38.99 38.64 39.37 38.44 37.19 36.38
56.73 56.62 55.98 55.37 55.14 54.44 53.27 51.31 50.86 50.77 48.58 48.44 46.79 47.56 47.72 47.81 47.00 46.85 46.34 45.91 44.89 44.98 44.22 43.95 43.79 43.89 43.85 43.46 43.24 42.54 42.59 41.65 40.57 40.13 39.79 38.86 38.72 37.83 38.11 37.42 36.32 36.01 36.02
56.75 56.69 55.96 54.46 54.40 53.77 51.99 50.70 50.66 49.69 48.61 46.51 46.88 47.18 47.12 46.88 46.51 46.18 45.88 45.40 44.62 44.05 43.89 43.73 43.23 42.92 42.54 42.00 42.35 40.95 40.70 40.23 40.01 39.35 38.68 37.71 37.13 36.06 35.64 34.94 33.87 33.95 33.42
56.21 56.44 55.55 54.23 54.09 53.70 51.58 50.21 49.74 49.97 47.91 47.18 46.67 46.40 46.43 46.57 46.46 46.25 45.33 45.03 44.43 43.44 43.22 43.44 42.97 42.95 42.11 41.42 40.90 39.99 40.02 39.68 39.38 38.82 38.27 37.30 35.89 34.45 33.08 31.39 31.31 31.42 30.24
54.99 55.36 54.57 53.84 53.50 52.65 50.89 49.75 49.52 49.91 48.51 47.00 46.10 45.91 46.51 46.56 46.18 45.29 44.88 44.54 43.90 43.32 43.11 42.62 42.49 42.60 42.14 40.34 40.34 39.84 39.50 38.50 37.70 37.86 36.92 36.42 33.09 30.26 29.90 29.66 29.28 28.79 27.60
54.13 54.37 53.90 53.52 52.33 51.34 49.47 48.31 49.29 48.62 48.72 46.56 45.59 46.01 45.75 45.44 45.13 44.34 43.99 43.48 43.14 42.78 42.27 41.84 41.44 41.61 41.06 33.18 33.10 32.66 36.61 37.11 36.30 34.96 35.11 34.91 34.24 33.09 30.79 30.17 29.01 28.76 26.71
53.31 53.70 53.45 53.08 52.61 51.38 49.50 47.90 49.33 48.85 46.89 45.59 45.43 44.90 44.65 43.91 43.41 42.97 42.18 42.05 42.24 42.40 41.56 40.96 40.56 39.91 38.92 33.44 31.36 29.83 34.55 35.78 35.49 34.42 33.41 32.90 33.13 31.69 32.00 30.58 29.71 29.39 30.15
53.07 53.58 53.64 53.36 53.46 52.60 49.72 49.51 48.63 47.11 45.53 44.33 43.57 43.77 43.25 41.71 41.62 41.33 41.53 41.80 42.09 41.50 40.53 40.18 40.02 39.36 36.64 32.00 29.75 29.35 33.59 35.49 34.78 33.79 33.12 32.37 31.87 30.65 28.10 27.65 27.41 28.52 29.35
54.04 54.35 54.48 54.22 53.60 50.78 49.66 47.80 46.15 45.10 43.57 43.10 42.88 41.93 41.23 40.58 40.41 40.44 40.67 41.06 41.13 40.79 40.26 40.08 38.98 38.13 36.50 30.98 29.69 28.64 34.03 33.80 32.80 33.02 32.96 31.45 30.04 27.62 26.55 25.81 25.46 26.21 27.51
54.18 54.01 54.39 53.87 52.22 49.88 48.00 45.18 43.14 43.13 42.48 41.88 40.75 40.51 40.26 39.91 39.65 40.00 39.81 40.85 40.71 39.56 40.11 38.76 38.77 33.69 37.22 30.40 29.17 29.10 33.05 32.06 31.74 32.25 32.09 28.85 27.17 25.50 25.33 24.99 24.24 23.21 25.48
53.84 54.24 53.28 50.54 49.10 45.42 43.66 42.18 40.91 39.78 40.52 40.59 40.10 39.51 39.98 40.01 40.24 39.75 39.82 39.95 39.19 39.58 38.55 37.35 37.70 37.57 36.30 34.18 29.29 28.60 30.36 31.50 30.25 29.86 30.07 31.07 27.11 25.60 25.03 24.64 24.41 24.05 23.92
52.33 51.18 48.42 46.33 43.48 42.73 42.32 40.62 39.43 40.03 39.53 38.98 39.07 39.11 39.65 39.57 39.62 39.26 39.47 39.21 39.36 38.23 36.95 36.61 36.00 37.01 36.55 31.47 29.57 28.66 27.79 28.54 28.95 28.72 30.00 30.18 26.45 25.08 24.45 24.75 24.23 23.62 23.83
48.60 46.93 44.31 39.82 39.37 39.59 38.24 37.86 38.53 39.03 38.59 38.07 37.95 38.71 39.28 39.19 38.31 37.59 36.86 37.53 37.74 36.73 36.07 34.70 34.46 34.30 36.32 36.25 30.93 29.16 28.07 27.08 27.97 30.21 29.19 26.74 26.35 25.72 26.20 25.87 24.66 23.71 26.26
42.59 41.56 40.61 38.65 35.80 38.10 38.22 38.63 38.52 38.03 37.50 36.63 37.14 38.07 36.89 36.25 37.13 37.31 36.81 35.77 36.83 36.38 34.54 34.21 33.43 34.62 35.12 35.24 35.10 31.83 30.96 28.07 28.58 29.56 30.33 28.48 27.05 26.66 25.55 26.54 27.99 27.53 26.66
40.30 38.43 35.73 35.42 36.51 37.75 37.36 37.77 37.23 37.34 36.11 35.91 36.13 36.32 36.47 36.87 36.21 36.89 35.88 35.15 37.06 35.80 35.27 35.10 34.77 35.47 34.05 33.67 33.10 32.70 32.96 32.55 30.13 27.69 28.92 28.57 28.64 27.13 27.20 27.54 27.29 27.08 26.62
35.09 34.88 35.47 35.49 36.13 36.45 36.58 37.24 37.25 35.90 35.13 34.95 35.35 36.17 36.56 36.83 36.51 35.44 34.79 34.34 33.69 33.31 32.01 31.58 32.67 36.31 33.24 32.27 30.61 30.46 29.75 28.02 27.84 27.40 27.17 27.65 28.30 26.91 26.17 26.17 25.86 26.28 25.39

GFSMW_sfc_wetblb_024.txt.gz
Wetbulb
60.97 62.03 63.30 64.03 63.27 65.26 65.28 64.93 63.27 63.18 63.12 61.82 60.79 61.15 60.29 59.68 59.51 57.62 57.93 57.23 56.51 55.74 54.41 54.61 54.46 53.93 52.38 51.87 50.98 48.98 47.81 46.87 46.93 44.39 44.32 44.44 44.57 44.17 44.00 44.60 44.56 45.80 46.67
60.19 61.81 62.67 63.82 64.67 65.32 65.02 64.04 63.41 63.10 63.00 62.78 62.27 61.52 59.63 59.23 57.28 56.68 56.23 55.72 55.59 54.60 54.62 53.43 52.66 52.12 50.36 49.31 48.71 47.46 45.88 45.59 45.94 41.62 41.08 37.97 39.76 42.15 43.35 42.72 43.28 41.79 45.08
59.55 60.82 62.09 63.05 64.40 63.97 63.98 63.56 63.40 63.37 63.66 62.95 61.77 59.39 57.79 56.59 55.23 55.07 54.16 54.30 54.80 54.35 53.55 52.77 51.36 49.98 48.95 47.21 47.38 46.29 45.82 42.69 43.00 43.53 40.37 35.99 34.34 38.14 40.86 40.31 40.74 40.32 40.65
60.23 60.93 61.72 62.34 62.53 62.85 62.87 63.75 63.27 63.40 62.46 61.93 59.70 57.48 55.53 53.99 54.78 54.52 54.28 54.08 54.44 53.17 51.81 50.86 50.09 49.76 49.08 47.83 47.26 47.04 44.89 43.12 40.15 41.61 44.24 40.88 39.02 33.79 32.69 36.95 37.68 38.24 38.92
59.78 60.56 61.48 61.93 62.06 63.25 63.56 63.28 62.40 60.63 59.83 59.07 58.72 57.07 54.88 54.73 54.28 52.80 51.17 50.58 50.03 49.02 48.30 47.72 47.27 46.60 46.43 47.37 46.93 46.34 44.57 43.05 41.10 40.41 38.90 38.00 37.42 36.75 33.11 30.53 32.14 35.69 37.36
59.84 60.91 62.51 62.10 61.64 62.06 61.06 60.29 57.89 57.20 58.07 57.60 56.63 54.86 52.49 50.67 49.20 47.80 46.47 46.95 46.57 46.43 46.75 46.97 45.77 45.97 45.86 45.69 46.52 45.50 44.93 43.72 42.52 41.83 39.72 37.50 34.84 33.39 32.22 30.59 31.33 31.95 34.31
59.56 59.97 59.58 58.73 58.63 58.20 57.72 57.18 56.21 55.72 56.09 54.64 52.94 51.99 49.43 48.73 47.03 45.50 46.07 45.09 44.47 44.17 44.48 44.59 44.51 44.71 45.43 46.02 45.79 44.29 43.03 42.39 41.38 40.89 38.54 38.49 37.27 36.94 35.42 33.26 32.24 31.07 34.12
58.76 57.81 57.77 57.24 56.77 56.46 56.29 56.07 55.26 54.51 53.60 52.61 50.45 49.25 48.62 46.99 46.55 47.39 45.59 44.75 43.97 43.57 44.12 44.16 44.39 44.44 45.45 45.14 44.68 43.17 42.47 42.37 42.08 40.40 39.98 38.23 38.69 38.34 36.36 33.88 31.21 29.54 31.00
56.61 56.11 56.18 56.03 55.72 55.83 55.79 55.76 54.79 53.53 52.19 49.99 49.31 48.16 47.69 46.89 46.85 46.92 46.09 44.90 44.69 44.15 43.72 43.78 43.35 43.40 43.31 44.30 42.30 43.28 43.20 43.20 41.37 39.68 40.63 38.59 39.71 39.00 36.40 36.62 34.39 30.69 26.58
55.69 55.37 55.08 55.59 55.87 56.19 55.88 56.20 55.13 52.32 50.26 49.88 48.85 47.53 47.11 48.41 47.60 46.57 45.04 44.04 43.60 43.67 43.57 43.15 42.74 42.54 42.33 42.20 42.62 42.22 41.57 40.34 39.96 41.31 40.04 39.08 39.13 37.29 36.31 35.04 34.08 33.88 30.66
55.27 54.94 55.09 55.83 56.20 56.07 55.25 55.10 53.55 49.86 49.07 49.21 48.02 47.01 47.20 47.81 47.14 46.12 45.13 43.80 43.70 43.55 42.90 42.75 42.15 41.62 41.47 41.62 41.04 40.30 40.38 39.87 39.04 39.22 38.82 38.97 38.14 34.81 34.26 33.96 34.00 31.83 31.22
56.06 55.61 55.57 55.79 55.40 54.87 54.68 53.55 51.16 49.54 49.98 48.21 46.81 46.90 47.85 46.79 46.39 45.74 44.89 44.32 43.01 43.43 42.46 42.41 41.78 41.82 41.60 40.72 40.00 39.23 39.45 38.49 37.74 37.04 36.78 36.51 37.51 34.62 33.83 32.37 30.46 29.71 29.68
56.15 56.11 55.57 54.81 54.45 54.29 53.74 51.87 50.35 50.12 49.07 47.67 46.89 46.71 46.67 46.23 46.03 45.03 44.74 44.36 43.10 42.46 42.13 41.88 41.31 41.04 40.83 40.54 39.84 39.10 37.83 36.97 36.66 36.33 35.42 35.40 34.72 31.55 30.27 28.93 27.41 27.70 29.77
55.73 56.14 55.35 54.87 54.19 54.17 53.04 51.60 49.94 50.43 48.83 48.30 47.25 45.20 45.90 45.82 45.11 44.91 44.39 43.52 43.44 41.89 41.28 41.32 41.12 41.00 40.57 40.27 40.19 38.80 36.85 36.68 36.63 36.71 35.36 34.64 32.72 28.75 27.07 27.22 25.37 26.27 24.86
54.72 55.20 55.74 54.61 54.27 53.60 53.18 51.52 50.12 49.71 49.45 47.82 45.76 45.29 46.08 45.65 45.05 45.07 44.29 43.53 42.68 41.95 41.68 40.79 40.22 40.08 40.21 38.43 37.32 36.66 35.54 34.90 34.31 34.51 34.74 33.19 31.97 31.29 28.72 27.19 24.72 24.64 23.53
52.36 54.53 55.69 55.74 54.16 53.57 53.08 51.30 49.66 48.87 49.94 47.22 45.44 46.06 45.98 45.13 44.72 44.27 43.11 42.59 42.00 41.29 40.90 40.09 39.72 39.22 38.90 34.14 33.47 32.20 31.38 33.22 32.77 31.05 31.02 30.97 33.21 31.76 31.06 31.38 30.56 27.85 23.32
52.06 53.27 54.56 55.17 54.71 53.68 52.73 50.14 48.88 49.81 48.29 45.70 45.63 45.63 44.96 43.78 43.12 42.50 41.48 40.66 40.54 40.90 40.22 39.89 39.06 38.09 34.19 33.79 32.24 30.75 30.57 31.05 30.92 29.92 29.14 29.90 32.12 29.35 27.41 28.62 28.42 27.81 29.49
52.45 53.21 53.85 54.47 54.42 54.08 51.97 50.23 49.01 48.75 46.13 44.69 44.03 43.87 43.57 42.30 41.16 40.15 39.82 40.02 40.14 39.47 39.05 37.94 38.39 37.80 34.73 33.36 31.65 30.16 27.78 30.25 30.78 29.58 29.28 27.94 27.37 25.14 25.52 24.38 23.38 24.40 25.11
52.05 52.91 53.86 54.19 53.76 53.13 51.30 48.55 47.70 45.59 43.95 42.87 42.11 42.53 41.23 39.94 39.41 38.99 38.79 39.02 38.51 38.21 38.11 38.52 37.57 36.38 32.07 32.62 31.33 29.21 28.13 29.63 29.32 30.35 29.87 29.42 26.59 26.66 27.23 23.70 22.67 22.42 23.28
52.75 52.75 53.67 53.85 53.11 51.08 48.93 45.01 43.59 42.34 41.48 40.20 39.83 39.54 39.68 38.93 38.18 38.51 38.12 38.29 38.32 38.40 38.11 36.97 36.41 34.48 31.80 32.07 30.79 29.14 27.47 27.82 27.76 28.20 28.17 28.05 26.06 26.23 25.97 22.04 21.41 19.68 21.68
52.79 53.96 52.18 48.24 43.32 43.87 43.94 40.29 39.70 38.29 38.92 39.69 39.36 39.18 39.16 38.74 38.88 38.18 37.80 37.47 37.27 36.71 34.86 33.02 33.76 33.59 33.30 30.08 31.10 30.50 27.07 27.09 27.21 26.43 25.84 26.67 27.03 26.83 26.51 25.30 22.25 21.63 23.05
51.09 47.65 42.21 40.73 41.15 41.63 40.21 38.16 37.25 39.03 39.05 38.82 38.33 37.99 38.30 38.41 38.52 37.54 36.82 36.32 35.90 34.42 33.72 32.83 32.64 32.75 32.78 32.37 31.65 30.79 29.33 29.13 24.28 25.98 26.18 26.56 28.15 27.70 26.53 25.21 25.65 25.73 23.92
41.56 42.15 39.61 38.98 38.61 38.52 38.71 36.65 37.59 38.96 38.24 37.49 36.54 36.95 37.76 37.97 37.28 35.37 34.23 33.82 33.69 33.53 32.52 31.67 32.04 30.69 31.62 31.44 31.63 31.05 30.15 29.11 23.94 25.83 28.13 28.53 28.28 28.26 26.79 28.20 26.75 22.90 20.92
40.31 40.39 38.26 36.55 36.08 37.40 37.82 37.75 37.97 38.22 36.97 35.70 35.83 36.68 35.84 35.60 35.47 35.47 34.85 33.64 31.64 31.42 32.22 31.87 30.70 30.55 30.70 32.09 28.88 28.08 27.17 27.39 26.60 26.33 26.96 25.42 24.96 22.59 23.40 22.35 25.41 23.82 22.29
38.04 37.19 36.14 35.74 36.01 37.26 37.29 38.14 37.65 37.04 35.67 35.64 35.39 35.32 34.26 34.71 34.91 35.18 34.65 31.87 32.51 32.85 32.36 32.06 32.40 31.96 29.56 30.35 31.59 31.45 30.97 30.87 28.97 23.15 21.87 21.48 23.39 23.13 22.55 22.59 22.95 23.27 23.69
36.32 36.18 36.15 36.37 36.66 36.95 37.09 37.32 37.91 36.59 35.08 34.13 34.27 34.01 33.57 33.97 34.21 33.83 33.39 34.57 33.61 33.83 33.53 32.73 31.36 32.07 33.40 32.41 31.91 31.54 31.39 30.63 27.77 22.06 19.51 18.09 19.79 21.83 21.45 19.25 19.76 20.00 19.72

GFSMW_sfc_wetblb_027.txt.gz
Wetbulb
56.20 56.81 56.54 58.05 61.47 61.50 62.00 61.95 60.60 60.55 59.97 58.46 57.62 57.40 57.20 56.51 54.15 53.46 53.63 53.12 52.58 52.49 51.06 50.37 50.45 49.42 48.33 46.92 46.71 45.48 44.19 43.44 43.65 41.20 40.10 40.73 41.41 41.21 40.30 41.07 40.97 41.23 42.72
55.80 57.80 58.10 58.40 61.89 61.51 61.57 61.54 61.36 61.11 60.28 59.25 59.69 58.70 56.50 54.50 52.40 52.45 51.65 51.97 51.45 51.39 51.57 49.92 48.95 47.71 46.51 45.46 44.83 43.71 42.57 43.05 41.69 38.77 37.45 35.26 37.62 39.38 40.70 39.00 39.26 37.90 39.80
56.02 57.29 58.17 58.08 61.36 61.37 60.91 61.44 60.92 61.19 61.06 60.31 60.86 55.74 53.61 51.36 50.55 50.04 49.76 50.71 51.77 51.38 50.42 49.37 47.76 46.45 45.76 44.39 43.77 43.26 42.24 39.78 40.16 40.44 38.01 33.94 31.79 34.10 37.13 37.33 37.41 35.93 35.82
57.73 58.14 58.30 57.83 60.87 61.15 61.45 61.21 61.79 60.90 61.32 61.13 54.93 53.45 51.70 50.18 49.83 50.06 50.01 50.05 51.02 48.15 46.29 45.69 44.33 43.43 44.28 43.94 44.13 45.25 42.44 40.63 38.16 38.89 41.83 37.44 36.16 30.88 29.71 33.57 34.59 35.18 36.20
57.26 57.53 58.23 59.85 61.01 62.02 61.36 61.26 60.33 60.82 60.17 58.48 56.19 52.02 50.13 49.56 49.14 48.08 45.54 43.48 44.17 45.53 45.19 44.33 42.41 41.85 42.43 41.84 42.37 42.87 42.63 40.56 38.84 38.45 37.22 35.53 34.84 33.78 30.44 27.03 29.87 32.80 34.09
55.48 57.36 59.09 59.91 60.17 60.84 59.58 58.44 55.64 54.35 53.22 52.30 51.73 50.54 49.21 45.08 43.34 41.93 41.48 43.43 44.79 42.61 44.55 43.38 42.40 42.48 42.04 41.99 42.26 42.19 40.83 40.37 39.83 39.44 39.23 36.29 33.83 31.83 30.54 28.46 28.95 29.27 31.46
55.56 57.06 58.01 57.84 57.34 55.01 55.52 54.16 52.09 51.70 50.44 48.84 46.72 45.69 44.44 42.87 42.13 41.88 41.73 43.39 41.36 40.43 40.21 40.93 41.14 40.52 41.38 42.37 42.47 41.05 40.66 40.07 38.94 38.61 37.71 37.01 36.60 35.66 34.21 31.36 29.51 28.40 30.56
55.41 55.59 54.65 54.08 53.42 52.52 51.41 51.04 51.47 50.07 49.03 47.94 44.74 43.94 43.73 42.88 42.71 42.47 42.27 42.59 41.78 40.71 40.54 41.34 40.43 40.50 40.94 40.54 41.10 41.21 40.32 40.04 39.29 38.57 37.75 37.44 36.77 37.19 35.73 33.78 29.91 26.48 27.33
52.56 53.57 53.49 52.91 52.19 51.41 51.28 50.22 50.31 49.13 47.98 44.82 43.89 43.51 43.09 43.23 43.55 42.70 43.04 42.50 41.72 41.87 40.87 41.01 39.67 40.00 39.76 39.70 39.38 39.31 40.76 40.25 39.58 39.75 40.45 38.48 38.75 39.42 38.90 37.17 33.97 30.86 23.17
51.45 52.32 52.43 52.12 52.39 51.65 51.68 50.47 49.64 48.28 45.42 44.69 43.91 43.89 43.08 43.84 43.27 43.21 43.39 41.22 40.75 41.01 40.62 39.74 39.27 39.21 39.41 39.54 38.68 38.47 38.20 37.51 37.30 38.83 37.89 38.43 38.39 39.14 38.18 35.74 32.47 30.88 28.69
51.45 51.45 51.36 52.10 52.46 52.03 51.11 50.71 48.15 45.48 44.53 44.50 44.08 43.05 42.75 44.05 44.74 43.74 42.87 42.20 42.10 40.59 39.92 39.75 39.33 38.98 38.88 38.68 37.81 37.30 37.65 37.70 36.93 37.69 37.08 36.59 37.31 36.52 35.35 33.14 30.38 28.60 27.58
51.88 51.11 51.21 51.52 51.67 51.62 51.17 50.23 45.64 45.21 45.27 44.50 43.89 43.39 43.82 45.59 44.90 44.73 43.57 42.26 40.45 40.09 39.75 39.72 39.97 39.83 39.31 38.44 37.81 37.12 36.66 35.77 35.50 35.65 34.61 34.66 36.06 31.78 31.17 28.26 26.58 26.02 25.19
51.07 50.83 50.84 51.47 51.65 51.18 51.08 49.68 46.13 45.94 45.11 43.57 43.01 42.94 45.38 44.98 44.29 43.77 43.07 42.07 40.19 39.58 39.74 39.70 39.05 39.39 39.04 38.04 38.33 38.44 36.36 35.85 35.59 34.59 33.39 32.69 32.07 28.67 26.46 25.84 24.40 24.15 26.73
52.39 51.34 50.98 51.60 51.81 51.62 51.04 49.17 46.41 46.58 44.88 43.96 42.68 44.25 44.58 44.56 44.14 43.17 42.08 40.65 41.48 39.52 38.75 38.78 39.29 38.89 39.16 39.46 38.93 37.20 35.71 35.82 35.47 35.29 33.54 32.52 29.41 26.92 25.52 25.57 23.65 24.54 22.80
49.96 50.71 50.90 50.54 50.98 50.50 49.75 48.95 47.46 45.92 45.18 43.67 43.64 44.08 44.68 44.85 43.35 43.02 42.28 42.07 40.75 39.89 40.41 40.08 39.01 39.14 38.30 37.71 35.78 34.88 33.78 32.42 31.83 31.96 32.07 30.25 30.42 32.38 28.23 25.91 23.09 23.21 22.29
47.70 48.93 51.42 51.05 50.66 50.08 49.25 48.84 46.85 45.87 46.04 45.77 45.21 45.17 44.26 43.47 42.57 41.84 41.04 40.75 38.97 39.44 39.57 38.58 38.19 37.23 37.50 34.54 34.16 32.82 30.93 31.50 30.41 28.92 27.75 28.27 30.19 30.91 31.37 30.43 29.64 27.85 22.89
47.68 49.01 49.90 50.86 50.34 50.21 50.18 47.15 46.26 47.26 46.67 46.38 45.63 43.74 42.76 41.82 39.90 39.25 38.85 38.01 37.59 38.29 38.55 38.18 37.75 36.70 34.41 34.31 33.57 31.83 29.69 29.63 28.77 27.11 26.82 28.02 29.68 27.61 25.67 26.24 26.60 25.99 27.23
47.79 48.27 48.61 50.05 50.48 49.43 48.02 47.50 47.87 47.33 44.86 43.04 42.20 40.25 39.32 39.33 39.21 38.55 37.74 37.85 38.06 37.30 36.69 36.75 37.07 36.32 34.73 34.18 33.18 30.97 27.07 28.08 28.85 27.60 27.26 26.09 24.56 25.35 25.17 23.50 22.45 22.68 23.10
46.68 47.35 48.55 48.63 46.76 46.33 45.64 45.10 44.09 42.00 41.52 40.01 38.85 38.63 38.67 38.19 37.98 37.40 37.08 37.44 36.48 35.70 36.07 36.95 36.15 34.41 32.43 33.52 32.21 29.17 26.69 27.84 27.70 28.58 28.03 27.91 24.83 27.10 27.26 23.56 22.32 21.43 22.36
45.48 41.26 41.34 41.00 39.77 40.09 41.45 38.50 37.30 37.17 37.02 37.83 37.43 38.47 38.61 38.12 37.53 37.29 36.88 36.09 36.20 36.42 36.60 34.89 34.55 34.19 31.23 33.18 32.39 29.89 25.36 26.51 26.37 26.52 26.32 28.45 25.08 26.48 26.51 22.64 20.63 18.88 20.66
40.12 40.15 39.32 37.69 37.68 38.86 38.80 36.89 36.70 36.17 37.76 38.29 38.39 38.36 38.51 37.99 37.85 36.68 36.21 35.55 34.59 33.55 32.25 31.97 31.27 31.66 29.95 29.52 32.70 32.16 26.60 25.86 26.25 25.68 24.82 24.47 27.46 27.17 28.01 27.08 21.63 20.39 22.99
38.20 37.91 36.99 36.82 37.84 38.97 38.21 36.88 36.48 37.61 38.43 38.17 37.81 37.90 37.38 37.26 37.44 35.38 34.48 33.91 32.78 30.29 30.26 29.75 30.43 29.44 30.20 31.11 32.54 32.50 30.31 28.81 23.59 25.16 25.05 24.65 29.29 28.96 28.65 27.11 26.66 26.92 25.23
36.81 36.84 35.87 35.71 36.82 37.41 37.13 36.15 37.32 38.51 38.10 36.94 35.95 36.03 36.41 36.34 35.11 32.93 31.93 30.79 30.58 27.37 28.36 28.69 29.00 30.29 30.03 29.10 32.18 32.38 31.44 30.40 23.70 24.35 25.77 28.88 28.96 29.13 27.88 28.77 28.84 24.71 19.74
36.45 36.98 35.58 34.71 35.07 36.90 37.26 36.44 36.65 36.58 35.25 34.30 34.09 34.37 33.24 33.10 32.51 32.68 32.05 30.06 25.65 25.15 27.79 27.43 27.36 30.29 31.31 28.34 27.80 28.07 29.21 28.27 26.42 25.03 25.21 23.43 24.46 21.57 22.48 22.27 24.58 23.15 20.82
35.65 35.82 35.70 35.22 35.12 35.62 35.61 35.89 35.12 35.11 33.57 33.33 32.84 32.13 29.41 30.82 31.04 32.11 31.25 29.56 29.83 29.32 27.48 27.03 27.95 24.70 30.01 31.41 29.85 28.52 26.67 24.62 25.64 18.77 18.38 20.84 18.77 21.18 22.72 20.96 20.94 20.41 19.66
35.79 34.97 33.79 34.24 34.56 34.73 34.39 34.42 34.75 33.65 32.22 31.37 30.38 28.49 27.46 28.37 30.36 30.06 29.67 32.45 33.00 33.21 33.50 33.27 30.87 29.80 31.71 33.23 33.36 33.70 32.35 31.68 30.75 25.89 16.48 14.33 12.47 16.00 20.50 19.04 18.72 16.18 16.69

GFSMW_sfc_wetblb_030.txt.gz
Wetbulb
57.39 58.96 61.45 61.48 60.31 60.43 60.17 60.53 59.24 58.58 57.94 57.02 56.28 56.12 55.94 55.54 55.05 53.76 52.78 51.77 51.03 51.05 49.83 48.99 48.04 47.55 46.22 44.61 45.19 43.56 42.80 42.08 41.47 39.31 38.81 38.86 39.28 38.94 38.67 38.55 38.17 38.47 39.59
53.28 56.08 58.83 59.62 59.41 59.43 60.74 60.14 59.74 58.78 58.00 58.05 57.04 57.58 56.34 53.54 51.84 50.98 50.40 50.41 50.28 49.91 49.67 48.16 47.11 46.72 45.35 44.07 43.26 42.44 41.17 41.54 39.93 37.55 36.30 33.76 36.21 37.81 38.67 36.59 37.71 34.91 36.61
53.33 54.16 56.12 58.17 58.87 59.01 60.12 60.03 59.74 59.42 58.44 58.23 58.10 55.01 52.10 50.47 49.15 48.19 48.50 49.28 50.11 49.93 49.02 48.08 46.34 45.24 45.14 44.19 43.17 42.87 41.62 39.09 39.21 38.86 37.05 32.88 31.02 32.47 35.12 35.45 34.52 33.77 33.95
54.94 56.11 56.38 58.13 58.76 59.71 60.36 60.43 60.57 59.92 59.33 58.43 57.17 54.31 52.88 50.34 48.33 48.01 48.12 48.76 49.44 45.92 45.25 43.88 42.75 42.33 42.02 40.92 41.38 44.25 40.88 39.23 37.72 37.68 40.24 36.41 35.27 30.42 28.67 32.59 32.87 33.59 34.91
55.25 55.73 57.64 59.39 59.92 60.27 59.96 60.16 60.27 59.89 59.69 59.17 55.37 52.98 50.17 48.97 48.94 47.85 46.20 43.25 42.78 43.78 43.96 42.96 41.45 41.25 41.05 40.47 40.42 40.61 40.69 39.56 37.56 37.42 36.98 35.41 34.19 32.50 30.18 26.46 29.38 32.05 33.29
54.53 55.49 58.58 60.48 59.97 60.31 60.22 60.16 59.29 58.67 57.80 58.95 53.20 51.72 48.69 47.36 45.37 42.05 40.60 41.01 41.85 42.78 42.12 42.25 40.83 40.31 40.33 40.73 41.02 40.34 39.65 39.61 39.09 38.55 40.42 38.61 36.13 31.53 29.96 27.55 28.03 28.44 31.05
54.05 56.06 57.75 59.00 59.39 59.35 59.18 59.13 56.17 50.79 50.37 51.04 49.44 48.61 45.64 45.23 42.95 41.43 41.25 41.06 42.22 41.69 40.90 40.69 41.32 39.92 40.06 39.83 40.98 39.75 39.32 38.73 37.76 37.48 37.22 36.60 36.06 34.93 33.70 31.10 28.93 27.71 29.45
55.17 56.46 57.07 57.60 57.98 57.88 56.16 53.83 51.65 47.42 46.51 46.66 44.84 44.18 43.48 43.04 42.39 42.22 43.19 42.96 41.87 41.24 41.19 41.20 39.78 39.33 39.32 38.21 37.90 38.29 38.98 39.03 37.79 37.49 37.31 37.09 36.99 36.48 35.56 34.95 33.99 29.58 27.88
53.99 54.08 53.59 53.79 52.01 50.90 50.53 51.46 50.11 48.19 45.57 44.81 45.11 45.27 44.57 43.86 43.03 42.99 42.35 42.72 41.71 42.23 41.41 39.78 38.54 40.53 39.61 38.18 37.60 37.44 38.00 38.56 38.06 37.63 37.43 37.71 37.69 37.72 38.15 38.47 37.36 33.63 25.52
51.97 52.59 53.01 52.10 51.82 50.91 50.22 49.38 48.84 47.74 45.70 44.82 44.54 44.43 44.05 44.10 43.12 43.46 42.31 42.46 42.22 41.73 41.43 40.34 40.00 38.25 38.00 37.73 37.77 37.26 36.92 36.48 36.31 37.31 37.05 36.88 36.80 38.31 37.64 35.82 34.36 32.05 29.78
52.48 53.02 52.96 52.51 52.17 51.42 50.18 49.45 47.67 45.07 44.87 43.91 42.87 43.38 43.38 43.66 44.19 43.94 42.95 42.34 41.95 41.78 40.64 39.41 39.87 38.20 38.26 37.64 36.48 36.49 36.65 36.44 36.28 35.66 35.55 36.76 36.41 35.20 34.07 32.15 29.93 28.37 27.75
52.63 52.96 52.63 52.00 51.20 51.02 49.94 49.32 47.42 45.35 44.51 44.23 43.07 42.86 43.08 44.98 44.44 43.68 43.06 41.56 41.31 40.85 39.45 38.75 38.61 38.52 38.71 38.08 36.79 36.45 36.79 36.10 34.90 35.06 34.83 34.71 37.08 32.37 30.93 28.61 26.70 25.38 24.88
50.03 51.25 51.05 51.09 51.02 51.05 50.61 49.59 47.29 45.53 44.88 45.34 43.15 42.24 43.15 44.24 43.52 43.57 41.56 40.80 39.02 38.82 38.36 38.06 38.01 38.27 38.43 38.37 38.41 37.24 36.08 34.54 34.96 34.96 33.22 32.80 32.24 29.72 27.83 26.25 24.77 23.68 26.45
50.73 49.53 49.99 50.77 51.33 51.32 50.81 48.54 45.48 45.68 45.82 44.28 42.37 42.46 44.36 44.58 42.02 42.43 40.39 39.68 39.28 39.76 38.44 38.26 38.15 39.05 37.73 38.25 38.36 36.28 34.82 34.65 34.76 35.00 33.31 31.82 30.19 27.45 25.90 24.82 23.27 23.70 22.20
48.94 48.32 47.98 48.92 49.19 49.17 48.91 46.31 45.61 46.49 44.97 43.85 42.55 43.37 44.56 43.76 42.84 40.27 39.32 39.84 39.45 39.19 38.83 38.11 38.60 38.63 38.11 37.70 36.64 35.37 33.26 31.48 31.01 31.19 30.79 29.43 30.16 32.59 27.96 25.13 22.89 22.70 22.00
46.07 47.70 48.93 48.87 48.95 49.02 48.76 47.68 45.91 45.48 44.87 44.05 43.75 44.77 44.45 43.23 41.94 40.71 39.51 37.41 38.14 38.38 38.53 37.87 37.29 36.00 37.38 36.02 36.20 33.46 30.48 31.26 30.15 28.40 27.35 27.47 30.63 31.22 31.25 30.42 29.24 26.24 21.56
45.81 48.23 48.70 48.61 48.43 48.99 48.47 47.41 46.13 44.78 43.92 44.02 44.84 43.36 41.99 39.77 39.07 38.90 38.19 37.80 37.88 37.87 37.46 36.50 36.68 36.48 35.95 35.27 35.16 33.73 29.94 28.96 27.92 27.39 26.76 27.48 29.23 28.39 26.12 26.92 26.25 25.14 25.96
45.11 44.95 46.19 48.41 48.00 47.94 47.19 44.97 45.60 45.00 44.27 41.62 40.69 39.99 39.19 38.13 38.25 38.27 38.19 37.97 37.57 36.69 35.84 35.70 36.35 35.83 35.20 34.85 34.66 32.38 27.55 27.53 28.37 27.63 26.93 25.96 25.37 25.33 25.07 23.51 22.77 22.71 22.71
39.91 39.08 39.03 40.03 40.79 42.92 43.38 41.25 39.86 38.62 37.68 37.35 37.79 37.87 37.57 38.36 38.79 38.42 37.63 37.25 36.82 35.19 34.99 35.73 35.66 34.40 33.05 34.51 33.61 30.40 26.16 27.17 28.06 28.57 27.85 27.26 24.95 27.12 28.60 24.00 22.92 21.65 21.92
38.81 37.91 38.23 37.67 37.26 37.49 37.85 36.47 35.61 36.05 35.88 37.13 38.30 39.26 39.32 38.29 37.69 37.59 36.55 36.27 35.29 34.72 34.22 33.37 33.09 33.35 31.10 33.87 33.78 31.02 25.42 26.43 26.45 26.71 26.46 29.47 25.97 28.14 27.66 23.07 21.56 18.85 20.68
37.81 38.19 37.42 36.71 36.82 38.10 38.37 36.41 36.95 36.74 38.63 40.08 40.17 39.70 39.20 38.38 37.88 37.05 35.32 33.76 32.36 31.17 29.41 29.68 29.96 30.23 30.47 29.68 33.92 33.25 26.50 26.75 26.30 26.40 25.15 25.12 28.68 28.42 28.51 28.47 22.31 20.14 22.88
37.02 37.35 36.32 36.35 37.74 38.80 38.51 37.62 37.65 38.87 39.29 39.24 38.67 38.28 37.35 36.48 35.88 33.40 31.85 31.76 30.10 28.34 28.53 25.83 28.12 28.35 30.60 31.72 32.79 33.60 31.23 28.86 25.44 26.17 26.17 25.45 28.90 29.30 29.42 27.89 27.67 28.20 25.47
34.45 35.63 35.45 36.01 36.42 36.28 36.03 35.59 37.41 38.52 37.26 35.58 34.30 34.33 34.54 34.42 33.72 30.79 29.75 28.95 28.59 25.32 27.36 27.46 25.52 27.04 29.11 30.63 32.50 33.02 32.83 30.86 25.83 26.76 26.97 27.77 29.21 30.11 28.26 29.15 28.89 24.80 20.38
34.79 36.00 35.41 35.31 35.22 36.38 35.60 34.87 34.96 34.94 34.18 32.85 32.76 32.65 31.47 31.14 30.80 30.59 30.37 29.42 25.52 25.39 27.46 27.23 26.78 26.26 27.11 27.84 27.79 30.49 31.35 30.48 27.79 26.25 27.30 25.11 24.92 21.17 21.62 21.51 24.53 23.04 20.92
35.88 36.29 35.47 34.73 34.49 34.35 34.34 34.33 33.89 33.95 32.34 31.97 31.40 30.73 28.31 29.66 29.84 30.31 30.13 29.44 29.32 28.43 26.76 26.54 26.40 23.89 25.20 27.81 30.88 28.68 28.64 29.17 28.07 25.46 20.55 19.91 19.56 21.33 22.13 20.85 21.60 20.92 19.15
35.00 34.79 34.65 34.25 33.15 33.45 33.16 33.54 33.80 32.74 31.54 31.01 30.28 28.32 27.30 27.41 29.10 28.80 29.28 31.78 32.23 32.43 33.00 32.79 29.85 28.70 30.68 32.17 32.97 33.70 32.67 31.81 30.08 24.82 23.58 22.77 19.90 19.62 20.98 18.55 18.85 16.66 16.47

GFSMW_sfc_wetblb_033.txt.gz
Wetbulb
57.71 59.33 59.76 60.04 61.19 59.93 59.38 59.90 58.30 57.51 56.91 56.43 55.91 54.90 54.91 54.83 54.47 54.13 51.90 51.36 51.98 50.61 48.90 47.71 47.04 46.11 44.60 43.88 43.76 42.32 41.24 41.18 39.84 38.49 38.25 37.79 37.77 37.34 37.38 36.73 35.79 36.90 37.35
57.28 58.91 59.51 60.33 60.49 59.84 59.63 59.56 58.81 57.56 56.96 57.12 56.05 56.51 55.37 53.78 52.79 51.69 49.91 50.12 49.69 49.21 48.54 46.95 45.82 44.74 43.80 42.75 42.19 41.58 40.51 40.59 38.89 37.00 35.49 33.04 35.74 36.81 37.17 34.99 35.89 33.40 35.10
55.64 57.32 58.80 59.62 59.15 58.52 59.04 59.48 58.97 58.06 57.28 56.96 56.91 53.58 51.06 50.03 48.52 47.59 47.34 48.27 49.18 48.85 47.68 46.16 44.89 44.02 43.98 41.99 41.54 41.53 40.54 38.82 39.43 38.44 37.17 32.44 30.45 31.82 34.59 34.27 33.28 32.74 32.91
55.14 55.94 58.02 58.60 58.38 57.94 59.37 59.93 59.46 58.41 57.53 57.34 56.62 54.31 52.49 50.67 47.80 47.18 47.20 47.63 47.74 45.27 43.77 42.69 41.83 41.38 41.17 40.26 40.55 41.93 40.10 38.79 37.34 36.93 39.44 35.67 34.53 30.82 30.17 32.26 32.40 32.65 33.75
53.35 53.76 56.27 58.23 58.70 58.27 58.86 59.28 59.02 59.45 58.57 57.40 56.99 54.42 51.25 48.68 47.60 46.97 46.29 41.45 42.28 42.87 43.10 42.62 42.25 41.68 40.38 39.73 39.51 39.92 39.80 38.96 37.01 36.38 36.28 35.23 33.85 32.96 31.12 27.02 29.16 31.47 32.65
51.29 53.26 54.60 57.34 57.61 58.44 58.86 58.73 59.17 58.93 58.75 57.77 55.69 54.04 50.38 47.67 46.88 44.22 40.87 40.42 40.84 41.36 41.17 41.85 41.13 42.30 41.68 40.27 40.92 39.38 39.29 39.27 38.48 37.68 37.29 36.27 34.14 32.01 30.45 28.69 27.67 27.62 30.82
52.06 54.13 56.63 57.16 57.71 58.03 58.54 58.73 58.91 58.32 57.98 57.73 53.83 51.35 49.21 48.03 47.04 43.98 41.00 41.44 40.72 40.25 41.08 42.09 41.78 41.64 40.98 41.05 40.99 39.24 38.94 37.69 36.91 36.47 36.88 36.39 35.41 34.81 33.03 30.46 29.22 28.29 29.06
53.44 55.36 57.33 58.22 57.94 58.16 58.50 59.20 58.09 52.62 52.05 53.21 49.98 47.58 47.47 47.60 48.69 46.86 44.06 42.93 42.09 41.63 41.73 41.76 41.73 41.11 41.01 39.63 36.71 36.83 37.41 38.06 37.33 37.64 37.51 36.70 36.68 36.22 34.83 32.29 33.23 33.23 32.12
52.62 55.35 57.49 58.41 58.01 58.40 57.89 57.03 52.18 49.56 47.72 46.95 45.36 44.10 45.42 45.58 45.91 45.52 43.74 42.50 42.16 42.11 41.71 41.24 40.70 40.84 39.89 37.57 36.94 36.31 36.64 37.84 37.40 37.06 36.71 37.03 37.67 36.50 36.73 37.02 37.21 35.24 28.78
52.35 53.71 55.75 55.29 55.87 54.75 51.90 51.14 49.43 47.52 45.48 45.15 45.36 45.01 45.60 45.31 44.16 43.17 42.32 41.90 42.15 42.41 41.37 40.70 40.54 39.80 38.64 37.75 36.35 36.49 37.29 36.68 35.70 36.10 35.68 35.48 36.39 36.86 36.51 35.65 33.83 33.40 28.47
52.09 53.27 54.48 54.23 53.35 51.56 50.40 49.18 47.10 44.71 44.09 45.03 44.11 43.32 42.59 43.01 42.38 42.65 42.41 42.34 42.52 41.76 41.47 41.24 39.99 38.35 37.41 37.73 37.00 36.20 35.77 35.17 34.74 34.75 33.95 34.73 35.46 35.02 34.04 33.11 30.92 28.81 28.28
52.08 53.25 53.16 52.04 50.46 50.76 50.20 48.94 48.00 45.84 45.39 44.89 44.17 43.73 42.81 42.64 43.24 42.93 42.49 42.17 41.55 40.98 40.79 39.27 38.12 37.70 37.56 37.41 36.29 35.04 35.87 34.91 33.26 33.77 34.00 34.17 36.47 33.12 31.28 29.39 27.83 25.98 24.71
50.65 51.06 50.96 50.89 50.56 50.35 49.91 49.57 47.86 45.95 44.65 45.07 44.36 42.13 42.92 43.67 43.22 42.68 42.30 40.58 38.89 38.94 38.19 37.57 37.29 37.50 38.00 37.67 36.39 35.49 35.21 34.07 33.39 33.65 32.99 32.37 31.85 29.13 27.98 26.52 25.04 23.75 25.68
49.51 49.61 49.46 50.46 51.34 50.83 49.35 48.15 46.96 45.15 45.50 45.47 43.84 43.07 43.57 44.08 43.45 43.33 41.79 40.93 40.09 38.81 38.34 38.46 38.68 38.37 37.58 36.84 36.68 35.98 34.25 33.55 33.66 33.84 32.92 32.07 30.29 28.36 26.21 25.21 23.72 23.39 22.12
48.11 47.39 47.98 48.78 49.39 49.35 48.80 47.22 45.96 46.75 46.97 44.27 43.37 44.16 44.16 44.56 43.34 42.25 41.06 40.38 39.94 39.67 39.38 38.93 38.81 38.68 38.06 36.85 35.97 34.83 33.42 31.92 31.15 31.00 30.55 29.27 29.54 31.79 28.18 24.97 22.88 22.30 21.36
46.77 47.60 47.90 48.48 48.93 48.58 47.61 46.18 45.77 46.14 44.62 44.15 43.90 43.85 43.97 41.89 41.36 40.12 39.09 38.42 38.34 38.76 38.89 38.54 37.92 37.11 36.73 36.54 36.64 34.51 31.27 30.74 29.19 28.24 27.88 27.44 31.65 32.24 32.34 31.75 30.01 25.58 21.72
44.75 45.74 46.88 46.68 47.11 47.19 47.52 45.26 44.43 43.69 42.97 44.12 44.05 41.98 39.94 38.54 38.27 38.77 38.63 38.31 38.39 38.59 37.57 36.79 36.25 35.98 36.03 36.23 36.72 35.22 30.02 28.88 28.00 27.58 27.11 27.02 28.18 29.45 27.97 29.99 28.52 27.16 26.97
41.09 39.71 39.31 43.66 45.37 45.28 43.71 43.36 43.38 42.34 40.94 39.42 38.64 38.82 38.57 38.45 38.83 38.77 38.64 38.56 38.31 37.57 36.84 35.62 35.30 34.87 34.74 35.65 35.80 34.32 28.56 27.44 27.45 27.69 26.85 26.01 25.88 26.53 25.63 24.03 23.03 23.03 23.45
37.36 36.78 36.75 37.17 37.62 38.63 39.47 37.79 36.87 37.05 37.16 37.35 38.87 39.43 39.65 39.29 39.16 38.31 37.88 37.89 37.42 36.55 34.73 34.87 32.94 31.69 31.41 34.49 34.96 32.56 26.79 26.59 27.10 28.44 27.64 27.06 25.83 28.15 30.14 24.51 23.34 22.76 22.91
36.99 36.30 36.28 36.11 35.57 35.91 36.91 35.97 35.60 36.19 36.28 38.30 39.20 40.04 39.67 38.92 37.72 37.65 37.32 36.53 35.90 34.44 33.00 31.34 30.76 31.87 30.56 33.02 34.79 33.22 26.07 26.27 26.60 26.86 27.29 31.10 27.45 28.67 29.75 24.07 22.17 20.18 21.81
36.27 36.87 36.76 36.14 36.09 37.01 37.48 36.57 38.15 38.28 39.62 40.93 40.77 39.91 39.51 38.45 38.31 37.30 36.56 34.96 32.42 30.69 28.87 28.82 29.03 29.26 29.90 30.13 33.31 34.83 28.31 27.44 26.95 26.90 26.05 26.23 30.08 29.50 29.73 28.83 23.33 21.71 22.84
35.49 36.13 35.68 35.52 36.32 37.48 38.46 38.22 37.52 38.94 39.52 39.68 38.90 38.43 38.11 37.04 35.78 33.47 32.05 31.01 29.66 28.09 28.06 25.82 27.69 27.75 28.87 31.63 32.26 33.89 33.75 30.15 27.80 26.52 27.24 26.81 29.50 30.38 29.73 28.63 28.31 28.35 25.37
32.48 34.16 34.14 34.30 36.24 37.36 37.92 36.50 37.39 36.87 35.87 34.25 33.38 33.12 33.17 33.18 32.55 30.92 29.65 28.69 28.21 26.00 26.75 27.28 26.94 27.00 28.12 27.69 31.83 33.18 33.04 32.71 29.16 29.16 27.81 29.02 29.77 30.42 29.17 29.97 29.88 25.54 20.66
32.41 34.17 35.08 34.84 34.40 35.66 35.74 35.01 34.84 33.64 32.66 31.49 31.39 31.49 30.76 30.69 30.67 30.40 29.89 28.68 26.13 25.57 27.85 27.68 26.87 26.11 26.65 26.08 26.44 27.61 28.44 30.65 31.40 29.33 28.70 28.10 27.77 25.43 26.10 22.67 25.71 22.80 21.40
35.39 35.73 34.75 34.31 34.09 34.84 34.04 32.72 31.99 32.39 31.18 31.17 31.01 30.71 28.67 29.12 29.18 29.56 29.65 29.44 29.29 29.25 28.21 27.66 26.93 24.68 25.75 27.07 29.24 28.70 26.56 27.88 30.30 29.72 26.59 25.36 24.46 23.83 23.94 21.85 22.53 20.69 19.36
34.90 34.39 34.23 33.64 31.66 30.71 30.61 31.36 32.07 30.99 30.32 30.30 29.88 28.70 28.26 28.42 28.75 28.52 28.99 31.80 32.36 32.21 32.68 32.15 30.61 30.17 31.08 31.59 32.30 32.84 33.14 33.05 31.76 27.62 23.21 23.66 23.27 23.05 22.74 21.31 21.38 17.79 17.32

GFSMW_sfc_wetblb_036.txt.gz
Wetbulb
55.88 55.81 57.25 57.25 58.02 59.26 59.24 58.86 57.71 56.91 56.97 55.93 55.50 54.24 54.34 54.64 54.03 54.53 52.97 53.37 51.71 50.34 49.15 47.72 46.15 45.27 44.04 43.12 42.87 42.00 40.92 40.72 39.54 38.87 38.53 37.88 38.27 38.22 37.47 37.19 36.77 37.76 37.60
54.74 55.66 57.08 57.11 58.48 59.31 59.26 58.61 58.11 56.81 57.14 57.63 55.03 55.51 54.25 53.51 52.74 51.21 49.68 51.01 49.80 48.76 47.92 46.08 44.75 43.80 42.99 42.36 41.98 41.31 40.36 40.38 38.72 37.41 35.66 33.70 36.23 37.26 37.51 36.02 36.53 35.22 36.05
55.09 55.97 57.32 57.46 58.35 59.26 58.99 59.20 58.24 57.09 57.00 56.40 55.71 52.33 51.23 50.21 49.41 47.69 47.15 48.14 48.66 48.01 46.53 45.32 44.02 42.95 42.36 40.86 40.90 40.76 40.12 38.37 38.51 38.02 37.29 33.54 31.72 32.99 35.82 35.75 34.70 34.84 34.79
54.63 56.39 57.35 57.52 58.19 58.98 59.02 59.22 58.30 57.23 56.85 56.64 55.79 53.45 53.28 50.34 48.94 47.33 46.59 46.93 47.23 45.11 44.02 42.43 41.34 40.60 40.48 39.86 40.44 40.88 40.36 39.48 37.55 38.54 38.78 36.13 35.39 32.40 31.63 34.14 33.97 33.76 34.49
52.33 54.71 56.50 58.27 58.99 58.09 57.03 58.52 58.40 58.02 57.98 57.11 56.76 54.72 52.98 51.84 50.17 46.61 45.20 42.23 41.89 41.94 41.85 41.54 40.38 40.05 40.32 40.64 42.48 42.39 41.42 39.36 37.67 36.59 36.47 35.91 34.99 34.06 31.87 29.46 30.68 32.90 34.31
50.81 53.41 55.23 56.80 57.86 56.25 56.83 57.77 57.88 58.29 57.94 57.13 55.89 54.62 51.36 48.87 48.15 45.66 41.88 40.64 40.25 40.43 40.42 40.26 39.98 39.89 40.06 41.54 41.87 39.59 39.27 38.53 38.22 38.04 37.22 37.12 35.16 33.69 30.83 28.53 28.91 28.93 31.84
50.50 50.34 51.33 54.43 55.38 55.95 56.81 57.57 58.26 58.21 58.13 56.99 55.11 53.58 51.52 50.81 49.94 46.17 42.73 40.65 39.74 39.32 39.94 41.11 40.51 41.41 41.48 41.60 41.04 39.46 39.95 38.22 37.19 37.03 36.96 37.31 36.45 35.27 33.63 31.57 30.01 29.74 32.91
50.57 51.05 52.52 53.97 55.72 56.45 57.11 57.51 58.08 58.62 58.05 57.29 55.85 54.36 54.33 51.49 50.15 46.51 42.83 42.66 41.19 41.74 42.57 42.04 42.21 42.31 41.87 40.28 39.49 37.99 36.83 37.19 37.24 36.63 36.40 36.99 36.81 36.18 34.59 33.04 31.09 31.74 34.40
49.62 51.78 53.12 54.83 55.74 56.55 57.26 57.47 58.28 58.80 57.33 57.01 54.59 52.02 51.51 50.53 48.33 45.58 45.06 42.27 42.02 41.40 40.73 43.56 42.31 41.79 40.56 39.66 38.95 38.00 37.01 37.58 37.64 37.19 37.08 36.07 36.57 36.46 36.26 35.38 35.72 35.98 29.68
49.43 51.73 54.46 55.77 56.44 56.64 57.12 57.39 58.34 56.83 53.93 52.54 51.10 49.71 48.86 49.14 48.31 45.45 43.19 41.97 40.55 41.58 43.14 42.55 41.11 40.54 40.07 39.29 38.36 37.54 37.14 36.79 35.68 36.01 35.30 34.98 35.54 35.73 35.63 35.54 35.12 36.28 33.01
49.84 52.04 54.14 56.17 56.81 56.73 55.81 55.43 53.29 50.36 46.53 46.63 45.56 45.16 45.79 47.34 47.14 45.85 43.63 42.86 41.97 42.85 42.60 41.08 40.51 39.80 38.97 38.24 36.43 36.85 36.24 35.53 35.17 35.00 35.27 34.62 34.67 34.95 34.53 33.38 32.26 30.58 30.28
50.29 51.27 52.41 52.62 52.78 53.33 52.24 52.44 49.45 46.81 45.86 46.12 45.72 45.88 45.77 45.32 44.56 43.40 42.19 41.62 42.04 42.57 41.28 40.85 39.53 39.40 38.46 37.32 36.18 36.07 36.34 35.31 34.30 34.20 33.25 34.26 36.17 33.69 32.83 31.21 29.73 28.12 27.04
49.65 50.45 50.58 50.80 51.63 50.79 50.36 49.83 47.88 45.89 44.74 46.00 46.10 46.23 42.99 43.45 41.37 41.49 42.21 41.72 41.04 40.08 39.50 39.80 39.32 38.83 37.94 37.70 37.63 35.89 35.30 34.82 34.19 33.29 32.71 32.53 31.73 30.77 29.46 28.42 27.33 25.88 26.49
49.23 49.36 49.45 49.61 49.55 50.02 49.96 48.14 46.83 44.85 44.71 45.11 44.41 41.88 43.54 43.26 42.61 41.56 40.77 40.46 40.44 39.45 38.06 39.40 38.93 38.42 38.07 38.07 37.25 36.02 34.88 34.45 34.00 33.36 32.91 32.50 31.18 30.00 28.81 27.45 25.96 25.01 23.51
47.56 47.99 48.42 48.51 49.16 49.24 48.48 48.06 46.48 45.10 45.98 43.91 42.13 42.00 43.45 42.14 40.98 41.01 40.44 40.21 39.69 39.22 39.29 38.86 39.30 39.32 38.90 37.58 36.75 35.44 34.26 32.91 32.04 32.27 32.00 31.65 31.75 33.39 29.54 26.44 24.97 23.36 22.40
45.83 46.32 46.59 47.42 48.42 48.76 48.09 46.89 45.17 44.54 44.92 43.10 42.13 42.59 41.96 41.10 40.95 40.53 39.29 38.39 38.74 39.18 39.79 39.28 38.42 38.04 37.69 36.55 36.87 35.46 32.76 31.62 30.49 29.67 29.29 28.64 32.37 32.80 34.31 33.56 30.11 25.80 23.25
40.59 40.44 42.46 44.40 45.23 46.00 46.58 44.40 43.50 43.18 42.24 42.33 42.12 40.62 40.16 38.82 38.03 38.16 39.49 39.40 38.90 39.20 38.65 38.09 37.77 37.30 36.39 35.97 36.85 36.26 31.76 30.42 29.54 28.84 28.42 27.82 27.95 29.97 28.51 31.42 31.64 29.73 29.03
37.48 36.69 36.98 38.44 39.05 41.17 41.23 41.44 41.39 39.46 38.19 37.44 37.87 38.90 39.52 39.79 40.12 39.48 38.73 38.63 38.92 38.34 38.03 37.20 36.90 35.59 35.05 35.10 35.47 35.08 31.89 29.65 29.08 28.38 27.85 27.10 27.04 27.32 27.27 26.39 24.86 24.51 24.47
35.53 34.98 35.20 35.34 35.30 35.43 36.56 36.77 36.53 36.84 37.50 37.87 38.80 40.01 40.37 39.46 39.02 38.50 38.18 38.24 38.14 37.38 37.00 36.24 34.74 32.33 31.10 33.65 34.45 33.81 30.00 28.14 27.90 28.41 28.75 27.83 26.87 28.81 31.31 25.69 24.04 23.78 24.31
35.20 34.97 34.89 34.98 34.88 34.91 36.10 36.07 36.08 36.85 37.11 38.71 39.63 40.13 39.96 39.54 38.54 37.89 37.64 37.68 37.47 36.33 34.10 32.59 31.20 31.48 30.12 32.32 33.95 33.59 27.67 27.16 28.79 28.76 28.91 31.39 28.53 29.90 30.73 27.09 23.90 21.60 23.38
35.35 36.10 35.46 34.59 34.61 36.10 37.75 37.09 37.66 37.63 38.75 39.63 40.07 39.99 39.81 39.41 39.36 38.40 37.01 35.21 33.52 31.46 29.95 29.51 29.29 29.07 29.61 29.95 33.21 34.30 29.54 28.90 28.63 28.49 28.60 28.42 30.60 31.96 31.19 30.57 24.61 23.15 24.56
34.30 35.20 34.88 34.84 35.96 36.79 37.47 36.12 36.56 38.02 38.95 39.54 39.01 38.32 36.99 35.32 34.49 32.47 31.53 31.36 29.95 28.63 28.45 26.41 28.03 28.47 29.15 31.01 31.74 33.36 33.58 31.51 27.77 27.71 27.85 28.32 30.47 31.38 31.44 30.29 28.99 27.99 25.75
32.04 33.28 33.73 33.52 34.22 34.72 35.36 34.12 34.72 35.24 34.12 32.61 31.76 31.37 31.60 31.60 30.55 30.04 29.38 29.07 28.33 25.63 27.17 27.71 27.94 28.68 29.01 27.92 31.24 32.31 32.74 32.81 30.16 28.99 29.26 30.92 31.39 31.54 30.75 30.67 29.72 27.84 25.58
32.26 33.42 33.32 32.91 32.64 33.88 34.13 33.74 33.95 32.16 31.15 30.28 29.97 29.89 29.69 29.94 29.27 29.51 29.42 28.21 26.44 25.89 28.04 28.13 28.14 28.57 28.37 26.77 27.83 27.52 26.50 27.87 29.38 28.97 30.87 30.76 29.80 29.31 29.75 27.98 29.46 28.57 26.04
33.82 34.44 34.00 32.99 31.80 32.50 32.07 31.95 30.54 30.66 29.93 30.28 30.08 29.71 27.93 27.99 28.56 28.61 28.51 28.71 28.83 29.42 28.75 28.79 28.91 28.83 28.35 30.19 30.62 29.33 26.08 25.30 26.96 25.21 30.72 29.24 26.82 26.55 25.97 26.14 26.09 26.01 24.04
33.61 33.07 31.94 31.32 30.70 29.54 28.67 29.48 30.10 29.66 29.35 29.10 28.89 27.20 26.70 25.95 27.59 27.39 27.77 31.17 32.15 32.48 32.68 32.78 31.81 31.62 32.47 32.61 33.04 33.03 33.03 32.90 31.92 28.68 27.95 25.07 25.91 24.95 25.05 24.98 24.74 24.63 23.86

GFSMW_sfc_wetblb_039.txt.gz
Wetbulb
59.05 58.65 59.58 60.09 60.28 61.07 61.75 62.37 62.78 63.19 62.14 61.22 60.54 60.78 61.40 61.81 61.78 61.64 61.67 60.79 59.00 56.61 56.16 54.88 53.66 53.49 52.81 51.53 51.49 50.50 50.13 49.87 49.92 48.18 47.49 47.58 46.51 46.56 47.28 47.44 47.33 45.97 46.48
57.86 58.34 58.80 59.33 59.92 60.11 61.44 63.01 62.92 62.48 62.32 62.22 61.46 61.53 61.32 60.56 60.21 59.38 58.73 59.42 57.23 56.13 55.30 53.97 52.84 52.26 51.00 50.98 50.96 50.79 49.38 49.82 48.91 46.59 45.71 43.71 44.25 45.92 46.24 46.86 45.50 45.43 45.90
57.42 57.15 57.91 58.90 59.95 59.92 60.81 62.09 62.74 62.08 62.18 62.42 61.04 58.48 57.99 57.19 56.66 55.59 55.84 56.70 55.59 54.94 54.05 53.15 51.92 51.49 51.54 49.91 49.94 49.58 48.51 46.09 47.04 46.77 45.77 42.33 41.24 43.71 45.56 44.99 45.77 45.16 44.97
57.71 58.84 58.23 58.67 59.56 60.02 61.55 62.11 62.58 61.93 61.71 61.23 60.64 59.50 59.56 57.46 57.32 55.92 55.16 54.46 54.17 53.15 52.63 51.74 51.08 49.74 49.15 48.66 48.24 48.38 48.22 47.25 45.22 46.10 46.26 46.63 45.60 41.64 39.87 44.80 45.04 45.02 43.73
56.75 58.23 59.32 59.95 60.77 61.39 61.92 62.45 62.65 62.39 61.87 60.84 61.27 60.23 59.31 58.76 56.24 53.79 52.70 52.32 52.07 51.71 50.12 49.48 48.71 48.36 47.98 48.21 48.20 47.64 46.28 45.47 44.16 45.88 45.83 45.29 45.35 44.70 40.56 37.51 40.26 42.49 43.57
55.87 57.38 60.11 61.19 61.30 61.98 62.03 62.43 61.98 61.64 61.21 59.74 59.82 59.28 58.90 55.61 54.04 52.16 50.28 49.70 49.34 48.52 48.30 47.69 48.16 48.01 47.21 47.31 46.07 44.73 44.61 43.33 46.81 46.51 45.78 44.36 42.67 41.57 40.61 38.76 39.38 39.19 40.99
56.53 56.21 56.95 58.81 60.74 60.77 61.28 61.69 61.51 59.62 59.53 59.21 58.62 58.39 57.16 55.83 55.18 52.26 49.53 47.17 46.74 46.98 46.04 46.97 46.24 45.98 46.74 45.36 43.55 43.37 44.37 46.47 45.86 45.53 45.14 45.57 44.63 44.33 42.67 40.35 38.88 37.92 40.38
55.96 56.23 56.79 58.15 59.79 60.65 61.13 61.17 60.90 60.12 58.97 58.85 58.70 58.89 57.64 56.28 56.09 53.43 49.78 47.90 47.86 46.41 46.49 46.46 46.97 46.49 45.96 45.38 42.56 43.38 44.75 45.56 45.46 45.05 45.07 45.32 45.36 44.77 43.21 40.87 39.15 36.70 38.08
53.11 55.21 56.09 56.93 58.47 59.88 60.32 60.97 61.09 61.07 59.39 59.17 59.51 58.50 57.78 56.47 55.23 52.24 49.62 49.13 47.31 46.17 46.41 46.97 46.93 46.38 43.26 44.00 43.78 43.97 44.56 45.08 45.37 45.31 45.67 44.73 44.54 44.30 43.58 42.68 41.62 38.83 32.86
51.38 53.22 55.07 56.20 57.71 59.47 60.55 61.02 61.26 60.90 60.92 60.38 59.58 57.84 58.15 57.47 54.82 50.71 49.23 49.17 47.36 46.39 45.86 46.60 46.72 44.35 45.24 41.55 44.43 44.42 44.17 43.98 44.90 44.89 43.86 43.44 43.43 42.99 42.86 42.22 41.96 40.35 36.92
53.60 54.29 55.50 57.73 58.54 59.39 59.79 60.09 60.60 60.93 60.56 59.22 58.45 57.83 55.97 55.54 53.38 51.02 50.01 47.67 47.00 46.89 45.72 46.36 43.56 42.20 44.23 44.28 43.95 43.10 43.03 42.77 43.45 43.00 42.60 42.36 42.64 41.87 41.93 42.27 41.51 39.92 38.34
53.51 55.09 56.43 57.71 58.61 59.15 59.21 59.12 59.42 58.96 58.16 57.05 54.84 55.03 54.21 51.90 50.90 50.15 49.11 47.69 46.96 46.32 45.96 44.58 42.41 42.25 43.61 43.60 42.71 42.04 41.26 41.60 41.56 41.77 41.66 41.28 40.65 41.18 41.63 40.95 40.06 38.89 38.82
53.33 54.78 55.60 56.39 57.12 57.22 56.56 57.03 56.78 56.36 53.69 52.31 52.33 51.62 50.50 50.88 50.99 50.58 49.96 47.93 46.64 45.60 43.31 41.96 41.28 43.35 43.69 42.73 41.52 41.15 42.65 41.30 41.41 41.57 40.99 40.86 40.89 39.99 40.38 39.85 38.59 38.02 36.27
52.23 53.85 54.23 54.83 55.14 55.24 56.05 55.69 53.65 51.89 50.62 50.76 50.60 50.39 49.62 50.00 49.62 47.25 45.82 44.29 43.96 42.20 43.65 42.33 41.86 42.17 41.06 42.30 41.91 41.54 41.28 41.04 40.83 41.15 40.57 40.84 40.13 39.67 39.54 38.33 37.54 36.38 34.88
51.10 51.79 52.92 53.76 54.03 54.03 53.64 52.94 51.56 50.20 50.00 48.88 48.50 47.84 47.91 47.18 46.11 44.75 42.67 42.40 41.89 41.51 41.14 41.65 42.09 41.64 41.37 41.26 40.65 41.14 41.41 40.58 40.22 40.35 40.01 40.10 39.95 38.44 38.19 37.17 36.96 35.16 33.09
46.80 47.75 49.10 51.04 51.88 52.55 52.87 50.88 49.88 49.15 49.40 48.26 46.67 46.45 44.80 43.69 42.77 41.78 40.96 40.11 40.11 41.62 42.18 40.37 40.61 40.34 41.15 37.67 37.42 37.75 39.58 39.82 38.78 39.09 39.69 39.60 36.93 36.85 35.33 33.99 33.05 33.44 33.03
43.22 43.68 44.71 45.81 47.07 48.47 49.90 49.07 48.28 47.86 46.97 46.19 45.36 44.44 42.32 40.29 40.20 40.72 41.05 40.16 40.98 41.32 40.30 40.57 41.42 40.78 40.09 37.55 37.18 36.20 38.70 39.36 39.49 39.08 38.90 38.15 35.96 34.44 36.07 33.91 33.75 31.55 29.91
40.86 40.69 41.79 42.14 42.67 44.72 44.79 44.87 44.67 43.75 43.08 42.32 41.80 42.28 41.99 40.99 41.00 40.78 41.41 40.20 40.68 40.70 40.89 41.82 40.03 38.67 38.77 36.01 35.23 34.41 38.57 38.55 38.53 38.86 38.78 38.12 37.52 36.35 34.62 33.75 33.34 33.50 33.24
39.16 39.05 39.89 40.16 40.95 41.52 42.12 42.12 41.96 42.07 41.93 41.49 41.71 42.03 41.61 41.91 41.90 40.01 40.59 41.95 41.15 41.74 39.81 38.51 38.00 39.35 38.78 34.75 34.16 34.65 36.97 37.03 37.15 37.53 37.38 36.77 36.06 34.58 32.48 31.98 31.54 31.84 31.60
39.23 38.79 39.10 39.71 39.82 40.20 41.68 41.11 40.90 41.23 40.71 41.72 42.25 43.00 43.32 42.88 41.73 41.68 40.30 39.17 38.69 38.38 39.49 38.66 38.67 36.63 36.86 34.85 33.85 34.66 36.72 35.19 35.17 36.41 35.93 32.77 34.39 32.83 31.81 32.58 31.74 29.93 30.91
38.27 39.19 39.54 39.07 39.97 41.57 41.88 40.73 40.82 40.20 41.71 42.33 42.50 41.75 41.16 40.08 39.46 39.41 40.23 39.60 38.87 38.08 37.34 36.05 37.20 36.96 36.23 36.51 34.03 34.17 35.59 35.40 34.89 34.52 34.78 35.64 32.26 32.34 32.33 32.22 32.36 31.72 32.17
38.04 39.32 38.92 39.10 40.17 41.04 40.57 38.99 38.31 40.44 40.83 38.88 37.28 37.23 37.66 36.93 36.88 37.02 37.21 36.97 36.63 35.60 35.38 34.75 35.20 36.51 36.34 34.12 34.39 33.76 33.61 34.65 34.65 34.05 35.37 35.75 32.79 32.14 32.29 32.32 32.26 31.20 29.13
37.66 38.70 38.10 37.10 37.71 38.34 38.70 36.54 36.59 37.00 36.27 35.71 35.08 35.21 35.28 35.18 35.33 35.38 35.33 35.07 35.30 34.29 33.88 33.44 33.82 34.72 35.88 36.58 34.10 32.69 32.64 32.52 33.97 36.13 35.23 33.01 32.28 31.67 31.11 31.73 32.04 30.99 30.00
36.43 36.74 36.08 34.84 34.01 35.22 34.88 35.32 35.07 35.63 35.46 34.81 34.33 34.32 33.95 33.74 34.16 34.28 33.87 33.46 33.13 32.63 32.21 32.21 31.80 32.28 32.75 34.15 35.67 35.20 35.92 33.07 32.47 32.68 34.09 32.95 31.24 31.49 32.14 31.39 31.71 32.42 31.50
35.80 35.98 34.48 33.58 32.89 32.90 32.35 32.63 33.32 34.73 33.34 32.84 32.03 31.51 31.17 30.95 30.99 31.23 31.16 30.60 31.72 31.25 30.03 29.92 30.31 29.78 30.07 30.99 32.54 33.06 32.88 34.08 34.26 32.25 32.25 32.22 31.59 30.37 29.81 30.66 31.36 31.35 31.27
34.82 33.81 33.11 30.96 29.99 29.52 28.45 30.11 31.24 30.90 30.28 28.76 28.62 27.54 27.82 28.15 28.16 27.75 27.94 28.91 28.06 28.20 28.33 28.87 29.52 30.64 29.01 26.89 27.43 28.14 29.88 31.55 32.19 31.87 31.19 31.54 31.33 30.61 29.22 28.79 28.86 30.28 29.32

GFSMW_sfc_wetblb_042.txt.gz
Wetbulb
59.62 61.61 63.23 64.05 63.70 63.71 63.05 63.03 63.61 64.57 65.05 64.71 63.35 61.67 60.89 63.07 65.20 66.07 66.50 64.97 64.86 63.82 63.27 61.98 60.75 60.07 58.70 57.91 57.00 55.29 53.88 53.42 53.83 52.37 52.21 51.95 51.48 50.85 50.60 50.67 50.39 49.66 49.63
59.67 59.85 62.02 62.86 63.31 63.51 64.07 63.80 63.51 64.25 65.23 65.60 65.24 62.83 63.48 63.25 64.39 65.49 65.68 65.41 64.93 63.12 62.23 61.16 59.69 59.10 57.72 56.54 55.58 54.43 53.01 53.25 53.73 51.12 50.32 49.50 49.43 49.55 50.12 50.27 49.71 49.31 49.73
59.28 59.97 59.84 61.83 62.98 62.74 63.32 63.76 64.33 65.27 65.73 65.74 65.32 63.64 64.59 64.83 64.22 63.69 63.22 63.79 63.37 62.31 61.29 60.26 59.36 58.11 57.26 55.60 55.00 53.71 51.52 51.31 52.26 51.02 48.76 46.19 45.63 48.11 49.70 49.29 49.36 48.71 48.60
60.47 61.05 60.86 61.05 61.82 63.02 64.17 64.15 64.85 65.64 66.01 66.28 65.12 63.30 61.71 61.13 62.94 63.22 62.38 62.28 61.99 61.29 60.08 59.04 58.26 57.47 56.63 54.84 53.69 52.13 52.63 50.18 47.70 47.15 48.34 48.76 47.89 44.46 44.25 48.06 48.13 48.79 47.08
60.19 60.89 61.82 62.13 62.66 63.16 63.49 64.28 64.66 65.82 65.71 65.66 65.47 64.18 63.28 63.59 64.36 62.90 61.15 60.54 60.15 59.51 58.67 57.89 57.35 56.28 54.83 54.02 52.33 52.02 50.64 48.41 46.87 48.44 48.53 48.54 48.25 48.10 44.50 41.96 44.43 46.97 47.31
60.53 61.21 62.41 63.48 63.61 64.15 64.16 64.31 64.26 64.50 65.74 65.20 64.78 64.49 64.42 64.15 61.80 60.74 59.09 58.41 57.78 57.29 55.99 55.68 55.56 55.20 53.49 52.46 52.04 52.30 49.82 46.40 48.03 48.99 48.67 47.22 46.27 45.34 44.27 42.91 43.62 43.30 44.95
60.44 61.21 61.57 62.63 63.76 64.25 64.56 64.67 64.42 63.13 63.59 63.40 61.90 62.60 63.09 63.51 60.69 60.50 59.17 56.69 55.95 54.25 53.61 53.55 53.21 52.72 51.48 51.65 51.88 48.23 48.57 46.55 48.94 48.51 48.00 48.30 46.99 46.81 45.60 43.57 42.46 41.59 43.95
59.65 60.88 62.04 62.76 63.47 64.47 65.25 64.80 63.63 62.47 63.50 62.99 59.91 61.82 62.04 61.21 60.66 61.79 59.68 57.12 53.65 53.44 51.97 51.69 51.73 50.75 50.55 49.75 47.96 46.07 45.32 48.19 47.38 48.23 47.82 47.25 47.81 47.33 45.71 43.40 41.80 39.75 40.97
56.87 58.78 60.97 62.78 63.16 64.11 65.12 65.44 64.78 63.64 64.24 63.11 61.00 61.02 61.58 60.69 60.28 60.81 59.84 55.99 53.33 51.25 51.03 50.67 49.38 49.63 48.65 47.65 45.19 45.65 45.13 47.27 48.47 48.06 47.73 47.08 46.68 46.42 45.91 45.17 43.81 40.85 37.19
56.02 57.33 58.89 60.27 61.80 63.32 64.75 65.60 65.60 65.08 65.15 63.85 62.16 60.89 61.52 61.11 60.51 60.00 58.12 54.22 52.76 51.41 50.56 50.22 49.55 48.89 47.36 45.83 42.90 42.84 46.86 47.16 47.98 46.37 46.13 45.81 45.63 45.67 45.41 44.49 43.97 43.23 40.51
57.16 57.73 58.83 60.38 61.40 62.21 63.31 63.89 64.32 64.32 64.78 64.64 63.98 61.01 61.24 61.38 60.54 59.64 58.12 55.91 54.18 50.92 48.70 48.46 49.03 47.28 45.07 44.18 44.09 45.92 45.18 45.81 44.26 46.21 44.76 44.16 45.11 44.59 44.49 44.19 43.61 42.40 41.64
56.90 59.11 60.02 61.00 61.49 61.81 62.44 62.65 63.28 63.55 64.25 64.78 64.31 62.76 60.91 59.60 58.31 56.58 55.56 54.16 51.19 48.22 49.27 49.91 47.82 45.31 46.72 45.45 44.37 43.98 44.58 44.56 44.49 44.42 44.93 43.94 43.85 43.88 44.14 43.32 42.58 41.85 41.97
56.75 58.65 59.91 60.81 61.71 62.17 62.33 62.37 62.81 63.08 63.30 62.71 61.52 60.49 58.23 55.82 54.40 53.35 51.86 49.90 48.94 49.09 48.90 47.78 45.34 44.88 45.51 43.84 43.90 43.86 43.51 43.85 45.22 44.82 44.33 44.05 44.14 43.21 43.32 42.71 41.90 41.66 40.54
53.82 58.07 59.29 60.03 60.80 61.26 61.44 61.79 61.35 60.76 58.67 58.65 58.24 57.12 56.82 56.33 56.27 54.85 53.02 50.76 49.59 48.12 44.78 44.99 44.76 43.92 43.29 43.19 43.33 43.20 42.90 42.63 44.13 43.96 44.13 44.20 43.83 43.32 42.80 41.98 41.77 40.82 39.69
54.47 56.59 58.42 59.53 59.96 59.96 59.52 59.70 58.58 58.03 57.91 56.77 56.36 55.21 55.09 54.38 53.24 51.77 51.39 50.20 50.59 47.05 43.87 43.09 42.26 43.86 43.44 43.14 43.80 43.43 41.24 42.19 43.48 44.00 44.20 44.38 43.37 41.25 41.17 41.57 41.39 40.71 39.10
53.33 54.90 56.50 57.46 57.41 57.57 57.59 56.33 55.83 55.29 55.86 54.42 52.80 52.31 51.27 49.44 48.62 47.16 46.30 43.11 42.46 42.67 42.23 42.98 42.34 42.53 43.65 39.07 38.12 38.70 40.07 42.39 41.82 41.98 42.94 43.67 41.33 40.08 37.57 36.69 36.46 37.38 38.25
51.18 51.56 52.20 52.86 54.03 55.00 55.59 54.34 53.64 53.54 52.71 51.61 50.50 49.23 48.09 45.79 44.82 43.65 42.35 41.54 43.36 42.00 42.08 42.50 44.53 42.93 43.36 38.37 38.33 37.63 40.86 41.18 41.77 42.07 41.74 41.53 41.70 40.07 41.77 36.47 34.74 33.68 32.87
48.77 49.33 50.21 50.92 51.93 52.50 52.12 52.13 51.80 50.67 49.81 48.73 47.72 47.28 46.80 45.04 44.79 44.07 44.00 42.80 42.93 42.12 42.90 43.53 43.19 44.63 43.36 37.55 37.80 35.60 39.77 40.69 41.19 41.21 41.28 41.02 41.45 41.96 40.91 40.10 39.32 38.54 38.22
48.16 48.34 49.12 49.59 49.94 49.77 50.16 49.57 49.13 48.63 47.74 46.78 46.39 46.35 46.51 45.85 45.56 44.82 44.89 45.57 45.68 44.80 44.18 42.29 39.71 38.76 39.62 38.19 35.83 35.28 39.98 39.41 39.76 40.28 40.57 40.57 40.30 38.38 36.94 38.30 37.83 37.39 37.00
47.16 47.01 47.70 48.07 48.23 48.48 49.09 48.20 47.21 46.84 45.61 46.03 46.03 46.44 46.39 45.82 44.99 44.87 42.77 40.13 40.27 40.05 40.97 42.21 42.96 40.19 41.41 37.84 35.81 36.04 39.00 38.21 38.39 39.68 39.73 35.77 37.09 35.58 34.52 36.89 36.34 35.37 35.82
45.69 46.78 47.38 46.79 47.12 47.96 47.92 46.33 45.92 44.65 45.42 45.60 44.85 43.76 42.10 40.20 41.32 42.72 42.99 42.99 42.50 41.60 41.24 40.13 41.08 41.13 40.20 40.38 36.26 35.66 37.51 37.86 38.36 38.07 38.29 39.18 34.87 33.98 33.63 33.44 35.55 35.76 37.40
44.65 45.96 45.49 45.53 46.35 46.71 45.82 43.50 41.59 42.86 43.39 41.58 40.12 41.29 40.80 39.60 40.13 40.27 40.66 40.27 40.15 39.06 38.68 39.22 38.84 40.18 40.49 36.83 36.69 35.37 34.55 34.79 35.96 35.94 38.90 38.96 35.64 34.71 33.65 33.21 33.10 32.47 32.70
45.07 45.43 44.68 44.00 44.74 45.33 44.96 42.04 41.01 41.09 40.82 39.87 39.29 39.37 39.55 39.48 39.76 39.62 39.20 39.23 38.86 37.70 36.71 35.63 35.69 35.76 36.40 36.09 33.63 33.41 33.56 33.32 35.32 36.57 35.77 34.08 33.65 33.83 32.87 31.98 31.56 31.29 33.81
44.06 44.02 42.47 40.93 40.09 41.40 41.29 40.70 40.23 40.42 39.68 38.77 38.19 38.38 36.96 37.45 37.30 37.66 36.41 35.55 34.72 33.64 32.63 32.36 32.17 32.76 33.33 33.94 31.44 30.63 31.89 30.81 32.89 32.50 34.77 33.49 32.75 32.86 33.80 33.21 33.44 33.10 33.67
42.53 42.29 40.86 39.37 38.36 38.59 38.14 38.86 38.93 39.34 37.85 36.69 35.64 34.82 34.31 33.75 34.34 33.86 33.26 32.24 32.83 29.85 29.50 30.34 30.21 30.00 29.17 27.50 26.76 27.36 28.28 28.86 29.23 29.50 32.41 31.71 32.85 32.93 32.93 33.52 32.95 33.13 33.53
41.13 40.22 38.93 37.28 36.06 35.46 35.10 35.12 35.80 36.65 35.07 32.98 32.47 31.21 32.49 32.84 32.69 32.15 32.45 27.72 27.22 26.72 26.90 26.32 26.88 28.15 25.97 24.16 24.58 25.76 25.86 26.39 27.02 30.52 30.33 31.59 32.56 32.68 33.41 33.45 31.75 31.45 30.90

GFSMW_sfc_wetblb_045.txt.gz
Wetbulb
58.05 60.69 59.82 60.87 60.25 60.93 61.95 62.21 61.83 62.54 63.90 63.47 62.14 61.04 59.84 61.12 62.41 64.37 65.37 66.22 66.19 65.37 64.76 64.39 63.73 63.10 62.00 61.16 60.42 58.56 56.28 54.87 54.67 53.08 54.81 55.28 54.56 53.10 52.66 52.45 51.77 51.16 50.78
59.51 60.51 61.86 62.09 62.69 62.32 62.61 62.46 62.13 62.80 64.35 64.59 64.41 62.83 62.06 61.17 62.72 64.45 65.78 65.87 66.19 65.60 64.68 64.51 63.15 62.65 61.19 60.51 59.03 57.41 55.44 55.10 54.28 53.32 53.28 51.02 51.40 52.19 52.21 51.94 51.33 51.28 51.11
57.84 59.52 61.01 62.22 62.83 62.31 62.68 62.91 63.48 64.09 64.62 65.07 65.13 64.33 62.84 62.67 61.50 63.14 64.30 65.13 65.62 65.68 64.86 64.39 63.07 62.00 61.42 58.82 57.92 57.00 55.83 52.72 54.16 54.52 50.34 46.22 47.12 49.27 52.27 51.08 51.45 51.39 49.98
59.28 59.34 60.09 61.93 62.79 63.44 64.41 64.66 64.65 64.78 64.14 65.64 64.73 63.58 60.94 60.69 63.03 63.87 64.17 64.42 65.43 64.93 64.18 63.01 62.44 61.20 60.18 59.16 57.90 56.85 55.75 54.51 52.87 51.82 51.33 51.10 50.39 45.97 45.48 50.52 50.46 50.34 49.19
59.32 59.85 59.69 60.11 63.13 64.33 64.18 64.80 64.84 64.84 65.67 65.92 65.37 64.88 62.96 62.91 64.04 64.38 64.15 64.29 64.46 63.98 62.91 62.21 61.39 60.33 59.39 58.96 57.72 55.62 54.52 53.91 51.12 51.54 51.13 50.77 50.46 49.94 46.70 44.43 47.06 49.25 49.01
59.39 60.47 61.66 61.80 61.34 62.93 64.63 65.79 64.32 64.32 65.19 65.82 65.50 65.31 64.12 63.93 64.31 64.39 62.83 62.76 62.67 62.38 61.89 60.92 60.33 59.94 58.32 57.32 55.85 54.60 53.31 51.15 50.65 48.17 49.88 49.27 47.24 47.55 46.96 45.06 45.48 45.49 47.26
59.26 59.76 60.42 61.58 62.36 62.56 63.61 64.76 63.94 63.07 65.03 65.88 64.61 65.20 64.83 64.77 61.46 62.45 62.02 61.20 60.91 60.14 60.01 59.82 58.14 56.43 55.12 55.68 54.29 51.98 50.55 49.07 46.49 48.45 49.88 49.65 49.18 48.79 47.27 45.58 44.07 43.07 45.28
59.65 60.21 60.54 61.46 62.67 63.76 64.15 64.43 63.99 63.78 64.31 64.61 63.59 64.23 64.88 64.01 63.03 61.63 61.05 59.86 59.33 58.65 59.34 57.03 54.02 53.20 53.41 52.04 50.75 50.29 48.16 46.89 47.53 47.81 49.03 48.69 48.47 48.69 47.46 45.52 43.11 40.44 41.75
58.13 59.89 61.08 61.89 62.76 63.99 65.72 66.58 65.22 64.58 64.70 64.81 62.18 63.15 63.94 63.37 63.15 62.22 61.98 59.71 58.58 58.50 56.21 53.04 51.43 51.60 50.24 50.97 51.08 47.81 45.15 48.47 47.86 46.34 48.96 47.65 48.07 48.17 47.35 46.24 44.54 41.79 37.39
57.36 58.58 60.19 61.84 63.19 64.41 66.40 68.27 66.80 65.77 65.06 63.90 64.55 63.79 63.44 62.82 62.55 62.07 61.00 59.03 58.82 56.10 52.84 51.78 50.92 50.75 50.93 50.64 48.45 47.40 46.57 45.75 48.15 46.68 46.40 47.09 47.97 47.02 46.41 45.81 45.11 43.70 41.00
58.38 58.71 59.87 60.90 62.25 64.09 65.02 65.93 66.69 66.61 65.15 65.05 64.49 64.25 63.05 62.66 61.88 60.98 60.74 59.15 56.80 54.06 52.63 52.18 50.32 48.81 49.45 47.64 46.56 44.69 45.29 46.22 45.90 45.66 45.88 46.12 46.38 45.89 45.86 46.00 44.40 42.99 42.08
56.81 59.29 60.63 61.65 62.13 62.58 63.55 64.76 65.58 65.88 66.05 64.61 63.96 63.79 62.85 62.82 60.67 60.00 59.01 58.15 56.32 55.77 53.52 50.69 48.24 49.12 47.99 45.48 43.95 44.83 44.81 45.33 44.30 44.03 44.69 44.81 45.25 45.88 44.82 44.40 43.97 43.16 43.48
56.49 58.72 60.77 61.45 62.12 62.90 63.37 64.02 64.56 64.76 65.35 65.42 64.33 62.47 60.76 59.09 58.45 56.93 55.90 54.33 53.64 52.03 49.52 48.80 49.50 46.56 45.79 44.91 43.88 44.33 43.80 43.85 44.00 44.01 44.69 44.56 45.31 44.53 44.84 44.17 43.89 43.42 42.15
55.08 57.72 59.99 61.13 62.15 62.93 63.09 63.39 63.90 64.80 64.55 64.16 63.50 61.91 58.40 56.95 56.38 54.94 53.09 51.22 50.23 49.40 49.81 48.40 45.38 45.89 44.65 43.74 43.92 43.19 42.85 43.10 43.92 43.63 45.30 45.29 44.25 43.92 44.09 44.66 44.32 42.96 42.46
54.46 56.25 59.47 60.93 61.87 62.17 62.81 62.90 61.93 61.48 61.53 61.04 60.59 58.37 57.91 57.81 56.81 55.96 54.32 52.69 51.00 48.66 46.16 45.26 45.33 43.94 43.11 43.33 42.98 43.21 44.47 43.85 43.01 42.68 44.07 44.97 44.25 42.13 42.02 43.00 43.88 43.34 41.60
55.57 57.53 59.62 60.68 60.82 60.84 61.06 59.96 59.46 59.16 59.31 58.00 56.26 56.17 55.06 53.81 52.78 52.01 50.75 50.30 49.27 47.52 45.74 42.58 43.13 43.18 43.88 40.83 39.33 40.33 44.06 41.99 41.33 41.28 43.59 44.32 42.18 42.37 38.84 38.67 38.08 38.53 40.04
55.58 56.93 58.15 58.98 59.49 59.13 58.83 57.57 57.10 57.12 55.69 54.40 53.23 52.12 51.04 49.47 48.44 47.78 46.96 45.94 45.68 45.88 44.60 44.12 44.41 44.13 45.70 38.91 38.69 37.86 41.13 40.52 40.71 42.15 42.22 41.91 42.23 40.92 42.52 39.40 36.64 36.44 35.52
54.38 54.79 55.44 56.10 56.90 57.19 56.36 55.75 55.33 54.26 52.99 51.66 50.56 50.14 49.11 47.69 47.45 47.36 46.48 46.51 46.10 45.53 45.19 45.20 45.50 45.21 42.86 38.35 38.26 37.19 40.94 41.97 41.63 41.65 41.59 41.57 41.72 42.11 41.28 41.58 41.44 41.44 41.31
53.77 54.02 54.62 54.42 54.49 54.15 54.33 53.42 52.44 51.80 50.81 49.80 49.27 49.11 49.13 48.07 47.66 46.88 46.07 46.11 45.55 45.48 44.93 42.73 42.82 42.31 43.72 38.60 37.69 38.07 40.84 40.14 40.01 40.63 40.87 40.90 40.86 38.98 37.79 38.45 38.91 39.58 39.92
52.31 52.05 52.71 53.00 52.68 52.70 52.95 51.61 50.47 49.81 48.66 48.65 48.66 48.80 48.53 47.84 46.29 45.69 45.05 44.84 44.39 44.36 44.31 43.79 43.99 40.71 42.30 38.04 36.94 37.14 39.46 37.91 38.26 39.17 39.97 37.23 38.18 36.14 35.57 37.95 37.09 35.66 37.55
51.15 51.80 51.92 51.36 51.45 52.04 51.60 49.76 49.18 47.98 48.44 48.66 47.84 46.91 46.70 45.73 45.65 45.01 44.37 43.68 43.16 42.94 42.54 41.21 41.95 41.72 40.70 40.60 36.04 35.29 36.75 35.96 34.68 35.07 36.27 38.07 35.89 35.60 35.45 34.99 36.92 36.19 37.32
49.65 50.90 50.18 49.87 50.94 51.29 50.29 48.43 47.04 47.25 46.95 46.14 44.97 44.41 43.07 41.84 42.41 42.44 41.91 41.58 41.81 41.12 40.44 39.91 39.57 40.87 40.79 35.25 34.59 33.65 31.37 30.74 32.40 31.95 35.00 36.12 34.29 33.62 33.62 33.56 33.79 34.14 33.16
49.80 50.25 49.56 48.76 49.21 49.21 48.25 45.99 45.45 45.74 45.01 43.50 41.68 41.21 41.38 41.35 41.43 41.16 40.54 40.73 39.79 38.19 36.77 35.47 35.56 35.81 36.56 36.79 32.37 31.17 30.16 30.03 29.99 31.54 31.20 30.30 31.03 32.13 32.67 32.73 32.82 32.59 34.01
49.27 49.55 48.18 47.00 46.48 47.39 46.71 45.51 45.03 44.37 42.81 41.31 40.97 40.56 39.86 39.13 39.02 38.95 37.79 36.94 35.96 34.64 33.15 32.56 32.52 32.87 33.14 33.49 30.30 28.60 29.55 28.71 29.43 29.24 30.40 29.29 29.10 29.13 30.49 31.93 33.98 33.39 34.01
48.66 47.82 46.48 45.45 44.37 44.52 43.53 43.38 43.01 42.76 41.06 39.70 38.76 37.75 36.54 36.71 36.18 35.77 34.67 33.49 31.37 29.48 30.11 30.76 30.19 29.34 28.49 27.83 24.76 24.73 25.71 27.20 26.81 26.74 29.33 31.77 32.65 32.37 32.80 33.45 33.99 34.59 33.97
46.71 45.54 44.58 43.23 42.23 41.56 40.66 41.21 41.76 41.12 38.81 36.20 35.43 35.14 35.14 34.95 35.10 34.44 32.34 27.91 28.17 27.21 26.89 25.71 25.75 27.41 25.41 23.40 23.01 23.97 24.51 24.60 25.56 27.04 28.18 28.46 29.50 29.05 29.15 30.69 31.10 33.56 33.38

GFSMW_sfc_wetblb_048.txt.gz
Wetbulb
57.35 58.12 57.72 57.77 57.56 55.76 56.32 55.73 54.57 56.04 58.89 58.85 57.70 58.91 58.05 59.87 60.55 60.79 61.61 64.15 63.98 64.38 63.47 62.51 61.94 60.54 59.89 58.91 58.72 56.48 53.83 50.97 50.60 47.82 49.19 50.43 51.00 49.76 48.83 48.66 47.81 47.84 47.49
57.22 57.49 56.53 57.60 57.45 56.99 57.15 57.94 58.54 58.59 59.78 60.12 60.50 60.70 59.71 59.17 60.29 61.19 62.62 64.40 63.76 63.87 63.07 62.11 61.21 60.31 59.68 58.87 57.27 55.48 52.31 52.16 51.16 48.05 48.71 46.43 47.06 48.31 49.30 48.00 47.76 46.41 47.23
56.01 56.99 57.26 57.44 58.49 58.53 58.40 58.97 59.84 59.70 60.69 62.01 62.46 62.09 60.75 59.47 58.39 59.90 62.50 63.66 64.16 63.54 63.09 62.36 61.75 60.61 59.90 57.80 56.48 55.42 53.24 49.85 49.52 49.86 47.64 43.75 43.25 43.50 47.35 47.17 47.08 47.12 46.10
57.92 58.19 58.76 58.45 58.95 59.81 60.79 61.38 61.20 61.15 61.11 63.03 62.10 61.62 59.41 57.77 58.02 58.81 61.96 63.30 63.73 63.14 63.39 63.05 61.86 60.43 59.02 57.25 56.11 55.60 53.35 51.45 48.66 49.05 49.85 48.94 47.39 41.12 39.87 45.27 45.96 46.90 46.08
57.66 58.68 59.30 60.59 60.76 61.56 61.70 61.80 61.68 61.80 62.48 62.80 62.92 61.37 60.60 59.38 60.74 59.92 61.68 61.95 62.83 63.38 62.85 62.24 61.06 59.75 59.01 58.00 56.30 55.01 53.98 50.93 48.96 49.24 47.86 48.57 48.40 45.95 42.60 39.26 42.33 44.91 45.11
57.94 58.63 59.66 61.07 61.34 62.40 62.60 62.20 62.14 62.20 63.28 62.73 62.08 61.89 60.75 60.76 60.26 61.03 61.19 61.47 61.58 61.84 61.32 61.42 59.80 59.29 58.03 57.42 56.39 54.31 52.37 48.65 48.68 47.89 46.67 45.92 45.35 44.49 43.95 41.99 41.08 40.57 43.02
57.55 58.56 58.56 58.37 60.39 61.43 61.86 62.46 62.75 62.14 62.93 63.38 62.73 62.45 62.25 62.64 61.46 61.24 60.41 59.60 59.38 59.13 59.20 59.89 58.58 57.44 56.91 54.97 53.27 51.41 50.37 48.17 46.66 46.09 45.89 47.06 46.03 46.39 45.03 42.98 40.38 39.15 41.23
58.05 58.40 59.46 59.38 59.09 60.13 62.18 62.48 62.56 61.94 62.70 62.88 63.39 62.91 62.66 62.36 62.23 61.77 60.98 59.54 59.00 59.16 58.32 58.05 57.25 55.03 53.53 51.87 50.57 49.58 48.42 46.72 45.55 44.16 46.70 45.86 44.77 46.21 45.52 42.37 40.35 36.79 37.82
58.24 58.61 59.49 60.59 60.71 60.65 60.98 61.91 62.43 62.56 62.49 63.02 63.20 62.04 61.27 61.91 62.23 61.55 60.82 60.08 59.23 58.86 57.74 57.05 52.92 51.94 50.57 49.60 48.64 47.18 45.06 45.08 46.02 45.98 45.57 44.69 45.67 46.14 45.29 44.43 42.38 38.77 33.71
57.66 58.29 59.56 60.16 60.78 61.85 61.97 62.17 62.51 62.13 62.79 63.03 63.45 62.54 59.95 60.71 62.74 62.38 60.98 60.63 59.56 57.91 55.74 52.60 51.52 50.10 49.01 49.48 47.06 45.46 44.84 45.21 45.48 45.73 44.87 44.74 45.28 45.31 45.11 42.15 42.33 40.66 37.14
57.30 58.05 58.80 60.31 60.97 61.79 62.43 63.01 63.51 63.27 63.11 63.84 63.74 62.72 62.23 61.72 62.10 60.83 60.23 60.33 58.29 54.45 52.25 51.39 50.44 49.29 48.64 48.07 46.25 44.86 44.07 44.08 43.51 45.30 44.58 44.44 44.97 44.31 42.46 42.14 40.88 39.77 38.90
57.13 58.64 59.58 60.23 60.27 60.95 62.85 64.54 64.69 64.76 63.56 63.49 63.36 62.90 62.73 61.98 59.97 59.60 58.99 57.93 54.07 52.79 51.65 51.04 49.84 48.73 47.88 47.09 45.17 42.86 42.92 44.59 43.49 43.64 44.13 43.80 44.60 42.07 43.15 41.12 39.99 39.26 38.71
55.42 57.45 59.55 60.13 60.62 61.34 61.86 63.06 64.54 64.66 63.16 64.26 63.09 62.56 61.30 59.65 58.55 56.99 55.59 55.37 54.25 53.19 50.63 49.43 47.87 47.51 46.25 44.92 43.29 43.88 44.02 43.35 43.45 43.62 43.08 43.13 43.29 42.88 42.16 42.46 40.19 40.00 41.26
54.62 55.52 58.58 60.09 61.17 61.78 62.24 62.85 63.19 64.16 63.59 63.29 61.94 59.21 57.81 56.58 54.94 53.51 51.64 50.38 49.51 47.90 47.30 47.79 47.03 45.22 44.15 44.12 44.47 43.66 42.75 42.39 42.83 43.20 42.99 43.17 43.02 42.80 42.13 41.19 39.51 40.24 39.32
53.73 54.82 56.77 59.64 61.10 61.62 62.15 62.56 61.77 61.74 61.94 61.26 58.98 56.95 56.74 56.39 55.00 53.27 52.46 50.86 49.88 48.26 45.87 44.74 44.22 44.19 43.55 43.43 43.05 42.80 41.86 41.36 40.97 42.20 42.87 42.53 42.70 42.16 41.35 41.23 38.20 37.02 37.00
53.17 55.24 56.64 59.83 60.57 60.93 61.43 60.90 59.82 59.78 60.17 57.61 56.54 56.29 55.82 55.38 54.59 53.33 51.66 50.21 47.47 45.52 44.67 43.60 42.50 41.19 43.01 40.04 40.74 41.22 41.91 42.21 41.23 40.23 41.33 41.33 41.44 41.29 38.98 38.45 38.33 38.24 36.63
55.10 56.55 57.90 60.00 60.46 60.46 59.71 58.79 58.47 58.34 56.59 55.10 54.31 53.05 51.56 49.39 48.33 47.28 46.51 45.59 44.15 44.25 42.54 42.15 42.49 42.77 43.08 39.42 39.09 38.08 40.42 40.33 40.38 39.94 39.78 40.57 40.97 38.17 38.71 37.85 36.88 35.69 36.26
55.34 56.99 58.46 58.92 58.74 58.66 57.91 57.10 56.43 54.68 53.26 51.85 50.89 49.80 48.43 46.86 46.23 45.85 44.85 44.00 43.94 43.23 42.89 42.67 43.68 43.78 40.94 38.77 38.75 37.87 39.38 39.04 39.14 38.71 37.82 36.77 36.66 37.21 36.97 35.49 33.78 34.94 35.97
55.90 56.24 57.00 57.47 56.97 55.62 55.42 54.37 52.99 51.81 50.51 49.41 48.88 48.46 47.78 46.86 46.43 45.21 44.58 44.90 44.89 44.33 43.68 43.17 42.59 41.18 41.68 38.01 37.86 37.27 37.95 37.03 36.11 37.81 36.83 37.08 35.99 36.68 36.27 34.23 33.35 34.10 34.71
54.73 54.39 54.82 54.63 53.87 53.46 53.23 51.53 50.19 49.76 48.64 48.69 48.54 48.81 48.28 47.06 45.72 45.07 44.69 43.85 43.66 43.21 43.12 42.90 42.55 38.72 39.00 37.16 35.79 35.74 34.19 32.41 31.00 32.88 34.21 34.50 34.53 34.60 34.77 32.17 31.91 31.11 32.34
52.92 53.33 52.91 51.79 51.89 52.39 51.66 49.77 48.96 47.85 48.63 48.68 48.10 47.34 46.68 45.52 45.13 44.39 43.95 43.36 41.84 41.30 38.32 37.48 37.97 38.87 35.65 33.76 33.58 32.81 29.81 27.27 27.67 28.22 28.63 29.27 32.50 32.04 31.42 30.90 28.29 29.00 31.62
51.30 51.84 50.88 50.66 51.15 51.45 50.25 48.32 46.95 47.80 47.33 46.50 45.08 44.85 44.91 43.96 43.18 40.98 40.06 39.57 39.29 37.42 35.70 34.76 34.05 34.54 32.88 32.04 31.76 30.14 29.47 29.36 26.57 26.32 27.12 27.91 30.17 30.19 30.02 29.81 30.20 31.20 30.99
49.99 50.94 50.21 49.63 50.09 50.39 49.66 46.97 46.12 46.38 45.34 44.66 42.50 40.58 40.98 41.09 40.97 39.61 38.20 37.55 36.81 33.71 31.43 30.52 30.70 30.63 30.66 30.50 29.15 28.04 27.67 27.95 25.60 26.55 27.69 27.96 28.74 29.23 28.91 30.56 30.73 28.95 28.24
49.46 50.01 49.27 48.05 47.67 48.53 48.19 46.56 46.03 45.62 43.34 40.47 39.81 39.66 38.46 38.05 37.86 37.08 36.03 34.81 31.57 30.40 29.69 29.25 28.28 28.19 28.54 25.44 24.45 24.05 23.88 25.51 25.36 25.16 24.10 24.37 26.13 27.26 28.49 29.15 30.16 30.74 30.37
49.70 49.36 47.80 46.72 46.37 46.88 45.52 45.35 44.73 43.30 41.09 39.98 38.67 36.60 35.80 35.29 34.36 30.94 31.35 29.06 27.45 27.85 27.55 26.90 26.86 24.51 23.19 22.54 23.32 22.83 22.63 22.40 23.56 21.92 22.67 23.99 24.18 24.10 24.24 24.47 25.76 27.24 26.43
48.85 47.80 47.02 46.02 44.88 43.98 42.88 42.52 42.65 41.61 39.04 36.28 34.68 33.56 32.91 32.35 33.38 30.60 28.32 29.63 27.98 27.73 26.91 25.92 24.93 25.24 24.23 23.09 23.20 23.34 24.15 24.42 24.95 21.87 21.03 19.70 19.57 20.53 21.34 21.81 22.10 22.87 23.49

GFSMW_sfc_wetblb_051.txt.gz
Wetbulb
54.62 54.36 54.08 53.05 52.90 53.19 52.88 53.27 53.63 53.78 54.73 54.90 53.84 53.24 53.36 56.04 56.17 57.73 58.57 59.97 61.73 62.02 61.35 60.51 59.82 59.17 57.60 56.69 56.17 54.73 52.49 49.28 47.71 45.66 45.30 46.08 46.67 47.05 46.51 46.15 45.52 45.57 45.39
53.64 54.14 53.68 53.49 53.46 53.73 53.21 52.92 53.14 53.66 53.54 56.69 53.70 53.52 55.29 56.25 58.53 58.56 58.05 59.81 61.98 61.95 61.44 60.35 59.21 58.44 57.67 56.97 55.77 53.28 50.03 48.95 47.20 44.84 45.89 43.91 45.72 46.52 46.85 45.75 45.49 44.01 44.99
53.04 53.59 53.27 53.63 53.00 52.60 52.87 52.59 52.73 53.61 54.90 57.38 56.84 55.81 57.42 56.46 54.78 55.74 57.48 59.72 62.49 61.79 61.67 60.63 59.72 58.18 57.84 56.22 54.42 52.69 50.50 48.23 47.77 47.54 46.69 42.17 41.35 41.75 44.60 45.72 45.34 43.89 43.39
54.34 54.40 54.05 53.62 53.49 52.81 54.48 54.93 53.84 53.89 55.95 58.03 57.01 55.89 56.78 55.79 56.00 54.76 56.95 60.78 61.78 61.24 61.81 61.06 59.95 58.41 58.52 56.71 54.97 54.62 52.57 51.57 48.10 48.30 48.30 45.64 45.67 40.65 39.13 45.13 45.64 44.37 44.27
54.45 54.28 53.74 54.38 55.05 54.93 54.65 55.95 55.91 55.78 57.12 58.12 58.44 58.40 58.25 57.82 55.98 56.06 56.14 60.14 60.31 60.55 60.63 60.42 59.82 58.76 59.24 58.04 56.16 54.55 53.28 52.30 49.73 48.07 47.52 46.07 47.25 46.57 42.91 38.29 42.53 43.90 43.63
55.19 55.69 56.01 55.87 55.99 56.95 56.26 56.58 56.92 57.39 58.08 58.15 58.76 60.11 60.06 58.79 56.38 56.06 57.03 60.23 60.23 60.32 61.55 61.38 59.69 59.37 57.72 57.29 55.62 53.60 52.96 50.36 49.29 47.96 47.00 46.37 45.18 44.89 44.15 41.95 39.30 41.06 40.37
54.71 55.43 56.07 56.33 56.56 56.72 57.43 57.88 58.32 57.98 58.65 58.33 58.59 60.30 59.66 59.45 58.36 57.50 57.98 57.85 58.67 57.56 58.74 59.58 58.46 57.88 57.02 55.82 54.26 51.76 49.54 49.15 48.46 47.37 46.32 46.79 46.20 46.29 44.76 40.72 38.44 39.75 38.39
55.51 56.06 56.78 57.59 58.15 58.20 58.63 58.46 58.64 58.42 59.07 59.04 59.83 60.63 60.31 59.99 59.84 58.81 57.99 58.58 58.76 58.46 58.13 58.20 57.37 56.00 54.97 52.74 51.44 49.96 48.84 48.49 47.39 45.52 45.86 46.87 45.53 45.55 44.71 42.38 40.61 35.60 35.45
54.67 55.64 57.13 57.94 58.24 58.93 58.95 59.14 59.17 59.31 59.98 59.97 60.37 59.96 60.20 59.87 60.11 58.79 58.99 58.50 56.80 56.26 56.08 57.02 55.29 54.58 51.95 50.44 49.79 48.64 47.67 47.38 45.13 44.50 45.57 44.91 45.10 45.43 45.44 44.74 41.84 37.86 31.99
53.84 55.48 56.37 56.74 57.99 59.40 59.87 60.04 60.56 60.61 60.84 59.85 60.94 60.97 60.87 59.11 59.54 59.47 57.84 57.84 57.60 56.26 55.24 55.16 53.44 51.70 50.05 49.01 48.07 46.85 45.83 45.27 44.74 45.44 43.83 44.71 45.24 45.60 45.33 44.58 42.40 39.31 35.64
51.13 52.52 55.12 57.12 57.59 57.92 58.85 60.15 60.48 60.07 60.46 60.36 60.62 60.97 59.39 58.54 59.60 59.43 58.80 58.40 56.76 54.84 54.16 52.29 51.59 49.85 48.83 48.17 46.46 45.46 44.68 45.16 44.30 44.31 43.85 44.15 44.92 44.25 44.23 41.61 39.42 37.76 36.56
52.22 53.03 53.72 54.44 55.38 57.99 58.26 59.08 59.93 60.57 60.72 60.32 60.45 60.68 59.69 59.36 59.02 58.16 58.16 57.84 56.12 53.44 52.01 51.50 50.31 48.87 48.08 46.95 45.62 44.10 43.78 43.81 43.67 43.67 43.85 43.84 44.60 42.69 40.95 40.24 39.20 37.78 39.02
50.84 52.87 54.10 54.95 55.64 55.96 58.54 58.67 59.47 59.15 59.54 61.08 61.59 60.67 60.05 59.93 58.53 57.56 56.32 55.04 53.00 52.17 51.12 50.40 49.22 48.05 47.21 46.00 44.86 43.36 43.86 44.14 43.79 43.55 43.28 43.08 42.90 41.38 42.29 42.68 41.59 41.54 41.36
50.16 53.03 53.56 54.88 56.09 57.05 58.31 59.76 60.49 60.75 60.97 61.56 60.54 57.80 57.06 55.90 55.62 54.42 53.08 52.11 52.61 50.46 49.21 48.85 47.91 47.13 45.84 44.49 43.93 43.79 43.61 43.61 43.17 43.15 42.81 42.86 41.81 41.78 41.27 40.19 39.03 38.50 35.56
49.65 50.37 53.59 54.57 55.78 57.10 58.16 58.31 58.76 60.08 60.74 59.58 57.50 55.38 54.68 54.03 53.40 51.93 51.07 50.28 49.13 48.04 47.61 46.13 44.86 44.36 44.11 43.76 43.68 43.77 42.70 41.67 41.22 41.88 42.39 42.09 42.35 41.75 40.13 40.46 39.21 35.21 35.17
48.72 49.81 52.21 56.75 57.76 58.38 57.62 57.33 57.05 56.80 57.33 56.18 55.24 55.29 54.89 53.97 52.54 51.08 49.92 48.80 46.58 45.34 44.36 43.60 43.45 42.72 43.05 39.95 40.42 41.44 40.84 41.12 40.62 39.63 41.22 41.25 40.78 40.06 39.05 38.76 38.25 37.21 34.08
49.38 51.21 53.17 56.89 56.96 57.81 57.29 55.87 55.47 55.41 54.51 54.26 54.75 54.09 51.90 50.74 50.81 50.25 47.68 44.38 41.88 40.79 39.97 39.56 40.11 40.09 40.62 39.21 39.13 38.28 39.85 39.69 39.80 39.55 38.90 38.30 40.68 37.14 35.58 34.95 34.80 33.90 35.07
51.51 52.74 55.91 55.77 56.50 56.40 55.84 54.50 53.32 51.96 50.87 49.43 49.25 48.95 47.25 45.50 45.27 44.43 43.30 41.58 40.91 39.74 39.46 39.69 40.11 40.11 39.79 38.42 38.55 37.57 38.95 36.76 36.66 36.49 36.34 33.90 32.96 33.69 34.25 32.83 31.33 32.08 33.42
51.61 52.83 54.20 54.95 53.72 53.83 53.56 52.24 50.93 49.27 48.32 47.51 46.84 45.84 44.53 43.68 43.21 42.08 41.29 41.32 40.89 40.24 39.90 40.37 39.63 40.06 40.06 38.00 37.66 36.86 35.50 34.74 32.49 34.30 32.72 32.81 31.56 34.16 33.48 29.30 26.86 26.53 27.49
51.07 51.63 52.03 51.91 52.26 50.86 51.14 49.73 47.78 47.26 46.43 46.42 45.86 45.56 45.30 44.24 42.95 42.12 41.82 41.09 42.41 42.14 41.03 40.48 40.32 36.90 34.20 34.87 35.59 33.74 29.25 27.69 26.55 28.64 30.40 31.56 30.92 31.79 31.34 26.94 25.34 24.10 24.84
50.25 50.41 50.10 49.28 48.71 49.14 48.99 46.85 46.43 45.47 46.46 46.66 46.02 45.03 44.34 43.23 43.14 42.69 41.63 41.01 40.22 38.74 35.52 34.49 34.30 32.82 31.99 31.33 32.08 30.79 26.33 25.60 26.13 25.84 26.03 25.84 29.39 29.29 29.21 29.82 27.22 26.70 28.32
48.54 48.50 47.62 47.03 47.20 47.56 47.32 44.88 44.00 44.79 45.11 44.29 43.62 43.52 43.37 43.63 42.83 40.86 38.93 37.92 36.59 33.42 31.62 31.46 30.09 28.70 28.56 29.98 29.53 28.99 27.84 27.14 24.80 24.68 25.01 25.15 27.47 28.01 29.03 28.76 30.44 30.87 29.89
46.31 46.86 46.38 46.01 46.10 46.15 46.40 43.66 43.08 43.82 43.26 42.95 42.57 42.06 40.63 40.34 38.25 35.66 34.77 34.94 33.35 29.96 28.28 28.87 28.32 26.46 26.17 24.46 26.09 26.07 25.86 25.76 23.72 24.61 24.59 25.79 26.61 27.28 26.73 28.17 27.82 26.02 26.31
44.99 45.54 45.63 44.68 44.08 45.07 44.69 43.85 43.45 43.60 42.57 38.62 36.91 36.41 35.68 35.23 33.70 34.30 32.75 29.75 26.88 26.43 27.24 26.94 26.26 25.80 22.93 22.52 22.73 23.01 22.25 24.17 23.87 23.72 22.72 22.97 24.45 23.96 23.41 23.62 24.56 24.04 23.02
45.24 45.88 44.78 43.68 42.97 43.71 43.26 43.23 43.01 40.40 37.82 37.04 35.87 33.82 32.59 29.49 28.49 29.24 27.69 25.07 26.60 28.13 25.62 25.53 26.34 23.71 21.96 22.66 23.44 23.13 22.98 20.68 23.83 21.40 18.99 20.59 21.22 21.26 21.20 21.33 21.59 21.11 20.66
44.82 44.71 43.96 43.21 41.71 41.72 40.67 40.45 39.60 38.29 35.69 32.78 31.51 29.30 29.03 28.73 28.04 26.88 25.87 28.55 27.84 28.15 27.76 27.33 25.92 24.91 24.28 23.37 23.50 23.36 24.18 24.74 25.49 20.03 17.48 13.30 11.13 16.50 18.68 17.98 17.48 17.68 17.58

GFSMW_sfc_wetblb_054.txt.gz
Wetbulb
52.96 52.17 52.87 53.39 54.38 54.50 54.34 54.25 54.34 54.96 55.58 54.85 54.03 54.07 53.52 54.20 54.94 56.15 56.89 57.40 59.26 59.55 59.08 60.01 58.94 58.48 57.50 56.51 55.55 54.32 52.94 49.71 48.33 45.55 44.39 44.86 45.38 45.00 44.48 44.24 44.57 45.24 47.67
52.04 51.97 52.02 51.93 53.33 52.96 53.59 53.98 53.51 54.30 55.10 55.36 54.57 53.71 53.27 52.83 54.96 55.80 56.35 57.11 58.52 59.77 59.84 59.57 59.01 58.32 57.18 56.03 55.17 53.49 50.20 49.72 46.46 45.45 46.00 45.37 45.71 45.74 45.91 44.26 44.61 43.07 43.63
51.66 51.96 52.08 50.78 52.71 52.16 52.22 53.23 53.22 53.21 53.89 55.13 54.06 51.23 51.59 54.46 54.29 55.23 55.49 56.49 58.14 59.49 59.96 59.75 58.73 57.56 56.92 56.18 54.82 53.03 51.37 50.21 48.86 48.20 47.79 44.05 42.84 41.35 43.21 44.91 44.37 43.64 42.70
52.66 52.73 52.30 51.09 51.68 52.40 52.71 53.22 53.60 53.05 53.20 54.28 54.72 51.39 51.70 51.78 54.57 55.11 55.83 56.18 58.16 59.69 60.52 60.48 58.85 57.75 57.88 56.39 55.51 54.32 52.20 52.52 49.43 47.80 48.70 47.32 46.29 42.58 41.58 44.86 44.69 44.97 44.54
52.76 52.09 52.42 52.21 52.57 53.23 52.40 52.76 52.69 53.32 53.46 53.46 56.25 53.75 51.75 53.77 55.84 55.04 53.68 55.61 58.31 59.91 60.54 60.14 58.78 58.15 58.18 58.45 56.71 55.05 53.04 52.55 50.21 48.70 46.72 47.45 46.69 45.90 43.10 40.29 41.69 44.66 44.93
53.08 53.51 53.61 53.43 53.16 52.74 52.33 51.96 51.60 52.79 53.56 53.27 55.47 54.99 53.23 53.94 55.25 54.66 53.51 54.65 58.10 59.17 59.81 60.47 59.39 58.39 58.38 58.04 57.85 55.95 54.46 51.84 50.19 49.72 48.83 47.85 46.40 45.85 44.79 41.73 41.51 41.17 41.75
53.32 53.53 52.70 52.65 53.18 52.05 52.02 53.15 52.13 51.50 52.61 52.96 54.49 55.48 55.18 55.15 56.56 56.73 54.79 54.57 57.58 57.33 58.99 59.80 58.85 58.54 57.75 57.98 57.29 54.40 53.19 50.06 49.02 48.89 48.22 48.22 47.78 46.96 45.38 42.67 40.74 39.64 41.14
54.34 53.71 53.48 53.56 53.64 53.77 53.25 53.50 53.85 52.66 53.16 53.51 54.80 55.74 56.12 57.10 58.73 58.98 56.68 55.85 57.48 58.17 57.95 58.06 57.38 57.09 56.87 55.53 53.84 51.92 50.18 49.39 48.98 48.23 47.71 47.72 47.30 45.94 45.34 43.57 41.21 38.48 38.09
53.12 54.52 54.78 54.19 54.31 54.60 54.78 54.34 54.69 54.76 55.01 55.37 56.03 56.43 56.93 57.54 59.10 59.24 57.45 57.54 57.27 56.89 57.19 57.20 56.17 55.05 54.93 53.00 50.85 49.37 48.33 48.80 47.91 47.04 46.97 46.06 45.50 44.26 45.43 44.96 43.49 40.33 36.05
53.22 54.18 55.48 55.77 55.93 56.05 56.32 56.37 56.44 56.05 57.02 57.53 57.55 57.52 57.68 58.99 59.46 58.31 57.92 57.37 57.21 55.79 55.55 55.17 54.85 53.75 51.83 49.98 49.40 48.25 47.75 46.61 45.83 45.65 45.40 44.82 45.26 45.18 45.14 44.61 43.93 41.89 38.84
53.06 54.12 55.63 56.55 57.48 58.06 57.60 57.17 57.39 57.88 58.21 58.82 58.61 58.40 58.56 59.12 58.40 58.82 58.43 58.09 57.99 56.61 55.29 55.07 53.01 51.07 48.84 47.71 48.21 47.19 46.24 45.60 45.02 45.09 44.47 44.42 45.08 44.19 43.81 43.17 41.62 39.94 38.16
52.71 54.27 54.66 56.29 56.93 57.55 57.87 58.21 58.36 58.45 59.12 59.39 59.66 59.20 59.70 59.18 59.22 58.43 58.21 58.81 57.31 56.09 55.63 53.36 51.47 49.94 48.42 47.19 46.80 45.43 45.87 44.89 43.85 43.77 44.40 44.27 44.97 43.31 42.55 41.48 39.52 37.68 37.64
49.21 51.07 52.08 53.53 55.02 55.87 56.66 57.96 58.87 59.15 59.88 60.37 59.63 59.34 59.03 59.03 59.30 58.97 58.68 57.15 55.73 54.48 53.36 52.27 50.69 49.33 47.79 46.41 45.96 44.98 44.21 44.29 43.96 44.11 43.65 43.57 43.16 41.84 40.95 39.81 39.03 39.83 41.06
50.51 50.45 51.20 52.42 54.24 55.41 55.89 56.65 58.72 59.79 60.21 59.68 58.89 59.13 58.17 58.76 59.80 58.94 57.05 56.31 55.25 53.19 52.34 51.92 49.73 48.13 46.57 45.66 44.12 43.96 43.84 43.81 43.84 43.81 43.48 43.01 42.58 40.55 39.55 38.79 36.45 37.44 34.93
47.21 50.40 51.56 51.82 53.58 55.10 55.65 56.70 57.49 58.48 58.80 57.92 57.28 57.44 58.70 58.48 57.98 57.73 55.35 53.27 52.89 51.40 49.63 47.52 46.56 46.04 44.85 44.16 43.76 43.54 43.46 43.13 42.39 42.55 42.40 42.51 42.13 41.49 40.12 38.58 36.05 34.42 32.77
47.53 49.74 52.64 53.21 55.59 57.03 56.78 57.12 57.38 58.05 58.44 57.90 58.26 57.01 55.79 54.75 54.38 52.80 50.94 50.05 48.31 48.66 46.11 45.12 44.12 43.49 43.92 39.86 40.52 42.28 42.19 41.74 41.18 39.76 40.58 40.74 40.82 39.79 36.88 35.77 35.28 33.66 29.98
46.66 47.31 51.79 54.60 56.66 56.69 57.00 56.13 56.71 56.89 57.93 57.33 55.77 55.09 53.88 52.49 51.27 50.57 48.89 47.00 45.75 45.68 43.42 43.28 43.32 42.89 42.98 39.19 39.54 38.83 40.86 40.08 39.39 38.22 39.67 38.55 37.15 34.26 33.02 33.29 32.89 32.08 33.53
46.92 47.00 51.09 54.50 56.17 55.84 55.16 54.64 54.74 54.76 54.95 54.36 53.31 52.95 52.13 51.16 49.59 47.42 45.32 43.32 44.03 42.10 41.31 41.30 41.20 40.71 40.09 38.32 38.11 37.01 37.20 36.37 36.07 34.94 33.60 32.23 30.77 32.22 30.92 28.34 26.22 26.10 27.04
48.24 51.49 53.53 53.88 54.23 54.45 53.10 52.26 51.28 50.18 49.78 48.91 49.47 49.40 48.04 46.94 46.41 45.28 43.65 41.24 39.50 39.03 38.44 38.82 38.03 37.87 38.01 37.87 36.94 37.29 35.67 32.73 31.70 31.66 31.01 30.42 28.59 30.92 31.23 27.12 25.17 25.08 26.06
51.77 52.77 52.38 52.12 52.05 50.47 51.19 49.36 47.63 47.42 46.48 46.88 46.15 45.81 45.73 44.92 42.73 41.81 40.56 39.27 39.39 39.07 39.60 39.03 39.03 37.49 37.57 36.37 36.27 33.76 30.17 27.11 26.10 27.62 27.68 29.36 28.23 29.35 28.89 25.86 24.90 24.88 25.83
51.03 51.09 52.25 52.15 50.37 49.97 49.11 47.02 46.25 45.33 45.39 44.96 44.21 43.52 43.09 41.80 41.26 40.82 40.82 40.60 40.25 39.42 35.32 32.79 32.33 31.09 31.63 32.02 32.25 30.86 26.69 26.00 26.09 25.35 25.38 26.02 27.55 27.58 28.70 29.68 27.00 26.71 26.58
48.78 49.47 48.72 47.66 46.98 48.05 47.56 45.21 43.93 44.67 44.85 44.13 43.19 42.60 42.37 42.56 42.01 40.70 39.40 39.00 36.91 33.11 30.62 28.61 26.80 27.18 27.57 29.69 29.83 29.28 27.80 26.59 25.70 24.56 25.28 25.30 26.62 27.70 28.27 27.34 26.95 26.54 25.05
46.86 47.39 46.72 44.97 44.66 45.59 46.18 43.30 42.20 43.60 43.29 42.84 42.10 41.59 41.47 41.02 40.08 38.24 35.81 34.42 33.27 31.05 29.15 27.75 25.45 24.30 24.46 24.53 26.70 26.58 26.01 25.20 24.00 25.19 24.84 25.38 26.19 26.61 26.23 25.51 25.07 23.69 21.86
45.96 44.90 45.62 44.33 42.67 43.36 43.82 42.97 43.10 43.55 42.76 41.12 39.67 38.70 37.02 33.28 32.79 32.72 32.75 31.16 28.67 29.02 29.15 27.42 25.41 23.98 22.90 22.45 23.21 23.09 23.60 24.22 24.15 24.14 23.79 23.20 24.49 24.07 23.70 23.41 23.28 22.21 20.63
45.10 46.29 45.14 43.45 41.83 42.58 42.31 42.71 42.47 41.83 39.18 36.55 34.36 31.01 30.21 29.99 27.75 25.97 26.54 27.28 27.67 28.64 27.96 27.27 27.12 23.21 22.31 22.92 23.95 23.48 23.52 23.17 24.43 21.96 20.18 20.55 20.44 19.49 20.21 20.15 19.38 19.10 18.81
44.66 44.36 42.92 41.95 41.20 41.51 41.20 39.95 38.92 37.55 34.96 31.86 29.66 27.93 27.54 27.66 26.00 24.89 24.89 29.12 29.20 29.13 28.87 28.00 26.05 25.36 25.01 24.31 23.87 23.73 24.32 25.01 24.95 21.72 18.59 15.28 13.79 15.48 17.36 16.41 16.03 15.76 15.39

GFSMW_sfc_wetblb_057.txt.gz
Wetbulb
51.09 51.36 53.58 54.36 54.46 54.01 54.13 54.64 54.66 55.37 55.35 54.74 54.04 53.94 53.50 54.46 55.30 56.81 57.58 58.41 59.14 58.89 58.70 58.79 58.28 57.98 56.72 56.04 55.28 53.27 52.32 50.41 49.00 45.58 44.22 44.31 44.45 44.31 43.53 43.42 44.77 44.79 47.47
50.29 50.99 51.75 52.98 53.94 53.41 53.78 54.28 54.28 54.81 55.04 54.62 54.91 54.26 53.55 53.65 55.12 55.57 55.90 56.81 57.28 58.20 58.29 58.58 58.24 58.22 56.92 55.31 54.28 53.00 50.71 51.00 47.47 45.70 45.49 41.85 44.36 45.29 44.83 43.10 43.41 43.08 44.42
50.21 50.12 50.57 50.90 53.23 53.25 53.29 53.33 54.02 54.37 54.67 55.12 54.19 52.78 52.66 53.10 53.88 54.40 55.04 55.68 56.75 57.62 58.50 58.10 57.78 56.81 56.23 55.89 54.28 53.51 51.35 50.90 47.36 47.75 48.31 44.64 43.38 43.91 44.46 45.59 45.28 43.39 41.79
51.89 51.15 51.31 49.60 51.11 52.67 53.61 53.25 52.71 52.77 53.59 55.36 54.07 52.64 51.65 51.49 51.63 53.64 54.75 55.43 56.23 56.58 57.99 58.43 57.90 57.05 57.11 55.63 55.51 54.96 52.36 51.81 49.70 48.85 49.74 48.15 47.65 44.15 43.80 45.79 45.72 45.79 44.80
51.70 51.29 51.10 50.36 51.10 52.62 51.18 52.82 52.95 52.57 53.00 53.23 54.20 52.17 50.00 50.43 51.15 53.63 53.78 53.88 55.05 56.29 57.59 58.24 57.66 57.46 57.61 57.36 55.89 54.16 52.08 51.81 51.97 50.46 48.77 48.75 47.30 47.02 45.13 41.33 43.77 45.14 45.48
51.83 52.02 52.36 51.81 50.72 51.70 51.43 51.37 52.29 52.79 52.50 52.17 53.43 53.23 50.88 49.98 50.93 52.15 52.96 53.74 53.82 55.89 57.26 58.32 58.43 58.02 57.57 56.73 56.65 55.75 54.45 53.38 52.91 50.95 50.06 49.56 48.00 46.34 44.99 42.85 42.92 42.19 43.75
51.58 51.48 51.11 50.83 50.97 50.96 51.28 51.19 51.36 51.67 52.49 52.06 52.20 53.91 53.96 51.52 51.31 52.33 53.37 53.42 53.03 54.22 56.72 57.78 57.45 58.39 58.75 58.61 57.83 56.41 55.91 54.10 52.36 50.15 49.66 50.09 49.01 48.20 46.83 45.06 42.84 40.42 41.69
52.08 52.21 51.93 51.67 51.41 51.68 51.54 51.52 51.29 51.18 52.21 52.12 51.74 52.44 54.29 54.40 53.32 52.99 54.44 54.82 54.49 55.17 56.70 57.09 58.02 58.33 56.53 55.77 55.47 55.16 54.50 52.11 50.79 49.46 48.94 49.28 48.51 47.38 45.62 43.81 41.73 38.53 39.02
52.07 52.66 53.18 52.64 51.84 52.26 51.67 51.50 51.79 51.31 51.84 52.57 52.31 51.88 53.12 53.77 54.08 54.12 55.05 56.98 55.47 55.59 55.79 57.66 57.36 55.79 55.47 55.36 53.38 51.91 50.41 49.86 49.67 49.17 48.69 47.64 46.66 45.78 45.40 44.74 43.47 40.93 35.75
51.95 53.31 53.73 53.63 53.47 53.39 52.97 52.30 52.60 52.01 51.85 51.88 52.33 52.09 52.88 54.03 54.72 55.16 56.02 57.55 57.55 56.83 55.87 55.61 55.49 54.73 54.34 53.78 51.68 48.60 47.94 48.41 48.04 47.47 46.70 45.73 45.24 45.63 45.40 44.59 44.20 43.00 40.25
51.45 52.86 54.32 54.78 54.58 54.61 54.14 53.49 52.98 53.18 53.35 53.21 53.14 53.09 53.62 54.58 55.31 55.78 57.22 57.48 57.18 57.50 57.09 56.49 55.47 54.52 52.53 50.18 48.12 46.95 47.62 47.09 46.16 46.18 45.54 44.79 45.37 44.76 44.47 43.87 42.79 41.41 39.87
51.54 52.81 53.65 55.01 54.60 54.15 54.45 54.43 54.84 54.48 55.04 54.96 54.94 54.74 55.30 55.92 56.26 56.87 58.26 58.21 57.71 57.80 57.52 57.82 55.45 53.26 52.20 51.11 49.82 47.38 47.22 46.20 45.52 45.14 44.92 44.32 45.23 43.90 43.17 42.16 40.93 39.96 39.28
47.98 51.34 52.51 53.46 54.70 55.17 55.04 55.05 55.54 55.82 56.17 56.76 56.30 57.03 57.35 57.00 57.02 57.62 58.63 59.05 59.06 58.14 56.47 55.19 53.78 51.94 51.59 49.83 49.50 47.72 46.93 45.97 45.35 44.76 44.33 44.25 43.94 42.25 41.37 40.83 40.36 39.75 38.96
47.68 49.05 50.33 52.79 54.78 55.54 56.18 56.44 56.15 56.60 56.91 57.06 57.29 57.00 57.62 57.69 57.70 58.22 58.68 59.14 59.34 56.99 54.46 53.76 52.31 50.93 49.97 49.20 47.63 46.70 45.01 44.50 44.61 44.43 44.20 43.79 42.97 41.80 40.60 40.20 38.13 35.80 33.33
46.25 47.98 49.55 50.99 52.42 53.78 55.49 56.65 57.33 57.47 57.72 57.21 57.21 57.33 58.11 58.16 58.41 58.41 58.61 58.40 56.55 55.03 53.31 52.06 50.16 49.23 47.93 46.61 44.90 44.72 44.27 43.54 42.95 43.33 43.18 42.97 42.80 41.57 40.38 39.02 35.63 31.51 29.67
45.76 47.58 50.38 51.18 51.94 52.65 53.55 54.22 55.21 56.64 57.84 57.46 57.48 58.04 57.64 57.42 57.62 58.19 56.45 54.84 53.05 52.13 50.37 48.70 47.31 46.69 45.76 40.64 40.78 43.13 43.43 43.07 42.32 41.42 41.49 41.50 40.64 36.88 35.78 35.60 34.83 32.23 28.28
46.21 46.20 49.53 51.91 53.77 54.58 54.43 53.50 54.11 55.39 57.07 57.43 56.82 56.27 57.33 57.09 55.97 53.43 51.61 50.85 50.13 48.73 46.50 46.14 45.28 45.10 44.79 39.53 40.06 39.65 42.32 41.49 40.83 40.18 39.62 37.69 35.45 34.31 32.79 31.64 30.69 30.14 30.90
46.12 45.66 46.66 51.61 53.52 54.43 54.42 53.41 54.51 55.59 55.71 55.65 56.11 55.87 55.07 53.44 51.95 50.85 48.84 46.12 46.42 45.58 45.00 44.79 45.01 43.85 42.18 38.54 38.43 37.68 39.92 38.54 37.29 36.20 35.63 32.91 31.98 31.41 28.84 26.57 25.15 25.77 26.14
47.06 46.30 46.40 51.78 53.70 53.84 52.78 52.84 52.43 55.13 54.99 54.30 53.88 53.30 52.18 50.77 49.45 47.67 46.30 45.38 44.43 43.87 43.24 43.36 42.37 40.92 39.98 37.49 36.81 37.14 35.56 33.41 31.23 30.34 29.57 28.41 27.42 30.15 29.81 26.39 25.41 25.85 27.28
46.19 49.87 51.79 52.25 52.42 50.80 51.94 51.35 49.22 51.50 51.36 51.23 50.46 50.45 49.80 48.43 46.77 45.16 43.49 42.51 42.93 41.22 40.34 38.89 39.28 37.40 37.28 36.37 36.46 34.66 31.14 28.18 27.08 27.06 26.93 29.12 27.53 28.13 28.30 26.33 25.87 24.91 24.98
50.70 51.38 51.94 52.32 51.00 50.33 50.28 47.81 47.09 47.69 48.61 47.88 47.42 46.91 47.26 46.17 44.66 42.66 41.45 41.50 41.06 37.37 33.25 30.67 31.50 32.48 33.67 34.39 34.75 33.08 30.22 27.14 25.77 25.18 24.70 24.92 26.89 27.48 28.77 28.88 25.94 24.42 24.00
50.29 50.86 50.22 48.69 48.68 48.92 49.13 46.25 45.96 43.95 43.89 43.29 43.01 43.61 43.21 42.74 42.07 40.89 40.28 39.54 35.69 32.00 30.11 28.14 27.76 28.54 29.13 30.63 30.71 29.77 28.23 27.75 26.07 24.93 24.61 24.76 26.69 27.70 28.04 25.52 25.49 24.85 23.35
48.21 49.46 48.74 46.22 46.04 47.00 47.98 45.47 42.52 43.30 42.69 42.06 41.50 41.83 41.28 40.89 40.34 38.43 36.19 34.24 32.77 30.59 29.68 28.26 26.05 24.67 25.05 26.17 27.84 27.29 26.44 25.78 25.04 25.26 25.07 25.48 26.33 26.59 25.56 24.45 23.81 22.74 20.90
45.83 45.62 46.31 45.50 43.66 44.24 44.24 43.30 43.16 43.09 42.10 40.53 40.17 39.47 35.04 33.21 33.33 33.96 33.78 32.84 32.44 30.71 28.96 27.09 23.88 22.33 22.32 22.31 23.08 23.64 24.59 24.84 24.46 24.12 24.56 24.02 25.16 23.94 23.23 22.84 22.07 20.62 19.67
45.35 45.62 45.15 43.39 41.38 42.37 42.08 42.73 42.78 42.44 39.91 37.20 34.15 32.19 30.42 28.69 28.07 28.23 29.41 29.01 29.75 31.22 28.52 26.78 24.94 22.25 21.84 22.90 24.22 24.17 23.75 23.90 24.62 23.43 22.65 20.27 20.03 19.26 19.86 19.58 18.90 18.27 17.86
44.15 42.67 41.64 41.18 40.88 41.04 39.99 40.05 40.84 39.04 35.29 31.87 30.98 29.98 28.24 28.02 27.46 25.77 25.52 29.96 30.31 30.19 29.80 28.91 27.14 26.00 25.52 25.30 24.94 24.97 24.88 25.08 25.27 21.91 18.11 15.80 15.17 16.45 16.93 15.83 15.46 15.52 15.04

GFSMW_sfc_wetblb_060.txt.gz
Wetbulb
50.06 52.14 53.26 54.83 54.64 55.19 55.41 55.49 54.95 55.49 55.45 55.80 55.60 55.27 54.80 54.71 56.11 56.94 58.77 59.33 59.26 59.38 58.52 58.54 58.29 58.20 57.28 56.58 55.82 53.68 52.72 51.23 50.22 47.63 46.53 45.95 45.35 44.87 44.55 44.80 45.83 47.21 48.03
50.74 51.94 51.94 53.68 53.48 53.45 54.42 54.84 54.85 55.27 55.33 56.89 57.00 55.42 54.36 54.19 55.22 55.97 56.65 58.16 58.70 58.93 58.76 58.81 58.23 57.92 57.14 55.98 54.81 53.70 51.83 51.67 48.79 47.36 45.18 43.72 45.23 45.79 45.61 44.69 43.94 44.97 46.08
49.63 50.58 50.60 51.81 52.97 52.87 53.56 54.38 54.48 54.83 55.09 55.51 54.96 52.60 52.93 54.27 53.36 54.14 54.45 55.61 56.57 57.27 58.43 57.98 58.12 57.42 57.08 55.33 53.99 53.28 52.19 50.96 48.53 47.77 49.19 44.35 43.29 44.06 45.16 45.40 44.56 45.11 44.98
50.87 50.68 50.30 50.15 52.55 53.11 53.77 54.22 54.47 54.58 54.55 54.87 54.26 52.82 53.18 53.05 52.94 53.57 54.46 55.24 56.36 55.72 57.06 57.26 56.78 56.56 56.22 55.41 54.87 54.70 52.97 51.81 49.09 47.12 48.52 49.01 48.41 45.23 44.08 45.18 45.81 46.32 45.18
50.84 50.39 50.27 50.46 51.90 53.58 53.25 53.50 53.00 54.19 54.49 53.67 53.27 51.94 49.57 51.23 51.40 53.70 54.00 54.64 55.25 55.16 55.58 56.59 56.56 56.40 56.38 56.00 55.03 53.75 52.05 51.86 50.14 48.19 47.18 47.66 47.83 48.12 47.02 45.27 45.33 45.64 46.57
51.02 51.39 51.36 50.37 50.34 51.10 52.02 52.79 51.59 52.13 53.17 53.37 53.06 52.42 51.27 50.11 49.55 49.93 51.39 52.46 53.22 53.81 55.21 56.12 55.77 55.87 55.98 56.02 55.74 54.76 54.74 53.88 53.33 51.58 50.73 49.45 47.90 47.11 46.57 44.83 44.41 43.99 45.02
50.87 50.68 50.09 49.35 49.61 49.55 50.32 50.95 51.95 51.19 51.61 51.77 52.92 53.02 51.64 50.64 50.01 49.28 49.89 50.94 51.76 51.93 53.27 54.97 55.33 55.32 56.26 57.04 57.14 56.72 56.16 55.24 54.11 53.63 53.11 52.29 51.45 50.35 48.99 46.63 45.21 43.37 43.05
51.05 50.90 51.13 50.77 50.01 50.25 50.65 50.99 51.10 51.40 51.83 51.03 50.88 52.10 53.31 52.54 51.46 50.61 50.50 51.25 52.00 52.47 53.44 54.32 55.33 55.67 56.12 56.96 57.56 57.16 56.50 55.48 54.52 53.28 52.70 51.61 50.45 49.51 47.96 46.56 43.60 40.33 39.67
50.03 51.17 51.30 51.37 50.69 50.52 50.90 50.87 51.05 51.20 51.64 51.69 51.06 50.74 51.67 53.11 53.15 51.80 50.85 52.43 52.88 53.36 53.35 54.73 55.05 55.01 55.08 55.22 56.00 55.62 54.25 52.86 51.54 50.26 49.75 50.54 48.65 47.75 46.47 45.37 44.14 43.14 38.67
49.74 51.00 51.78 51.61 51.90 51.59 51.57 51.71 51.49 51.05 51.42 51.71 51.98 51.63 51.38 52.00 53.09 53.14 52.67 52.86 53.78 54.27 53.92 53.88 54.61 54.91 54.62 54.12 53.31 52.18 50.08 50.80 47.91 49.06 49.25 47.92 46.58 45.77 45.94 45.02 44.34 43.66 41.61
49.08 51.16 52.19 52.91 52.80 52.45 51.84 51.30 51.41 51.33 50.83 51.19 51.64 52.20 51.90 51.61 52.09 52.63 53.47 53.83 54.59 56.38 56.52 56.50 56.42 56.12 54.84 54.68 54.03 52.08 49.70 49.64 48.16 46.82 47.40 46.15 45.20 45.22 45.04 44.88 43.99 43.00 41.48
48.75 50.60 52.26 52.57 52.70 52.25 51.95 51.37 51.36 51.56 52.03 51.98 51.50 51.92 52.65 52.68 52.21 52.34 53.13 53.75 55.24 56.91 57.20 57.39 57.29 57.12 55.16 52.37 51.67 50.24 49.92 49.25 47.01 46.83 46.31 45.45 45.52 44.65 44.39 43.10 41.63 40.98 40.24
46.57 48.67 50.33 52.48 52.88 52.76 52.89 52.57 52.40 51.99 52.77 53.09 52.15 51.76 51.82 52.22 52.23 52.55 53.31 54.46 55.85 57.06 56.90 57.12 56.68 56.20 54.40 53.45 52.12 51.41 49.99 48.80 47.24 46.38 46.20 45.37 44.77 43.34 42.64 41.67 40.10 40.83 40.45
44.71 46.70 48.76 51.51 53.30 53.45 53.30 53.34 53.56 53.88 53.45 53.22 53.11 52.53 52.40 52.80 53.03 53.93 54.79 55.56 56.99 56.82 57.34 57.28 57.06 55.70 52.78 51.87 50.93 49.51 47.90 47.74 47.42 46.03 45.83 45.18 44.56 43.28 41.25 40.48 39.05 37.92 36.40
44.84 45.47 47.94 50.14 52.11 53.25 53.68 53.92 54.05 54.40 54.86 54.09 53.68 53.62 54.27 54.65 55.39 55.91 56.00 56.60 57.02 57.26 57.61 57.24 54.50 52.51 50.61 49.60 48.62 48.06 47.35 45.52 44.69 44.57 44.59 44.31 43.52 41.79 41.24 40.09 37.15 35.10 32.85
45.66 45.35 47.32 48.54 50.48 52.87 53.65 54.56 54.72 54.64 54.91 54.71 54.51 55.10 55.15 55.54 55.93 56.25 56.37 56.54 56.97 57.71 57.51 54.68 53.18 49.88 49.03 43.09 42.53 44.95 45.31 44.58 43.65 42.53 42.29 42.21 40.34 38.23 36.75 35.83 34.83 33.98 30.59
46.22 45.37 46.36 49.02 50.29 51.05 53.05 53.67 54.76 54.98 55.29 54.96 55.13 55.31 55.54 55.52 55.83 56.47 56.76 56.94 56.74 54.39 52.89 50.78 49.84 48.43 46.79 40.40 41.05 40.38 44.10 43.08 42.58 41.65 40.38 37.67 36.21 35.07 33.40 32.45 31.18 30.01 30.37
46.50 46.06 46.13 46.74 49.83 50.84 50.84 50.89 51.29 52.44 54.52 55.07 55.25 55.39 55.43 55.89 56.24 55.72 54.88 52.65 51.34 51.10 48.97 48.79 47.55 46.23 42.61 39.54 38.95 38.72 41.47 40.23 39.76 39.63 36.82 34.02 32.17 31.83 30.33 27.78 26.90 26.79 27.61
45.36 45.96 45.50 46.58 48.47 51.06 52.39 52.38 51.99 52.64 53.05 53.53 53.72 53.99 55.89 55.71 52.43 51.48 48.12 47.04 47.20 47.06 44.92 44.44 43.88 42.55 39.91 39.03 37.66 38.00 36.59 34.18 32.41 32.24 32.26 31.29 29.93 30.68 30.06 27.15 26.70 27.08 27.77
44.23 44.38 45.46 46.81 50.07 51.06 52.43 52.59 53.62 52.53 52.85 52.77 53.60 53.86 52.96 50.74 49.15 47.18 46.44 45.52 45.20 42.09 41.21 39.97 41.41 39.36 38.23 36.89 36.61 36.01 33.24 30.35 28.60 28.54 28.81 29.45 28.53 28.89 29.27 27.71 26.46 24.98 24.61
48.10 49.14 50.02 50.22 51.01 51.29 52.32 50.56 51.32 53.06 50.79 50.03 49.62 49.40 49.31 48.10 46.48 44.36 43.48 42.17 39.95 36.61 34.57 32.82 33.55 34.66 36.21 35.47 35.26 34.59 32.15 29.62 27.73 26.02 25.06 26.30 28.07 29.12 29.72 28.17 26.04 24.57 23.71
49.18 49.78 49.96 48.99 48.48 49.51 50.45 46.62 46.52 46.27 47.22 46.63 45.62 45.18 44.73 43.47 42.47 41.23 39.85 37.99 35.57 32.62 31.18 29.99 28.92 29.22 30.34 32.17 32.65 32.02 30.61 29.91 27.13 25.52 24.27 25.61 28.31 28.96 27.58 25.92 25.61 24.00 22.67
48.05 48.11 48.26 46.72 46.93 47.90 48.26 45.80 41.84 42.96 43.69 43.57 42.47 41.52 41.31 41.40 41.01 38.86 36.74 34.99 34.21 32.07 30.57 29.04 26.54 25.54 26.91 27.53 28.89 28.49 28.09 27.22 25.32 25.59 26.00 27.25 28.12 26.83 25.34 24.80 23.65 22.03 20.70
45.91 46.67 46.68 45.28 43.23 44.29 44.54 43.06 43.10 43.68 42.73 41.25 39.60 38.29 36.61 35.48 35.78 35.78 35.57 33.69 32.59 30.94 29.66 27.98 25.57 24.41 23.79 24.29 25.16 25.06 24.96 25.09 24.81 24.82 25.05 25.37 25.13 23.91 23.44 22.37 21.62 20.04 19.20
44.64 45.22 44.26 42.18 41.83 42.81 43.18 44.15 43.25 42.16 39.35 36.92 35.17 33.33 32.56 31.45 29.77 29.63 30.57 31.38 31.93 32.94 30.56 28.77 26.64 24.06 22.88 23.07 24.85 24.76 23.81 24.78 24.69 23.53 22.45 21.31 20.52 19.86 20.32 19.25 18.69 17.97 17.27
42.53 40.24 39.05 37.91 37.01 37.13 36.83 38.99 40.04 38.44 35.25 32.38 31.04 30.11 29.55 29.17 29.39 28.62 27.34 30.76 30.83 30.04 29.40 28.32 26.65 25.98 26.35 26.56 26.69 26.35 26.46 26.14 25.32 21.98 18.76 16.46 16.81 16.95 17.38 16.45 15.73 15.81 15.19

GFSMW_sfc_wetblb_063.txt.gz
Wetbulb
53.42 53.78 54.49 55.52 56.22 56.87 56.61 56.76 56.25 57.67 58.19 57.25 56.79 56.55 57.36 59.65 60.36 60.48 59.35 60.47 59.92 60.24 60.73 60.75 60.52 60.50 59.90 59.54 59.11 58.88 57.54 56.44 56.19 54.16 54.03 53.54 51.98 52.01 52.30 52.55 52.97 53.53 53.86
51.90 53.33 53.38 55.19 54.88 55.81 56.28 56.38 55.95 56.76 57.59 58.07 57.99 57.48 58.66 58.54 59.41 59.97 59.75 60.29 59.71 60.56 60.74 60.90 60.77 60.39 60.32 59.54 59.33 58.82 58.02 58.37 56.20 55.51 54.46 53.10 52.77 52.45 52.87 52.29 51.62 51.83 53.62
51.05 51.79 52.04 53.17 54.77 54.44 55.62 56.12 55.83 55.78 56.28 57.49 56.09 55.46 55.22 55.88 56.92 57.98 59.23 60.10 60.75 61.23 61.60 61.53 61.02 61.17 61.48 60.17 60.17 59.52 58.53 57.75 56.04 56.34 57.15 51.75 52.08 53.51 53.16 52.31 51.64 52.32 51.99
53.70 52.91 52.48 52.64 53.60 55.52 56.92 56.85 56.11 56.11 56.02 56.80 55.98 55.86 55.88 54.43 56.91 57.14 59.40 58.60 60.25 60.75 60.62 60.36 60.26 60.93 61.34 60.46 60.04 59.70 59.76 59.39 57.03 54.55 54.41 55.31 55.52 52.80 52.55 53.03 49.98 49.27 51.21
53.98 53.18 52.97 53.14 54.15 54.98 56.12 56.59 55.97 56.71 55.80 56.08 55.92 54.20 55.23 56.57 55.12 55.24 57.46 58.04 58.30 59.01 59.19 58.85 60.08 60.50 61.18 61.46 61.40 60.18 59.20 59.20 58.88 57.08 54.30 54.23 54.41 54.25 52.02 50.84 50.93 48.36 51.21
54.34 54.41 54.48 53.94 53.26 54.59 55.86 56.36 55.64 56.49 55.84 55.30 56.04 55.00 54.41 54.15 53.91 53.55 54.46 55.77 57.96 57.97 59.20 59.11 59.93 61.01 60.75 60.83 61.31 61.31 60.40 59.49 58.65 57.69 56.64 55.72 51.13 52.50 50.18 49.68 51.06 47.59 49.85
54.42 54.01 52.69 52.21 52.29 52.81 55.05 55.49 55.28 55.30 55.96 55.29 55.36 55.11 56.13 55.06 55.52 54.04 55.10 56.27 57.27 57.52 58.01 59.41 59.61 60.23 60.74 61.13 61.53 61.07 60.53 60.06 58.44 56.25 54.37 53.19 54.15 56.88 52.39 50.76 49.04 48.14 47.34
54.71 54.45 54.10 53.26 52.65 52.38 54.22 54.61 54.28 54.39 55.54 55.51 55.86 56.33 56.31 56.11 55.75 55.57 55.83 56.62 57.73 58.69 58.67 58.87 59.58 60.19 60.72 60.97 61.22 60.79 60.79 60.25 56.19 55.37 56.17 56.72 56.80 57.24 54.48 51.62 48.39 43.29 45.92
54.30 54.65 55.02 54.59 53.96 53.51 53.40 53.88 54.01 54.21 55.09 55.23 56.12 56.05 56.51 56.48 56.41 56.84 57.24 56.83 57.00 57.46 58.03 58.84 59.01 59.79 60.44 60.91 61.26 60.90 60.66 59.42 57.98 58.85 59.46 57.92 57.50 56.25 53.95 51.04 52.89 49.68 44.75
53.49 54.69 55.04 55.04 54.79 54.46 54.32 54.36 54.92 54.58 54.97 55.30 55.83 55.48 55.80 56.88 57.20 57.61 56.93 56.95 57.66 57.24 57.51 58.12 58.64 59.22 59.84 60.25 60.38 60.11 59.32 58.10 58.08 57.76 56.51 55.53 55.23 53.39 51.23 51.61 50.50 49.31 49.09
53.74 54.29 55.24 55.78 55.78 55.31 54.44 54.27 54.48 54.57 55.30 55.69 55.67 55.71 55.67 55.94 56.57 56.84 57.29 57.75 57.92 57.82 57.79 58.13 58.20 58.22 58.52 59.03 58.75 57.43 56.91 55.75 56.43 54.17 53.27 53.29 52.63 50.86 50.12 50.06 50.14 49.05 46.04
52.80 54.67 55.42 55.69 55.39 55.20 54.73 54.37 54.42 54.61 55.47 55.69 55.84 55.81 56.03 55.72 55.28 55.05 56.11 57.44 57.63 57.95 57.69 58.15 57.76 56.25 57.09 57.52 56.15 55.99 54.79 52.78 52.12 51.21 50.69 51.60 49.58 48.70 49.33 46.97 45.09 47.06 44.27
50.11 52.69 54.75 55.15 55.36 55.34 55.09 54.67 54.63 55.09 55.40 55.48 55.38 55.63 55.85 55.96 55.17 55.25 55.73 56.82 56.70 57.26 57.90 58.01 58.24 57.88 57.30 57.03 56.35 55.71 54.18 53.45 53.40 51.32 50.37 50.43 49.14 47.73 45.53 44.63 43.00 43.81 42.91
50.42 51.27 53.53 55.27 55.99 56.05 55.66 55.37 55.61 55.85 55.55 55.24 54.67 54.82 54.92 55.41 55.87 56.38 56.32 56.42 56.74 56.65 57.43 58.49 58.22 57.96 58.08 57.57 55.71 54.19 53.00 51.90 51.45 50.69 50.00 48.82 47.64 45.72 44.94 44.08 41.77 44.15 39.69
48.97 49.62 51.49 53.98 55.66 56.07 56.07 56.29 56.11 56.18 56.19 55.33 55.24 55.27 55.87 55.99 55.99 55.96 56.26 56.32 56.72 56.96 56.86 57.41 58.30 58.92 58.55 56.76 55.85 54.50 53.88 51.53 49.11 48.08 47.84 46.79 46.14 43.55 43.29 42.59 39.71 39.01 37.27
50.33 50.94 50.20 52.14 53.69 55.36 56.24 56.41 56.48 56.90 56.70 55.75 55.38 56.18 56.36 56.08 55.98 56.27 56.15 56.63 56.82 57.36 58.03 57.44 57.97 56.76 55.45 46.50 46.68 50.98 51.12 49.31 47.04 45.22 45.18 44.39 42.50 40.38 38.68 38.27 37.41 38.94 34.70
50.34 50.69 50.17 50.53 53.25 55.25 56.04 56.72 57.05 57.23 56.88 56.71 56.54 56.57 56.49 56.50 56.70 56.77 56.98 57.26 57.60 58.17 57.71 57.24 57.29 56.45 54.67 44.32 44.68 43.96 48.63 46.99 45.35 43.79 42.02 40.00 37.85 36.49 35.11 33.77 32.80 32.11 31.81
49.71 50.47 50.99 51.35 52.51 54.36 55.55 56.97 57.57 57.15 56.62 56.51 56.66 57.08 57.14 56.80 57.09 57.48 57.65 58.29 58.22 57.30 56.78 56.19 53.56 53.36 49.32 42.47 40.84 39.61 44.98 43.18 42.75 41.65 39.33 36.15 34.59 33.94 31.88 29.59 28.11 28.36 29.26
49.80 50.02 51.11 51.19 51.84 52.75 54.31 54.71 54.95 56.35 56.74 56.63 56.65 56.90 57.22 57.10 57.20 57.26 57.86 53.83 52.39 49.97 48.34 47.78 47.42 45.94 42.12 38.42 38.59 40.29 38.76 36.09 35.04 35.12 34.85 33.85 32.23 32.23 32.15 29.38 28.11 27.98 28.84
49.73 50.27 50.56 49.77 49.89 51.15 54.46 53.79 53.67 54.27 55.10 56.32 57.27 57.69 57.49 57.23 55.06 51.22 48.76 46.88 47.22 43.91 42.91 41.92 43.07 39.85 38.71 37.04 37.37 37.32 35.15 31.76 30.89 30.92 31.01 31.10 30.79 30.49 29.80 29.06 28.63 26.87 27.23
49.85 52.49 52.96 52.04 52.71 53.42 54.66 54.33 54.64 54.09 54.65 54.41 54.52 54.32 54.62 52.71 50.55 46.88 45.47 43.73 40.56 37.66 35.41 34.13 35.64 37.07 37.72 36.48 36.20 36.06 34.57 31.66 30.11 28.16 27.47 28.35 29.69 30.24 29.75 29.35 28.72 27.37 27.23
49.63 51.81 52.63 50.96 50.95 53.04 54.06 52.58 52.05 50.48 51.25 50.54 49.22 48.18 47.08 46.06 45.56 44.05 42.02 38.94 36.75 34.12 32.71 31.41 30.53 31.30 33.22 34.38 34.40 33.80 32.73 31.79 28.97 26.84 26.92 28.40 29.96 29.54 27.84 27.52 25.67 24.36 24.68
48.81 49.81 49.95 49.33 49.05 50.41 51.48 49.38 46.06 47.91 46.97 45.92 43.56 42.82 42.96 43.23 41.75 38.63 36.77 35.04 34.26 32.78 31.24 30.08 28.29 27.62 28.95 30.24 31.57 30.78 29.71 28.59 27.01 27.22 28.14 29.18 29.00 27.28 26.11 25.39 23.77 23.24 23.49
47.19 47.98 46.85 44.90 44.46 45.80 46.26 46.63 45.80 45.86 44.62 42.27 41.54 40.34 38.32 37.01 36.97 36.49 35.94 34.41 32.90 31.65 30.57 29.39 27.34 26.04 25.73 25.71 25.89 26.14 26.44 26.76 26.95 27.42 28.50 27.69 26.20 25.82 25.07 23.89 23.11 23.04 22.21
43.09 42.90 42.44 40.27 38.70 40.17 41.81 44.41 45.61 44.08 40.10 38.46 36.62 34.73 33.70 32.32 30.84 30.79 32.42 32.32 32.67 33.85 31.87 30.02 28.06 26.67 24.24 24.38 25.99 25.68 25.38 25.95 25.91 26.52 25.49 24.18 23.57 23.38 23.07 22.30 21.77 21.79 21.51
36.52 36.76 36.61 36.78 35.27 34.00 33.43 36.11 39.06 40.00 36.69 34.57 34.51 33.76 32.87 31.43 30.24 29.04 28.09 30.48 30.31 29.92 29.51 28.97 27.69 27.13 27.63 28.06 28.14 27.94 27.28 26.15 25.18 24.25 22.45 21.47 22.24 22.11 21.76 21.13 20.88 20.58 18.47

GFSMW_sfc_wetblb_066.txt.gz
Wetbulb
59.34 58.35 57.72 56.78 57.72 58.00 57.71 58.82 57.54 57.62 59.67 59.36 58.31 58.45 58.67 60.10 59.62 59.52 60.28 62.39 61.44 61.94 62.90 61.68 61.44 61.92 61.47 62.59 62.38 61.79 60.74 59.75 60.56 58.21 57.60 56.79 56.62 57.00 57.37 57.48 56.74 57.11 57.64
58.27 57.14 57.15 57.05 57.32 57.64 58.44 57.81 58.24 59.45 58.96 59.37 58.90 60.16 60.49 59.97 60.03 59.47 59.97 61.18 62.23 60.57 60.76 62.15 61.05 61.77 61.76 62.08 62.21 61.92 60.47 60.86 60.39 58.97 59.27 56.30 57.10 57.46 57.00 57.29 56.43 57.26 56.89
57.88 56.74 56.39 56.97 56.73 56.95 57.62 58.01 57.87 58.25 60.02 59.58 59.71 57.86 58.06 58.27 59.17 59.54 59.38 60.29 61.04 59.40 60.18 61.49 62.09 62.46 62.45 61.26 61.73 61.64 61.54 59.68 60.61 61.07 59.47 55.90 54.67 59.14 59.44 58.16 57.72 57.12 55.64
58.62 58.45 57.44 56.97 58.16 56.74 58.07 59.07 58.09 57.75 58.45 58.99 57.69 57.75 55.25 54.34 60.13 60.12 59.82 59.15 61.33 59.90 60.07 62.09 62.75 62.63 62.81 61.88 62.11 62.08 61.64 61.79 59.70 60.39 60.61 61.72 60.19 55.73 54.66 57.81 57.84 57.86 55.09
59.23 58.65 58.14 58.04 58.46 59.17 57.81 59.50 58.98 57.67 57.71 57.72 57.22 56.48 55.43 56.09 58.66 59.04 59.99 58.41 59.91 61.12 61.11 62.27 62.66 62.28 63.12 62.83 63.63 62.26 62.49 62.59 62.02 60.47 60.28 59.74 59.84 59.75 56.96 54.83 56.55 56.06 55.07
59.44 59.93 59.69 59.25 58.68 58.91 59.45 59.00 59.43 58.44 57.64 57.20 57.83 56.59 58.04 58.08 58.05 57.23 58.25 57.49 58.00 59.93 59.84 60.29 61.56 62.03 61.87 62.37 61.84 63.25 63.54 62.98 62.75 62.23 61.82 60.15 58.75 57.29 57.25 53.89 56.75 55.86 51.00
59.41 59.65 59.10 58.32 58.17 57.97 58.54 57.81 58.51 58.22 58.54 56.84 57.46 57.30 57.47 56.92 55.88 56.85 56.66 57.20 57.33 57.49 58.11 60.66 61.26 60.99 60.77 61.47 61.20 62.44 62.94 62.88 62.23 62.11 61.83 61.74 60.41 57.55 55.31 53.72 55.24 54.53 53.97
59.39 59.67 59.77 59.45 58.30 57.96 58.80 58.84 58.84 58.67 58.64 58.80 58.58 59.10 57.93 57.32 58.55 57.36 57.42 56.50 57.65 59.08 58.72 60.16 60.85 60.73 61.76 62.26 62.45 63.00 62.42 63.21 62.66 62.58 62.56 61.77 59.88 55.65 58.08 54.47 53.52 50.59 53.55
58.65 59.46 60.17 60.18 59.65 58.08 58.65 59.03 58.96 59.26 59.54 59.38 59.23 58.51 59.24 59.10 59.63 60.16 59.75 58.92 58.61 59.07 59.96 61.20 59.72 60.29 61.48 61.94 62.02 62.35 61.97 62.49 63.12 62.86 62.47 60.64 58.12 57.62 58.36 58.20 57.18 54.34 50.35
58.29 59.37 60.11 60.21 60.16 59.43 59.13 59.65 59.60 59.12 59.83 60.02 60.30 60.06 60.18 60.16 60.34 60.68 60.45 60.70 61.24 61.13 61.39 61.32 61.11 61.18 61.23 61.31 61.69 61.85 61.87 61.84 62.98 62.41 60.98 60.85 60.87 59.71 59.05 57.71 56.35 55.12 52.56
58.31 59.07 60.05 60.88 60.87 60.56 59.27 58.83 58.93 58.96 59.23 59.77 60.03 59.90 60.48 61.17 61.22 60.81 60.81 61.12 61.12 61.08 60.58 60.53 60.28 60.33 60.30 61.47 61.43 61.07 61.03 60.72 60.86 60.15 58.48 57.67 57.44 56.27 55.87 54.64 54.47 53.08 52.48
57.03 59.46 60.19 60.37 60.49 60.36 59.67 58.86 58.67 58.70 59.28 59.78 59.91 59.93 60.21 60.08 60.00 60.23 60.96 61.61 61.11 61.37 61.23 61.05 59.97 60.19 60.68 61.37 61.15 60.97 60.09 59.65 57.92 57.35 56.13 54.59 54.41 52.35 53.35 52.79 50.65 50.49 51.29
54.87 57.29 59.38 59.93 60.05 60.45 60.08 59.42 59.07 58.80 59.27 59.58 59.45 59.62 59.57 59.70 59.73 59.52 59.90 60.39 60.21 60.98 61.27 60.51 60.68 60.71 60.58 60.51 60.87 60.05 58.09 56.46 55.73 55.79 54.98 53.44 52.94 51.94 51.74 50.12 49.20 49.56 49.12
55.19 56.32 57.83 59.20 60.30 60.49 60.65 60.13 59.81 59.86 59.45 59.09 59.04 59.00 59.51 59.73 60.05 59.95 59.86 60.06 60.21 59.56 60.07 60.84 60.37 60.86 60.65 60.22 60.57 59.75 57.07 56.40 55.27 54.54 54.46 53.82 52.79 51.19 50.09 47.58 47.47 45.09 42.76
54.23 55.18 55.62 57.96 60.01 60.41 60.73 60.64 60.70 60.53 60.25 59.30 58.71 59.35 59.91 59.81 59.87 59.56 59.51 60.02 60.56 59.53 59.60 59.96 60.49 60.86 60.14 59.87 60.48 59.52 59.07 57.60 56.41 55.55 54.50 53.73 50.72 47.64 48.13 46.23 44.37 43.26 41.37
54.39 55.12 55.79 56.29 57.41 59.53 60.59 60.38 60.54 60.62 60.71 59.60 59.35 59.60 59.43 59.26 59.43 59.57 59.93 59.70 59.77 59.28 59.35 59.67 59.92 60.03 58.98 49.72 45.99 52.13 58.91 57.35 55.85 54.02 51.95 50.20 45.34 43.72 41.62 41.34 40.73 41.48 40.14
53.32 54.54 55.41 56.40 57.01 58.33 60.01 60.70 61.11 61.44 60.32 59.63 59.94 59.74 59.81 59.16 59.14 59.13 58.89 58.66 59.12 59.40 59.30 59.43 59.26 59.24 59.86 45.61 44.88 45.07 56.28 55.37 53.51 50.60 47.17 44.11 44.16 42.00 40.71 36.36 35.53 34.43 35.09
53.06 53.62 54.95 55.82 56.28 56.84 58.46 60.57 61.29 61.35 60.77 60.14 59.60 59.73 59.58 59.39 59.73 59.44 58.84 59.15 59.88 59.14 59.25 59.03 59.16 59.69 59.44 44.88 45.43 44.16 52.58 49.38 47.82 46.03 44.81 42.73 39.41 38.93 36.44 34.53 32.45 31.85 30.38
54.58 54.97 55.35 55.37 56.60 55.58 55.47 56.66 58.90 60.58 60.44 60.00 60.02 60.26 60.25 59.34 59.34 58.97 59.56 60.09 59.92 59.62 59.51 58.61 58.10 57.14 51.18 40.71 39.99 43.13 43.79 40.73 38.90 38.91 39.14 37.82 34.42 34.06 34.51 30.85 29.25 29.18 28.85
54.27 54.47 55.08 56.64 57.02 57.40 56.60 55.13 56.15 58.09 58.75 59.64 60.08 60.74 60.86 60.29 59.79 60.14 59.67 59.49 59.37 54.88 48.12 44.14 44.95 41.54 42.01 37.57 38.82 40.85 38.06 34.50 32.71 33.10 33.93 33.76 33.15 32.44 32.40 31.41 30.02 27.63 27.26
54.67 55.32 56.35 56.19 55.68 55.85 57.19 55.86 55.80 55.81 57.67 59.08 59.86 60.07 60.20 60.09 60.39 59.36 55.23 49.48 43.88 41.44 38.48 36.51 37.23 38.43 38.27 37.05 36.82 36.46 35.06 32.37 31.28 30.43 30.00 31.09 31.80 31.61 31.34 31.16 30.29 29.04 28.18
53.69 54.36 54.28 53.85 53.60 54.48 56.68 55.92 55.44 55.12 56.57 57.31 57.07 56.44 55.51 50.93 50.76 47.19 44.02 42.48 40.17 36.04 34.17 33.61 32.32 33.24 34.35 34.72 34.93 34.55 33.40 32.92 30.64 28.81 29.22 30.51 30.78 29.73 28.56 27.30 26.81 26.68 27.55
52.52 52.97 51.68 50.79 49.28 48.32 51.16 52.02 48.46 48.94 47.23 46.54 45.53 44.34 43.03 42.51 42.80 41.51 39.17 37.67 36.61 34.82 33.07 31.59 30.04 29.09 30.60 30.83 31.80 31.39 30.66 29.95 28.60 29.18 30.46 29.86 28.70 27.80 26.25 26.01 25.16 26.01 26.97
48.27 49.12 49.63 47.74 45.26 42.79 42.02 43.33 46.03 45.93 44.29 42.14 40.64 40.31 38.65 37.86 38.14 37.81 36.65 35.50 34.08 32.83 31.79 30.43 27.93 27.02 26.94 26.91 27.71 27.83 28.30 28.87 29.07 29.48 28.65 27.97 27.49 27.97 25.55 25.00 25.57 26.15 25.24
42.17 43.14 44.21 43.52 41.65 41.20 38.13 38.03 40.01 41.96 39.53 38.49 36.70 34.99 34.16 32.72 31.09 30.91 32.92 32.86 33.98 34.18 31.79 29.82 28.50 26.32 24.53 26.13 27.84 27.60 27.11 27.25 27.43 28.18 28.12 27.17 26.57 26.75 26.82 26.53 25.81 26.15 25.41
38.07 35.73 34.73 33.72 35.83 36.29 35.32 34.19 35.96 37.22 36.55 34.28 34.40 33.45 32.80 31.79 30.41 29.15 28.29 30.91 30.70 30.33 29.92 29.25 27.88 27.44 28.07 29.22 29.32 28.96 28.46 27.78 27.72 28.11 27.88 27.55 27.86 27.32 26.49 26.13 25.20 25.46 22.21

GFSMW_sfc_wetblb_069.txt.gz
Wetbulb
61.36 61.43 60.58 60.61 60.08 59.23 59.44 59.02 57.88 58.42 59.07 59.43 59.39 57.98 57.69 58.54 59.08 59.23 60.84 61.84 62.92 62.68 62.89 61.54 62.50 62.58 61.92 61.67 62.92 62.64 62.38 60.81 61.48 58.46 57.67 58.13 58.59 58.82 58.43 58.19 57.88 58.10 58.50
60.15 60.28 60.02 59.45 58.42 58.67 58.90 59.27 58.64 58.80 59.03 60.49 60.23 59.69 58.26 58.89 58.07 59.24 59.96 62.53 63.20 62.43 61.95 61.69 61.86 62.41 62.18 63.48 63.38 62.74 60.96 60.89 62.14 58.03 58.25 55.11 56.40 57.61 58.97 59.53 58.67 59.98 58.45
59.52 60.00 59.54 59.37 58.89 58.43 59.39 59.09 59.16 59.20 59.60 60.34 60.14 59.45 59.20 58.95 57.44 57.89 58.53 60.58 62.27 62.21 61.67 62.95 62.56 61.90 63.31 62.91 63.41 63.65 62.74 59.42 61.61 61.57 60.35 55.50 54.06 57.50 59.97 59.49 59.46 59.39 58.87
60.59 60.62 59.87 59.28 59.56 58.50 59.19 59.84 59.67 59.75 59.52 60.50 60.02 58.57 58.70 57.22 57.30 57.28 58.74 58.92 61.84 61.24 62.00 62.68 61.66 62.28 63.52 63.52 63.40 63.65 63.40 60.99 58.40 60.86 60.77 61.96 60.78 56.19 53.67 59.36 59.76 60.48 58.63
60.62 60.53 60.21 60.07 60.64 59.75 58.45 59.43 59.18 59.22 60.14 60.43 60.44 58.49 56.70 59.77 58.38 57.60 57.88 58.79 59.78 61.25 60.71 60.68 60.72 60.37 63.35 63.37 64.02 62.88 62.65 62.04 59.52 58.47 61.06 60.70 59.98 60.45 57.10 54.20 56.53 58.04 59.23
60.35 61.14 61.33 61.16 60.03 61.33 60.11 59.77 58.66 58.57 59.43 60.18 59.92 58.70 58.19 58.63 56.67 58.06 57.87 57.73 58.92 61.32 61.73 60.05 60.01 61.00 61.54 62.70 62.12 60.87 61.05 60.98 62.21 60.89 61.69 60.20 58.19 57.33 57.90 56.82 57.94 57.96 57.77
60.22 60.77 60.22 60.26 59.64 60.16 60.62 60.05 59.32 57.84 58.32 58.46 59.37 60.49 59.21 56.78 56.70 58.77 59.26 57.91 57.93 59.09 61.12 60.01 58.88 58.80 59.71 60.89 61.81 59.62 61.21 61.56 61.99 61.98 60.76 60.96 60.82 61.03 60.37 58.73 57.89 55.81 55.27
60.29 60.89 60.67 60.92 60.03 59.82 60.55 60.80 59.80 58.65 58.62 58.14 58.30 60.07 60.04 59.58 58.88 59.91 60.85 59.45 58.72 57.73 59.93 60.29 59.49 61.05 60.77 61.55 61.66 62.03 60.47 62.43 60.57 61.75 61.39 61.90 61.80 62.08 61.76 59.73 54.63 50.74 53.72
59.66 60.74 61.36 61.33 60.95 60.24 60.20 60.59 60.17 60.55 59.82 58.81 58.79 59.26 60.84 59.91 60.28 60.30 60.83 61.05 60.96 58.54 58.25 59.31 60.82 61.56 61.70 61.78 61.79 61.48 61.37 60.20 60.44 62.39 62.35 62.02 62.46 63.31 62.07 59.98 57.08 53.51 50.79
59.17 60.54 61.39 61.53 61.69 61.13 60.74 61.28 61.04 60.54 60.83 60.35 59.95 59.19 60.09 60.74 60.93 61.14 60.89 60.63 60.89 60.66 60.05 59.83 60.24 59.96 59.63 60.44 60.53 60.44 62.00 61.50 61.85 62.11 62.20 62.20 62.48 62.32 61.58 59.43 58.09 57.38 53.87
58.92 60.20 61.24 62.35 62.34 62.05 61.11 60.79 60.84 60.99 61.04 61.19 61.20 60.49 60.93 60.84 61.40 61.83 62.26 61.99 62.39 61.98 61.25 60.96 60.88 60.45 60.53 60.97 61.35 61.15 61.22 61.02 61.25 61.97 61.80 61.52 61.66 60.73 59.49 59.22 57.52 55.57 54.21
59.31 60.22 61.44 61.83 62.16 61.96 61.47 60.66 60.88 60.69 61.20 61.88 61.34 61.95 62.19 62.01 62.00 61.75 62.50 62.97 62.39 63.02 62.13 62.53 61.87 61.80 61.59 61.82 61.29 61.09 61.05 60.81 60.66 61.25 61.26 60.15 59.47 59.21 58.84 55.55 54.39 54.64 54.06
56.01 58.61 60.63 61.05 61.58 62.05 62.01 61.17 60.95 60.68 60.98 61.34 61.51 61.88 62.23 62.36 62.50 62.70 62.98 63.13 62.73 62.69 62.53 62.08 61.38 61.59 61.67 61.64 61.85 61.56 61.28 61.05 60.88 60.91 60.96 59.83 58.23 55.53 55.17 54.69 53.83 53.30 52.76
55.89 56.78 58.79 60.59 61.72 62.07 62.37 62.04 61.57 61.54 61.10 60.69 60.51 61.19 62.04 62.22 62.55 62.87 62.94 62.79 62.88 62.38 62.19 61.93 61.67 61.61 61.46 61.47 61.48 61.28 61.01 61.09 60.96 60.72 60.77 58.66 57.03 54.63 54.68 53.35 52.66 52.02 50.10
54.55 55.70 56.68 58.89 60.82 61.67 62.17 62.38 62.49 62.11 61.78 60.66 60.25 61.00 62.63 62.66 62.08 62.44 62.57 62.37 62.46 62.28 62.37 62.09 61.93 61.99 61.71 61.15 61.23 61.20 60.72 59.84 59.28 59.83 59.18 57.10 55.79 51.24 52.72 53.81 51.72 49.91 47.37
54.80 55.42 56.43 57.22 57.89 60.24 61.61 62.21 62.61 62.94 62.46 61.84 61.39 61.62 62.02 61.93 62.08 62.39 62.44 62.26 62.01 61.89 61.84 61.31 61.34 61.25 60.54 51.57 47.17 53.67 61.00 59.05 59.54 58.42 57.10 56.84 50.17 49.51 44.72 44.65 44.73 46.69 45.10
54.12 55.00 55.70 56.35 57.62 58.78 59.94 61.64 62.53 63.01 62.95 62.25 61.71 61.98 62.05 61.60 61.88 61.87 61.46 61.32 61.47 61.85 61.43 61.15 61.06 60.98 61.44 48.00 45.83 44.51 58.41 59.32 56.84 55.60 57.46 55.20 52.08 47.17 48.76 40.14 38.00 34.90 36.76
53.75 55.65 56.55 56.79 57.34 58.72 58.56 59.06 61.27 62.63 62.29 61.87 61.84 62.17 62.18 61.76 61.83 61.49 61.15 61.36 61.29 60.82 60.72 61.00 61.22 61.05 60.57 46.48 44.19 42.72 57.26 58.90 58.73 58.02 56.49 52.48 45.22 44.35 40.67 36.79 31.86 31.11 31.27
53.98 54.81 57.13 57.73 58.50 59.22 59.74 58.01 57.65 59.64 61.47 61.43 61.81 61.91 62.58 61.92 61.56 61.02 60.96 61.52 61.46 61.07 60.65 60.66 60.30 59.49 60.14 43.84 41.64 43.71 52.69 45.69 39.91 40.41 40.75 40.31 37.79 37.17 36.75 32.72 30.97 31.11 30.34
54.58 54.56 56.23 56.95 56.31 56.80 58.31 58.21 57.66 56.48 57.17 60.76 61.85 62.45 62.82 62.17 61.67 61.90 61.59 61.73 61.41 60.49 59.50 52.50 47.77 41.76 49.72 40.87 41.82 43.57 40.17 35.65 33.44 33.47 34.66 34.70 34.95 34.05 35.57 34.17 31.87 28.29 27.41
54.73 55.58 55.46 54.29 53.39 53.75 55.25 56.97 57.18 56.16 57.73 59.26 59.98 61.25 61.93 62.31 62.41 62.08 62.30 61.94 57.56 47.08 41.53 38.70 37.83 37.60 37.73 38.10 38.79 38.85 36.12 33.33 32.04 31.65 31.11 31.89 33.39 33.44 33.08 32.52 31.24 28.82 29.06
53.85 54.45 53.92 53.05 51.01 50.47 52.36 52.28 49.41 50.51 53.31 55.20 53.85 52.10 52.21 53.36 55.05 54.72 50.43 48.48 44.64 39.32 37.01 35.35 33.50 33.47 34.24 34.43 34.71 34.54 33.90 33.32 30.97 29.62 30.32 30.89 31.21 30.65 30.49 29.59 29.55 28.64 28.19
51.39 51.77 52.17 50.31 47.56 44.37 42.96 43.00 43.55 45.05 45.65 45.42 44.79 43.56 42.47 42.18 41.91 42.04 41.32 39.32 39.45 37.73 35.43 32.36 30.34 29.36 30.62 31.34 32.15 31.91 31.49 31.01 30.14 29.80 29.73 29.43 28.76 27.92 27.34 27.70 27.87 28.42 28.63
46.11 46.80 47.39 44.73 41.37 39.33 38.28 38.25 40.76 41.20 39.14 37.31 36.82 36.52 35.48 35.52 35.62 36.29 36.51 35.38 34.64 33.39 32.03 30.11 28.27 27.86 27.69 28.20 29.37 29.83 30.12 29.34 28.54 28.09 28.11 28.07 27.30 26.18 25.77 26.41 27.98 27.20 26.80
41.77 41.65 40.56 39.19 36.70 35.19 34.39 35.04 36.90 38.92 36.17 34.46 33.65 33.42 32.40 31.23 29.76 29.47 30.95 31.19 31.92 33.32 30.71 29.29 28.41 26.61 25.22 27.12 29.31 29.28 28.87 28.42 27.48 28.18 28.49 27.89 27.53 26.87 27.31 26.92 26.88 26.64 26.16
36.85 35.95 34.89 35.45 34.92 34.55 32.74 33.39 33.35 35.70 35.14 32.80 31.71 31.42 30.79 30.17 29.08 28.03 27.83 30.50 30.43 30.48 29.76 29.40 28.40 28.76 29.59 30.17 30.24 30.19 29.98 29.99 30.08 30.15 29.25 29.13 29.44 28.38 27.35 26.79 25.80 25.70 23.89

GFSMW_sfc_wetblb_072.txt.gz
Wetbulb
61.02 61.42 60.62 60.79 59.84 60.87 59.25 59.58 59.38 59.33 59.46 59.13 58.10 57.96 57.80 58.27 57.61 58.57 59.79 60.16 60.77 61.20 61.42 61.17 61.62 61.05 59.54 59.29 60.09 59.56 58.62 58.40 58.26 55.73 54.25 54.66 55.46 54.82 54.28 54.20 54.15 54.83 55.95
59.90 60.18 59.55 59.66 58.78 58.61 59.33 58.59 58.54 58.87 59.21 59.71 58.86 58.53 58.61 58.68 57.81 58.00 59.41 60.25 60.41 60.57 60.37 60.24 60.12 60.34 60.04 59.55 59.34 58.93 57.96 57.93 58.00 54.51 53.65 51.15 52.39 53.71 54.87 53.96 54.18 53.70 54.58
58.94 59.14 58.84 58.62 58.28 57.57 58.84 57.79 58.52 59.18 59.51 59.66 59.25 58.63 58.37 57.98 57.09 56.80 57.44 58.98 60.25 60.34 60.29 59.77 59.41 59.99 59.92 59.73 59.88 59.79 58.46 56.64 57.52 57.96 55.60 51.58 50.73 52.70 53.91 54.17 54.10 53.45 53.98
59.84 59.83 58.99 58.39 57.93 58.38 59.15 59.24 58.75 58.76 59.35 60.03 58.64 57.36 56.27 54.77 55.66 55.39 56.52 58.42 59.97 59.89 60.18 60.11 59.84 59.75 60.20 60.51 60.15 61.13 59.32 58.83 55.93 57.38 59.10 57.95 57.14 52.75 52.48 55.00 54.82 55.20 54.36
59.77 59.36 59.30 59.22 58.96 59.07 58.50 59.55 59.23 58.91 59.37 59.32 58.68 57.85 56.80 56.82 56.86 55.41 55.45 57.72 58.51 59.30 59.92 60.09 60.31 59.67 59.56 60.71 60.25 60.06 59.68 59.20 57.03 56.56 56.21 56.27 56.67 56.68 52.89 50.19 52.66 54.52 55.25
59.60 60.19 60.51 60.15 59.20 59.51 58.35 59.64 59.59 58.99 58.85 58.94 58.83 58.66 57.83 57.00 56.34 55.33 55.05 56.81 57.32 59.27 59.09 60.03 60.46 59.88 60.90 60.66 59.61 59.73 59.45 58.18 57.38 57.27 57.52 56.28 54.62 54.62 53.47 52.22 52.74 52.76 54.06
58.76 59.49 59.17 58.79 58.73 58.46 58.32 58.82 58.47 57.95 58.96 58.75 58.64 58.70 58.62 57.92 57.18 55.58 55.21 56.24 56.57 57.28 58.80 58.85 59.29 58.60 59.26 60.35 60.41 58.99 58.49 58.04 57.11 56.73 56.46 57.15 56.70 57.26 56.19 54.24 52.61 52.32 53.53
58.82 59.46 59.61 59.23 58.35 59.30 58.67 58.41 58.42 58.15 58.67 59.04 58.55 58.79 59.02 58.04 58.32 57.54 56.53 56.29 56.97 57.81 58.83 59.11 58.81 58.70 59.00 58.89 58.42 57.81 58.23 57.60 57.54 56.90 57.17 57.09 57.23 57.09 56.78 55.22 53.16 49.99 51.10
58.34 59.40 60.06 59.76 58.89 58.94 59.39 59.16 58.75 58.19 58.12 58.24 58.63 59.13 59.15 59.12 57.89 58.09 58.76 58.14 57.99 58.04 58.19 59.05 58.64 57.94 57.71 57.68 57.41 57.52 57.22 57.52 57.42 57.16 56.77 57.55 57.89 58.18 57.79 57.18 56.57 53.79 50.49
57.62 59.48 60.09 60.05 59.87 59.40 59.82 60.58 59.69 58.92 58.53 58.17 58.16 58.67 59.02 59.25 58.43 58.15 57.88 59.16 59.28 58.69 57.94 58.09 58.85 58.09 57.56 57.60 57.62 57.40 57.54 57.49 57.41 57.45 57.06 57.32 57.74 58.22 58.50 58.33 57.15 55.82 54.33
58.10 59.01 60.12 60.80 60.65 60.33 59.82 59.72 59.80 59.35 59.55 58.51 58.28 57.85 58.36 59.39 59.66 58.99 58.93 58.80 59.68 59.37 58.17 57.73 57.64 57.44 57.07 57.61 57.67 57.59 57.48 56.69 56.47 57.30 57.13 57.42 58.24 57.98 58.22 58.24 58.12 56.53 55.86
58.96 59.59 59.87 60.80 60.35 60.22 59.55 59.33 59.63 59.51 59.98 59.99 59.05 58.60 58.64 59.09 59.05 59.04 59.05 59.33 58.83 59.35 59.02 58.13 57.84 57.61 57.75 57.66 57.10 56.71 57.06 56.26 55.69 56.49 56.63 56.95 57.66 57.38 58.07 58.22 57.35 57.09 56.85
57.15 58.94 60.07 60.14 60.41 60.46 60.09 59.40 59.77 59.71 60.54 60.80 60.11 59.41 58.75 58.81 58.83 58.77 59.26 59.49 59.42 59.13 59.19 58.87 57.98 57.92 57.80 57.40 57.35 56.95 56.66 56.72 56.66 56.62 56.54 56.52 56.88 56.56 57.77 57.82 56.63 56.53 55.80
55.87 57.09 58.70 59.83 60.83 61.36 61.34 60.63 59.97 60.22 60.18 60.22 60.15 59.46 59.55 59.35 59.58 59.46 59.45 59.31 60.05 59.19 59.08 59.17 58.74 58.78 58.42 58.51 58.09 57.68 57.11 56.90 57.20 57.34 57.37 57.08 56.88 56.60 57.12 56.78 56.03 55.08 53.86
54.26 55.37 55.74 57.82 59.85 60.91 61.78 61.85 61.40 60.51 60.41 59.53 59.35 59.48 60.23 60.72 60.54 60.05 60.32 60.20 59.73 59.92 59.67 59.31 59.31 59.13 58.81 59.04 58.39 58.47 57.83 57.47 57.54 57.66 57.69 57.52 55.96 51.68 54.47 55.91 54.65 53.79 52.56
53.73 54.98 55.66 55.86 56.33 59.59 60.86 61.80 61.97 61.63 61.15 59.87 59.15 59.66 59.79 60.51 60.11 60.19 60.41 60.34 60.09 59.96 59.74 59.29 58.86 58.51 58.64 51.24 47.08 52.61 57.49 57.33 56.73 56.30 56.94 57.08 49.35 49.60 46.19 45.70 46.44 51.78 52.90
52.57 53.99 55.37 56.35 56.59 56.77 58.19 58.10 61.56 62.59 61.71 60.36 60.44 60.08 59.84 59.46 59.76 60.18 59.87 59.57 59.23 59.55 59.07 59.04 59.02 58.67 58.63 47.89 45.87 44.74 56.29 56.91 56.86 56.33 56.22 55.54 54.56 48.46 52.64 44.34 39.84 35.76 35.29
52.47 53.58 54.90 56.20 57.36 57.79 57.51 58.30 59.11 58.20 61.57 61.28 60.98 60.82 60.43 59.72 59.74 59.46 59.18 59.13 59.31 58.74 58.51 58.36 58.65 58.35 58.46 46.71 45.71 43.02 52.27 55.51 55.98 55.98 55.77 53.37 52.76 49.33 45.60 37.11 33.05 32.72 33.03
53.35 54.08 55.39 55.41 54.86 54.04 54.96 56.99 58.10 58.19 56.84 59.80 60.88 61.41 60.95 60.17 59.71 59.08 58.84 59.01 58.74 58.48 58.42 58.52 58.07 57.64 57.66 45.57 43.87 43.28 51.20 53.61 42.44 40.05 39.71 42.23 40.81 38.90 38.50 34.31 32.84 30.87 30.05
53.90 53.79 54.28 52.71 50.33 50.24 53.18 54.15 52.07 51.48 51.78 54.37 56.23 56.91 61.16 60.77 59.91 59.54 59.16 59.01 58.97 58.13 58.31 56.09 46.05 40.09 47.24 39.12 40.78 43.69 42.84 36.83 33.72 33.60 34.18 34.88 35.21 35.10 35.38 34.01 31.78 29.03 27.46
52.50 53.17 52.58 48.26 45.67 45.54 48.98 46.70 46.29 45.55 47.75 50.30 49.83 48.51 49.65 51.93 55.75 59.21 58.75 58.51 57.54 46.23 40.07 36.48 35.77 36.04 37.05 37.29 38.44 39.73 37.55 34.19 31.96 31.51 31.41 32.41 33.71 33.84 33.30 32.03 29.75 27.99 28.99
48.08 49.41 49.51 45.63 42.80 41.35 41.84 41.54 40.88 42.84 42.87 41.65 40.50 39.55 39.54 40.69 43.95 48.40 46.02 45.37 42.63 38.71 35.16 33.68 32.02 32.52 33.32 34.43 35.28 35.36 34.29 33.68 31.22 30.04 30.56 31.62 32.27 31.66 30.67 29.52 29.75 29.40 29.01
44.19 44.17 43.59 41.86 39.50 38.17 37.21 36.48 37.59 40.48 39.09 36.90 35.40 34.55 33.97 33.15 34.28 36.51 38.34 37.97 38.28 36.04 34.07 31.77 29.88 29.37 30.93 31.96 33.00 32.90 32.34 31.59 29.89 29.80 30.13 30.25 29.84 29.38 28.75 29.59 29.90 29.28 28.88
39.49 39.92 39.36 37.62 35.79 35.54 35.50 35.27 36.01 39.05 37.22 35.31 33.83 32.61 31.07 29.90 29.68 30.64 32.06 32.34 33.24 32.49 31.51 30.23 28.53 28.27 28.17 28.93 29.89 29.25 28.85 28.39 28.02 27.35 26.32 26.16 26.26 26.68 27.49 26.62 26.72 26.40 26.30
34.88 35.42 33.77 33.38 32.61 33.12 32.69 34.01 34.42 36.24 35.29 33.79 32.67 31.13 30.13 29.02 28.28 28.62 28.89 29.40 30.09 31.70 29.08 27.91 27.96 26.83 26.59 28.74 30.11 28.42 27.05 27.09 27.40 27.60 27.47 26.68 26.52 26.04 26.12 26.30 25.66 25.74 26.06
30.28 29.94 29.45 29.07 28.96 29.01 29.26 30.50 32.81 33.45 33.41 31.45 30.24 29.96 29.13 28.37 27.87 27.03 26.76 30.44 30.89 31.20 30.76 30.43 29.29 29.50 30.57 31.10 31.22 31.02 30.98 30.84 30.61 29.32 28.06 27.56 27.01 26.16 25.76 24.69 23.93 23.86 21.62

GFSMW_sfc_wetblb_078.txt.gz
Wetbulb
54.81 56.97 57.26 58.37 57.93 56.49 56.21 56.16 56.85 58.79 58.83 59.11 58.63 59.04 58.79 59.72 60.17 60.64 60.53 60.62 60.67 60.28 58.75 57.80 59.56 58.50 57.55 57.52 56.91 55.23 54.32 52.29 52.79 51.44 50.47 51.06 53.45 54.65 55.31 55.52 55.96 55.70 56.21
54.03 55.82 56.22 57.68 57.52 57.04 56.51 57.07 57.01 58.47 58.13 58.42 58.68 58.60 58.74 59.41 59.71 59.98 59.67 59.82 59.76 59.54 59.57 58.65 59.54 59.92 58.46 56.97 55.01 55.13 53.94 53.58 53.65 51.60 50.02 47.45 50.06 51.81 52.41 53.77 55.04 54.35 56.16
53.14 54.70 55.39 56.19 57.02 56.60 56.49 57.41 57.71 57.68 58.11 58.54 58.56 58.25 58.02 58.09 58.13 58.51 58.54 58.90 59.54 59.57 59.50 59.58 59.67 59.74 59.08 57.03 55.09 54.85 55.67 53.52 52.92 53.34 51.61 48.92 46.89 49.81 50.65 50.57 51.04 52.05 53.13
54.44 55.10 54.95 55.36 56.01 56.25 57.08 57.48 57.67 58.46 58.28 58.14 57.74 56.99 56.38 55.63 57.26 57.97 58.39 57.82 58.70 59.16 58.98 59.16 59.26 59.09 59.00 57.58 57.46 56.91 54.82 54.50 53.28 53.23 56.00 55.14 53.66 49.06 48.97 52.59 50.98 50.34 50.25
53.99 54.41 54.39 55.13 55.77 56.19 56.25 57.64 57.83 58.23 58.88 58.35 57.24 57.08 56.28 56.58 57.00 57.58 57.30 57.36 57.84 58.79 58.52 58.90 58.96 58.77 58.27 57.85 58.01 57.96 56.31 55.47 54.56 52.82 54.46 54.64 54.41 53.14 50.44 47.49 50.75 51.51 51.59
53.98 54.76 55.10 54.83 54.29 55.61 55.77 57.35 57.29 57.79 58.71 58.28 57.79 56.83 56.12 56.06 55.58 56.05 55.80 56.26 57.13 58.08 57.98 57.91 58.46 58.51 58.35 57.19 57.86 58.68 57.30 56.10 55.80 54.86 54.72 54.27 52.62 51.59 50.75 48.73 49.50 49.74 51.87
53.43 53.02 53.34 53.44 53.57 54.64 55.31 57.01 57.45 57.02 58.02 58.31 57.85 57.17 56.16 56.32 55.70 55.27 55.52 55.56 56.03 56.79 57.48 57.31 57.26 57.69 58.14 58.21 58.09 58.26 56.34 55.61 54.94 55.69 55.25 55.38 54.79 54.64 53.44 51.30 50.35 50.64 52.22
53.62 53.16 53.61 53.86 53.87 54.81 55.57 56.26 56.98 56.82 57.63 58.21 57.53 57.62 57.31 56.53 56.15 55.78 54.91 55.49 56.24 56.95 57.98 57.71 57.57 57.36 57.09 57.66 58.10 57.37 56.98 57.02 56.28 54.76 55.13 56.00 55.90 56.12 55.70 54.38 52.64 50.08 50.84
53.38 53.46 53.78 54.09 54.58 54.66 55.45 56.15 56.60 56.70 57.06 58.10 57.73 57.34 57.49 56.81 55.22 55.20 54.93 54.14 55.71 57.12 57.47 57.46 58.07 57.82 57.69 57.78 57.69 57.35 56.68 57.10 56.26 56.43 56.20 55.78 56.06 55.88 56.16 55.99 54.90 52.67 49.39
53.60 53.96 54.09 54.23 54.87 55.13 55.62 55.98 56.56 56.93 57.70 57.91 58.07 57.82 57.70 57.44 56.09 54.82 53.41 53.79 54.67 56.31 57.04 57.36 56.76 58.00 57.82 58.02 58.04 57.21 57.00 57.10 56.70 56.71 55.95 56.12 56.31 56.52 56.56 55.96 55.80 55.22 53.27
53.53 53.97 54.01 54.82 55.22 55.26 55.18 55.65 55.57 56.12 57.25 57.68 58.03 57.88 58.02 57.83 57.30 56.02 54.60 53.61 54.08 55.17 55.83 56.89 57.26 57.30 57.88 57.53 57.15 57.45 57.06 56.62 56.53 56.40 55.48 55.34 56.07 55.88 55.85 55.93 55.78 55.01 54.46
54.07 54.31 54.24 55.02 54.98 54.97 55.25 55.45 55.80 55.85 56.07 57.09 57.30 57.65 57.93 58.00 57.54 57.37 56.97 55.65 53.94 54.33 55.35 56.22 56.70 57.17 57.26 57.12 57.15 56.54 56.29 55.20 55.48 55.48 55.30 54.89 55.38 54.60 55.24 55.33 54.94 54.44 54.54
52.19 53.20 53.76 54.01 54.99 55.27 55.41 55.48 56.09 56.01 56.52 56.61 56.61 56.62 56.82 57.26 57.50 57.61 57.65 57.50 56.03 55.02 54.54 55.51 55.77 56.18 56.72 56.54 56.02 55.59 55.20 55.04 54.82 54.85 54.29 54.57 54.30 54.01 54.65 54.79 54.34 54.09 54.17
51.72 51.93 52.03 53.27 54.18 54.79 55.78 56.05 55.99 56.69 56.71 56.67 56.05 55.88 56.10 56.55 57.04 58.04 57.91 57.17 57.48 57.19 56.80 55.69 55.66 55.71 56.06 56.65 56.41 55.74 54.96 54.39 54.20 54.31 54.47 54.30 54.21 54.14 54.15 53.72 53.90 54.32 54.05
51.30 51.63 51.29 52.09 53.82 54.30 54.95 55.63 56.16 56.45 56.64 56.51 55.99 55.46 55.77 56.32 56.39 56.67 57.17 58.00 57.62 57.01 57.07 57.15 56.91 56.34 56.09 55.73 55.77 55.82 55.07 54.35 54.12 54.32 54.59 54.96 53.75 50.48 52.23 54.21 53.98 53.90 53.48
49.01 48.38 48.69 48.56 49.15 51.92 53.64 54.32 55.52 55.83 57.14 56.05 56.23 56.65 56.37 55.89 55.79 55.93 56.02 56.41 56.87 57.72 57.49 56.41 56.47 56.37 56.47 49.78 46.61 51.61 54.83 54.69 54.01 53.43 53.90 54.44 49.03 48.99 44.93 44.66 45.99 51.22 52.80
46.86 45.63 44.88 44.69 45.50 47.17 48.94 48.59 49.86 51.61 53.80 56.08 55.90 55.65 56.76 56.39 56.27 56.42 55.99 55.76 55.94 56.59 56.43 56.30 56.28 55.95 56.38 46.96 45.33 44.17 54.52 54.74 54.21 53.92 53.86 53.65 54.11 48.64 52.77 46.48 42.37 42.00 39.13
42.86 42.34 42.23 41.68 41.64 45.08 45.63 46.08 46.49 47.16 47.64 47.91 48.21 48.33 48.10 50.59 52.87 56.99 56.45 56.24 56.46 56.18 56.15 56.15 56.52 56.41 56.66 45.95 44.78 43.06 52.09 54.75 55.28 55.32 54.96 54.39 54.21 53.61 52.48 52.03 45.40 40.64 35.01
40.90 40.18 40.16 39.61 39.71 41.61 42.65 42.44 42.01 42.73 43.47 43.99 44.25 44.37 45.59 46.30 47.95 49.01 49.55 54.44 56.58 56.62 56.53 56.77 56.27 56.08 56.43 43.54 44.21 44.27 53.37 54.18 54.68 55.21 55.43 53.72 53.91 50.61 45.43 47.91 37.71 31.80 31.60
39.00 37.62 37.23 36.78 36.47 38.42 40.45 39.33 39.02 39.13 38.72 39.21 39.39 39.56 40.72 42.05 42.48 44.26 44.45 44.80 47.10 52.28 55.47 45.95 38.17 35.55 37.86 35.01 36.35 39.18 49.99 51.76 51.28 40.68 36.83 35.17 37.83 39.00 39.36 47.91 37.04 30.96 29.15
37.58 37.33 35.23 33.69 34.19 35.92 38.20 36.44 36.61 36.60 36.78 36.19 35.53 34.54 34.68 36.28 36.68 38.88 40.27 40.91 42.96 40.31 37.69 34.35 33.39 33.01 32.65 33.32 34.57 35.19 37.57 41.22 33.85 32.70 31.92 32.84 33.60 33.96 33.62 33.32 31.73 28.97 29.75
34.78 35.40 33.88 32.48 32.75 33.38 34.57 33.88 33.30 36.69 35.45 33.27 31.97 30.89 31.12 32.08 32.56 32.75 34.51 36.65 36.90 35.41 34.31 32.72 30.61 30.02 29.74 31.43 32.49 32.95 32.85 33.08 31.15 30.45 30.66 31.23 32.08 31.70 31.25 30.34 30.62 30.36 29.33
31.64 33.16 31.93 31.31 30.79 31.35 31.45 30.82 32.26 35.56 33.95 30.76 29.20 29.78 29.63 29.83 30.24 29.86 30.15 31.20 32.70 31.95 30.63 29.92 29.28 28.62 29.10 28.88 29.81 30.46 30.18 30.42 28.85 29.22 29.70 30.13 29.87 29.55 28.41 29.15 29.24 28.80 28.00
29.34 30.41 30.05 28.57 28.36 29.89 30.40 30.88 31.71 34.29 32.43 30.47 28.98 28.80 28.32 28.18 28.96 29.45 29.40 29.17 28.91 28.78 29.18 28.81 27.56 27.31 27.39 27.00 27.97 28.26 28.47 28.10 27.61 27.20 26.78 26.88 26.53 25.86 25.36 25.27 25.44 24.81 24.86
27.80 28.33 28.25 28.12 27.90 29.42 29.68 30.28 30.60 32.14 30.25 29.24 28.86 28.35 27.87 27.33 26.87 27.16 28.30 28.63 29.67 29.88 28.08 28.00 27.97 26.94 26.43 28.41 29.70 28.78 27.79 27.75 27.64 27.18 26.25 24.74 23.54 22.37 22.06 22.24 23.09 23.22 22.99
25.88 25.68 26.15 26.21 27.34 27.98 28.05 29.22 29.84 29.60 28.84 27.57 27.47 27.53 27.12 26.49 26.18 25.33 24.94 28.69 29.54 30.16 30.43 30.62 29.66 29.32 30.39 30.41 30.45 30.02 29.39 28.66 27.27 24.17 22.14 21.72 21.38 20.10 20.10 19.74 19.13 19.44 19.74

GFSMW_sfc_wetblb_084.txt.gz
Wetbulb
45.77 49.30 54.22 56.04 55.43 54.99 56.42 56.70 55.45 55.47 58.52 59.17 59.91 60.34 59.93 60.11 60.45 61.93 62.51 62.16 61.77 62.31 60.26 57.54 55.87 56.59 56.03 54.91 54.22 53.68 53.32 52.61 54.18 52.69 51.22 51.54 53.03 53.86 54.01 54.69 54.81 55.16 55.79
49.83 52.79 54.70 55.64 55.98 55.62 56.40 56.34 56.77 56.54 58.81 57.70 59.36 59.89 59.91 60.95 61.17 61.82 61.09 60.27 59.47 58.58 57.96 56.07 55.61 54.56 54.39 54.63 54.54 53.69 51.52 51.83 54.60 51.53 50.64 48.64 50.85 53.00 54.26 54.63 55.01 55.13 56.03
47.57 53.32 54.82 55.06 56.34 55.26 55.32 55.28 56.05 56.63 57.56 59.16 58.63 58.75 59.31 59.09 59.91 60.80 59.95 59.24 58.19 56.99 57.26 55.93 55.32 53.85 54.40 54.15 54.76 53.54 52.91 52.86 52.47 54.88 51.60 47.86 48.29 50.47 52.15 53.22 54.57 54.87 54.89
49.13 53.67 54.81 54.80 56.25 55.78 56.06 55.76 55.73 56.23 56.93 58.09 58.11 57.43 57.52 56.98 57.78 59.37 60.36 58.54 57.72 56.76 57.15 56.00 54.88 54.63 54.73 54.54 55.40 55.11 53.82 53.92 51.71 51.63 53.30 52.72 51.48 49.55 47.66 51.39 53.28 54.61 53.98
50.02 53.19 54.31 55.13 56.94 56.32 55.87 56.02 55.28 55.67 57.92 57.71 58.13 57.89 56.96 57.28 58.18 58.97 58.73 58.92 58.43 57.20 57.59 58.23 56.47 55.59 55.93 56.20 56.13 55.30 54.57 54.26 53.01 51.82 52.55 52.68 52.97 52.27 49.47 48.03 50.31 51.13 53.17
51.07 53.72 54.09 56.06 56.21 55.89 55.50 55.75 55.50 55.95 57.32 57.50 57.77 57.15 56.18 56.94 57.26 57.14 57.08 57.92 58.20 58.01 57.62 57.97 58.35 58.12 57.21 57.16 56.34 55.91 55.28 54.18 53.67 53.15 53.56 53.01 51.99 51.63 51.07 49.75 49.97 49.75 51.08
49.98 52.92 53.61 54.55 54.94 54.53 54.67 54.93 55.04 55.51 57.22 56.06 56.78 56.82 56.43 56.08 57.00 56.84 56.94 57.22 57.44 57.54 57.84 58.00 56.96 58.11 57.89 57.54 57.35 56.58 55.81 54.87 53.87 53.01 53.22 54.10 53.60 54.26 53.10 51.63 50.46 50.08 51.98
51.02 52.66 53.60 54.55 54.65 54.52 54.50 54.54 54.34 55.02 56.24 56.87 56.33 56.50 56.49 56.65 56.89 57.46 57.37 57.48 57.79 57.97 58.49 58.39 58.63 58.14 57.97 57.74 57.61 57.47 56.99 56.02 55.20 53.96 53.36 53.81 54.36 54.42 54.30 52.90 51.65 49.66 50.19
49.13 52.29 53.31 54.52 54.55 54.30 54.54 54.55 54.26 55.33 56.00 55.92 56.69 56.39 56.17 55.73 56.05 56.02 56.88 57.34 57.62 57.87 57.97 58.15 57.99 58.34 58.48 57.84 57.15 57.20 56.94 56.79 55.98 55.50 55.16 54.51 54.88 55.60 55.12 54.90 54.34 52.41 48.88
48.58 51.93 52.93 54.04 54.67 54.80 54.83 54.81 54.95 55.22 56.28 56.65 56.45 56.71 56.21 56.24 56.11 55.90 54.26 54.82 56.21 56.99 57.21 57.29 57.39 57.41 57.80 57.98 57.05 56.34 56.52 56.61 56.62 56.60 55.60 55.26 55.85 55.72 56.09 55.66 54.85 54.12 53.44
50.77 52.37 52.80 53.48 54.55 54.87 54.78 54.39 54.12 54.42 55.02 56.93 55.84 56.54 56.63 55.68 54.80 54.35 53.45 53.53 53.61 55.05 56.38 57.09 57.18 56.68 56.90 56.98 56.51 56.16 56.16 55.61 55.71 55.99 55.70 55.48 56.04 55.97 55.84 56.09 55.71 54.89 54.10
51.66 52.74 52.24 53.05 53.32 53.44 53.81 53.87 53.33 53.68 54.02 55.12 56.44 57.01 56.47 56.10 55.81 55.30 54.30 53.00 52.93 53.79 54.94 56.10 56.42 56.56 56.42 56.63 56.55 56.29 56.64 55.80 55.58 55.75 55.55 55.31 55.72 55.46 56.04 55.34 54.87 54.59 54.84
51.28 51.58 52.56 52.49 53.13 53.67 53.56 53.62 53.00 53.18 54.18 55.30 56.58 56.89 56.73 56.53 55.42 54.69 53.89 52.21 52.10 52.58 53.67 54.65 55.32 55.72 56.14 56.43 56.30 56.12 55.56 55.50 55.48 55.71 55.88 55.47 55.64 54.89 55.20 54.85 54.53 54.75 54.48
51.20 51.87 51.93 52.43 53.19 54.24 54.24 54.55 54.41 54.25 54.41 54.36 54.01 53.71 54.06 55.48 56.49 56.30 55.50 54.10 53.11 51.82 52.40 54.00 54.49 54.35 54.49 55.70 56.14 56.09 55.81 55.79 55.75 55.96 56.00 55.94 55.36 55.13 54.95 54.51 54.42 54.22 53.81
46.43 48.09 49.28 51.00 52.26 53.28 54.27 54.57 54.84 54.78 54.80 54.24 53.81 53.65 53.72 54.08 54.18 54.32 54.79 55.36 55.03 54.04 52.80 52.72 53.34 53.87 54.12 54.77 54.95 55.11 54.77 54.63 54.41 54.25 54.59 55.03 54.30 50.55 52.47 55.06 54.51 53.83 53.05
42.64 44.14 45.07 46.34 47.04 47.80 48.38 49.25 49.79 52.12 56.08 54.16 54.08 55.75 53.94 54.12 53.74 53.62 53.74 53.79 53.95 54.27 53.99 53.53 53.73 53.26 53.64 47.17 45.08 51.02 55.10 55.33 54.85 54.44 54.40 54.40 48.78 48.66 44.78 44.94 46.36 51.78 53.78
39.50 40.22 41.01 42.27 42.56 42.86 43.77 44.10 45.38 47.84 48.38 48.26 47.66 48.21 51.32 54.55 54.56 54.76 55.10 55.04 55.38 55.20 54.43 54.55 55.21 55.11 54.81 43.45 44.10 43.48 53.48 54.29 54.42 54.59 54.34 53.77 53.94 48.29 52.58 46.36 42.02 42.87 42.42
36.38 36.65 38.48 38.90 39.47 40.41 40.44 40.89 40.82 40.87 41.11 41.01 41.02 42.77 44.06 45.06 46.61 47.92 47.84 51.25 53.65 55.10 55.24 55.04 55.32 55.60 39.75 35.93 36.60 36.78 47.95 53.30 54.23 54.44 54.55 54.03 54.26 53.87 52.01 52.31 51.34 49.74 47.30
35.08 34.67 35.72 37.09 38.04 38.40 38.10 36.92 35.90 36.19 36.41 35.88 36.22 37.92 38.84 39.61 40.60 40.16 40.89 43.39 46.71 44.39 39.35 38.23 39.19 38.94 35.56 35.02 35.46 36.57 43.69 49.18 52.08 51.59 36.96 36.83 38.14 36.81 38.46 41.66 45.75 40.33 31.68
33.95 33.14 33.43 33.61 35.26 36.83 37.20 33.99 32.74 32.25 31.75 32.51 33.20 34.54 35.77 35.73 36.01 36.77 37.70 39.53 38.82 35.79 35.10 32.50 32.87 32.72 32.81 34.06 35.04 35.85 40.94 41.17 36.24 33.21 32.95 33.22 33.79 34.27 35.55 38.18 39.03 32.44 29.85
33.08 33.23 32.15 31.13 31.77 35.07 35.84 33.49 31.73 29.72 30.91 31.59 31.96 32.02 32.91 33.20 33.68 34.12 34.88 35.44 34.69 32.95 31.36 29.94 29.84 30.08 31.42 31.62 33.25 34.36 34.24 33.54 32.17 31.38 30.61 31.39 32.10 32.61 32.80 32.94 32.98 31.57 30.32
30.80 31.68 30.45 30.14 30.69 31.73 33.23 32.40 31.20 31.68 30.97 30.21 30.09 30.12 30.59 31.20 31.93 31.85 32.03 32.43 32.36 30.93 30.02 29.30 28.59 29.04 29.47 31.27 31.52 31.55 31.39 31.43 28.98 27.98 28.40 28.81 29.63 29.36 29.17 28.74 29.21 28.85 27.71
29.47 30.11 29.23 28.36 28.89 29.46 29.65 29.68 31.07 31.66 30.68 29.53 28.49 28.49 29.20 29.76 29.91 29.80 29.81 29.41 30.02 29.41 28.63 28.22 27.52 27.60 28.63 28.76 29.90 29.64 28.65 28.38 26.64 27.12 26.92 26.91 26.60 25.79 25.42 25.95 25.40 24.90 24.24
26.82 27.80 27.14 26.20 25.95 27.15 28.01 28.25 30.76 30.88 29.50 27.63 26.90 27.36 26.84 27.06 27.83 28.04 28.46 28.58 28.59 27.85 27.61 27.02 26.89 27.25 27.26 26.84 26.43 26.03 25.78 25.23 24.48 23.15 22.22 22.72 22.56 20.78 21.05 21.69 22.15 21.84 21.76
24.85 25.68 25.31 25.05 24.83 25.75 26.26 27.29 28.14 29.90 28.42 27.69 26.94 26.11 25.73 24.61 25.02 25.99 26.28 26.46 27.93 27.93 26.12 26.13 26.43 25.05 24.89 26.75 27.97 25.41 22.68 21.93 22.29 21.30 20.77 19.54 19.15 18.34 18.52 18.51 18.56 19.09 19.33
22.86 22.58 23.12 22.81 23.75 24.25 24.48 25.08 26.14 27.05 26.32 25.39 25.40 25.23 24.19 23.96 22.36 21.60 22.40 26.99 27.22 27.86 28.03 27.75 26.64 26.47 27.40 27.28 27.12 26.61 25.96 24.88 22.90 18.94 16.66 15.65 16.14 16.12 16.49 15.95 15.52 15.78 15.65

GFSMW_sfc_wetblb_087.txt.gz
Wetbulb
52.96 53.39 52.83 57.42 59.47 61.05 61.24 61.31 61.42 60.82 61.93 62.15 61.28 60.92 59.98 60.46 60.72 61.53 62.43 61.64 62.70 63.06 62.53 60.98 59.47 60.11 60.23 59.51 59.63 59.72 59.15 58.83 60.08 58.11 57.52 58.06 59.26 59.68 60.15 60.38 60.02 59.89 60.87
51.35 52.38 55.50 57.63 58.66 59.41 60.42 60.00 60.88 60.70 60.52 61.92 62.10 62.06 61.50 61.55 61.67 61.58 62.40 61.83 61.59 62.63 61.18 59.15 59.05 59.41 60.71 59.37 58.20 58.64 58.33 58.43 58.97 57.43 56.55 52.81 55.60 58.02 58.40 59.07 59.37 60.20 60.33
50.88 52.34 55.31 57.07 58.43 58.49 59.24 58.84 60.31 60.18 60.40 60.68 60.64 60.75 61.31 61.02 61.04 60.62 61.21 61.63 61.68 62.02 60.32 59.33 59.58 60.51 59.72 58.52 58.75 59.13 58.72 56.11 58.13 59.28 57.81 53.98 53.44 55.60 58.07 58.40 59.02 59.26 59.24
51.17 52.24 55.07 56.71 57.60 58.11 58.52 59.26 59.82 60.05 60.35 60.81 59.86 59.07 58.49 58.12 58.75 60.61 59.92 59.16 60.07 60.49 58.68 59.41 59.54 58.68 58.24 58.79 58.40 58.16 58.11 58.58 57.09 58.49 57.87 59.47 58.61 55.31 53.92 56.53 57.82 58.89 57.94
52.11 52.44 55.21 57.10 58.31 57.71 56.88 57.83 59.01 58.48 58.99 59.57 59.70 59.14 58.18 58.92 60.11 59.87 58.66 57.53 57.15 57.53 57.64 58.29 57.55 56.92 57.48 58.47 57.77 56.38 58.35 60.00 58.61 57.38 57.05 57.43 57.69 57.91 55.92 53.65 54.59 57.25 57.55
51.77 52.93 56.70 57.81 58.19 57.10 56.65 56.89 56.55 58.04 57.93 58.25 59.27 59.26 59.08 58.80 58.53 58.22 57.37 56.59 56.25 57.17 56.47 56.42 56.30 56.74 57.75 57.78 58.45 58.19 58.12 58.27 59.11 58.71 58.98 57.41 55.75 54.90 55.94 55.09 55.24 55.86 57.08
51.67 54.92 55.81 56.68 57.48 56.04 56.37 56.66 56.02 57.55 57.91 58.34 58.83 59.07 59.15 59.51 58.65 57.47 57.67 56.87 55.79 56.59 57.51 57.25 57.12 57.32 58.33 57.08 57.21 58.65 57.54 56.78 57.23 57.29 57.73 58.57 58.61 58.56 57.60 56.85 55.11 54.88 56.26
53.27 54.07 56.36 56.93 57.01 55.77 55.73 56.23 56.13 56.75 56.89 57.54 57.96 58.58 58.63 58.68 58.44 58.08 57.99 58.03 57.23 56.79 57.10 56.66 56.77 57.85 57.99 57.83 57.39 57.82 58.15 57.27 58.29 57.97 58.28 58.31 58.21 58.13 57.92 56.52 56.15 54.27 55.50
53.13 53.00 56.18 57.14 56.87 56.35 55.27 55.77 55.84 56.26 56.92 57.07 57.67 57.60 58.19 58.09 58.17 58.67 58.22 58.18 58.87 58.35 57.19 56.55 55.93 55.79 55.42 56.57 57.74 57.31 56.85 57.32 58.63 58.63 58.53 58.09 57.67 58.94 58.37 58.62 58.64 56.27 53.05
52.80 52.39 55.07 56.56 56.97 57.46 55.71 55.95 56.06 55.99 56.47 57.06 57.55 57.15 56.96 57.48 58.18 57.83 57.65 57.84 58.10 58.77 58.51 57.96 57.10 56.45 56.28 55.29 56.40 56.88 57.97 57.65 57.36 57.29 56.24 56.04 57.76 57.84 57.84 58.74 58.83 58.19 56.19
52.73 53.73 55.29 56.72 56.61 55.88 55.56 55.07 55.47 55.51 56.13 56.80 57.89 57.25 56.77 56.91 57.22 57.36 58.39 57.77 57.40 57.73 57.81 57.94 57.85 57.86 56.86 55.62 55.10 54.79 56.73 56.80 56.50 56.68 56.27 55.91 56.43 55.99 55.95 56.23 56.29 57.13 56.66
53.29 54.11 53.80 54.09 54.56 54.47 54.59 54.61 55.19 55.32 56.40 57.04 58.14 57.91 57.63 56.69 56.43 56.76 57.16 57.95 58.52 59.22 58.85 58.21 57.55 57.35 57.37 57.60 56.78 55.35 55.60 56.54 56.53 56.43 56.32 56.04 56.23 55.89 56.37 56.07 55.67 55.40 55.70
51.71 53.03 53.14 52.93 53.18 53.59 54.45 54.60 55.57 57.19 57.83 57.19 57.95 57.47 57.40 57.08 56.52 56.59 56.34 56.12 56.98 58.00 58.45 58.77 58.58 58.37 57.27 56.65 56.90 57.10 56.98 56.20 56.16 56.23 56.07 55.86 56.36 55.77 57.76 58.38 57.46 56.41 56.22
45.79 49.76 51.84 52.50 53.43 53.98 54.14 54.53 56.64 57.87 58.28 58.64 58.86 57.94 57.48 57.97 57.47 57.22 56.25 55.64 56.27 56.99 58.07 58.47 58.82 58.99 59.03 58.99 57.90 57.23 57.29 57.18 57.00 57.23 57.95 58.23 57.83 58.03 58.00 56.48 55.99 55.19 55.16
41.58 43.40 45.57 48.85 51.61 53.36 54.23 54.93 56.00 57.44 57.94 57.64 57.96 57.73 58.43 59.20 59.12 58.84 58.60 58.13 57.08 56.56 56.84 57.43 58.14 58.60 58.77 58.53 58.77 57.97 57.36 57.03 56.89 57.59 58.03 59.41 57.49 51.58 54.73 58.05 58.65 58.39 56.82
38.69 40.00 41.19 42.77 44.35 46.05 47.95 48.19 50.94 56.43 57.28 56.53 55.76 56.84 57.44 58.01 58.30 58.43 58.43 58.64 58.33 57.58 56.95 56.42 56.97 56.76 55.57 47.62 46.22 52.64 56.78 56.98 56.88 57.23 58.41 58.50 50.67 50.46 45.04 45.15 46.35 52.54 55.96
35.69 36.54 38.02 39.00 40.43 41.31 42.39 43.53 44.12 45.56 45.72 45.67 45.76 47.50 51.32 51.15 51.86 54.80 56.12 56.78 56.81 57.52 56.62 56.27 55.56 55.08 49.77 37.02 39.02 40.83 55.98 56.67 56.32 56.44 55.95 55.53 55.52 50.69 55.72 48.10 42.65 43.27 41.99
33.85 34.11 35.32 37.10 37.40 38.33 38.15 38.85 39.74 40.12 39.95 39.93 40.17 41.52 43.45 43.77 44.28 45.26 46.21 48.73 47.82 45.02 46.78 44.48 47.44 40.38 36.41 35.62 35.93 35.71 48.17 51.52 53.88 48.48 42.80 43.85 44.95 39.30 40.02 44.66 48.95 45.68 33.93
33.02 33.04 33.72 35.21 36.62 35.38 35.34 35.29 34.95 35.58 35.24 35.10 36.09 37.41 39.14 39.20 39.50 39.91 40.83 42.61 40.47 37.54 36.28 35.67 36.42 35.56 34.27 34.72 35.50 38.63 46.07 46.63 38.44 35.68 34.94 35.10 35.54 34.71 35.88 39.45 39.88 32.27 31.33
32.59 32.05 32.15 32.48 34.52 35.67 35.22 32.99 32.17 32.32 31.89 32.77 33.19 34.95 35.57 36.10 35.69 36.94 36.75 36.48 35.60 34.11 33.09 31.83 32.38 32.59 32.34 33.72 35.08 37.63 41.97 36.70 33.17 31.90 31.83 32.37 32.94 33.15 34.24 36.81 37.90 32.64 31.16
31.84 32.39 31.13 29.83 30.78 34.16 34.20 32.10 31.97 30.29 31.73 33.05 33.25 33.16 33.83 33.91 34.33 34.33 35.14 34.60 33.31 32.10 30.67 29.89 30.18 30.80 31.31 31.70 32.92 33.78 33.76 31.82 29.91 28.77 28.72 29.84 30.72 31.05 31.26 31.08 30.44 30.37 28.72
29.77 30.23 28.79 28.43 29.48 30.87 32.67 30.89 29.89 31.14 31.49 31.48 31.16 31.32 31.76 32.41 33.31 32.85 32.89 32.80 32.41 31.23 30.37 29.91 29.40 29.89 30.21 30.59 30.78 30.76 30.58 30.52 28.81 27.90 28.65 29.06 29.06 28.71 28.70 28.76 27.99 27.56 27.10
27.99 28.37 27.53 27.11 27.58 28.73 29.23 29.55 29.87 30.43 29.76 29.27 28.76 29.05 29.79 30.32 31.09 31.30 31.69 31.45 31.54 30.75 29.75 29.37 28.84 28.92 29.85 29.56 28.91 28.36 28.05 28.19 27.94 27.60 26.78 26.42 26.36 26.57 26.64 25.87 26.34 27.34 27.80
25.53 26.44 26.13 25.32 24.92 26.81 27.37 28.18 30.39 30.13 29.26 28.61 27.80 28.52 28.54 28.88 29.58 30.03 30.02 29.43 29.71 29.53 28.97 29.02 28.31 28.80 29.59 29.65 29.59 28.90 28.44 26.94 26.96 25.88 25.85 24.91 24.56 24.05 24.99 26.09 26.36 26.35 26.49
24.28 24.76 24.32 24.30 24.39 25.93 25.63 26.33 28.02 29.62 28.12 27.54 27.14 26.60 26.90 27.30 26.89 26.90 27.91 27.93 28.66 28.78 26.85 26.98 27.42 27.06 26.66 27.77 28.39 28.11 28.01 27.61 25.21 26.54 26.96 26.03 25.60 24.73 24.12 23.61 23.21 24.44 24.44
22.66 22.33 22.68 22.80 23.15 23.88 24.31 25.14 26.29 28.13 27.55 26.16 25.80 25.66 25.54 25.35 25.53 25.00 23.85 26.27 26.75 27.24 27.69 27.75 27.45 27.39 27.27 27.15 26.59 25.74 24.61 23.95 24.25 24.75 23.42 22.09 22.29 21.45 21.38 20.97 20.37 20.15 19.23

GFSMW_sfc_wetblb_090.txt.gz
Wetbulb
55.50 57.06 58.09 59.11 59.97 62.95 64.73 65.73 67.19 64.91 64.84 65.01 64.38 63.99 62.87 62.89 62.55 62.90 62.62 62.79 63.30 63.33 63.46 62.71 61.69 60.75 59.84 60.03 62.52 62.63 62.88 62.38 63.05 60.35 59.28 60.20 60.80 61.01 61.89 62.04 62.13 61.96 62.53
53.32 55.38 57.12 58.34 61.27 62.41 64.13 65.02 66.46 63.63 65.60 66.81 66.54 64.96 62.95 63.08 63.00 62.59 62.21 62.62 62.57 63.53 63.07 61.74 60.96 60.68 59.53 59.38 62.82 62.44 61.92 61.87 62.51 58.96 58.82 54.35 56.51 59.05 60.48 61.57 61.29 61.85 62.05
52.51 53.86 55.47 57.56 61.44 62.24 63.54 64.46 65.88 64.71 66.45 66.30 65.64 64.12 63.61 62.75 62.39 61.52 61.19 61.73 62.66 63.21 62.42 61.10 60.77 60.40 60.13 59.31 61.80 62.91 62.17 59.89 61.49 62.19 59.39 55.11 54.44 57.54 59.78 60.73 60.98 61.28 61.29
53.94 54.08 54.79 56.71 60.34 62.63 63.88 64.64 65.30 65.82 65.55 65.75 64.58 63.50 62.21 59.84 61.54 61.04 62.03 61.94 61.46 61.98 61.32 60.94 60.59 60.55 60.55 60.66 62.20 63.56 62.86 62.22 59.63 61.09 61.47 61.47 60.37 56.51 55.07 59.88 60.51 61.22 60.76
54.52 54.86 55.28 56.65 59.85 62.82 63.30 63.86 65.00 64.97 64.92 64.65 64.54 62.60 61.12 61.54 63.48 63.28 61.34 60.88 61.33 61.23 60.40 60.29 60.24 59.81 60.14 61.60 63.02 62.95 62.67 61.92 61.38 60.34 60.26 61.05 61.33 61.08 57.77 55.68 57.85 60.47 61.27
56.84 55.96 56.83 57.78 60.43 62.75 60.68 62.01 63.73 63.94 64.33 64.04 63.29 62.80 61.75 60.50 61.47 59.84 59.57 58.49 57.93 59.87 59.70 60.07 60.10 59.80 60.00 61.22 61.79 61.40 63.05 62.58 62.66 61.64 61.08 59.89 58.43 58.61 58.39 56.53 57.82 57.97 59.76
57.41 57.39 57.61 59.28 60.44 60.59 57.93 60.04 62.69 62.53 62.84 62.64 62.19 61.66 61.34 61.99 61.81 59.12 57.20 56.34 56.04 55.88 56.87 57.72 57.70 58.23 60.15 61.23 61.03 61.47 62.26 61.85 62.08 62.32 61.36 61.42 60.45 60.59 60.01 58.37 56.33 56.56 58.96
57.59 57.97 57.81 59.76 60.56 58.36 56.79 58.40 59.98 61.73 61.24 61.05 60.79 61.05 62.36 61.51 61.36 59.43 58.32 56.28 56.64 56.36 56.72 56.44 56.88 57.93 58.99 60.01 60.54 60.85 60.22 60.73 61.20 61.28 61.50 61.12 61.38 61.14 60.46 58.57 56.42 54.78 55.97
57.34 58.01 58.09 59.91 60.99 59.24 56.75 57.55 60.19 61.81 61.16 60.18 59.57 60.78 61.49 60.77 59.91 59.37 58.85 57.50 57.58 57.16 57.47 57.37 57.86 58.48 58.56 58.72 59.71 59.38 57.65 59.00 60.32 61.18 61.34 60.77 60.99 61.37 61.42 60.50 58.90 56.59 53.24
56.67 57.94 57.01 58.95 60.85 60.08 57.14 58.03 60.53 61.11 59.99 60.02 59.35 60.35 60.22 60.32 60.70 60.41 58.89 58.45 57.62 57.26 56.58 56.38 56.58 56.65 56.20 56.66 56.81 57.12 57.36 57.35 57.33 58.21 59.58 59.00 60.18 60.94 60.89 60.09 59.42 59.02 56.98
54.25 56.36 57.58 58.52 59.87 59.21 56.84 57.02 58.84 58.71 58.63 58.73 58.79 59.99 59.11 59.64 59.53 59.22 58.72 58.12 58.68 57.40 56.36 55.57 55.43 54.55 54.23 54.65 53.76 53.69 55.53 57.42 57.13 57.65 58.91 58.53 59.43 58.27 59.16 59.41 58.69 56.55 57.85
49.68 54.02 54.67 56.83 56.81 55.96 56.16 56.39 57.05 57.11 58.92 58.15 58.50 58.68 58.38 59.68 58.45 58.62 59.06 58.11 58.35 58.86 58.75 58.03 57.30 56.63 55.63 54.58 53.97 53.74 53.77 55.94 56.37 58.02 57.00 56.93 57.36 56.93 56.82 56.33 56.01 56.01 56.41
46.03 46.81 53.15 54.28 54.78 55.11 55.34 55.68 56.41 57.06 58.92 57.76 58.36 58.02 57.97 59.14 59.46 59.84 60.37 61.02 59.81 59.05 58.71 58.13 57.68 57.30 56.68 55.43 54.92 54.57 53.44 54.39 56.18 57.50 58.10 57.75 57.15 56.25 56.22 55.70 55.32 55.95 58.06
42.44 43.88 44.41 50.55 53.97 54.69 55.18 55.30 56.33 57.30 57.32 57.42 58.01 58.23 58.72 58.35 58.78 59.32 59.59 59.71 60.53 59.80 60.13 59.96 59.09 58.67 58.33 58.10 57.00 55.54 55.81 55.42 56.58 57.32 57.28 57.36 56.84 56.58 56.47 56.52 57.18 56.59 56.74
39.24 40.22 40.35 42.46 45.44 53.46 54.64 55.58 57.45 58.12 59.15 58.87 57.53 57.34 58.29 58.59 58.61 58.61 58.55 58.17 58.09 59.20 60.43 60.10 60.05 60.15 59.49 58.96 58.60 58.49 57.96 57.01 58.59 59.73 59.00 59.27 56.15 51.75 55.01 59.50 58.77 58.71 58.60
36.04 37.08 38.31 39.33 40.79 42.80 48.42 49.45 54.43 57.53 58.47 57.52 56.73 58.64 58.81 58.99 59.46 58.97 59.24 58.98 57.96 57.79 57.66 57.96 59.22 60.01 58.25 37.97 40.56 53.41 59.77 59.32 59.00 58.54 59.04 59.62 51.88 52.38 45.70 45.64 46.29 52.40 58.38
34.31 34.09 35.97 36.58 37.50 38.86 41.60 43.06 44.63 46.12 46.66 46.61 46.50 48.00 49.91 50.16 50.72 55.60 57.37 57.85 58.34 59.17 57.52 57.10 57.48 47.02 42.58 36.32 37.35 37.19 55.68 58.11 57.84 57.19 56.92 56.71 56.39 50.25 55.91 47.31 43.08 42.97 37.16
32.66 32.43 33.26 35.57 35.41 36.57 37.42 38.71 39.24 39.96 40.26 40.14 40.66 42.31 43.31 43.72 45.26 46.01 46.51 44.43 44.00 42.87 42.72 41.73 40.18 38.12 36.33 35.58 36.31 36.10 49.25 54.02 40.59 38.76 39.52 42.19 41.70 37.51 39.00 43.61 40.04 35.26 34.05
33.18 31.60 32.37 33.28 35.01 34.63 35.17 35.29 34.85 34.98 34.96 35.60 36.38 37.82 39.34 39.89 40.19 39.35 39.39 39.69 37.56 35.93 35.80 36.04 35.80 35.32 34.15 34.96 36.15 41.26 43.72 37.58 34.48 33.59 34.03 35.11 34.44 34.12 35.97 40.69 35.78 32.06 31.16
31.67 30.99 31.25 31.14 32.71 34.09 34.83 32.97 32.70 33.12 32.64 33.64 34.38 35.75 36.50 36.36 36.35 36.12 35.57 35.09 34.47 33.19 32.78 32.09 32.49 32.55 32.34 33.94 35.32 39.16 36.87 32.34 30.84 30.87 31.24 31.97 32.18 32.43 34.08 39.77 35.08 30.80 30.41
30.25 30.77 29.98 29.17 30.25 32.65 32.88 31.75 32.11 31.20 32.35 32.99 33.75 34.40 35.11 34.67 34.76 34.70 34.41 33.62 32.47 31.85 30.75 30.13 30.68 30.76 31.77 31.91 33.00 34.04 32.80 30.62 29.33 28.73 28.58 29.93 30.92 31.06 31.42 31.34 30.69 28.99 29.50
28.70 28.76 27.89 27.98 29.44 31.12 31.41 30.00 29.46 31.64 31.96 32.02 32.49 33.22 34.31 34.93 35.07 34.26 34.31 33.79 32.98 31.88 31.35 30.91 30.34 30.80 30.78 30.42 31.00 31.45 32.27 32.40 30.90 29.63 29.88 29.78 29.28 29.63 29.55 30.09 28.87 29.21 30.38
28.72 29.36 27.79 27.50 27.98 29.01 30.40 28.77 30.15 32.19 31.69 31.20 31.01 32.61 33.17 33.18 33.67 33.94 33.84 33.92 33.86 33.06 32.09 31.77 31.38 31.41 32.25 31.29 28.86 28.76 29.15 29.55 30.32 29.93 28.63 28.54 28.88 29.02 28.91 28.43 29.61 30.83 32.89
26.51 28.35 27.85 26.60 26.71 27.86 28.42 29.92 31.67 31.84 30.42 29.19 30.18 30.28 29.37 29.75 31.24 31.36 30.99 31.25 32.14 31.81 31.54 30.83 30.09 30.13 30.78 31.08 31.68 31.79 31.37 29.45 29.86 29.00 30.58 28.94 28.62 28.37 29.16 30.21 30.39 29.67 29.19
25.26 25.60 25.01 25.04 25.00 26.20 26.39 27.75 30.07 30.91 29.47 29.15 28.68 28.23 29.81 28.52 27.09 27.16 28.38 28.39 28.78 29.54 28.93 28.52 29.31 29.14 27.67 27.74 28.16 29.47 30.22 30.43 29.69 31.29 31.40 30.24 30.03 28.89 28.74 27.86 27.22 27.51 28.07
24.02 23.82 24.01 24.19 24.51 25.02 25.10 26.35 27.57 29.35 29.24 27.64 27.62 27.46 27.73 27.89 27.60 25.54 23.61 25.65 26.50 26.67 26.95 27.71 28.19 27.53 26.93 26.51 26.10 25.68 26.02 26.92 28.56 29.45 27.62 26.34 26.68 26.08 25.85 25.42 25.05 24.51 23.34

GFSMW_sfc_wetblb_093.txt.gz
Wetbulb
53.97 56.27 57.82 59.38 59.67 60.37 61.94 65.08 67.28 70.10 67.39 65.65 64.48 65.07 64.68 64.50 65.10 64.92 64.83 65.34 65.10 64.26 63.93 63.28 63.55 63.55 61.25 61.58 61.72 61.40 60.36 60.36 64.11 60.67 59.50 60.90 62.29 62.28 61.07 61.95 61.67 62.05 62.76
52.95 54.40 55.98 58.29 59.63 59.97 61.43 64.56 66.21 68.63 67.03 65.42 66.56 67.52 65.96 65.76 65.17 65.29 64.28 64.52 64.17 64.08 63.20 63.42 62.78 61.91 60.85 60.73 60.35 60.83 59.43 59.79 62.22 59.69 58.88 55.67 56.94 59.78 61.17 61.03 61.10 62.95 61.85
53.05 54.18 55.13 56.84 59.16 60.02 62.12 63.74 65.69 67.69 66.87 67.62 67.81 67.00 66.00 64.06 63.13 63.69 64.15 64.32 64.26 63.57 63.32 62.92 61.92 61.03 60.83 60.60 60.35 60.92 59.78 59.23 60.95 61.79 58.77 55.00 53.07 56.63 59.73 61.16 60.48 62.39 61.17
56.42 56.61 55.98 56.25 57.80 60.43 63.10 64.51 65.66 67.60 65.76 67.84 67.29 65.86 62.46 61.05 62.72 63.49 63.69 62.75 62.66 62.51 62.83 62.34 61.69 60.70 60.85 60.09 60.30 61.10 60.50 61.03 59.17 61.09 62.17 61.60 59.99 55.66 54.02 58.51 60.18 60.80 60.58
57.14 57.18 56.61 56.83 57.37 60.13 62.63 64.76 65.57 66.85 66.64 67.83 67.40 66.10 64.61 64.77 64.06 63.64 63.75 63.05 62.09 62.00 62.19 61.66 61.09 60.44 60.34 60.39 60.43 60.49 61.57 61.47 61.17 60.84 60.71 61.32 60.85 61.02 57.64 54.50 57.25 59.62 60.35
57.99 58.56 58.48 58.17 57.19 59.61 64.12 65.01 65.18 65.84 66.45 66.84 66.65 66.15 64.95 64.29 62.37 63.33 63.08 62.08 61.43 61.06 61.05 60.97 60.82 60.63 60.27 60.46 60.50 61.50 61.35 61.79 62.76 62.56 61.78 60.36 58.28 58.48 58.35 57.05 57.82 58.24 59.73
58.18 58.57 58.50 57.37 58.07 59.92 63.57 64.50 64.43 64.85 65.86 65.75 65.73 65.65 64.67 63.82 62.42 62.47 62.50 60.09 59.10 59.45 60.22 60.08 60.18 60.17 60.14 60.41 60.69 60.77 62.36 63.09 62.47 62.79 60.81 62.08 61.73 61.68 60.09 58.17 57.49 56.68 58.94
58.34 59.27 59.38 60.03 60.42 61.77 62.77 61.96 63.97 64.28 65.03 65.04 64.98 64.76 64.10 62.34 63.00 62.79 61.26 59.57 57.62 58.35 59.53 60.08 60.08 60.15 60.20 60.20 60.77 61.49 62.49 62.39 62.31 61.18 61.37 60.98 62.25 61.64 60.61 58.98 57.47 55.09 55.94
56.03 59.18 59.88 59.85 61.69 62.27 59.24 59.34 63.36 64.16 64.08 63.90 64.21 63.18 62.58 62.08 62.36 61.72 60.00 58.32 57.65 56.84 57.32 58.26 59.08 59.55 59.91 59.99 59.96 60.05 59.98 60.93 61.24 61.45 62.02 60.68 60.79 62.16 62.52 61.64 60.01 57.79 53.14
53.95 54.87 59.64 59.48 61.90 61.21 58.32 58.76 62.48 62.62 62.46 62.44 62.98 61.79 61.25 62.05 62.26 61.09 58.51 57.33 57.62 56.98 56.74 56.98 57.18 58.04 58.94 59.23 59.02 58.95 59.86 60.61 61.30 60.72 60.40 59.73 61.16 61.25 61.63 60.82 60.84 60.06 57.25
49.84 49.64 55.73 60.60 61.64 61.39 58.35 58.14 60.73 61.59 61.32 61.73 60.46 60.50 60.22 60.87 61.34 61.24 59.27 57.43 57.02 56.88 56.81 57.11 57.14 57.20 57.54 58.37 58.59 59.12 58.59 58.52 58.12 57.40 57.38 57.82 58.81 59.86 61.01 60.31 58.71 59.76 58.68
47.47 47.03 48.45 55.85 58.36 58.04 58.11 57.42 60.17 60.39 60.09 60.34 59.76 59.74 60.24 60.09 60.08 59.71 59.02 58.12 56.81 56.68 56.51 56.10 55.74 55.08 54.91 55.20 54.94 54.53 55.09 54.61 54.61 55.91 56.84 57.12 58.05 58.56 58.64 60.38 58.95 58.98 58.66
45.79 43.59 44.65 46.21 54.19 55.87 56.28 56.87 57.89 58.12 59.05 58.75 58.87 59.65 59.62 59.25 58.75 58.92 59.67 58.85 57.94 57.03 56.47 56.00 55.56 54.45 54.06 53.89 54.22 53.63 53.60 53.97 54.12 55.34 57.33 57.03 58.17 58.31 58.48 58.45 56.71 56.69 56.04
41.73 40.44 41.17 42.76 45.09 51.57 55.70 56.23 56.91 58.37 58.62 58.29 57.81 58.64 60.15 60.06 59.86 60.47 60.69 59.20 59.76 58.39 58.28 58.07 57.51 56.90 55.96 55.16 54.53 53.98 53.73 53.79 54.31 56.00 57.42 58.02 58.13 57.93 58.32 57.06 56.50 55.55 54.73
39.24 37.48 38.27 39.40 40.91 42.62 46.16 55.95 56.65 57.37 58.12 57.62 57.62 58.24 59.94 60.10 60.60 60.21 60.11 60.56 60.78 60.05 59.63 59.59 59.09 58.66 57.89 56.64 55.64 55.22 54.79 54.32 53.87 55.56 57.58 58.19 56.92 51.23 54.51 57.16 57.38 57.03 55.85
37.43 35.65 36.11 36.49 37.75 38.92 41.00 44.85 50.52 55.72 59.81 57.75 56.95 58.29 59.65 58.74 59.03 59.56 59.34 58.98 59.21 59.49 59.92 59.62 59.84 59.23 45.25 37.51 38.88 50.60 56.53 56.03 57.18 55.70 56.87 58.81 50.48 50.13 45.71 45.90 45.48 48.55 54.89
35.50 33.77 33.59 34.94 35.52 36.32 38.00 38.88 43.49 47.06 47.06 46.52 47.28 49.27 51.45 51.45 51.96 55.43 54.94 54.59 56.58 57.17 53.36 51.94 46.23 42.04 39.86 36.46 37.84 37.98 54.12 56.02 52.11 50.16 49.42 54.51 46.70 43.13 48.49 45.49 38.48 36.08 35.78
31.93 31.94 32.06 33.57 34.47 35.19 35.51 37.34 38.33 40.14 40.60 40.58 41.26 43.31 44.82 44.73 45.05 45.57 44.18 42.43 41.67 41.93 41.99 40.83 40.42 39.09 36.65 35.87 37.05 37.49 49.33 40.89 38.17 37.46 38.93 39.75 38.99 36.48 39.02 43.96 36.47 33.25 32.77
30.75 31.88 32.77 32.18 32.30 33.94 33.93 34.81 34.50 35.47 35.82 36.08 37.06 37.78 39.32 39.06 39.00 37.65 37.37 37.33 36.38 35.17 34.46 34.84 34.97 35.06 34.61 35.77 37.53 42.50 40.50 35.92 33.67 33.47 33.97 33.76 33.42 34.12 36.57 39.63 33.34 31.71 30.60
29.97 29.83 31.32 31.31 31.64 31.93 33.18 32.24 32.11 32.88 32.84 33.97 34.86 35.78 35.85 35.34 34.59 34.65 33.97 33.88 33.51 32.43 32.18 31.22 32.01 32.53 32.54 34.54 35.94 36.32 34.40 31.28 30.37 31.00 31.19 32.10 32.43 33.34 36.21 35.35 32.59 29.04 29.03
29.55 29.62 28.96 28.65 29.82 31.95 32.04 30.24 30.45 30.11 32.05 33.91 34.36 34.85 35.10 34.38 34.14 33.80 33.40 32.84 32.06 31.54 30.70 30.11 30.06 30.02 31.30 32.73 34.03 33.73 32.13 31.12 29.75 29.24 29.05 30.76 31.42 32.08 32.41 31.99 30.25 29.00 30.14
29.25 29.26 27.84 27.90 28.99 31.22 31.03 30.07 29.25 31.44 32.03 32.42 32.75 32.81 33.61 34.69 34.89 35.08 33.13 33.09 33.00 31.83 31.37 30.80 30.41 30.11 29.55 30.78 31.74 32.77 32.71 32.41 30.16 29.01 29.71 30.60 30.71 30.99 31.41 31.69 31.05 31.19 32.26
29.77 29.69 28.40 27.34 27.82 29.40 31.29 29.41 30.36 31.49 31.79 30.23 30.20 30.69 31.86 31.41 31.01 31.73 32.87 32.70 33.82 32.49 31.69 31.12 30.65 30.79 32.51 31.20 29.69 29.68 30.11 30.23 30.05 30.63 30.16 30.22 30.19 30.44 29.96 29.97 30.41 31.37 32.70
26.65 28.03 27.32 26.37 26.56 28.21 28.64 30.84 32.06 32.45 30.94 30.50 29.19 28.49 27.66 27.84 29.32 29.28 28.85 28.09 30.42 30.27 30.47 30.88 30.54 29.99 29.21 30.40 32.00 32.33 32.09 30.33 31.01 30.80 31.74 30.37 29.68 29.64 29.96 30.87 31.00 31.03 30.68
26.58 27.28 26.30 25.78 25.72 27.39 27.80 29.08 31.32 32.66 30.58 29.76 30.12 29.77 28.18 25.91 24.76 25.27 26.40 26.88 27.14 28.42 28.33 27.22 27.92 27.84 26.20 26.94 28.34 30.41 30.77 31.48 31.42 32.24 31.99 30.98 30.38 29.34 29.41 28.70 28.48 28.38 28.75
25.90 25.34 25.44 25.05 25.49 25.94 26.45 27.73 28.79 30.15 29.16 27.91 28.65 29.22 29.22 28.43 26.23 23.41 22.16 25.58 26.02 26.33 26.51 27.16 27.43 26.79 26.68 26.86 27.52 27.93 28.82 29.81 30.35 29.71 27.83 27.33 27.94 26.99 26.56 26.28 25.52 25.27 24.51

GFSMW_sfc_wetblb_096.txt.gz
Wetbulb
52.61 53.83 56.98 59.28 59.00 59.62 60.14 62.86 67.18 69.22 68.20 67.12 65.85 65.41 64.72 65.40 65.76 66.85 66.61 66.40 65.68 65.16 65.08 64.19 63.58 63.48 62.53 62.23 62.15 61.20 60.34 60.12 61.01 59.41 57.94 58.19 57.66 57.17 57.21 59.94 59.25 59.22 59.49
51.15 52.58 53.89 57.14 58.84 58.66 59.94 61.98 65.86 68.86 67.60 66.94 66.47 65.62 64.68 64.97 64.99 64.74 64.90 65.08 64.81 64.48 64.31 64.06 63.12 62.69 62.07 61.65 61.60 60.87 59.57 59.98 60.65 57.41 56.17 53.31 55.18 57.54 58.29 59.13 59.33 59.15 59.83
51.41 53.52 55.11 55.93 57.34 58.87 60.55 61.59 64.06 68.78 68.19 67.17 65.91 65.58 65.46 65.40 64.39 63.72 63.02 63.65 64.30 63.92 63.53 63.46 62.96 62.42 62.06 61.05 61.15 60.56 59.25 58.30 59.44 59.29 55.98 52.10 50.53 53.54 55.95 57.35 56.59 58.60 59.24
56.34 56.73 56.66 56.97 57.05 58.91 61.06 61.10 62.94 64.78 68.17 66.66 65.29 64.92 64.01 62.09 62.44 62.59 62.81 63.05 63.56 63.42 63.43 62.92 62.73 62.17 61.64 61.03 60.79 61.14 60.05 59.20 57.24 58.80 58.71 56.73 56.03 51.96 50.65 55.34 56.89 57.96 57.44
57.08 57.08 57.55 57.74 57.64 57.92 60.97 61.89 62.66 63.82 67.06 66.03 65.85 65.30 64.07 63.05 62.58 62.59 62.30 62.41 62.53 62.78 62.65 62.74 62.38 61.47 61.31 61.01 60.80 60.56 59.93 59.77 58.44 57.90 57.27 56.00 56.91 55.97 52.85 50.45 52.64 55.89 56.88
56.85 57.99 58.78 58.57 57.41 58.11 60.71 62.40 62.81 64.35 66.31 66.00 65.87 65.78 63.30 63.00 62.13 61.50 61.76 61.38 61.44 61.51 61.83 62.06 61.80 61.00 60.81 60.59 60.53 60.67 60.28 59.69 59.23 58.82 58.17 56.46 55.46 54.67 54.56 52.40 52.82 53.46 55.34
56.00 57.39 57.27 58.12 57.60 57.42 60.55 62.70 62.76 63.23 65.39 64.93 65.42 65.95 64.42 63.99 63.07 61.72 61.51 61.47 60.39 60.25 60.77 61.26 60.90 60.35 60.38 60.46 60.93 60.46 60.19 59.68 59.18 58.95 58.47 58.88 56.99 57.96 57.55 55.94 54.50 54.09 54.90
54.51 54.86 55.43 59.19 59.35 59.48 62.49 62.60 62.92 63.04 65.06 64.56 65.15 64.75 63.33 63.35 62.39 61.33 61.97 60.80 59.64 59.79 60.91 60.52 60.60 60.53 60.29 60.39 60.58 60.22 59.92 59.68 59.40 59.13 59.24 58.81 58.58 58.57 58.16 56.20 54.45 51.77 53.13
51.98 52.37 53.93 56.92 60.35 61.95 62.04 62.09 62.18 62.84 64.55 63.77 62.95 62.73 63.11 62.07 61.27 61.50 61.08 59.95 58.83 58.73 59.35 59.93 59.93 60.12 59.97 60.05 60.25 59.87 59.06 59.02 59.68 59.27 59.37 58.45 58.71 58.99 58.64 58.06 56.95 54.25 50.55
50.06 49.37 51.54 52.38 58.34 60.20 59.97 60.63 62.12 62.22 62.78 62.16 62.01 61.55 61.12 61.47 61.48 60.91 59.35 58.08 57.96 57.62 57.61 58.01 59.61 59.54 59.62 59.79 59.93 59.47 59.56 59.26 59.39 59.62 58.80 57.95 57.92 57.97 58.22 58.00 58.16 56.83 53.71
47.28 46.07 46.75 49.14 51.54 59.46 58.56 59.01 60.29 60.53 60.35 60.66 60.75 59.99 60.16 60.49 60.70 60.19 58.79 57.87 57.09 56.97 56.79 56.85 57.17 58.81 59.03 59.34 59.20 59.14 59.05 58.65 58.70 58.37 57.68 57.36 57.52 57.32 57.32 57.37 57.66 56.55 54.56
45.36 43.71 43.17 44.08 45.06 49.52 57.77 57.74 58.92 58.68 59.54 59.88 59.47 59.49 59.57 60.10 60.40 59.16 58.50 57.51 56.71 56.96 56.81 57.01 56.59 56.23 57.25 59.00 58.44 57.84 57.95 58.04 57.32 56.56 56.21 56.15 57.39 56.20 56.04 56.95 56.47 55.57 56.05
42.82 41.28 40.55 40.76 41.38 43.41 48.28 57.21 57.16 57.87 58.76 58.77 58.79 58.67 58.88 59.06 59.02 59.13 58.39 57.04 56.65 56.51 56.45 56.01 55.07 54.73 54.60 54.40 55.91 55.97 55.25 55.23 55.15 55.61 55.41 55.69 56.02 55.47 55.81 55.79 56.22 55.98 55.79
40.59 38.54 37.98 38.07 39.10 40.34 42.06 45.36 56.46 57.95 58.13 57.93 58.13 58.18 58.11 58.25 58.47 58.97 58.61 57.69 56.82 56.09 55.79 55.89 55.13 54.52 54.01 54.03 53.81 53.45 53.35 53.81 54.02 54.01 54.15 54.33 55.31 54.83 55.60 55.75 55.88 54.72 54.70
37.36 36.33 35.33 36.16 36.98 37.31 38.67 41.22 45.00 56.83 58.11 57.57 57.20 57.71 58.67 58.76 59.26 59.62 58.69 58.88 57.86 56.89 56.63 56.68 55.87 55.04 54.56 54.45 53.78 53.63 53.21 53.07 53.52 54.42 55.10 55.71 53.84 50.43 52.96 56.09 55.35 54.22 54.06
32.91 33.28 33.39 34.24 34.49 35.14 36.25 38.41 40.11 45.25 57.24 54.79 55.78 57.62 58.50 59.09 58.96 58.83 59.20 59.00 58.67 58.35 58.00 57.26 57.15 54.73 42.68 37.84 40.81 50.89 54.12 54.06 53.94 52.74 53.47 54.33 48.89 48.98 45.81 43.71 37.71 42.45 52.22
30.74 30.85 31.31 32.11 32.96 33.89 34.32 35.63 37.39 41.12 45.08 46.60 47.55 49.52 50.88 50.48 49.51 49.86 49.12 47.92 49.55 47.63 45.44 43.92 42.18 39.29 38.79 36.85 38.80 43.23 54.05 53.76 51.10 50.00 50.77 49.44 43.86 43.86 46.38 36.57 35.54 34.77 34.97
28.94 29.23 30.31 31.39 32.07 33.06 33.47 34.54 35.35 36.43 37.98 38.98 40.86 43.22 43.71 42.90 42.54 41.93 41.00 40.00 40.01 39.87 39.28 38.45 38.44 37.37 36.89 36.83 38.14 40.76 42.43 38.93 36.93 37.22 38.34 39.30 38.44 36.33 42.93 36.92 33.58 32.39 32.62
29.04 29.01 30.22 31.22 32.10 31.95 32.81 32.83 32.42 33.39 34.20 34.75 35.56 37.13 38.95 38.04 37.00 35.72 35.90 36.05 34.63 33.83 33.28 33.58 33.71 34.26 34.37 35.80 37.17 39.50 36.60 33.61 32.44 33.09 33.99 34.13 34.52 35.44 39.92 35.16 31.85 30.07 29.96
29.23 28.84 28.97 29.50 30.41 31.29 32.27 31.13 30.64 31.29 31.76 32.95 34.29 34.92 35.09 34.82 34.14 33.89 33.28 33.19 32.50 31.33 30.97 30.34 31.49 32.65 32.74 34.46 35.17 35.04 33.41 31.23 30.83 31.42 31.73 33.08 33.49 35.73 35.40 33.19 31.47 29.08 29.06
29.21 29.40 28.40 27.66 28.29 31.26 31.39 29.93 29.44 28.67 31.41 32.43 32.27 32.33 34.42 34.04 33.84 33.61 33.33 32.69 31.74 30.93 29.72 29.00 29.22 30.07 31.46 32.95 33.65 33.52 31.99 30.64 29.52 29.48 30.17 31.28 32.28 32.61 32.87 32.57 31.26 29.43 30.74
28.27 28.16 27.26 26.79 28.13 29.33 31.05 29.06 28.64 30.14 30.03 29.56 30.10 30.55 30.65 31.07 32.54 33.67 33.52 33.34 32.61 31.67 30.79 30.22 29.26 29.02 29.80 31.45 32.19 32.46 31.86 31.37 29.09 28.17 29.25 30.49 31.59 31.66 32.13 31.68 32.06 32.24 32.24
27.50 28.14 26.44 26.26 27.14 28.24 29.42 28.78 29.78 31.20 29.97 28.00 26.73 26.52 27.93 28.97 29.14 28.00 29.55 31.02 32.24 31.07 29.99 28.84 27.69 27.64 30.64 29.80 30.76 30.75 30.50 30.35 29.20 29.96 30.60 31.06 30.96 30.65 29.52 30.30 30.54 30.67 30.70
26.70 27.38 26.75 25.20 25.46 27.31 27.84 29.14 30.99 31.42 30.83 28.31 27.22 25.59 25.01 24.98 26.47 26.81 26.32 26.21 28.04 26.66 28.06 27.65 25.83 25.85 26.74 29.14 30.60 30.92 30.97 30.48 30.27 29.68 29.54 29.14 28.92 28.92 28.59 28.33 28.99 28.74 28.78
26.98 26.92 26.20 25.95 25.00 26.80 27.84 28.60 30.18 30.74 29.10 29.35 28.92 26.73 25.66 24.06 23.77 24.62 25.07 24.89 26.19 27.40 25.14 24.78 25.44 24.33 24.53 27.19 29.95 30.00 29.80 30.02 29.83 29.79 29.45 28.33 27.69 27.06 26.13 24.06 23.62 23.43 23.71
25.16 24.71 24.46 23.94 24.37 25.37 25.62 27.25 29.36 29.07 29.38 28.13 27.65 27.71 28.67 25.66 23.88 22.51 21.78 26.23 26.56 27.10 27.08 27.14 25.90 25.97 27.61 28.81 29.63 30.00 30.39 30.51 29.72 27.24 25.70 25.05 24.88 23.53 22.73 21.74 20.33 20.18 19.92

GFSMW_sfc_wetblb_099.txt.gz
Wetbulb
48.82 49.80 50.48 52.11 52.60 53.83 54.74 60.86 67.73 67.47 67.76 66.51 65.37 64.74 64.35 65.67 65.87 66.07 64.58 66.10 66.39 65.36 64.56 64.02 63.64 63.42 62.60 61.76 62.06 61.57 60.98 59.98 61.29 59.02 58.34 58.43 57.92 57.82 59.06 58.89 58.51 58.04 58.04
45.80 47.82 49.62 48.28 52.06 52.02 53.25 60.73 67.72 67.39 67.30 66.74 66.13 65.27 65.14 65.13 65.23 65.49 65.40 65.52 65.32 65.18 64.57 63.86 63.31 63.22 62.43 61.95 61.53 60.88 59.98 60.03 60.73 57.18 56.84 53.63 55.12 55.55 57.94 58.06 58.06 57.21 58.19
44.80 46.71 48.62 48.71 48.94 52.53 53.07 63.25 67.47 67.14 66.73 66.22 65.27 63.89 63.36 64.34 63.74 63.91 64.16 64.33 64.78 64.43 63.96 63.61 63.14 63.03 62.71 61.66 61.59 60.84 60.03 58.37 59.54 59.40 55.98 51.97 50.62 53.42 55.39 56.45 57.01 56.72 57.06
46.32 50.45 52.82 52.59 51.63 52.06 53.24 63.00 67.31 66.53 65.80 65.40 64.65 63.04 62.46 61.64 63.10 63.46 63.58 63.60 64.09 63.69 63.40 63.48 62.88 62.68 62.41 61.48 61.41 61.21 60.23 59.48 57.64 59.31 59.40 56.12 55.64 51.62 51.09 55.53 56.65 57.19 57.23
51.40 53.32 53.93 54.06 54.20 52.85 53.50 60.20 66.73 66.16 65.48 64.94 64.12 63.31 62.15 62.10 62.96 62.87 62.12 62.59 62.70 63.30 62.63 62.58 62.63 62.12 61.83 61.38 61.10 60.80 60.14 59.96 58.84 58.42 57.53 55.08 55.05 53.93 52.78 50.25 52.59 55.12 57.45
52.46 53.66 54.58 55.04 55.86 56.34 52.83 55.24 63.91 65.97 64.98 64.04 63.35 62.85 62.32 61.58 60.94 60.68 60.74 61.43 61.50 61.87 62.11 62.41 62.30 62.31 62.00 61.26 61.11 61.06 59.98 59.88 59.38 59.42 58.18 55.78 54.31 53.19 53.04 51.48 51.90 52.62 54.07
50.53 50.93 51.63 52.08 53.50 54.13 53.47 55.98 59.08 64.47 64.10 63.20 63.11 62.91 62.56 61.77 60.09 59.64 60.00 59.25 59.97 60.33 60.76 61.68 61.39 61.63 61.66 61.21 61.03 60.76 60.46 59.91 59.03 58.84 58.04 57.41 56.75 56.70 54.58 53.04 52.85 51.86 52.18
48.77 48.01 49.01 50.53 51.27 55.98 55.55 57.07 60.96 63.20 63.31 63.07 62.45 62.57 63.03 62.95 62.25 60.36 60.37 59.84 60.01 59.96 60.17 60.75 61.32 61.42 61.32 61.08 61.07 60.74 60.63 60.02 59.39 58.86 58.74 58.05 57.19 57.39 57.04 55.03 53.31 51.40 52.47
45.72 45.23 46.25 47.74 48.10 55.71 56.98 56.77 57.99 60.13 61.88 61.46 61.70 62.14 62.98 62.24 60.80 60.84 60.52 59.03 57.79 59.05 60.21 60.92 60.62 60.69 60.58 60.51 60.53 60.28 59.84 59.77 59.54 59.01 58.96 58.58 58.62 57.89 58.12 56.65 56.30 54.00 50.58
42.54 42.72 43.50 45.37 46.06 48.23 55.08 56.70 58.00 58.24 60.24 60.89 61.61 61.46 60.65 60.86 60.52 59.81 58.04 56.61 56.59 57.84 57.89 59.35 59.93 60.11 60.16 59.96 60.03 59.67 60.06 59.56 59.20 59.07 58.76 58.71 58.61 57.78 57.99 57.27 56.57 55.77 52.54
39.70 40.19 40.93 43.06 43.85 45.32 46.67 51.29 56.91 57.33 58.02 60.74 60.11 59.68 59.57 60.19 59.76 58.67 57.30 56.98 57.07 56.79 56.75 57.11 57.93 59.01 59.41 59.59 59.35 59.39 59.34 58.65 58.59 58.88 58.44 58.17 57.57 56.66 55.90 56.14 56.34 54.78 53.59
38.10 38.14 38.36 39.22 40.35 40.82 42.06 44.26 49.06 57.62 58.42 59.04 59.42 58.82 59.46 59.62 59.28 58.26 56.59 57.35 56.61 56.83 56.65 56.81 57.13 57.45 58.57 59.05 58.97 58.39 58.54 58.08 57.91 58.14 58.02 57.67 57.21 56.07 56.02 55.54 55.09 55.02 54.76
36.29 35.70 35.87 36.44 36.96 38.37 39.62 40.89 43.35 46.94 58.15 58.54 58.45 58.39 58.62 59.15 58.37 58.08 57.27 57.03 56.73 56.59 56.77 56.37 55.70 55.20 56.63 58.49 58.60 58.73 58.26 58.05 57.89 57.98 57.64 57.39 56.86 55.45 55.12 54.96 55.29 55.59 55.15
33.87 33.40 33.04 34.01 34.86 36.49 37.59 38.93 40.49 43.22 49.07 57.98 57.84 57.75 57.85 58.19 58.46 57.95 57.04 56.88 56.74 56.23 56.11 55.87 55.37 55.21 54.50 55.70 57.25 57.07 57.29 57.01 56.91 56.69 56.87 56.60 56.03 55.21 55.49 55.08 54.82 55.11 54.80
31.12 31.48 31.23 31.89 32.92 33.93 35.28 37.57 38.63 40.75 44.22 56.52 57.46 57.55 57.76 58.07 57.90 57.92 57.20 57.06 56.43 56.11 56.30 55.69 55.07 54.70 54.41 52.30 54.52 55.03 55.51 54.99 54.24 54.86 55.15 55.17 53.17 49.57 51.73 55.55 55.11 54.76 54.30
29.15 29.56 30.16 31.20 31.31 32.30 33.72 35.63 36.45 38.08 40.91 45.26 51.99 56.03 56.95 58.17 57.84 58.08 57.66 57.49 56.55 56.17 55.95 55.71 55.17 47.08 43.02 38.09 41.42 50.50 53.55 53.78 53.42 53.09 54.06 55.13 49.60 48.67 42.14 39.71 38.48 45.67 53.44
27.67 27.83 28.67 29.97 31.01 31.76 33.01 33.44 34.83 36.22 36.89 37.56 40.91 45.75 47.54 47.49 47.95 47.91 46.42 46.24 44.71 43.39 42.57 41.63 41.47 39.52 39.18 37.40 39.38 42.18 53.56 53.04 52.40 51.92 52.80 52.59 44.38 45.60 40.97 36.29 35.77 34.69 34.93
26.97 27.11 27.72 28.98 30.61 31.78 32.23 33.61 34.12 33.87 33.70 34.59 35.49 38.14 40.34 40.03 40.42 40.15 39.08 38.13 37.66 37.10 36.87 36.74 37.15 37.10 36.94 38.05 38.79 38.71 39.86 36.92 36.09 36.69 38.32 40.43 39.25 39.43 39.81 36.23 33.51 32.65 32.82
27.66 27.70 28.50 28.68 29.87 30.54 31.78 31.47 31.74 32.41 31.92 31.28 33.18 34.42 35.63 35.13 34.86 34.05 34.23 34.63 33.85 33.06 32.79 33.53 33.91 33.97 34.65 36.29 36.55 36.49 35.00 33.36 32.65 33.44 34.82 35.41 36.55 37.12 37.40 34.12 31.45 30.44 30.71
27.35 26.76 27.36 27.77 28.36 30.64 30.95 28.91 28.37 28.47 29.30 31.00 31.01 32.74 34.16 33.65 32.87 32.59 32.03 32.20 31.78 30.99 31.06 30.67 31.87 33.18 33.04 35.01 35.41 34.79 33.32 31.21 30.95 31.64 32.28 33.87 34.73 34.74 34.15 32.59 31.41 29.10 29.14
26.32 27.12 26.22 25.57 27.09 29.65 30.34 28.46 27.64 26.28 27.86 28.80 30.69 30.72 31.32 32.69 33.60 33.32 33.05 32.22 31.26 30.58 29.75 29.23 29.99 30.92 32.09 33.02 33.69 33.24 31.50 30.42 29.86 30.12 30.59 31.90 33.24 33.73 33.51 32.74 31.04 29.98 31.67
26.02 26.08 24.80 25.20 26.51 28.36 29.73 27.96 27.86 28.64 27.58 26.98 26.59 26.90 28.29 29.52 31.00 31.00 31.49 32.17 31.13 29.53 28.97 29.13 28.57 29.43 30.67 32.01 32.59 32.31 31.67 31.38 29.47 29.02 30.05 31.36 32.52 32.72 32.59 31.92 32.03 31.78 31.07
25.58 26.58 24.75 24.11 26.26 27.48 28.24 27.24 28.88 29.07 27.39 25.76 24.75 25.16 25.69 26.46 26.88 27.28 28.77 28.31 29.09 27.92 26.67 26.55 26.79 27.78 29.92 30.14 31.36 31.19 31.11 30.96 29.53 30.09 30.64 30.85 30.73 30.56 29.79 30.56 30.65 30.24 29.79
24.10 24.97 24.45 22.96 23.24 24.83 26.94 27.76 29.30 29.79 29.55 26.46 25.09 24.37 24.34 24.18 24.96 25.44 26.03 26.14 25.68 25.47 25.88 25.43 25.11 26.71 28.32 29.14 30.52 31.12 30.80 30.11 29.76 29.23 28.65 27.48 26.40 25.22 24.61 24.27 25.33 25.87 25.79
23.76 23.63 22.73 22.36 22.39 25.11 25.25 26.99 27.96 29.31 28.21 27.81 27.82 25.31 24.24 22.92 22.88 24.46 24.88 25.20 26.44 26.16 24.70 25.22 25.91 25.78 26.60 29.27 31.30 30.40 29.05 28.94 28.81 28.51 27.48 26.17 24.87 22.13 21.39 21.11 21.71 22.18 22.32
22.24 21.33 21.38 21.65 21.38 22.49 23.65 25.49 27.58 27.17 26.49 26.12 26.63 26.98 26.49 24.19 22.78 21.75 22.31 26.98 27.42 28.21 28.54 28.69 27.05 27.79 29.83 30.77 30.60 30.08 29.81 29.20 27.89 25.14 22.39 20.78 20.65 20.39 20.15 19.20 19.27 20.09 20.10

GFSMW_sfc_wetblb_102.txt.gz
Wetbulb
46.27 47.47 48.35 49.48 50.29 51.16 52.02 58.90 65.31 66.80 67.71 66.89 66.04 64.86 64.84 65.44 64.78 65.19 65.58 65.54 64.62 64.24 63.74 63.21 63.24 63.88 63.13 62.53 62.51 61.83 60.97 60.63 61.21 60.05 58.98 59.60 59.10 59.95 60.00 60.58 59.66 59.05 58.61
42.66 44.48 45.42 46.21 47.92 50.38 51.38 55.91 64.56 66.41 67.46 67.08 66.67 65.80 66.01 64.75 65.07 65.09 65.44 66.62 65.79 65.01 64.30 63.53 63.41 63.52 62.76 62.30 61.81 61.00 60.49 60.57 61.31 58.35 57.16 54.47 55.39 56.44 58.91 58.81 58.52 58.05 58.11
42.65 44.07 45.06 44.75 44.49 46.81 49.32 55.31 63.09 66.21 67.20 67.28 66.61 63.88 64.10 62.85 62.26 64.17 64.83 65.08 65.50 65.12 64.52 64.04 63.77 63.41 63.07 61.67 61.46 60.87 60.46 58.87 60.18 59.36 56.74 52.78 51.54 54.13 56.74 57.16 57.41 57.24 56.98
45.32 47.17 51.17 51.49 51.62 49.91 48.14 54.74 62.09 66.04 66.76 66.90 65.44 64.14 63.73 62.74 63.82 63.90 64.56 64.53 64.50 64.70 64.17 63.70 63.25 63.05 62.96 62.03 61.73 61.84 60.82 60.00 58.11 58.67 59.18 57.57 55.41 52.91 51.51 55.72 56.46 56.65 56.52
50.40 50.71 50.77 51.94 53.03 53.58 53.55 61.02 63.97 65.88 66.64 66.01 65.36 64.15 63.19 63.38 61.91 62.52 63.31 63.34 63.75 63.77 63.24 63.53 62.87 62.77 62.91 62.30 61.92 61.42 60.58 60.25 59.00 58.34 57.50 57.06 54.82 55.55 53.88 51.76 53.26 55.12 56.67
47.87 48.65 50.30 50.85 51.23 54.36 56.56 57.67 65.46 65.75 65.79 65.46 64.80 63.78 62.53 61.52 61.41 62.16 62.03 62.24 62.80 63.11 62.97 62.80 62.73 62.63 62.52 61.93 61.82 61.43 60.70 60.24 59.12 59.38 58.37 56.52 53.97 53.54 53.51 51.71 53.37 53.37 54.83
45.23 45.01 45.90 47.07 48.10 49.27 55.05 53.34 64.94 64.97 65.17 64.49 63.89 62.98 62.16 61.37 61.34 61.17 61.08 61.41 61.33 61.48 61.98 62.06 61.85 61.97 61.99 61.72 61.60 61.21 60.63 60.28 59.28 58.97 58.73 58.00 56.25 56.25 55.14 53.62 52.94 52.28 51.90
42.47 42.47 44.39 45.27 45.86 46.94 48.58 55.73 60.36 64.15 63.81 62.87 62.55 62.57 62.25 61.64 61.36 60.91 60.08 60.53 60.58 60.11 61.22 61.71 61.85 61.75 61.85 61.76 61.46 60.95 60.69 60.44 60.03 59.07 59.18 58.49 56.86 56.70 56.19 54.69 53.10 49.98 50.94
39.29 39.54 41.51 42.44 43.33 44.03 45.46 48.09 56.69 59.01 62.02 61.56 61.82 60.98 61.15 61.15 60.97 60.03 60.64 60.63 60.15 59.75 60.47 60.62 60.35 61.23 61.45 61.35 60.97 60.51 60.24 60.04 59.90 59.34 59.26 58.72 57.42 56.90 56.55 56.29 55.49 52.96 49.55
36.40 37.48 39.37 39.40 41.13 42.12 43.57 46.00 48.26 52.78 58.41 60.12 61.20 61.63 61.16 60.17 59.79 60.03 60.12 59.47 58.71 59.03 58.92 59.45 60.15 60.49 60.45 60.76 60.63 60.13 60.37 59.91 59.61 59.54 58.74 58.57 58.12 57.54 57.16 56.59 55.73 54.63 52.77
33.96 34.52 35.98 37.53 38.67 40.17 40.65 42.62 44.92 47.29 51.45 57.97 58.40 59.30 58.98 59.37 58.94 59.25 58.44 57.64 56.82 56.30 57.35 58.49 58.77 59.41 59.69 59.88 59.73 59.77 59.88 59.34 59.15 59.18 58.74 58.17 58.49 57.41 56.90 57.21 56.08 55.38 53.62
32.35 32.29 33.93 35.16 35.67 36.77 38.21 40.75 42.88 42.80 46.30 54.79 57.28 58.54 59.61 59.45 58.53 57.96 57.64 57.06 55.38 55.90 56.76 55.42 56.72 57.10 57.81 59.35 58.99 58.79 59.07 59.02 58.52 58.36 58.36 57.99 58.35 57.11 56.08 56.06 55.63 54.78 54.15
30.97 30.72 31.43 32.58 33.58 34.87 35.98 37.48 40.08 41.02 43.90 47.68 57.28 58.40 58.68 58.55 58.10 57.64 57.20 56.26 56.48 56.38 56.16 56.40 56.30 56.26 56.36 57.66 58.62 58.84 58.41 58.58 58.56 58.41 58.14 57.96 57.77 56.82 56.18 55.27 55.09 55.37 54.42
29.33 29.54 30.06 31.01 32.26 33.52 34.48 35.76 37.66 39.81 42.18 46.58 57.66 57.56 57.92 58.18 58.14 57.80 56.72 56.04 55.98 56.28 56.24 56.26 55.80 55.14 54.78 55.78 58.01 58.11 58.08 58.32 58.16 58.20 58.54 58.27 57.83 57.11 56.22 55.11 55.33 54.99 54.23
27.83 28.36 28.76 29.74 30.71 31.96 33.06 34.73 36.04 38.04 40.57 41.75 44.75 51.11 57.88 58.31 58.02 57.04 56.70 56.60 56.68 56.30 56.12 55.63 55.16 54.66 51.37 47.12 49.59 57.85 57.75 57.49 57.39 57.72 57.76 58.10 55.65 50.39 53.10 56.02 54.98 54.92 54.14
26.68 27.29 27.81 28.93 29.84 30.79 31.47 33.52 34.41 35.71 37.49 38.04 38.53 41.61 47.35 56.72 56.68 57.06 56.98 55.44 52.31 53.61 53.26 53.25 51.76 46.96 44.37 37.52 39.42 49.85 55.50 56.12 55.82 55.66 56.18 54.24 49.18 47.75 45.14 42.75 39.87 47.84 54.15
25.37 25.53 26.85 27.90 29.59 30.15 30.53 30.90 32.90 34.86 34.86 34.77 35.61 36.82 39.33 42.73 44.23 45.27 43.81 42.93 42.21 41.54 40.52 40.66 41.05 39.91 39.34 37.53 39.95 42.24 50.73 46.74 48.53 51.33 53.07 49.30 46.47 45.18 40.60 36.42 36.19 34.88 35.19
24.51 24.92 25.98 27.18 29.72 30.23 29.86 30.24 30.26 31.52 32.45 32.84 33.00 34.46 35.54 36.10 37.21 37.62 36.68 36.17 36.12 35.62 35.62 35.59 36.18 36.66 36.91 36.49 37.78 37.66 39.57 37.59 37.01 38.16 41.17 44.22 42.65 41.73 40.70 36.54 33.69 32.83 32.62
25.34 25.90 26.66 27.26 28.68 29.73 29.93 28.94 27.97 28.25 28.19 30.09 31.25 32.06 34.31 33.26 33.29 32.76 32.92 33.15 32.60 32.37 32.04 33.04 33.37 33.88 34.36 35.34 35.81 36.79 35.45 33.91 33.22 34.62 36.40 38.04 37.68 37.38 38.07 34.63 31.57 30.54 30.77
25.59 25.00 26.21 26.63 26.61 28.97 29.96 27.41 26.19 25.73 25.61 26.83 28.59 30.81 31.77 32.19 32.22 32.00 31.40 31.47 31.28 30.48 30.91 30.69 31.68 33.01 32.58 34.50 34.54 34.53 33.42 31.69 31.72 32.18 33.30 34.40 34.52 34.86 35.01 33.75 32.49 29.92 29.68
24.54 25.05 24.35 24.68 25.90 27.98 28.89 25.88 25.38 24.03 25.85 26.88 27.28 27.46 28.40 30.24 31.14 31.70 31.85 31.32 30.67 29.98 29.37 29.16 30.16 30.79 31.95 32.58 33.58 33.30 31.79 30.99 30.61 30.80 31.21 32.27 33.66 33.75 33.49 32.99 31.77 30.29 30.83
23.95 23.62 22.68 23.18 24.31 26.73 26.97 26.45 26.19 26.95 26.45 25.64 25.31 25.55 26.33 27.03 28.21 28.93 29.59 29.88 29.37 28.61 28.62 28.73 28.51 29.70 30.84 31.96 32.42 32.38 31.65 31.55 29.59 29.22 30.46 31.67 32.91 32.71 32.20 31.43 31.51 31.15 30.28
22.43 23.16 21.60 21.83 23.66 24.55 25.93 24.50 27.74 28.64 26.88 25.25 23.81 24.27 24.96 25.77 26.35 26.12 25.87 26.01 27.42 27.39 27.60 27.78 27.55 28.28 29.91 30.16 31.23 30.83 30.35 29.80 27.67 27.74 28.08 28.35 28.25 28.05 27.51 28.69 29.02 29.45 28.79
21.46 22.27 21.78 20.46 20.66 23.29 24.79 26.13 26.12 28.59 28.31 25.72 24.58 23.72 23.15 23.49 25.14 25.78 26.18 25.52 24.84 25.04 25.58 26.33 26.89 27.93 28.65 29.14 30.00 30.08 29.90 29.00 28.02 26.80 25.42 25.21 25.00 24.23 24.10 24.41 24.94 24.44 24.24
19.57 19.84 19.57 19.75 19.66 21.36 22.15 24.50 25.55 25.96 25.96 26.23 26.55 24.44 23.54 22.76 22.90 24.56 25.49 25.41 27.13 27.63 25.40 25.84 27.53 26.91 27.00 29.17 30.70 29.53 28.13 27.89 27.20 26.12 25.04 23.00 22.08 21.24 21.38 21.54 21.95 22.59 22.38
18.63 17.84 18.42 18.71 19.21 20.00 20.54 21.97 24.98 26.06 24.67 24.59 25.02 25.29 25.57 24.11 22.98 21.67 21.94 26.93 27.77 27.98 28.83 29.49 28.95 28.43 29.82 30.03 29.98 29.44 28.79 27.45 25.69 22.58 20.44 19.67 19.60 18.79 18.66 18.48 18.69 19.45 19.22

GFSMW_sfc_wetblb_105.txt.gz
Wetbulb
44.57 45.35 46.05 45.83 45.76 47.05 48.22 52.04 61.06 66.63 67.16 66.79 65.88 65.30 64.96 65.46 65.31 65.80 66.07 65.32 65.71 64.70 64.20 63.73 63.45 63.34 62.19 62.31 62.53 61.70 60.56 59.96 60.46 59.56 59.39 60.21 60.99 61.19 61.72 61.93 61.05 60.36 59.33
41.10 43.46 44.06 43.66 43.75 44.84 47.11 50.22 59.64 65.05 66.67 67.00 66.81 66.22 65.70 65.44 65.47 65.64 65.57 65.69 64.99 64.56 64.55 63.96 63.22 63.34 62.53 61.96 62.18 61.51 60.59 60.46 60.62 58.30 57.04 54.48 55.53 58.56 60.42 60.94 60.57 59.90 59.07
43.17 42.21 42.93 42.11 43.85 43.80 43.32 48.55 57.47 63.00 66.17 67.04 66.63 63.28 62.81 63.29 63.73 64.11 65.04 65.48 65.08 64.50 64.21 64.12 63.82 63.52 63.39 62.25 62.18 61.69 60.56 59.26 60.59 60.40 57.21 53.39 51.96 54.54 57.66 58.16 59.34 58.87 57.88
47.25 47.64 49.90 50.50 50.39 51.50 52.06 48.38 53.48 62.16 65.28 66.57 65.71 64.02 63.61 62.98 64.04 64.41 64.90 65.62 65.44 64.84 64.62 63.83 63.67 63.55 63.41 62.44 62.10 62.26 61.25 60.27 58.52 60.03 59.95 57.41 55.86 53.25 51.56 56.35 57.14 57.83 57.14
45.88 45.68 47.08 48.72 49.32 51.08 53.66 54.12 50.93 60.26 64.22 66.04 65.72 64.45 63.42 63.64 62.77 63.81 63.58 64.43 64.54 64.32 64.48 63.91 63.53 63.27 63.23 62.52 61.93 61.62 61.05 60.96 59.73 59.06 58.32 57.69 56.68 56.12 53.86 52.02 53.86 55.58 56.54
42.98 44.44 46.08 47.49 47.80 48.40 49.53 54.33 58.62 61.32 64.54 65.74 65.35 64.14 63.41 62.53 62.44 62.92 63.04 63.25 63.34 63.79 63.79 63.69 63.56 63.24 62.99 62.31 62.09 62.02 61.35 60.75 60.38 60.01 59.00 57.86 55.28 54.20 54.26 53.04 53.84 53.91 55.08
39.75 41.43 42.66 43.25 45.02 44.95 46.58 50.15 58.41 63.03 64.50 65.34 65.10 64.59 63.61 62.29 61.98 62.43 62.95 62.56 62.35 62.25 62.75 63.09 62.59 62.48 62.86 62.48 62.21 61.77 61.39 60.75 59.99 59.71 59.03 58.91 57.36 57.05 56.35 55.13 53.92 53.24 53.04
37.04 38.53 40.43 41.41 41.94 43.00 43.98 46.01 49.09 53.13 65.01 64.98 64.65 64.50 62.62 61.82 61.98 61.92 62.75 61.76 61.75 62.55 62.64 62.62 62.61 62.66 62.32 62.12 62.16 61.79 61.51 61.08 60.47 59.64 59.68 58.77 58.16 56.89 56.34 55.08 54.04 50.48 51.14
34.04 34.48 36.85 39.21 40.26 41.06 41.54 43.74 45.96 48.76 52.21 63.70 63.94 63.28 61.57 60.39 60.69 60.75 60.98 61.34 60.66 59.76 61.02 62.01 61.84 61.64 61.60 61.70 61.40 60.90 60.26 60.62 60.29 59.97 59.49 59.14 58.51 57.18 56.93 56.08 55.76 53.35 49.73
32.28 32.68 34.23 36.10 38.09 39.71 40.90 41.80 44.68 45.64 48.61 56.87 62.38 61.35 60.52 60.47 59.64 59.42 58.64 58.76 58.72 59.40 59.38 59.50 59.95 60.27 60.80 61.01 60.90 60.58 60.17 59.83 59.97 60.02 59.21 59.17 58.63 57.41 56.66 56.21 55.77 54.48 52.56
30.44 31.13 32.45 34.31 35.52 38.07 38.76 40.42 41.81 43.74 45.71 48.71 56.14 59.93 59.41 58.82 59.02 58.86 58.06 58.78 59.02 58.74 58.91 58.95 58.83 59.09 59.80 60.22 60.20 60.28 60.01 59.43 59.39 59.69 59.17 58.60 59.09 57.27 56.40 56.30 55.94 54.89 53.44
29.98 30.67 31.25 32.40 33.87 34.57 36.09 37.89 40.42 42.13 43.88 46.49 50.78 58.58 58.60 58.88 58.56 57.92 58.08 57.78 57.50 57.42 58.02 57.56 57.66 57.82 58.00 59.12 59.26 59.16 59.42 59.05 58.75 59.00 58.63 58.42 58.71 57.16 56.78 56.46 55.57 55.11 54.23
28.91 29.14 29.79 30.40 31.34 32.72 34.33 35.60 37.26 40.39 42.79 45.28 50.38 57.78 58.08 57.70 57.44 57.50 57.20 56.81 56.56 56.12 55.57 56.19 55.89 55.87 56.11 56.01 56.59 57.36 58.52 58.69 58.59 58.81 58.55 58.26 58.22 56.93 56.83 56.51 55.84 55.60 54.51
27.40 27.69 28.03 29.30 30.45 31.57 32.60 33.71 35.40 37.30 39.96 42.01 43.00 46.29 54.25 57.76 57.20 57.36 56.85 56.66 56.61 54.85 55.27 56.07 55.93 55.67 54.91 55.01 55.03 56.13 57.20 57.59 58.52 59.04 58.94 58.91 58.20 57.55 56.89 55.84 55.80 55.34 54.61
25.34 26.15 26.61 28.32 29.37 29.82 30.64 31.59 33.39 35.49 37.60 39.49 38.85 40.70 46.34 56.68 57.56 56.58 56.26 55.97 55.69 56.38 56.26 55.85 55.39 54.35 51.25 45.85 43.25 48.12 56.31 57.58 57.50 57.74 58.28 58.45 56.72 51.98 54.77 56.48 55.66 55.38 54.42
24.36 25.04 26.14 27.31 28.71 29.09 29.16 29.95 30.63 33.02 34.79 35.00 36.04 38.04 39.51 41.47 43.78 51.47 55.09 52.39 49.60 49.11 48.34 47.00 47.79 45.32 44.30 37.22 38.27 42.21 53.04 55.83 57.16 56.58 57.16 58.07 50.66 48.96 45.52 46.42 46.60 52.59 54.34
23.90 24.38 25.34 26.47 28.43 28.95 28.88 27.98 29.02 30.48 31.46 32.21 33.74 35.06 35.81 35.83 36.48 38.41 39.78 40.61 40.91 40.23 39.29 39.53 40.17 38.88 37.27 36.71 38.84 40.42 46.20 45.07 43.14 46.93 53.24 50.97 46.68 43.50 41.09 37.35 36.49 35.24 35.96
23.58 24.21 25.20 26.23 28.17 28.50 28.12 28.22 28.28 28.38 28.70 28.78 30.16 32.78 33.80 33.18 33.47 33.15 33.25 34.23 35.22 35.25 35.24 35.24 35.97 35.93 35.62 35.75 36.99 37.24 39.53 37.67 37.19 37.96 39.94 45.12 44.07 42.56 41.17 37.96 34.89 33.26 33.26
24.37 24.50 25.59 26.22 27.49 28.40 27.76 26.92 25.91 26.36 26.82 26.78 27.31 28.88 31.87 32.13 31.67 31.21 31.24 31.45 32.04 32.08 32.09 32.97 33.17 33.19 33.46 35.14 35.43 36.26 35.65 34.10 33.61 34.40 36.12 37.27 37.68 37.21 39.85 36.60 32.98 31.97 31.39
24.67 23.73 24.44 25.32 25.87 27.41 28.49 25.34 24.08 23.60 23.63 25.62 26.90 27.78 28.77 29.56 30.58 30.45 30.16 30.93 31.22 30.58 31.02 30.71 31.64 32.65 32.39 34.27 34.52 34.41 33.41 31.87 32.42 32.69 32.60 33.84 34.38 34.77 35.14 34.33 33.32 31.30 30.10
22.90 23.00 23.55 23.30 24.18 26.49 27.54 26.14 24.63 23.31 23.97 24.47 25.99 26.52 27.45 27.96 28.15 28.92 29.87 29.85 30.03 30.50 29.78 29.43 30.05 30.77 31.70 32.47 33.53 33.38 31.97 31.18 30.59 30.62 31.01 31.85 33.11 33.82 33.82 33.49 32.14 30.50 30.95
20.87 20.94 20.14 21.13 23.40 25.21 25.02 23.87 24.94 26.44 24.16 22.99 23.18 24.21 26.02 26.73 27.56 27.16 27.57 27.93 28.33 28.48 28.94 28.91 28.79 29.61 30.23 31.35 31.38 31.28 30.69 30.31 28.47 27.90 29.14 30.43 31.59 31.61 31.47 30.81 31.03 30.57 29.44
18.94 20.08 18.68 19.28 21.26 22.74 24.37 22.63 24.07 26.67 24.69 23.01 21.88 22.59 23.80 25.30 26.35 26.24 26.59 26.52 26.98 27.02 27.25 27.86 27.61 28.07 29.35 29.74 30.91 30.24 28.95 28.53 26.81 27.38 27.89 28.29 28.36 28.17 27.40 27.95 27.73 27.32 26.86
16.95 18.35 18.58 17.92 18.24 19.90 21.53 23.22 24.37 24.10 25.05 24.40 23.11 22.49 22.47 22.60 24.96 25.97 25.89 25.98 26.04 26.13 26.17 26.68 26.48 27.28 27.81 28.15 28.50 27.87 27.60 26.96 26.18 25.35 24.82 25.25 25.00 24.03 24.05 24.35 24.58 24.30 24.15
16.13 17.22 17.33 17.78 17.74 19.29 19.61 20.84 23.67 24.30 23.97 24.24 24.45 24.10 23.39 21.93 22.10 22.88 24.37 24.91 26.39 27.65 26.37 26.03 26.49 25.58 25.45 27.46 29.19 27.61 25.44 24.35 24.41 23.62 22.48 21.43 20.94 20.48 20.90 20.89 21.20 21.95 22.12
17.04 16.55 17.23 17.12 17.33 18.25 18.81 20.10 22.84 24.07 23.35 23.16 23.23 22.53 22.47 22.29 21.90 21.23 21.27 25.16 25.92 27.23 28.17 28.43 27.63 26.93 28.47 28.91 28.61 27.75 26.99 26.12 24.91 21.07 19.13 18.15 18.33 17.90 18.24 18.04 17.82 18.47 18.23

GFSMW_sfc_wetblb_108.txt.gz
Wetbulb
43.29 43.06 42.83 42.95 43.32 43.74 45.22 46.76 48.04 57.51 65.74 65.94 65.33 65.18 63.98 64.95 65.02 65.41 65.61 65.94 66.14 65.63 65.31 64.27 63.55 63.09 62.38 62.14 61.78 61.64 60.46 59.70 60.79 59.40 59.20 60.01 61.11 61.47 61.82 62.49 62.25 61.49 61.13
44.31 48.25 47.56 42.23 40.83 42.35 43.16 45.02 46.84 49.46 64.07 64.95 66.05 65.81 65.63 65.65 65.90 65.76 65.60 65.51 65.70 65.39 64.98 64.21 63.41 62.81 62.47 62.36 62.17 61.54 60.30 60.29 60.28 57.57 57.53 54.98 56.61 59.78 61.10 61.76 61.46 61.05 60.64
44.49 45.69 46.92 47.94 49.33 49.15 49.73 48.30 45.84 50.47 61.36 64.76 66.20 65.31 65.29 64.66 64.14 64.23 64.83 65.24 65.38 65.07 64.96 64.62 63.87 63.23 62.79 62.18 62.34 62.04 60.90 59.36 60.00 60.42 56.97 53.67 52.68 54.82 57.86 60.16 61.04 60.67 59.66
44.34 44.39 44.81 45.88 47.14 47.51 48.55 50.26 53.16 49.59 60.95 65.00 65.36 64.43 63.38 62.47 63.58 64.17 64.65 64.98 65.09 65.07 65.16 64.76 64.03 63.40 63.44 62.64 62.30 62.58 61.61 60.31 58.83 59.50 60.05 57.38 56.39 53.58 52.01 56.85 58.28 60.14 58.95
41.74 41.96 43.01 43.76 45.43 46.81 46.02 47.29 49.90 53.22 56.66 64.26 64.88 64.70 63.53 63.39 63.55 64.52 63.99 64.32 64.62 64.97 64.76 64.58 64.27 63.66 63.45 63.14 62.63 62.09 61.69 61.01 60.10 59.38 59.02 58.75 56.45 56.45 54.04 51.85 54.44 56.69 58.31
38.88 39.54 41.02 42.17 42.41 43.75 44.75 45.41 50.23 55.02 54.76 63.40 64.72 64.36 63.31 62.48 62.03 63.49 63.36 63.28 64.34 64.29 64.47 64.10 63.94 63.89 63.46 63.21 62.65 62.18 61.78 61.16 60.76 60.40 59.28 58.59 57.01 55.00 54.89 53.52 54.06 54.68 55.81
36.40 36.80 36.33 37.81 39.91 41.29 42.25 44.26 46.94 51.51 59.10 62.40 64.38 64.12 63.18 62.46 62.15 62.79 63.13 62.73 62.66 63.35 63.53 63.50 63.46 63.29 63.40 63.09 62.71 61.93 61.71 61.17 60.69 60.29 59.73 59.54 58.86 58.35 56.60 55.86 54.44 53.83 54.36
33.96 34.02 34.80 36.24 37.43 39.54 41.05 41.80 44.66 47.04 50.79 61.76 64.32 64.65 63.15 61.95 62.11 62.67 62.98 62.88 62.11 63.02 63.08 62.99 63.00 63.22 63.27 62.97 62.52 62.11 61.73 61.64 61.07 60.56 60.17 59.80 59.44 59.22 57.62 56.20 54.90 52.43 52.25
31.65 32.45 33.38 34.62 35.73 37.89 39.77 41.97 42.53 44.90 47.88 51.12 62.65 63.86 63.40 62.20 61.48 61.96 62.26 62.98 62.07 61.23 61.31 62.39 62.42 62.81 62.49 62.21 61.82 61.78 61.18 61.20 61.19 60.72 60.27 59.69 59.73 59.45 58.49 57.80 56.99 54.89 51.17
30.68 31.00 31.77 32.83 34.17 35.91 38.26 41.35 41.90 43.04 45.63 48.69 52.46 62.41 61.64 61.09 60.34 60.30 60.71 61.08 61.02 60.48 61.34 61.10 61.43 61.47 61.59 61.37 61.21 60.98 61.20 60.55 60.60 60.55 59.81 59.60 59.73 59.02 57.73 56.77 56.91 56.60 54.88
28.99 29.65 30.79 32.17 32.42 34.66 36.26 37.64 40.35 40.98 43.49 45.88 49.73 58.10 60.61 60.32 60.38 60.24 60.10 60.00 59.18 59.12 59.66 60.12 59.96 59.56 59.98 60.09 60.09 60.44 60.23 59.68 59.74 59.63 59.18 58.97 59.56 58.76 57.73 56.88 56.26 55.49 54.15
28.37 28.87 29.83 30.89 31.15 32.42 34.35 34.95 38.72 40.38 41.53 44.95 49.72 58.32 59.22 59.66 59.30 58.94 58.74 58.56 58.24 58.46 58.08 58.42 58.05 58.26 58.32 58.78 59.28 59.26 59.76 59.21 58.91 58.92 58.95 58.76 59.09 58.72 57.93 56.74 55.79 55.45 55.06
26.96 27.11 27.74 28.69 29.65 30.19 31.69 32.89 34.41 36.76 40.81 42.82 44.86 48.05 51.55 58.34 57.98 57.92 57.86 57.88 57.88 57.74 57.42 57.37 57.21 57.03 56.79 56.47 56.53 56.53 56.81 57.71 58.67 58.77 58.89 58.77 58.75 58.03 57.29 56.15 55.73 55.62 55.32
25.98 25.97 26.15 27.37 29.10 29.69 29.97 31.72 31.86 34.53 37.08 39.04 41.10 41.78 43.35 50.85 57.33 57.39 57.17 57.11 57.09 56.29 55.97 55.95 55.59 55.61 55.11 55.01 53.20 52.39 53.21 55.27 56.87 57.44 58.43 59.01 58.71 58.25 58.06 56.73 55.79 55.53 54.96
24.55 24.78 25.08 26.36 27.85 28.06 28.50 29.18 30.32 31.99 34.39 36.53 36.14 37.77 39.48 41.69 45.33 52.28 55.79 55.91 55.73 55.87 55.95 55.93 55.33 53.25 49.44 43.19 43.13 47.09 49.09 52.10 54.35 56.25 57.54 58.10 57.24 52.98 55.60 57.10 56.53 55.75 54.80
23.48 24.07 24.71 25.83 27.13 26.72 27.27 27.92 28.89 30.21 31.74 33.27 34.83 35.86 36.50 36.36 37.52 38.24 39.91 41.05 41.77 43.02 44.94 45.43 45.64 42.84 42.34 36.82 38.14 39.77 50.67 49.89 47.75 51.32 56.47 57.95 51.90 50.25 46.74 47.28 48.84 53.87 55.00
22.81 23.03 23.85 25.45 26.80 27.12 26.93 26.25 27.16 29.35 29.64 29.82 31.19 32.98 33.81 32.90 33.85 34.32 34.39 34.75 34.77 35.90 35.98 37.05 38.37 37.42 36.48 36.22 38.00 37.75 44.39 42.95 41.73 42.15 44.29 49.67 50.00 49.98 47.88 39.42 38.72 37.43 39.09
22.13 22.48 23.69 24.54 26.21 28.03 26.92 26.89 26.47 26.73 27.48 28.02 28.80 29.90 31.55 31.79 32.31 32.33 31.76 32.08 32.50 32.31 32.61 32.91 34.07 34.67 34.96 35.45 36.40 36.51 38.74 37.38 36.19 36.51 39.11 41.54 40.26 39.03 43.07 39.74 35.19 33.75 33.91
22.52 22.67 24.20 24.58 25.51 26.21 27.87 26.00 24.99 24.69 25.02 25.66 26.95 28.54 29.26 29.13 30.51 30.45 30.85 31.14 30.74 30.52 30.61 31.27 31.67 32.07 32.76 34.81 35.17 35.72 35.55 34.00 33.14 33.79 34.99 36.21 36.32 36.61 38.92 35.84 33.23 32.33 31.77
22.45 21.16 22.46 23.44 23.57 25.27 26.67 25.86 23.85 23.04 22.42 24.35 25.95 27.61 28.93 28.52 28.03 28.58 29.97 31.01 31.16 30.37 30.34 29.77 30.28 31.01 30.43 32.83 34.34 34.01 33.42 31.67 31.87 31.93 32.39 33.67 34.32 34.83 35.91 35.37 34.75 32.75 31.82
20.66 20.57 20.63 21.22 21.85 24.34 25.47 23.98 24.16 22.34 23.21 23.98 25.20 26.07 27.15 27.91 28.87 28.77 29.09 29.60 29.85 30.15 29.78 29.36 29.77 29.72 30.40 30.31 31.79 31.82 30.66 30.18 29.40 29.30 29.69 31.24 32.68 33.09 33.67 33.25 32.44 31.65 31.52
17.97 18.06 17.79 19.46 21.17 22.87 24.12 22.91 22.54 25.47 23.87 23.08 22.73 23.49 25.41 26.15 26.80 27.50 28.27 28.70 29.11 28.58 28.49 28.58 28.58 29.28 29.17 29.99 30.35 29.77 29.61 29.15 27.11 26.88 28.33 29.63 30.69 30.70 30.50 29.69 30.04 30.10 29.99
14.74 17.16 15.44 16.78 18.86 20.50 22.02 21.72 22.79 24.98 25.17 23.14 21.74 21.75 21.88 22.99 25.07 25.03 25.36 26.20 27.11 26.87 26.69 26.61 26.30 26.79 28.23 28.34 28.95 28.92 28.19 26.80 25.32 26.30 26.70 26.93 26.97 27.07 26.58 27.39 27.21 26.66 26.43
15.17 16.44 17.04 15.95 15.88 17.48 18.73 21.16 23.40 24.53 24.43 23.13 22.82 21.95 21.26 21.06 22.82 23.71 24.57 24.61 24.89 23.97 23.92 24.46 24.52 25.34 25.99 26.67 26.83 26.12 25.54 25.19 24.58 23.97 23.60 23.88 24.21 22.98 22.63 23.35 24.03 24.16 24.46
14.55 16.16 15.76 15.91 15.48 16.91 17.10 18.53 21.25 22.04 22.75 22.08 20.82 19.58 19.46 18.62 18.76 21.67 23.18 23.08 25.03 25.40 23.54 23.47 23.71 23.45 23.33 25.88 27.76 26.71 25.20 23.62 23.46 22.94 22.04 20.92 20.79 20.00 20.06 19.89 20.27 21.17 21.82
15.57 14.91 15.39 15.37 15.34 16.39 16.72 17.86 21.10 21.45 20.08 19.61 19.14 17.60 16.94 16.81 17.01 15.95 16.14 23.23 24.32 24.95 25.58 26.07 25.00 24.19 26.72 26.98 26.74 26.66 25.92 25.08 24.12 20.39 18.34 17.56 17.75 17.31 17.61 17.25 17.27 17.94 18.44

GFSMW_sfc_wetblb_111.txt.gz
Wetbulb
46.52 47.52 51.26 52.97 51.44 50.22 49.86 50.97 52.65 55.76 62.03 65.48 65.56 64.95 64.03 65.40 66.91 66.91 67.28 67.16 67.13 66.69 66.81 67.16 65.28 65.44 64.54 64.06 63.26 63.54 62.89 62.64 63.53 61.92 61.57 62.42 63.92 63.38 63.48 64.01 63.63 63.42 62.94
47.00 49.68 50.28 50.55 51.31 52.41 53.57 54.63 54.58 52.19 54.60 63.56 66.40 66.50 65.66 65.58 66.76 66.24 66.29 66.58 66.65 66.47 65.91 65.99 64.88 64.82 64.52 63.61 63.01 62.70 61.77 62.30 62.69 60.80 60.13 57.75 60.23 62.55 63.65 63.89 63.15 63.31 62.74
44.50 46.26 47.15 47.94 48.40 49.70 50.56 51.34 53.24 55.34 56.38 56.13 64.49 67.20 67.41 67.26 65.01 64.99 65.49 65.33 66.13 66.20 65.73 65.66 65.18 64.53 64.40 63.29 63.29 63.02 62.29 60.60 61.31 62.73 60.33 56.45 55.41 58.31 61.49 61.55 61.86 62.08 61.87
40.85 41.68 43.13 44.03 45.70 47.43 48.62 49.70 50.77 52.12 55.13 57.70 59.66 65.25 64.29 63.00 64.10 65.11 65.86 65.51 65.75 65.91 65.76 65.06 64.91 64.31 64.13 64.12 63.61 63.59 63.10 62.79 59.83 60.82 61.43 63.47 61.65 57.30 55.12 59.13 60.60 61.73 60.92
36.45 37.00 38.15 39.49 41.34 43.30 44.24 45.66 48.08 51.00 54.68 57.40 59.77 65.34 65.32 65.75 66.21 66.63 66.48 65.53 65.20 65.53 65.16 65.15 64.62 64.04 64.44 64.66 63.56 63.30 63.20 63.53 61.94 60.67 60.38 61.32 60.65 59.49 56.87 55.43 56.67 58.78 60.72
34.25 34.98 36.95 37.43 38.43 40.33 41.24 42.93 44.83 47.70 53.09 58.08 58.83 64.76 65.69 65.15 65.49 65.87 64.66 64.62 65.06 64.52 64.88 64.78 64.42 64.38 64.00 64.24 63.43 63.81 63.56 62.50 62.33 61.92 61.88 60.22 58.74 56.81 56.86 56.00 56.14 57.60 57.68
32.99 32.96 33.46 34.73 36.21 37.65 38.71 40.83 43.22 44.39 48.40 53.23 58.28 64.53 66.02 66.39 65.99 65.65 65.44 64.34 63.78 63.59 63.90 64.57 63.91 63.93 63.89 64.20 64.31 63.61 63.17 62.84 61.98 62.07 61.67 61.46 61.15 59.94 58.55 57.82 56.95 55.29 56.90
32.10 31.60 32.53 33.60 34.02 35.76 37.97 38.72 42.22 42.84 46.15 49.64 55.70 63.88 64.05 64.24 65.74 66.19 65.86 65.35 64.84 64.07 64.40 64.26 64.28 64.17 64.05 63.93 64.15 63.72 63.08 63.02 62.31 62.37 61.91 61.46 61.07 60.74 59.34 58.66 57.58 53.88 54.03
30.98 30.56 31.59 32.44 33.39 34.08 35.06 38.31 40.50 42.39 44.59 47.11 50.65 61.58 63.98 64.00 64.68 65.81 66.51 66.42 66.04 64.56 64.49 64.51 63.45 63.67 63.52 63.14 63.71 63.70 62.40 62.44 62.31 62.19 62.13 61.63 61.46 61.09 61.42 60.54 59.81 57.40 52.34
29.43 29.81 30.13 31.28 32.83 33.73 34.38 36.96 39.33 41.29 43.25 45.32 49.02 53.07 64.31 63.58 63.87 65.06 65.26 65.48 65.52 64.16 63.73 63.57 63.31 63.20 62.63 63.25 62.70 62.67 62.59 61.89 61.91 61.92 61.52 61.13 61.53 61.40 61.00 60.86 59.61 59.72 56.14
28.46 28.51 29.44 30.61 31.88 32.65 33.15 34.29 35.43 38.59 41.84 43.38 46.52 52.74 61.71 62.57 63.24 62.99 64.93 64.93 63.89 62.60 62.73 63.30 64.07 62.87 61.56 62.29 62.06 62.05 61.59 61.00 61.19 61.23 61.53 60.96 61.26 60.56 60.82 60.81 61.17 57.55 57.11
28.35 28.64 28.44 29.39 30.14 30.33 31.09 32.25 33.29 35.10 38.86 42.89 45.38 47.66 51.65 60.81 60.76 60.82 60.85 61.42 60.80 62.42 62.54 62.20 61.28 60.60 60.98 61.25 60.66 59.88 60.38 60.42 60.68 61.15 60.77 59.99 60.13 59.86 60.45 59.24 58.14 58.55 57.70
26.84 26.87 27.27 27.55 28.28 28.66 29.55 30.27 31.82 33.22 36.03 40.48 42.82 43.97 45.35 50.08 58.98 58.74 58.74 59.30 59.38 59.38 59.65 60.31 60.28 59.63 59.20 58.82 58.70 59.22 58.58 58.87 58.94 59.51 59.66 60.25 60.33 58.91 58.68 58.81 57.86 57.05 56.72
25.35 25.47 25.40 26.53 27.73 27.60 28.04 28.57 30.15 32.18 33.82 37.42 38.44 40.57 40.57 43.54 47.20 55.63 56.73 57.41 57.91 57.57 57.77 58.03 57.13 56.81 55.33 52.70 53.03 54.13 54.80 55.26 56.24 57.54 58.60 58.08 58.17 58.61 58.57 58.75 58.13 57.34 56.01
23.69 24.33 24.67 25.62 26.76 26.93 27.04 27.60 28.66 30.56 32.10 33.81 34.73 36.76 38.74 38.81 41.02 41.82 43.88 45.61 44.43 44.75 45.97 49.99 47.94 46.79 42.55 39.55 41.26 46.98 51.00 53.17 54.43 55.22 55.76 57.48 57.25 51.94 54.52 58.08 57.72 57.12 55.67
23.12 23.62 24.40 24.98 25.63 26.90 26.52 26.52 27.29 28.67 30.44 30.98 32.35 34.10 36.36 36.27 35.55 36.80 37.60 39.03 38.45 38.21 37.97 38.24 38.21 37.38 37.75 35.94 37.21 39.14 47.09 51.72 50.54 49.50 50.50 52.77 50.21 50.07 45.89 46.07 47.70 54.57 55.77
22.51 22.76 23.78 24.89 25.67 26.70 27.29 26.03 26.63 27.81 28.23 28.75 29.59 31.54 32.64 33.70 32.43 34.23 34.30 33.25 33.67 34.32 33.55 34.35 34.82 33.98 33.90 35.40 36.32 36.78 44.04 42.65 41.03 41.45 42.49 44.96 46.89 42.81 46.40 40.24 39.37 40.44 42.43
21.77 22.38 23.20 23.98 25.74 27.05 27.85 27.41 27.15 26.10 26.75 27.06 28.13 29.23 30.26 30.72 31.74 32.13 31.64 31.76 31.76 31.52 31.19 31.34 31.92 31.56 32.11 34.07 35.07 35.99 37.59 36.13 35.25 35.68 37.17 38.93 39.97 40.23 41.66 38.09 35.26 34.00 33.76
22.21 22.15 23.98 24.19 25.00 26.75 27.58 27.65 26.37 25.85 25.52 25.18 26.65 28.22 29.03 29.19 29.73 30.27 30.98 31.45 31.07 30.46 30.21 30.78 30.34 29.76 30.22 32.60 33.61 34.56 34.35 33.29 32.41 33.03 33.92 34.86 36.02 36.02 38.10 35.67 33.22 32.66 32.08
21.84 20.69 22.59 23.03 23.46 25.09 27.05 25.59 25.51 24.65 23.38 24.77 25.37 27.31 28.59 28.91 29.06 29.88 30.37 31.14 31.21 30.39 30.17 29.48 29.48 30.08 29.40 31.10 31.61 30.97 31.09 29.91 29.95 30.70 31.29 32.24 33.04 33.83 34.46 37.02 35.19 32.61 31.93
19.69 20.00 20.75 20.93 21.71 23.81 25.73 24.09 24.54 24.12 24.97 25.31 25.78 25.46 27.05 27.94 28.90 30.07 30.57 31.74 31.22 30.83 29.83 29.29 29.67 29.18 29.39 29.83 30.20 29.93 27.89 27.29 26.88 26.57 27.16 29.14 30.92 31.59 32.04 31.94 31.56 31.09 31.89
18.56 19.00 18.34 18.93 20.45 22.13 23.70 22.59 23.08 25.44 25.68 24.92 24.26 24.49 25.66 26.58 27.83 28.27 29.22 29.29 30.03 29.83 29.65 29.58 29.85 30.48 29.78 29.80 30.11 29.23 28.01 26.95 25.39 24.59 25.57 26.61 27.99 28.49 28.95 28.58 29.39 29.54 29.44
18.40 19.31 17.77 17.73 18.72 19.88 21.40 20.90 23.04 24.14 23.26 22.79 22.08 23.02 24.28 25.60 26.33 26.24 26.75 26.83 27.45 27.03 26.70 26.97 26.82 28.01 30.00 30.49 28.91 28.48 27.70 26.72 25.66 25.85 26.34 26.28 25.96 25.38 24.64 26.49 26.60 26.62 26.32
18.32 19.32 19.02 17.47 16.89 18.85 19.80 21.19 22.41 22.84 22.03 20.60 20.81 22.53 22.03 23.00 24.31 26.21 26.21 25.93 25.65 25.54 25.01 24.68 24.88 26.43 27.32 28.29 29.26 29.20 27.82 26.82 26.26 25.58 25.13 25.13 24.68 23.75 23.10 22.79 23.68 24.08 24.14
18.06 18.59 18.23 18.10 18.10 19.53 19.89 21.36 22.65 22.83 22.55 21.34 20.86 21.07 21.80 21.28 21.67 22.55 23.88 24.20 24.47 24.63 24.16 24.61 24.82 25.13 24.91 26.09 26.70 26.61 26.43 26.68 25.01 25.53 25.12 23.77 22.95 21.90 21.75 21.07 20.96 21.76 22.90
18.16 18.26 18.48 18.52 19.02 19.86 19.69 21.39 23.09 22.83 21.53 21.08 20.46 19.39 20.14 20.27 20.27 20.28 20.54 21.54 21.93 22.72 23.18 24.16 24.14 24.56 24.60 25.38 25.17 25.08 24.65 23.83 23.65 23.32 22.03 20.82 20.19 19.28 19.03 18.62 18.91 19.87 20.46

GFSMW_sfc_wetblb_114.txt.gz
Wetbulb
52.07 53.55 54.55 55.47 55.76 56.57 56.75 57.87 58.63 59.93 57.48 57.84 63.44 65.06 66.83 68.27 69.71 70.46 70.69 70.98 71.83 71.56 70.64 69.79 69.53 67.68 66.71 66.98 67.93 67.52 66.99 67.19 68.01 65.72 65.12 66.30 66.22 66.22 66.58 66.90 66.29 66.71 66.15
48.81 49.56 50.47 51.85 52.62 53.10 54.49 55.31 55.89 57.18 58.66 58.83 58.24 64.93 66.44 67.36 68.10 70.25 71.04 71.06 70.49 70.65 70.59 69.77 68.50 67.21 66.48 66.04 66.48 66.06 64.47 64.93 66.20 62.94 62.58 60.00 62.58 64.95 65.78 66.19 65.40 65.71 65.62
44.91 45.99 46.91 48.13 49.03 49.72 51.13 51.81 53.38 54.83 55.99 57.80 60.23 58.97 65.38 66.82 66.70 68.31 69.45 70.38 69.89 70.13 70.56 69.43 67.84 66.64 66.80 64.88 65.22 65.90 64.67 62.50 63.85 66.41 63.49 59.89 58.22 61.05 64.39 64.81 64.85 65.13 64.62
44.19 43.93 43.86 44.70 45.34 46.18 48.06 49.46 50.95 52.05 53.89 56.10 57.59 58.83 59.68 62.58 65.74 66.50 67.87 68.90 70.35 69.35 69.30 68.76 67.91 66.78 66.49 65.26 65.06 65.74 65.88 64.58 61.48 63.29 65.67 65.57 63.77 58.77 57.88 62.67 63.38 64.77 63.81
42.67 41.89 42.14 42.24 44.11 45.60 45.30 45.94 47.88 48.96 51.58 54.30 56.11 58.33 58.49 64.73 65.73 67.40 67.17 67.80 67.95 67.45 67.65 67.73 67.81 66.56 66.75 65.44 64.98 65.04 65.31 65.17 63.77 62.22 62.64 64.42 64.33 63.30 59.68 58.33 60.72 62.31 64.23
41.02 41.27 42.06 41.92 42.61 43.98 43.85 43.58 44.37 45.87 47.21 49.14 53.19 56.53 59.86 61.56 64.51 65.61 66.39 67.35 67.15 65.86 66.09 66.26 66.58 66.74 66.16 65.35 64.86 65.13 65.57 65.08 64.64 63.36 65.21 63.93 62.26 61.47 60.13 58.80 59.83 60.42 62.17
38.49 38.07 38.13 38.44 39.16 39.08 39.40 39.50 39.76 40.52 42.56 45.68 48.81 52.92 58.20 61.45 65.37 65.39 66.93 66.65 65.02 64.47 65.00 65.42 65.29 65.44 65.80 65.70 64.82 64.38 64.93 64.75 63.67 65.22 64.90 65.34 63.70 63.08 62.69 60.99 60.34 59.88 61.43
35.45 34.82 35.24 36.43 36.59 36.90 37.43 38.17 37.22 37.56 40.10 43.57 46.48 50.13 56.56 62.40 65.40 66.53 66.43 67.07 65.51 65.21 65.28 65.61 65.42 65.50 65.74 65.50 65.46 64.60 64.19 64.42 64.55 65.47 65.64 65.35 64.50 64.87 64.10 61.85 60.91 56.80 57.71
33.51 33.33 33.68 34.65 35.55 33.28 34.80 34.83 34.82 36.23 38.72 42.02 45.71 48.89 55.91 63.15 65.78 66.77 67.79 67.16 66.66 65.20 65.40 65.35 64.64 64.91 65.11 64.95 64.73 63.73 63.59 63.91 64.12 64.86 65.85 65.22 65.19 65.44 64.57 63.64 62.17 59.35 55.76
31.44 31.61 31.40 32.03 33.96 32.55 33.08 34.43 33.70 34.92 37.31 40.76 45.28 47.74 53.82 59.43 66.13 65.39 65.15 65.59 67.29 67.14 66.60 65.48 65.37 64.20 64.33 64.44 64.16 63.63 63.64 63.41 63.74 64.20 63.49 63.72 64.19 63.86 64.23 63.07 62.01 60.55 59.50
30.20 30.79 30.76 31.30 32.70 32.39 31.35 31.59 32.31 33.57 36.21 40.73 45.10 47.58 52.36 63.72 65.99 64.74 64.77 66.51 66.87 66.39 65.39 66.10 64.45 63.34 63.34 63.53 63.32 63.47 62.99 62.32 63.17 63.06 62.54 62.49 63.14 62.07 61.67 61.73 61.57 61.14 59.68
30.22 30.11 29.79 29.66 30.55 30.28 30.19 30.19 31.01 32.73 35.52 39.43 43.05 44.52 46.72 51.23 63.16 63.52 64.66 65.51 64.70 65.22 64.51 64.27 62.85 62.17 62.39 63.03 62.59 61.68 61.64 62.11 61.71 61.72 61.44 61.35 62.16 61.93 63.31 62.96 61.00 60.89 60.70
29.70 29.08 28.49 27.43 27.88 28.83 29.13 28.52 30.16 31.83 34.57 37.38 40.88 42.85 42.69 44.82 47.72 57.53 60.40 60.81 60.74 61.06 61.16 61.49 61.43 61.87 61.48 61.62 61.14 60.78 61.35 61.28 60.94 60.79 61.13 61.88 62.30 62.18 62.10 60.87 60.41 60.23 59.34
28.35 28.36 27.43 26.62 27.45 28.78 28.21 27.33 28.88 31.11 33.06 35.73 35.94 38.73 39.65 41.31 42.96 45.23 47.00 48.24 52.14 55.93 53.80 51.71 46.59 45.30 43.95 44.93 48.94 54.22 56.39 57.34 57.86 59.27 60.73 61.02 60.14 59.87 60.06 59.73 58.92 58.34 58.08
26.56 26.55 26.35 26.63 27.52 28.09 27.84 27.80 28.14 29.60 31.00 32.53 33.44 35.38 37.73 37.56 38.81 39.46 41.06 42.52 42.69 43.57 43.71 41.02 40.01 40.23 38.77 38.11 41.40 47.91 53.00 54.12 56.05 58.01 58.59 58.35 52.84 46.39 46.83 52.59 58.19 59.76 57.50
25.17 25.90 26.30 26.50 27.47 28.33 28.50 27.77 27.91 28.48 30.05 30.21 30.96 32.56 34.05 34.80 35.36 35.17 36.82 35.98 37.29 36.56 36.69 35.96 36.35 36.67 37.28 36.82 37.49 42.26 49.94 48.63 46.75 46.29 46.10 48.88 48.89 47.86 42.22 41.75 40.99 44.81 55.49
24.97 24.53 26.30 26.34 27.90 28.81 29.93 29.29 29.50 29.41 28.29 28.68 29.33 30.46 31.39 31.78 32.46 33.37 32.58 32.28 32.64 33.94 33.52 33.60 33.78 33.60 34.54 35.70 37.10 38.15 40.44 38.89 37.72 37.20 37.63 40.42 43.44 42.94 44.82 44.12 40.23 37.89 35.81
24.02 24.58 26.01 26.58 27.14 29.08 29.47 31.19 30.96 29.84 28.27 27.68 28.97 30.01 30.49 30.37 31.27 31.31 31.11 31.41 31.35 30.65 31.34 31.37 31.46 31.61 32.47 33.61 35.03 35.17 35.55 34.61 33.81 33.26 33.26 35.29 37.14 37.92 38.63 42.98 40.28 36.14 34.84
23.99 24.28 25.53 25.81 26.33 27.86 28.72 29.41 29.31 29.42 28.00 27.65 27.64 29.86 30.70 30.39 30.40 30.24 30.70 30.88 30.26 29.97 30.11 29.50 29.61 29.88 30.49 32.49 32.63 33.14 32.66 31.63 30.67 30.84 31.58 32.03 33.36 33.54 36.18 39.31 37.27 34.49 33.77
23.61 23.39 24.17 25.10 24.10 26.27 28.39 27.45 26.88 26.98 26.26 27.28 27.96 29.40 30.36 30.69 30.10 30.71 31.32 31.68 31.82 31.10 30.52 29.47 29.65 29.81 29.01 30.88 31.09 30.62 30.01 28.23 28.11 28.50 29.01 30.06 30.50 31.60 32.60 34.06 34.89 32.50 31.59
22.49 23.28 22.43 21.68 22.42 24.87 25.98 25.17 24.57 24.00 25.96 27.60 28.33 28.74 29.74 29.56 30.92 31.42 31.47 31.33 31.24 31.30 31.22 31.24 31.02 30.63 30.09 29.82 30.32 29.71 27.24 27.31 26.99 26.21 25.84 27.84 29.57 29.99 30.25 30.15 29.92 29.90 31.04
22.48 22.17 20.80 20.97 22.27 23.92 24.38 22.95 22.16 24.48 25.56 26.61 26.88 27.17 28.03 28.92 29.71 29.97 30.63 29.98 30.83 30.75 31.94 31.95 31.89 32.62 31.32 30.53 30.06 29.38 28.30 28.49 26.53 25.50 26.21 27.33 28.21 28.72 28.42 27.72 28.08 28.33 28.30
22.88 23.77 21.32 20.79 22.33 23.59 23.91 22.56 23.56 24.68 24.28 25.01 25.27 26.24 27.42 27.53 28.46 27.91 27.99 28.20 28.88 28.29 28.32 29.38 29.71 30.21 31.01 30.77 29.51 29.70 28.85 28.33 29.61 28.26 27.91 27.69 27.32 26.45 26.26 26.90 26.56 26.05 25.65
22.59 23.84 23.47 21.73 21.33 23.33 24.25 24.31 24.59 26.06 25.12 24.09 24.97 25.83 25.66 26.63 26.19 27.55 26.99 24.97 24.78 25.12 24.50 25.40 24.97 27.20 27.94 27.70 28.73 29.70 30.90 28.81 29.75 29.48 30.20 28.92 28.53 28.34 27.35 26.05 26.23 26.84 26.61
23.02 23.45 22.84 22.59 22.28 23.56 23.98 25.10 25.65 25.60 25.57 24.67 24.99 25.54 25.86 25.11 25.46 24.15 22.53 23.13 23.19 23.55 23.24 23.45 24.56 23.38 24.36 25.52 25.84 26.01 26.22 27.11 27.42 30.08 30.18 29.00 28.65 27.81 27.78 27.68 26.94 27.82 27.24
24.16 24.04 23.61 23.46 23.66 23.92 23.35 25.25 25.98 25.59 24.61 24.84 24.84 24.20 24.94 25.13 24.82 24.77 24.78 22.36 21.54 21.15 21.24 22.07 23.09 23.97 22.97 23.45 24.16 24.08 24.10 25.39 26.43 27.64 25.81 25.01 25.42 24.96 25.33 25.24 25.61 25.76 25.65

GFSMW_sfc_wetblb_117.txt.gz
Wetbulb
53.20 53.48 53.69 54.38 55.10 55.89 55.92 56.47 57.40 58.96 59.77 60.63 58.24 61.29 66.73 68.78 70.49 70.70 71.81 70.99 72.15 73.06 72.14 71.75 71.69 70.98 69.23 68.98 70.07 69.80 68.85 67.56 68.77 66.84 66.78 66.77 67.51 67.38 67.47 67.85 66.85 65.74 66.56
50.18 50.47 51.30 51.92 52.45 52.75 53.56 54.27 54.63 55.84 57.11 58.40 59.93 60.08 61.89 66.53 69.61 70.66 71.10 72.17 72.49 72.73 72.51 72.24 71.64 71.33 69.07 67.27 67.79 67.99 67.88 69.01 69.55 65.50 64.23 60.50 62.96 65.89 66.91 66.87 66.56 66.91 66.73
47.54 48.35 48.54 49.12 49.91 49.95 51.03 51.08 52.28 53.34 54.98 56.21 57.36 58.64 61.43 61.07 66.72 68.54 69.27 70.66 71.87 72.35 72.49 72.32 72.01 71.37 69.98 68.39 66.86 66.68 66.16 64.76 67.93 68.71 63.67 59.96 58.43 62.46 65.23 66.15 65.85 66.08 65.76
46.63 46.70 46.80 46.99 47.61 48.08 49.99 50.50 50.37 50.64 52.23 54.28 54.55 56.08 56.75 58.02 62.91 67.65 68.68 68.98 71.19 71.60 72.39 72.49 72.02 71.40 69.86 68.20 66.69 66.70 66.02 64.97 63.02 65.71 66.76 66.65 64.55 60.47 59.18 63.86 65.23 66.17 65.60
44.86 44.09 44.12 44.51 45.47 46.72 47.03 47.45 47.78 48.32 50.13 51.54 52.11 53.25 55.37 58.08 60.92 62.29 67.86 68.36 69.90 70.54 71.59 71.82 71.32 70.58 69.41 68.62 67.73 66.18 65.60 65.45 64.05 63.35 65.01 66.40 66.06 65.71 62.02 59.72 60.72 63.80 64.64
43.04 42.55 42.81 42.38 42.32 44.05 44.17 44.11 44.77 46.12 47.65 48.45 49.05 49.66 51.86 55.27 57.93 61.01 63.72 65.99 67.76 68.94 70.70 70.36 70.21 69.23 68.38 68.23 68.17 66.88 65.59 65.37 64.48 64.37 64.53 64.04 63.59 63.10 61.74 60.32 61.40 60.80 62.75
40.52 39.77 38.96 38.29 38.54 39.15 40.36 40.01 40.63 41.37 43.75 45.10 46.03 46.55 48.29 51.82 55.32 57.99 61.32 65.49 66.19 67.17 68.50 68.60 67.49 68.33 68.14 67.66 67.90 65.60 65.24 65.28 64.38 63.88 63.63 66.36 65.50 65.87 63.82 62.44 61.64 60.75 62.20
37.52 36.08 35.62 35.63 35.52 35.79 36.61 36.60 36.69 37.88 40.24 41.17 42.19 43.66 45.56 48.56 53.44 57.76 61.25 61.67 66.88 67.95 68.80 68.38 66.70 66.41 68.27 67.00 66.48 65.52 65.22 65.11 64.76 64.16 64.52 65.77 66.82 66.48 64.69 62.14 61.62 59.84 60.89
34.32 33.94 34.25 33.69 33.08 33.68 33.98 34.71 33.93 35.57 37.09 37.44 39.15 40.35 43.94 47.01 50.60 57.33 62.81 64.33 66.61 68.47 68.49 68.19 65.52 65.43 65.66 66.22 65.39 64.52 64.12 64.91 65.05 64.78 64.71 65.98 66.18 67.07 66.43 65.48 62.81 61.76 58.44
32.27 32.35 31.96 31.96 32.50 32.74 33.33 34.38 32.52 33.31 34.12 36.26 38.15 40.67 43.48 47.44 50.80 58.27 63.01 65.56 66.96 68.38 67.19 67.01 65.22 64.65 65.00 64.94 64.83 64.27 64.23 63.69 64.27 64.47 64.07 64.10 66.33 66.17 66.20 65.36 65.15 64.15 61.73
31.79 32.53 32.12 31.30 31.33 32.39 31.82 31.83 31.39 32.02 33.94 35.37 37.98 40.14 45.18 47.57 51.68 59.44 64.36 66.48 66.75 66.31 66.32 66.45 64.69 64.25 64.07 64.34 63.98 63.54 63.38 63.00 63.48 63.80 63.47 63.94 65.57 64.66 63.14 62.89 63.98 63.46 62.30
32.05 32.96 32.10 31.11 31.18 30.91 31.31 30.59 30.87 31.04 32.93 34.39 37.30 41.82 42.97 45.44 48.07 55.63 63.48 65.88 65.31 65.68 66.04 66.30 65.48 64.85 63.51 63.34 63.03 62.66 62.81 62.58 61.61 62.74 62.76 62.18 63.06 63.66 63.28 62.38 61.23 61.02 61.66
31.03 31.01 31.23 30.93 30.77 30.96 30.83 29.98 30.38 30.23 31.86 34.30 35.97 39.29 39.69 41.29 41.31 44.18 47.55 50.04 60.72 61.27 57.94 60.03 56.71 58.15 60.18 61.66 61.83 62.07 61.85 62.43 62.16 62.24 61.10 62.32 62.24 60.83 60.87 62.13 62.06 62.19 61.08
29.24 29.53 29.17 30.16 31.47 31.22 30.91 30.66 29.75 30.41 31.35 33.29 34.09 36.14 36.92 37.62 38.98 40.04 40.58 43.26 44.68 44.12 44.38 43.00 43.03 42.12 41.95 44.82 50.23 58.92 59.82 59.40 59.38 60.15 59.93 60.67 59.97 58.18 55.73 58.43 58.98 60.52 60.67
27.42 27.99 28.59 29.32 30.54 31.35 31.75 31.94 30.58 30.24 30.90 31.29 31.76 33.29 34.80 35.96 35.82 36.64 36.49 37.75 38.68 38.62 40.72 42.32 41.33 40.13 39.93 40.44 42.29 52.16 54.84 55.42 55.48 51.91 51.56 50.34 46.71 42.69 43.69 48.76 51.21 50.82 53.08
25.99 26.88 27.91 28.21 28.75 29.75 32.20 32.92 31.36 30.74 30.86 30.72 30.84 31.64 32.72 33.05 33.70 33.37 33.67 34.68 34.45 34.05 34.76 36.08 36.58 38.27 38.57 38.92 39.79 45.29 46.54 45.11 43.32 42.79 43.12 45.58 44.89 43.29 41.46 40.66 39.92 40.20 44.87
25.27 25.40 26.86 27.58 28.12 30.32 31.62 32.27 32.50 32.05 30.51 30.34 30.80 31.20 31.44 31.11 31.25 31.82 31.86 31.10 31.25 32.27 32.23 32.20 32.58 32.35 33.48 36.25 36.63 36.79 37.65 36.59 35.03 35.06 37.21 39.06 39.26 38.81 40.84 42.10 40.60 38.16 35.73
24.65 24.72 25.96 26.71 27.78 30.27 30.04 31.84 32.28 31.29 29.78 30.02 30.13 30.90 30.93 30.76 31.45 31.34 30.95 30.49 30.61 29.96 29.97 30.49 30.53 30.24 31.47 32.77 33.39 33.66 33.03 32.11 31.47 31.77 32.26 33.58 34.15 34.02 36.12 41.14 41.61 37.75 36.87
24.83 24.78 25.83 26.90 26.90 27.91 29.12 28.94 29.43 29.37 28.53 28.10 29.28 29.96 30.83 30.30 30.21 30.64 30.91 31.33 31.47 30.65 30.02 30.21 29.71 29.32 29.89 31.61 31.35 31.50 31.05 30.30 29.31 30.02 30.86 31.08 31.23 32.42 34.32 38.40 37.67 33.95 32.50
24.57 23.73 24.05 25.43 24.38 26.01 27.62 25.91 25.47 26.11 26.58 28.20 28.56 30.55 30.76 30.25 30.29 30.71 31.15 31.55 32.02 31.65 31.44 30.53 30.98 30.82 29.77 31.70 31.00 29.29 28.51 27.38 27.52 28.87 29.06 30.43 30.66 30.90 31.17 31.28 32.18 31.45 31.02
23.40 24.25 23.37 22.85 24.16 25.40 26.31 24.46 24.14 23.93 27.08 28.37 29.56 28.90 29.90 29.39 29.52 30.12 30.90 31.67 31.57 31.13 31.38 30.85 30.09 29.97 30.19 30.86 31.85 31.10 29.52 28.08 26.78 26.06 25.98 27.62 29.26 30.02 30.23 29.85 28.81 28.02 29.89
24.27 24.08 22.58 22.94 24.75 25.66 25.28 23.72 23.83 25.83 27.09 27.81 27.44 28.51 27.62 29.10 28.79 27.11 28.52 29.35 28.88 29.45 29.09 29.75 29.77 29.85 29.71 29.34 30.00 30.83 30.16 30.39 28.91 28.08 28.95 29.50 29.40 29.03 28.59 27.97 28.18 27.97 27.86
25.19 25.78 23.88 23.41 24.73 26.12 25.71 23.59 25.31 27.05 26.52 27.61 26.88 27.60 29.00 27.06 27.55 26.83 24.53 24.83 26.71 26.31 26.93 26.89 27.80 28.51 29.09 28.60 27.93 28.80 29.42 29.43 30.31 30.89 30.34 30.25 30.32 29.85 29.70 28.93 28.27 28.36 27.51
24.92 26.25 25.76 24.13 23.40 25.83 26.55 26.58 26.55 27.92 27.57 26.73 27.68 28.74 27.50 28.77 26.67 26.45 26.13 22.45 21.88 22.82 23.02 24.17 22.32 24.67 25.94 26.42 27.45 27.56 29.44 29.19 30.54 31.35 32.04 30.93 30.31 30.35 30.53 30.08 30.35 31.48 30.45
25.79 26.02 25.30 24.98 24.22 25.36 26.64 27.22 27.87 27.73 28.43 28.40 28.14 29.02 28.41 28.40 28.40 24.57 23.71 23.01 22.29 21.58 21.12 21.54 23.53 20.45 20.53 22.79 24.71 25.63 26.22 28.90 29.39 30.46 30.27 28.54 28.34 27.80 28.34 28.67 28.50 28.79 28.80
27.54 26.95 26.63 26.17 25.80 25.66 25.57 26.57 27.12 27.43 26.57 26.44 27.22 26.93 27.40 27.37 27.41 26.73 26.33 24.62 23.66 22.74 21.98 21.48 21.26 22.44 21.83 22.52 23.70 25.04 25.41 25.66 27.37 27.49 25.69 25.17 25.48 25.17 24.95 25.19 25.40 26.02 25.41

GFSMW_sfc_wetblb_120.txt.gz
Wetbulb
51.67 51.71 51.91 51.77 51.44 51.81 51.91 52.64 52.86 54.18 54.96 55.42 56.11 57.51 57.60 60.96 67.73 69.10 69.54 69.34 69.40 69.78 69.17 69.22 69.09 68.57 67.41 67.85 68.42 67.51 66.55 66.27 66.57 65.14 64.17 65.12 65.05 65.18 65.04 65.69 64.93 65.25 65.20
48.86 49.28 49.77 49.93 49.65 49.64 49.97 50.14 51.34 51.95 52.36 53.06 54.46 55.20 55.81 57.49 59.42 66.71 68.98 69.40 69.17 69.45 69.59 69.00 68.54 68.39 67.11 67.00 67.95 67.80 65.92 65.96 66.53 63.43 62.73 60.48 61.98 64.00 64.81 65.16 64.55 64.74 64.96
45.91 46.13 46.49 46.96 47.16 46.79 47.18 48.12 49.25 49.82 50.45 51.09 52.03 53.50 54.95 56.28 57.10 58.66 63.20 68.45 69.15 68.81 69.93 69.37 68.42 68.37 68.05 66.72 67.23 67.10 66.44 64.45 65.67 65.27 61.85 58.33 56.57 59.55 62.97 63.90 64.11 62.91 63.03
45.15 44.87 44.16 43.86 43.96 44.50 45.52 45.88 46.21 46.42 47.95 49.21 49.24 50.31 50.80 51.71 54.92 56.76 59.90 66.17 68.39 68.83 69.25 69.52 69.32 68.71 68.77 67.50 66.99 66.82 65.87 65.42 64.17 65.25 65.07 63.07 61.20 56.13 56.70 61.76 62.97 62.88 62.85
42.77 41.98 41.74 41.71 41.86 42.14 41.67 42.24 43.06 43.12 44.01 46.04 47.44 47.14 47.87 50.30 53.35 55.34 57.07 59.60 63.54 67.31 68.48 67.89 68.62 68.82 68.26 68.10 66.82 65.88 65.27 65.81 64.40 64.60 63.51 63.48 63.13 61.89 58.73 55.93 58.88 62.03 62.81
40.51 40.19 40.14 39.80 38.77 39.11 38.72 38.88 38.94 39.87 40.75 41.93 43.57 44.28 44.86 46.03 47.61 50.50 53.15 56.20 59.88 64.04 66.66 67.11 67.74 68.51 67.88 66.62 66.88 65.71 65.27 64.92 64.82 64.38 64.15 62.88 62.00 61.13 60.22 57.63 57.12 58.07 60.06
37.47 36.71 35.86 35.21 35.29 35.31 35.81 36.52 36.29 35.99 37.58 38.50 39.95 41.38 42.17 43.40 44.71 46.62 50.07 53.25 56.17 59.88 63.64 65.88 66.59 67.70 68.04 67.12 67.12 65.61 64.96 64.93 63.94 64.15 63.40 63.73 63.20 63.33 62.09 59.56 57.61 57.62 59.27
35.22 34.39 33.83 33.78 33.30 33.49 33.73 33.95 33.86 33.95 34.92 36.35 37.49 39.03 39.95 41.19 42.88 45.06 47.93 51.46 54.98 58.36 62.40 64.22 65.21 66.87 67.18 67.36 66.92 66.43 65.67 64.89 64.25 63.81 63.59 63.38 63.29 63.40 62.72 61.08 59.48 55.72 57.07
33.49 32.74 33.11 32.59 32.21 32.08 32.51 32.86 32.95 32.73 33.45 34.25 35.84 37.02 38.63 40.06 41.76 44.24 47.08 49.68 53.12 57.62 60.27 63.47 64.07 65.55 66.53 66.74 66.40 65.60 65.03 64.61 64.06 63.46 63.75 63.20 63.42 63.65 63.37 62.12 60.80 57.73 54.09
32.35 32.60 32.30 32.21 32.63 32.87 32.84 33.22 32.78 31.99 32.35 33.64 35.38 36.55 38.89 40.87 42.33 44.29 46.07 48.35 50.99 56.31 60.43 61.85 63.33 63.01 64.70 65.10 64.71 64.70 64.25 63.76 63.34 63.59 63.39 63.35 63.44 63.64 63.73 62.55 61.81 61.02 58.19
31.84 31.92 31.86 32.35 33.13 33.35 33.06 32.53 32.23 31.66 31.79 33.00 35.54 37.29 40.52 42.64 44.73 46.64 48.95 49.31 51.71 55.21 59.88 60.17 60.10 57.75 62.81 63.31 63.73 63.89 63.43 62.93 62.96 63.05 63.01 62.84 63.40 63.61 62.69 62.23 61.40 60.87 59.71
31.23 31.64 31.54 31.18 31.72 31.73 32.35 32.41 31.83 31.02 31.72 33.44 35.35 37.08 38.71 40.06 40.69 42.68 46.04 50.87 53.71 56.86 60.68 61.38 61.32 59.66 62.79 63.28 63.43 62.94 62.79 62.57 61.94 62.31 62.22 62.15 62.86 62.71 63.37 61.10 59.80 59.14 59.19
29.58 29.79 30.30 30.09 30.40 31.13 31.96 32.08 31.63 30.94 31.69 32.52 33.79 34.98 36.14 36.70 37.03 38.11 40.39 41.99 42.94 45.19 45.68 46.02 47.92 49.22 51.67 61.28 63.12 62.93 62.28 62.20 61.84 62.06 61.74 61.79 62.40 62.13 61.34 60.84 60.05 59.30 60.03
28.04 27.99 28.72 29.18 29.88 30.93 31.91 31.84 31.48 31.38 31.69 31.94 31.97 32.53 33.50 34.63 35.43 36.94 36.08 37.09 38.82 37.91 40.86 43.20 42.76 43.91 44.44 45.67 49.07 61.69 61.51 61.61 61.07 61.01 58.25 55.53 55.77 55.65 55.17 55.75 55.24 55.81 54.95
26.27 26.78 27.74 28.14 28.94 29.86 31.29 32.49 31.38 30.95 31.62 31.30 31.26 31.62 32.72 33.49 33.71 33.69 34.78 34.66 34.20 34.02 35.69 35.98 38.23 39.38 40.73 43.03 45.78 47.05 46.79 48.67 48.24 48.58 47.78 43.92 44.42 42.30 42.93 49.61 47.99 48.85 50.02
25.60 25.69 26.45 26.76 27.75 28.80 29.77 31.44 31.03 30.47 31.51 30.30 30.45 31.45 31.72 32.13 32.40 32.13 32.10 32.82 32.47 33.01 34.30 33.69 33.63 33.81 36.59 37.89 39.74 38.99 37.40 37.39 37.56 37.80 41.04 42.15 38.36 40.26 40.60 40.87 37.29 39.76 42.76
24.09 23.87 25.30 25.67 26.58 27.93 28.29 29.22 30.03 30.06 29.53 29.93 29.76 30.66 31.01 31.11 31.39 31.92 31.41 30.86 30.86 31.53 31.52 31.81 32.44 32.78 33.39 34.13 35.43 36.79 36.24 35.70 33.96 33.18 33.70 35.06 35.44 35.27 38.96 40.08 36.87 36.30 35.54
23.10 22.80 23.94 24.49 25.55 27.47 26.57 28.50 28.90 28.28 28.46 28.39 28.88 29.32 29.97 29.62 30.73 31.23 31.09 31.09 30.84 29.64 29.45 29.27 30.14 30.15 31.06 32.41 32.10 32.24 31.22 30.32 30.22 31.28 31.56 31.85 31.59 32.56 35.82 40.62 37.02 34.58 33.89
23.57 23.16 24.16 24.50 24.79 25.75 26.39 25.76 25.86 26.65 26.73 26.50 27.19 28.27 27.72 28.04 28.41 28.86 29.91 30.73 31.02 29.80 28.71 29.01 28.17 28.72 30.27 32.26 32.18 30.43 29.38 28.53 27.49 28.68 29.98 30.00 30.17 31.92 33.15 33.75 33.80 31.90 30.63
23.73 22.77 23.31 24.05 23.53 24.18 26.18 23.81 23.74 24.74 24.66 26.30 25.61 26.97 27.81 25.67 26.11 27.25 27.78 29.70 30.00 30.43 29.81 28.14 28.03 28.93 27.99 31.81 32.34 31.22 29.74 27.87 27.69 28.29 28.49 30.32 29.77 30.74 30.64 28.56 28.65 27.80 28.05
23.10 23.93 22.75 22.19 23.08 23.78 24.17 22.79 23.11 23.16 25.82 26.31 27.59 25.20 25.83 26.06 24.30 25.05 26.06 26.80 27.33 26.75 27.34 27.28 26.88 26.38 27.38 27.92 30.81 31.22 29.44 28.65 28.02 28.05 28.52 29.88 31.13 31.09 30.68 29.74 27.55 26.73 27.82
23.94 23.29 21.35 21.61 23.17 23.77 23.09 21.74 22.41 24.42 25.92 26.57 25.74 26.40 24.69 25.00 24.49 21.85 22.41 23.46 23.87 24.55 23.20 22.96 23.73 24.26 24.91 27.17 27.91 29.70 30.11 30.73 28.89 28.23 29.54 30.52 31.38 30.66 30.56 29.86 30.40 29.77 27.73
24.45 25.33 20.55 20.52 22.38 23.92 23.50 21.59 22.80 24.33 24.68 25.51 25.48 25.56 26.18 24.54 24.03 21.38 20.00 19.76 20.79 20.23 21.23 20.65 19.49 20.18 22.29 23.70 26.53 27.05 28.45 29.41 29.41 29.99 29.92 30.58 30.81 30.72 28.93 29.53 29.40 29.24 29.08
24.95 26.04 24.92 21.05 20.37 22.88 23.79 24.15 24.69 25.26 24.33 24.67 25.48 26.26 25.41 23.93 23.35 23.38 20.91 19.37 18.35 17.61 17.72 18.53 17.92 18.26 19.38 21.05 23.88 24.80 24.59 26.88 28.14 28.59 27.76 27.62 27.77 27.22 27.12 27.41 26.80 26.66 26.96
25.62 26.00 24.66 23.72 23.29 24.47 24.04 24.22 25.17 26.06 26.02 26.15 25.14 26.23 26.46 25.41 24.06 22.72 22.00 20.51 20.93 20.55 17.89 17.84 18.26 17.42 17.32 19.89 24.34 25.19 23.54 24.77 26.15 26.06 25.02 23.97 23.78 23.29 23.14 23.74 24.51 24.43 24.62
26.98 25.98 25.15 24.08 23.81 23.54 23.51 24.86 25.57 25.41 25.07 25.10 25.53 24.65 25.22 25.19 25.11 24.41 24.39 26.62 25.01 24.09 23.47 22.55 21.76 20.62 22.64 23.41 24.06 25.70 26.16 25.62 25.42 22.50 20.63 19.98 20.37 20.46 20.94 20.70 21.21 21.85 22.06

GFSMW_sfc_wetblb_123.txt.gz
Wetbulb
45.74 45.78 45.49 44.61 44.35 44.46 44.74 45.50 45.90 47.23 48.26 48.41 48.22 48.34 49.05 51.59 53.24 56.19 59.33 66.82 67.49 68.30 67.89 68.15 66.69 66.63 66.47 66.71 66.04 66.18 65.56 65.14 65.46 63.09 61.28 62.28 64.16 64.03 64.13 63.83 63.59 64.59 64.65
42.64 43.54 42.80 42.11 41.74 41.89 41.95 42.39 42.76 43.39 44.19 45.72 46.75 47.65 48.36 50.36 52.30 54.57 56.49 58.21 63.39 67.51 67.92 66.73 66.90 67.66 66.37 65.42 66.02 66.04 65.16 64.89 65.44 62.01 61.06 58.71 60.58 63.09 63.82 63.38 63.72 64.15 63.44
39.23 39.88 39.93 38.64 38.89 38.35 38.40 39.30 39.49 40.22 41.35 42.59 43.42 45.13 47.15 48.03 49.02 51.18 53.42 56.13 59.38 64.76 66.97 66.88 66.73 67.09 67.02 65.20 65.94 66.52 65.41 63.69 64.52 63.61 60.17 56.40 55.64 58.28 61.31 62.91 63.24 62.93 63.17
38.32 38.05 36.90 36.31 35.91 35.82 36.58 36.99 37.54 37.50 39.34 40.09 39.40 39.34 40.57 42.69 46.01 47.70 50.43 51.85 55.06 58.28 62.96 66.89 67.06 66.42 66.99 66.53 64.78 66.95 66.52 64.76 63.08 63.86 63.84 59.82 58.71 55.74 54.83 59.93 63.13 62.00 61.73
35.84 35.38 34.93 34.53 35.11 35.12 34.55 34.95 35.38 36.47 36.78 36.76 37.43 36.98 37.67 41.84 44.03 45.27 45.97 48.09 51.19 55.23 59.13 62.76 66.06 66.79 66.26 67.19 66.00 65.08 66.16 65.29 64.13 63.87 63.26 61.53 59.19 59.26 56.50 54.87 57.74 59.86 61.56
33.63 33.58 33.87 34.05 33.03 33.07 32.91 32.82 33.34 34.01 34.95 35.50 35.53 35.34 35.57 38.20 40.22 42.01 42.29 44.39 47.32 50.89 55.25 58.66 62.43 65.43 66.60 66.06 66.82 66.44 66.21 65.54 64.20 64.53 63.97 63.13 61.06 59.43 57.36 55.38 56.70 59.11 59.45
31.97 31.43 31.57 31.39 31.04 30.90 31.33 32.19 32.98 32.67 33.38 33.21 33.43 34.20 35.83 36.99 37.93 39.25 41.31 42.34 44.44 47.46 51.17 56.32 58.78 62.98 64.50 65.93 66.57 65.47 64.93 64.40 63.39 63.51 64.32 64.33 63.36 62.93 61.32 58.14 56.46 56.18 58.39
31.83 31.14 31.13 30.24 30.45 31.19 31.26 32.13 32.27 32.36 32.62 32.52 32.58 34.04 35.31 36.41 37.58 39.12 40.53 41.95 43.51 45.58 48.78 51.68 55.62 60.28 63.13 64.25 65.20 65.09 63.48 60.88 61.38 62.93 64.01 63.63 63.84 63.17 62.45 60.91 57.87 53.78 56.22
30.24 30.27 30.14 30.18 30.50 31.09 31.44 32.40 32.66 32.09 32.50 32.68 33.49 34.45 35.82 36.75 37.52 39.08 40.74 41.89 43.61 45.62 46.99 50.03 53.18 57.30 61.15 62.67 63.27 64.09 63.46 63.12 61.92 62.33 63.42 62.95 62.96 63.28 63.12 61.31 59.46 57.40 52.94
29.08 29.22 29.30 29.61 30.61 31.42 32.51 33.85 32.48 31.66 31.89 33.15 34.27 35.72 37.05 39.03 40.44 41.44 41.60 42.74 44.24 45.94 46.46 47.70 50.20 54.63 58.94 61.54 61.73 62.34 62.98 63.03 63.20 63.09 62.64 62.80 62.93 62.61 62.97 61.45 60.40 58.26 56.63
27.83 27.87 28.33 29.85 30.49 31.96 32.24 33.10 31.99 31.54 31.66 33.25 34.22 35.62 36.82 38.73 39.28 40.39 42.15 43.43 45.95 46.46 48.30 48.90 50.44 53.81 58.04 60.07 58.91 60.56 61.51 62.25 63.01 62.94 62.38 61.96 62.72 62.03 62.33 62.35 61.05 58.87 58.19
27.25 27.47 28.10 29.11 29.51 30.62 30.96 31.64 31.50 30.90 31.81 33.19 33.84 34.45 35.19 36.33 37.58 37.34 38.84 41.03 42.39 46.94 49.77 51.23 52.08 55.04 54.14 55.32 55.32 55.70 57.51 54.31 61.35 61.59 62.17 61.68 62.25 61.99 62.49 61.02 60.42 60.25 59.15
26.57 27.81 28.05 27.43 28.09 29.76 30.07 31.56 30.83 30.32 31.51 32.38 32.77 33.10 33.58 33.82 34.50 35.77 36.23 37.18 38.07 39.15 41.07 41.95 41.93 42.63 44.12 45.74 49.50 53.55 55.73 60.70 62.02 62.02 61.63 61.81 61.97 61.44 61.67 59.25 58.91 58.25 58.49
26.21 26.76 26.45 26.62 27.58 28.93 29.03 30.52 29.65 30.49 31.07 31.21 31.70 31.79 32.30 33.28 33.18 33.98 34.13 34.60 35.25 35.23 35.11 36.18 36.78 37.02 37.66 40.15 44.61 51.91 59.33 60.01 59.85 56.64 55.14 51.59 52.63 57.44 59.63 59.97 58.69 56.74 56.58
24.40 25.24 25.07 25.27 25.99 26.48 26.97 28.66 28.70 29.40 30.07 29.61 29.60 30.35 31.62 32.98 33.10 32.60 32.45 32.72 33.17 33.48 33.68 33.12 33.47 34.91 35.10 35.66 37.74 41.15 42.71 43.38 43.93 43.62 40.58 39.89 40.85 41.45 42.46 50.51 50.42 51.89 51.51
23.08 23.62 23.91 23.71 24.05 25.08 24.68 25.99 26.73 27.76 28.44 28.14 27.45 28.91 29.78 31.28 31.75 32.11 31.45 31.04 30.50 31.11 31.37 31.54 31.72 31.45 32.41 33.96 34.36 34.33 33.76 36.04 36.75 37.05 36.19 37.03 37.90 40.71 38.38 37.47 37.73 36.92 45.12
22.06 21.99 22.31 22.65 23.23 24.18 24.61 24.12 25.52 26.68 26.06 26.04 26.68 26.00 27.79 27.98 29.43 31.07 31.08 29.42 28.63 29.12 28.55 29.64 30.46 30.47 31.30 32.76 33.15 32.74 31.21 31.54 31.77 32.26 33.22 34.15 35.55 38.27 40.69 37.44 35.87 34.89 34.91
21.22 21.29 22.18 22.47 23.02 24.54 24.27 24.63 25.65 25.31 25.33 23.51 24.83 25.00 24.42 24.88 26.76 27.90 28.31 29.70 28.39 27.09 26.97 26.94 28.28 29.54 31.27 32.77 32.46 31.98 30.80 29.56 29.73 30.30 29.73 30.84 31.14 33.49 36.81 35.25 32.96 31.11 32.06
21.77 21.66 22.76 23.33 23.13 23.22 24.33 23.70 24.07 25.10 24.76 23.58 23.02 24.55 22.96 22.78 23.20 24.08 25.70 25.67 27.13 25.88 24.92 25.02 25.64 25.57 28.64 32.26 32.40 30.91 29.90 29.42 29.14 30.00 31.26 30.22 29.89 31.69 32.44 31.29 30.42 28.95 27.96
21.05 20.55 21.49 23.16 22.07 22.28 23.45 20.77 21.46 22.80 23.17 24.82 23.45 24.03 23.61 21.72 21.27 22.18 22.80 24.83 23.50 23.19 23.43 22.47 23.19 26.23 24.95 30.47 31.88 30.76 29.68 28.33 28.88 29.94 30.30 31.79 31.12 31.92 30.88 28.05 27.27 25.37 25.88
18.61 20.32 18.99 17.77 18.60 19.70 19.63 19.30 18.38 20.21 20.96 23.06 25.29 23.73 23.25 22.29 21.08 20.95 21.47 21.94 22.73 21.79 20.88 20.78 21.25 22.28 25.06 25.95 29.66 30.91 29.10 28.52 27.74 28.01 28.50 30.12 30.70 30.55 30.60 30.69 28.85 27.06 27.44
18.81 17.15 15.24 15.69 18.43 18.90 18.08 18.01 19.45 18.37 19.60 20.07 20.26 21.92 22.23 22.34 20.95 19.70 19.80 19.51 19.43 19.24 19.14 19.06 19.46 20.96 22.76 26.66 27.15 28.51 29.07 29.46 26.78 26.38 27.62 28.10 29.29 29.19 28.42 27.46 28.42 28.84 29.12
18.84 18.19 14.34 12.78 16.27 18.46 19.17 19.79 19.90 18.07 18.72 21.16 19.44 18.07 20.01 20.43 20.11 18.67 18.35 18.35 18.12 17.27 16.91 17.66 17.22 18.38 21.05 23.00 26.56 26.65 27.20 28.07 25.86 26.14 26.82 27.41 26.88 26.73 25.90 26.43 26.15 25.66 25.74
19.56 21.52 17.76 15.08 16.36 15.78 18.39 19.31 21.61 21.71 18.79 19.98 19.67 20.59 16.54 18.78 17.42 18.94 19.12 18.52 17.57 17.02 17.11 16.83 17.08 17.86 19.09 20.80 23.73 23.75 23.76 24.19 24.68 23.89 23.64 23.61 24.57 23.54 22.92 23.26 23.27 23.52 23.42
20.10 20.50 19.99 19.88 18.51 20.00 18.28 19.08 21.68 22.21 22.55 21.07 21.31 20.91 22.55 19.58 17.16 19.83 18.79 19.48 21.20 20.44 17.33 17.40 18.15 18.15 17.56 20.13 24.38 23.88 21.98 22.07 22.05 20.89 20.44 19.45 19.62 18.86 19.14 20.47 21.20 21.42 21.61
22.04 21.07 19.78 19.28 19.00 19.34 19.58 21.56 23.29 22.18 21.51 22.39 22.29 20.82 21.43 20.99 21.46 20.23 19.74 25.83 24.75 24.44 23.48 22.86 21.85 20.13 23.47 23.28 22.88 23.28 23.16 22.62 22.48 17.63 15.20 14.65 15.25 15.80 16.31 16.47 17.39 19.31 19.21

GFSMW_sfc_wetblb_126.txt.gz
Wetbulb
40.12 39.98 39.32 38.86 38.05 37.81 37.76 38.28 38.25 38.98 40.03 40.55 40.14 41.53 42.61 44.94 47.26 49.16 51.38 54.60 57.84 58.68 60.14 65.91 62.99 65.55 66.26 66.31 66.22 65.84 65.25 65.27 65.30 62.68 60.22 60.72 62.09 63.42 63.70 64.05 63.43 64.20 63.96
36.72 37.34 36.77 35.87 35.39 35.18 35.37 36.19 36.27 36.69 37.40 38.79 38.96 40.05 40.75 43.00 44.68 47.32 49.36 51.65 53.23 54.63 56.67 57.89 65.02 63.61 65.68 65.55 64.88 64.91 64.58 64.94 64.73 62.37 60.36 57.47 59.33 61.75 63.34 63.75 63.45 62.87 63.92
33.55 34.02 34.13 33.44 33.73 33.17 33.12 34.41 34.53 34.90 36.41 37.05 36.61 37.27 38.25 39.41 40.83 43.44 44.92 47.62 49.31 50.02 52.50 54.43 57.90 63.85 62.06 61.29 64.80 65.32 64.59 62.70 64.57 63.85 59.66 57.71 57.52 58.60 60.52 62.56 63.33 62.76 62.70
33.06 33.04 32.45 32.11 31.95 32.07 32.69 33.12 33.51 33.96 35.63 35.32 34.45 34.23 33.86 33.50 36.48 38.76 42.26 43.74 46.57 48.08 50.27 52.89 55.70 58.55 63.70 63.26 64.33 65.42 65.11 64.24 62.34 63.77 64.22 59.96 58.10 56.56 55.58 59.78 62.51 63.01 62.52
31.55 31.08 31.34 31.49 31.54 31.82 31.35 32.09 32.77 33.43 34.08 34.44 33.78 33.15 32.70 34.09 35.61 37.15 38.71 41.21 43.13 44.73 47.10 50.30 52.67 55.85 59.79 63.47 64.07 64.66 63.95 64.68 63.58 62.93 62.29 60.12 58.06 57.14 55.32 53.53 59.23 62.08 62.62
31.04 31.64 31.64 31.57 30.88 31.63 31.98 32.13 32.46 32.72 33.66 33.03 32.89 32.18 31.40 31.95 32.93 34.76 35.81 37.74 40.52 42.68 45.09 47.85 51.28 55.50 57.61 58.70 63.22 64.30 64.68 64.25 64.30 64.35 63.76 62.13 59.73 57.76 56.46 53.76 56.06 59.01 60.72
30.05 29.56 28.94 28.88 29.86 30.23 31.33 32.46 33.00 32.08 32.56 32.77 32.48 32.30 32.54 32.53 32.62 33.85 35.67 36.82 38.18 39.82 42.09 45.37 47.51 50.79 53.60 56.91 60.46 62.94 63.37 63.96 63.38 63.62 63.12 63.00 62.51 61.58 59.18 56.93 54.99 55.20 56.48
28.86 28.69 28.75 28.76 29.39 30.40 31.21 32.61 32.26 31.67 31.96 31.99 32.11 33.63 34.83 35.18 35.80 36.56 37.52 38.25 39.50 40.34 42.29 43.37 44.75 46.59 49.69 51.88 55.27 61.00 62.80 62.91 63.14 62.65 59.70 58.90 58.94 62.84 61.04 59.57 55.73 52.63 54.06
27.47 27.64 28.27 29.12 29.50 29.83 31.11 32.90 31.39 31.62 31.66 31.92 33.36 34.03 35.88 36.66 37.53 38.37 39.04 39.54 40.95 42.22 43.26 44.12 44.97 46.66 48.28 51.11 54.23 58.73 60.84 60.66 59.89 60.20 58.61 57.63 57.99 58.17 63.01 60.83 59.62 57.76 51.71
26.63 27.08 27.66 28.51 29.27 30.59 30.66 33.07 31.74 30.87 31.68 32.35 33.56 34.62 35.50 36.37 37.83 39.48 40.02 41.55 43.52 44.20 44.69 45.09 46.07 46.96 47.50 48.79 51.99 56.17 59.92 59.82 58.40 58.59 57.81 58.31 57.29 59.33 59.74 62.06 62.14 58.37 58.01
25.30 26.22 27.11 27.33 28.07 29.58 29.44 31.54 30.53 30.54 30.92 31.80 33.28 34.17 34.67 35.54 36.42 36.86 37.74 38.50 40.22 41.85 44.94 47.18 47.11 47.65 48.77 49.38 51.57 55.15 58.87 59.17 59.17 58.57 57.98 58.09 59.34 59.61 58.49 58.63 61.70 60.94 57.86
25.32 25.68 26.05 25.92 26.73 27.48 27.91 29.24 29.38 29.45 30.05 31.50 32.14 33.12 34.75 34.32 34.28 34.53 35.80 37.10 36.95 38.03 38.76 40.07 41.12 43.10 44.49 47.78 49.95 52.33 57.77 58.54 57.62 57.54 59.87 60.27 60.98 60.56 60.04 58.25 60.24 60.89 59.86
25.74 26.19 25.52 25.41 25.62 26.27 26.08 27.25 27.93 28.18 28.60 29.87 29.93 30.95 32.55 32.95 32.67 32.88 33.69 34.82 35.20 35.42 35.64 36.61 37.13 37.40 38.54 42.95 46.19 48.81 53.15 53.37 53.32 52.61 55.07 56.08 54.57 58.12 60.89 61.20 61.07 60.85 60.23
25.30 25.34 24.17 24.35 24.89 25.57 25.10 25.78 26.71 27.78 27.30 28.61 27.73 28.31 29.43 31.87 31.84 32.10 31.87 31.92 32.97 33.26 33.73 34.13 34.90 35.44 35.74 36.85 38.53 40.27 42.28 41.85 41.37 41.46 41.04 42.30 45.20 51.64 60.40 60.75 60.73 60.05 59.03
23.56 23.06 22.81 23.18 23.82 24.54 24.55 25.54 26.27 26.63 26.21 26.61 25.83 25.59 27.61 30.00 31.54 30.58 30.08 30.37 30.03 31.05 32.04 32.53 33.04 33.62 33.65 34.28 35.36 35.65 35.56 35.74 36.53 37.04 37.89 38.55 39.44 38.63 40.13 53.64 49.91 57.41 58.57
22.23 22.10 22.23 22.46 22.82 24.00 23.98 24.95 25.52 25.59 25.21 24.45 24.03 24.48 25.43 26.85 28.03 29.65 28.68 27.89 27.95 28.18 27.96 29.87 31.05 31.03 32.28 33.76 33.63 33.82 33.51 32.96 32.80 32.93 34.44 35.86 37.78 38.44 36.11 36.57 36.87 37.28 44.75
21.14 21.22 21.49 21.85 22.49 23.10 24.42 23.48 24.78 25.73 23.75 22.95 23.16 22.28 22.98 23.16 25.24 25.52 26.33 25.39 24.54 24.99 25.89 26.35 28.38 30.02 31.16 33.18 32.99 32.36 31.32 30.92 30.99 31.10 31.55 32.23 33.49 35.52 36.08 34.82 34.45 33.61 33.93
20.54 20.87 21.60 22.21 22.63 23.34 23.97 24.39 24.91 24.91 24.27 22.77 22.31 21.98 21.09 20.52 21.94 23.50 22.44 23.03 22.89 22.57 22.87 24.70 25.73 28.09 30.72 32.63 32.57 31.96 30.76 30.07 29.94 30.26 30.45 30.53 30.92 31.93 32.77 32.44 30.85 29.61 30.90
21.16 21.15 21.82 22.88 22.57 22.46 23.75 23.48 23.46 23.84 23.97 22.72 22.28 22.39 21.18 19.58 19.32 19.45 21.14 21.42 21.06 20.69 21.01 22.61 24.56 24.70 28.17 31.58 31.69 30.36 29.61 29.01 29.11 29.45 30.14 29.58 29.66 31.85 32.05 29.19 28.54 27.38 26.85
21.34 20.50 20.74 22.26 20.47 20.30 22.35 19.58 20.19 21.74 21.11 22.32 22.43 22.71 22.37 20.86 19.24 18.60 18.98 19.81 20.46 20.28 20.92 20.75 22.59 26.01 24.77 30.20 30.70 28.84 27.79 26.56 26.83 27.64 28.40 30.15 28.95 29.98 29.91 28.39 27.85 25.81 25.77
18.47 18.90 16.98 15.03 15.05 16.75 18.86 17.78 17.87 17.86 16.95 19.24 21.88 21.68 21.64 21.26 20.83 20.46 20.07 19.58 19.59 19.72 19.92 20.12 21.38 22.45 25.37 26.05 28.74 28.56 26.01 25.21 25.17 24.44 24.63 26.31 27.92 28.07 28.27 28.04 26.49 26.42 28.64
17.30 14.57 14.08 12.66 14.82 16.12 15.46 16.56 16.86 15.29 15.08 14.03 14.52 16.55 17.92 19.93 19.75 19.27 19.67 19.43 19.13 18.78 18.98 19.15 19.84 21.53 23.58 25.93 26.34 26.35 26.26 25.62 23.30 22.99 23.97 24.52 26.17 26.11 25.98 25.03 26.27 26.27 25.78
16.95 16.21 11.22 12.72 13.36 15.04 16.11 16.65 16.36 16.44 16.86 17.84 15.08 9.38 13.62 16.43 16.19 17.43 17.91 17.77 17.75 17.62 17.99 18.48 17.79 18.50 21.24 22.90 24.25 25.07 24.30 23.59 21.32 22.07 23.27 23.35 23.24 23.83 23.01 24.46 24.00 22.93 23.06
19.08 18.69 17.40 14.12 13.77 13.61 17.25 16.70 19.09 19.05 18.60 19.15 19.00 19.82 16.98 16.63 15.24 17.76 19.70 18.70 17.50 16.60 17.25 17.63 17.65 17.50 17.79 19.66 20.68 20.41 20.68 20.02 18.99 18.78 18.68 19.18 20.42 18.44 18.29 19.18 20.28 20.24 20.99
21.14 20.34 19.09 18.38 16.94 18.33 17.13 16.99 19.50 20.74 21.73 19.73 19.44 19.46 20.51 18.16 18.43 20.55 20.91 20.02 20.30 19.39 17.40 18.26 17.88 17.46 15.71 17.57 21.01 20.09 18.35 18.09 17.51 15.28 14.55 13.73 13.97 13.56 14.59 14.86 16.40 16.56 17.12
20.74 18.97 18.39 17.88 17.57 18.07 18.38 19.97 21.90 21.28 20.47 21.41 19.95 18.39 18.58 18.69 18.56 16.29 16.36 23.13 23.03 22.70 22.00 23.36 21.00 18.19 21.41 20.92 20.47 20.09 19.90 19.07 18.28 13.16 10.23 8.99 9.73 9.93 10.94 11.29 12.07 13.35 13.01